<?xml version="1.0" encoding="UTF-8" standalone="no" ?>
<gpx xmlns="http://www.topografix.com/GPX/1/1" xmlns:xsi="http://www.w3.org/2001/XMLSchema-instance" xsi:schemaLocation="http://www.topografix.com/GPX/1/1 http://www.topografix.com/GPX/1/1/gpx.xsd" version="1.1" creator="VisuGPX - https://www.visugpx.com">
  <metadata>
    <name>Sortie de 24 km en dessus de PIGNAN</name>
    <desc><![CDATA[Petite sortie de remise en forme, avec pas mal de fractionné, de monotraces et du fun.]]></desc>
  </metadata>
  <trk>
    <name><![CDATA[2011-01-09-01]]></name>
    <trkseg>
      <trkpt lat="43.58104" lon="3.74711">
        <ele>69.5</ele>
        <time>2011-01-09T08:14:37Z</time>
      </trkpt>
      <trkpt lat="43.58104" lon="3.74712">
        <ele>69.4</ele>
        <time>2011-01-09T08:14:38Z</time>
      </trkpt>
      <trkpt lat="43.58111" lon="3.74704">
        <ele>70.9</ele>
        <time>2011-01-09T08:19:27Z</time>
      </trkpt>
      <trkpt lat="43.58123" lon="3.74716">
        <ele>71.1</ele>
        <time>2011-01-09T08:19:44Z</time>
      </trkpt>
      <trkpt lat="43.58128" lon="3.74724">
        <ele>71.1</ele>
        <time>2011-01-09T08:19:47Z</time>
      </trkpt>
      <trkpt lat="43.58135" lon="3.74731">
        <ele>71.2</ele>
        <time>2011-01-09T08:19:50Z</time>
      </trkpt>
      <trkpt lat="43.58141" lon="3.74737">
        <ele>71.4</ele>
        <time>2011-01-09T08:19:53Z</time>
      </trkpt>
      <trkpt lat="43.58148" lon="3.74742">
        <ele>71.7</ele>
        <time>2011-01-09T08:19:56Z</time>
      </trkpt>
      <trkpt lat="43.58155" lon="3.74748">
        <ele>72</ele>
        <time>2011-01-09T08:19:59Z</time>
      </trkpt>
      <trkpt lat="43.58162" lon="3.74753">
        <ele>72.4</ele>
        <time>2011-01-09T08:20:02Z</time>
      </trkpt>
      <trkpt lat="43.58165" lon="3.74763">
        <ele>72.1</ele>
        <time>2011-01-09T08:20:05Z</time>
      </trkpt>
      <trkpt lat="43.58163" lon="3.74773">
        <ele>71.5</ele>
        <time>2011-01-09T08:20:07Z</time>
      </trkpt>
      <trkpt lat="43.5816" lon="3.74783">
        <ele>70.7</ele>
        <time>2011-01-09T08:20:09Z</time>
      </trkpt>
      <trkpt lat="43.58158" lon="3.74789">
        <ele>70.2</ele>
        <time>2011-01-09T08:20:10Z</time>
      </trkpt>
      <trkpt lat="43.58156" lon="3.74796">
        <ele>69.7</ele>
        <time>2011-01-09T08:20:11Z</time>
      </trkpt>
      <trkpt lat="43.58154" lon="3.74803">
        <ele>69.2</ele>
        <time>2011-01-09T08:20:12Z</time>
      </trkpt>
      <trkpt lat="43.58152" lon="3.7481">
        <ele>68.6</ele>
        <time>2011-01-09T08:20:13Z</time>
      </trkpt>
      <trkpt lat="43.5815" lon="3.74818">
        <ele>68</ele>
        <time>2011-01-09T08:20:14Z</time>
      </trkpt>
      <trkpt lat="43.58147" lon="3.74826">
        <ele>67.4</ele>
        <time>2011-01-09T08:20:15Z</time>
      </trkpt>
      <trkpt lat="43.58145" lon="3.74835">
        <ele>66.8</ele>
        <time>2011-01-09T08:20:16Z</time>
      </trkpt>
      <trkpt lat="43.58142" lon="3.74844">
        <ele>65.9</ele>
        <time>2011-01-09T08:20:17Z</time>
      </trkpt>
      <trkpt lat="43.5814" lon="3.74852">
        <ele>65.1</ele>
        <time>2011-01-09T08:20:18Z</time>
      </trkpt>
      <trkpt lat="43.58137" lon="3.74861">
        <ele>64.2</ele>
        <time>2011-01-09T08:20:19Z</time>
      </trkpt>
      <trkpt lat="43.58135" lon="3.74868">
        <ele>63.5</ele>
        <time>2011-01-09T08:20:20Z</time>
      </trkpt>
      <trkpt lat="43.58131" lon="3.74876">
        <ele>62.6</ele>
        <time>2011-01-09T08:20:21Z</time>
      </trkpt>
      <trkpt lat="43.58124" lon="3.7488">
        <ele>61.8</ele>
        <time>2011-01-09T08:20:22Z</time>
      </trkpt>
      <trkpt lat="43.58116" lon="3.74883">
        <ele>61.1</ele>
        <time>2011-01-09T08:20:23Z</time>
      </trkpt>
      <trkpt lat="43.58108" lon="3.74885">
        <ele>60.3</ele>
        <time>2011-01-09T08:20:24Z</time>
      </trkpt>
      <trkpt lat="43.581" lon="3.74887">
        <ele>59.6</ele>
        <time>2011-01-09T08:20:25Z</time>
      </trkpt>
      <trkpt lat="43.58093" lon="3.74889">
        <ele>59</ele>
        <time>2011-01-09T08:20:26Z</time>
      </trkpt>
      <trkpt lat="43.58088" lon="3.74891">
        <ele>58.5</ele>
        <time>2011-01-09T08:20:27Z</time>
      </trkpt>
      <trkpt lat="43.58083" lon="3.74894">
        <ele>58.1</ele>
        <time>2011-01-09T08:20:28Z</time>
      </trkpt>
      <trkpt lat="43.5808" lon="3.74905">
        <ele>57.4</ele>
        <time>2011-01-09T08:20:30Z</time>
      </trkpt>
      <trkpt lat="43.58084" lon="3.74914">
        <ele>57.2</ele>
        <time>2011-01-09T08:20:32Z</time>
      </trkpt>
      <trkpt lat="43.58089" lon="3.74923">
        <ele>57.3</ele>
        <time>2011-01-09T08:20:34Z</time>
      </trkpt>
      <trkpt lat="43.58093" lon="3.74934">
        <ele>57.4</ele>
        <time>2011-01-09T08:20:36Z</time>
      </trkpt>
      <trkpt lat="43.58096" lon="3.7494">
        <ele>57.5</ele>
        <time>2011-01-09T08:20:37Z</time>
      </trkpt>
      <trkpt lat="43.58098" lon="3.74945">
        <ele>57.5</ele>
        <time>2011-01-09T08:20:38Z</time>
      </trkpt>
      <trkpt lat="43.58101" lon="3.74951">
        <ele>57.6</ele>
        <time>2011-01-09T08:20:39Z</time>
      </trkpt>
      <trkpt lat="43.58103" lon="3.74957">
        <ele>57.7</ele>
        <time>2011-01-09T08:20:40Z</time>
      </trkpt>
      <trkpt lat="43.58106" lon="3.74963">
        <ele>57.8</ele>
        <time>2011-01-09T08:20:41Z</time>
      </trkpt>
      <trkpt lat="43.58109" lon="3.74969">
        <ele>57.9</ele>
        <time>2011-01-09T08:20:42Z</time>
      </trkpt>
      <trkpt lat="43.58112" lon="3.74975">
        <ele>58</ele>
        <time>2011-01-09T08:20:43Z</time>
      </trkpt>
      <trkpt lat="43.58114" lon="3.7498">
        <ele>58.1</ele>
        <time>2011-01-09T08:20:44Z</time>
      </trkpt>
      <trkpt lat="43.58117" lon="3.74987">
        <ele>58.2</ele>
        <time>2011-01-09T08:20:45Z</time>
      </trkpt>
      <trkpt lat="43.5812" lon="3.74993">
        <ele>58.3</ele>
        <time>2011-01-09T08:20:46Z</time>
      </trkpt>
      <trkpt lat="43.58122" lon="3.74999">
        <ele>58.4</ele>
        <time>2011-01-09T08:20:47Z</time>
      </trkpt>
      <trkpt lat="43.58125" lon="3.75005">
        <ele>58.5</ele>
        <time>2011-01-09T08:20:48Z</time>
      </trkpt>
      <trkpt lat="43.58128" lon="3.75011">
        <ele>58.7</ele>
        <time>2011-01-09T08:20:49Z</time>
      </trkpt>
      <trkpt lat="43.58131" lon="3.75017">
        <ele>58.9</ele>
        <time>2011-01-09T08:20:50Z</time>
      </trkpt>
      <trkpt lat="43.58133" lon="3.75022">
        <ele>59</ele>
        <time>2011-01-09T08:20:51Z</time>
      </trkpt>
      <trkpt lat="43.58136" lon="3.75028">
        <ele>59.2</ele>
        <time>2011-01-09T08:20:52Z</time>
      </trkpt>
      <trkpt lat="43.58139" lon="3.75034">
        <ele>59.3</ele>
        <time>2011-01-09T08:20:53Z</time>
      </trkpt>
      <trkpt lat="43.58142" lon="3.75039">
        <ele>59.5</ele>
        <time>2011-01-09T08:20:54Z</time>
      </trkpt>
      <trkpt lat="43.58145" lon="3.75044">
        <ele>59.6</ele>
        <time>2011-01-09T08:20:55Z</time>
      </trkpt>
      <trkpt lat="43.58148" lon="3.7505">
        <ele>59.7</ele>
        <time>2011-01-09T08:20:56Z</time>
      </trkpt>
      <trkpt lat="43.58151" lon="3.75056">
        <ele>59.8</ele>
        <time>2011-01-09T08:20:57Z</time>
      </trkpt>
      <trkpt lat="43.58154" lon="3.75062">
        <ele>59.8</ele>
        <time>2011-01-09T08:20:58Z</time>
      </trkpt>
      <trkpt lat="43.58156" lon="3.75068">
        <ele>59.9</ele>
        <time>2011-01-09T08:20:59Z</time>
      </trkpt>
      <trkpt lat="43.58159" lon="3.75075">
        <ele>59.9</ele>
        <time>2011-01-09T08:21:00Z</time>
      </trkpt>
      <trkpt lat="43.58162" lon="3.75081">
        <ele>59.9</ele>
        <time>2011-01-09T08:21:01Z</time>
      </trkpt>
      <trkpt lat="43.58165" lon="3.75087">
        <ele>59.8</ele>
        <time>2011-01-09T08:21:02Z</time>
      </trkpt>
      <trkpt lat="43.58168" lon="3.75094">
        <ele>59.7</ele>
        <time>2011-01-09T08:21:03Z</time>
      </trkpt>
      <trkpt lat="43.58171" lon="3.751">
        <ele>59.5</ele>
        <time>2011-01-09T08:21:04Z</time>
      </trkpt>
      <trkpt lat="43.58173" lon="3.75107">
        <ele>59.4</ele>
        <time>2011-01-09T08:21:05Z</time>
      </trkpt>
      <trkpt lat="43.58176" lon="3.75113">
        <ele>59.2</ele>
        <time>2011-01-09T08:21:06Z</time>
      </trkpt>
      <trkpt lat="43.58179" lon="3.7512">
        <ele>59.1</ele>
        <time>2011-01-09T08:21:07Z</time>
      </trkpt>
      <trkpt lat="43.58182" lon="3.75126">
        <ele>58.9</ele>
        <time>2011-01-09T08:21:08Z</time>
      </trkpt>
      <trkpt lat="43.58185" lon="3.75133">
        <ele>58.7</ele>
        <time>2011-01-09T08:21:09Z</time>
      </trkpt>
      <trkpt lat="43.58188" lon="3.7514">
        <ele>58.6</ele>
        <time>2011-01-09T08:21:10Z</time>
      </trkpt>
      <trkpt lat="43.58191" lon="3.75146">
        <ele>58.4</ele>
        <time>2011-01-09T08:21:11Z</time>
      </trkpt>
      <trkpt lat="43.58193" lon="3.75153">
        <ele>58.2</ele>
        <time>2011-01-09T08:21:12Z</time>
      </trkpt>
      <trkpt lat="43.58196" lon="3.75159">
        <ele>58</ele>
        <time>2011-01-09T08:21:13Z</time>
      </trkpt>
      <trkpt lat="43.58199" lon="3.75166">
        <ele>57.8</ele>
        <time>2011-01-09T08:21:14Z</time>
      </trkpt>
      <trkpt lat="43.58202" lon="3.75172">
        <ele>57.6</ele>
        <time>2011-01-09T08:21:15Z</time>
      </trkpt>
      <trkpt lat="43.58205" lon="3.75179">
        <ele>57.4</ele>
        <time>2011-01-09T08:21:16Z</time>
      </trkpt>
      <trkpt lat="43.58208" lon="3.75185">
        <ele>57.2</ele>
        <time>2011-01-09T08:21:17Z</time>
      </trkpt>
      <trkpt lat="43.5821" lon="3.75191">
        <ele>57</ele>
        <time>2011-01-09T08:21:18Z</time>
      </trkpt>
      <trkpt lat="43.58213" lon="3.75198">
        <ele>56.8</ele>
        <time>2011-01-09T08:21:19Z</time>
      </trkpt>
      <trkpt lat="43.58216" lon="3.75204">
        <ele>56.7</ele>
        <time>2011-01-09T08:21:20Z</time>
      </trkpt>
      <trkpt lat="43.58219" lon="3.7521">
        <ele>56.5</ele>
        <time>2011-01-09T08:21:21Z</time>
      </trkpt>
      <trkpt lat="43.58221" lon="3.75217">
        <ele>56.3</ele>
        <time>2011-01-09T08:21:22Z</time>
      </trkpt>
      <trkpt lat="43.58224" lon="3.75223">
        <ele>56.1</ele>
        <time>2011-01-09T08:21:23Z</time>
      </trkpt>
      <trkpt lat="43.58227" lon="3.75229">
        <ele>56</ele>
        <time>2011-01-09T08:21:24Z</time>
      </trkpt>
      <trkpt lat="43.5823" lon="3.75236">
        <ele>55.8</ele>
        <time>2011-01-09T08:21:25Z</time>
      </trkpt>
      <trkpt lat="43.58232" lon="3.75242">
        <ele>55.7</ele>
        <time>2011-01-09T08:21:26Z</time>
      </trkpt>
      <trkpt lat="43.58235" lon="3.75248">
        <ele>55.5</ele>
        <time>2011-01-09T08:21:27Z</time>
      </trkpt>
      <trkpt lat="43.58238" lon="3.75255">
        <ele>55.5</ele>
        <time>2011-01-09T08:21:28Z</time>
      </trkpt>
      <trkpt lat="43.58241" lon="3.75261">
        <ele>55.4</ele>
        <time>2011-01-09T08:21:29Z</time>
      </trkpt>
      <trkpt lat="43.58244" lon="3.75268">
        <ele>55.4</ele>
        <time>2011-01-09T08:21:30Z</time>
      </trkpt>
      <trkpt lat="43.58247" lon="3.75275">
        <ele>55.3</ele>
        <time>2011-01-09T08:21:31Z</time>
      </trkpt>
      <trkpt lat="43.5825" lon="3.75281">
        <ele>55.2</ele>
        <time>2011-01-09T08:21:32Z</time>
      </trkpt>
      <trkpt lat="43.58252" lon="3.75288">
        <ele>55.2</ele>
        <time>2011-01-09T08:21:33Z</time>
      </trkpt>
      <trkpt lat="43.58255" lon="3.75294">
        <ele>55.2</ele>
        <time>2011-01-09T08:21:34Z</time>
      </trkpt>
      <trkpt lat="43.58258" lon="3.75301">
        <ele>55.2</ele>
        <time>2011-01-09T08:21:35Z</time>
      </trkpt>
      <trkpt lat="43.58261" lon="3.75307">
        <ele>55.2</ele>
        <time>2011-01-09T08:21:36Z</time>
      </trkpt>
      <trkpt lat="43.58264" lon="3.75314">
        <ele>55.2</ele>
        <time>2011-01-09T08:21:37Z</time>
      </trkpt>
      <trkpt lat="43.58266" lon="3.7532">
        <ele>55.2</ele>
        <time>2011-01-09T08:21:38Z</time>
      </trkpt>
      <trkpt lat="43.58269" lon="3.75326">
        <ele>55.1</ele>
        <time>2011-01-09T08:21:39Z</time>
      </trkpt>
      <trkpt lat="43.58272" lon="3.75333">
        <ele>55.1</ele>
        <time>2011-01-09T08:21:40Z</time>
      </trkpt>
      <trkpt lat="43.58275" lon="3.7534">
        <ele>55</ele>
        <time>2011-01-09T08:21:41Z</time>
      </trkpt>
      <trkpt lat="43.58278" lon="3.75346">
        <ele>55</ele>
        <time>2011-01-09T08:21:42Z</time>
      </trkpt>
      <trkpt lat="43.58281" lon="3.75352">
        <ele>54.9</ele>
        <time>2011-01-09T08:21:43Z</time>
      </trkpt>
      <trkpt lat="43.58283" lon="3.75359">
        <ele>54.9</ele>
        <time>2011-01-09T08:21:44Z</time>
      </trkpt>
      <trkpt lat="43.58286" lon="3.75365">
        <ele>54.8</ele>
        <time>2011-01-09T08:21:45Z</time>
      </trkpt>
      <trkpt lat="43.58289" lon="3.75372">
        <ele>54.7</ele>
        <time>2011-01-09T08:21:46Z</time>
      </trkpt>
      <trkpt lat="43.58291" lon="3.75378">
        <ele>54.6</ele>
        <time>2011-01-09T08:21:47Z</time>
      </trkpt>
      <trkpt lat="43.58294" lon="3.75384">
        <ele>54.6</ele>
        <time>2011-01-09T08:21:48Z</time>
      </trkpt>
      <trkpt lat="43.58297" lon="3.7539">
        <ele>54.5</ele>
        <time>2011-01-09T08:21:49Z</time>
      </trkpt>
      <trkpt lat="43.583" lon="3.75397">
        <ele>54.4</ele>
        <time>2011-01-09T08:21:50Z</time>
      </trkpt>
      <trkpt lat="43.58302" lon="3.75403">
        <ele>54.3</ele>
        <time>2011-01-09T08:21:51Z</time>
      </trkpt>
      <trkpt lat="43.58305" lon="3.75409">
        <ele>54.2</ele>
        <time>2011-01-09T08:21:52Z</time>
      </trkpt>
      <trkpt lat="43.58308" lon="3.75415">
        <ele>54.1</ele>
        <time>2011-01-09T08:21:53Z</time>
      </trkpt>
      <trkpt lat="43.58311" lon="3.75421">
        <ele>54.1</ele>
        <time>2011-01-09T08:21:54Z</time>
      </trkpt>
      <trkpt lat="43.58313" lon="3.75427">
        <ele>54.1</ele>
        <time>2011-01-09T08:21:55Z</time>
      </trkpt>
      <trkpt lat="43.58316" lon="3.75433">
        <ele>54</ele>
        <time>2011-01-09T08:21:56Z</time>
      </trkpt>
      <trkpt lat="43.58318" lon="3.7544">
        <ele>54</ele>
        <time>2011-01-09T08:21:57Z</time>
      </trkpt>
      <trkpt lat="43.58321" lon="3.75446">
        <ele>54</ele>
        <time>2011-01-09T08:21:58Z</time>
      </trkpt>
      <trkpt lat="43.58324" lon="3.75452">
        <ele>53.9</ele>
        <time>2011-01-09T08:21:59Z</time>
      </trkpt>
      <trkpt lat="43.58327" lon="3.75458">
        <ele>53.8</ele>
        <time>2011-01-09T08:22:00Z</time>
      </trkpt>
      <trkpt lat="43.58329" lon="3.75464">
        <ele>53.8</ele>
        <time>2011-01-09T08:22:01Z</time>
      </trkpt>
      <trkpt lat="43.58332" lon="3.75471">
        <ele>53.7</ele>
        <time>2011-01-09T08:22:02Z</time>
      </trkpt>
      <trkpt lat="43.58335" lon="3.75477">
        <ele>53.6</ele>
        <time>2011-01-09T08:22:03Z</time>
      </trkpt>
      <trkpt lat="43.58338" lon="3.75483">
        <ele>53.6</ele>
        <time>2011-01-09T08:22:04Z</time>
      </trkpt>
      <trkpt lat="43.58341" lon="3.75489">
        <ele>53.6</ele>
        <time>2011-01-09T08:22:05Z</time>
      </trkpt>
      <trkpt lat="43.58343" lon="3.75495">
        <ele>53.6</ele>
        <time>2011-01-09T08:22:06Z</time>
      </trkpt>
      <trkpt lat="43.58346" lon="3.75501">
        <ele>53.6</ele>
        <time>2011-01-09T08:22:07Z</time>
      </trkpt>
      <trkpt lat="43.58349" lon="3.75508">
        <ele>53.6</ele>
        <time>2011-01-09T08:22:08Z</time>
      </trkpt>
      <trkpt lat="43.58352" lon="3.75514">
        <ele>53.6</ele>
        <time>2011-01-09T08:22:09Z</time>
      </trkpt>
      <trkpt lat="43.58355" lon="3.7552">
        <ele>53.7</ele>
        <time>2011-01-09T08:22:10Z</time>
      </trkpt>
      <trkpt lat="43.58358" lon="3.75525">
        <ele>53.7</ele>
        <time>2011-01-09T08:22:11Z</time>
      </trkpt>
      <trkpt lat="43.58361" lon="3.75531">
        <ele>53.7</ele>
        <time>2011-01-09T08:22:12Z</time>
      </trkpt>
      <trkpt lat="43.58364" lon="3.75537">
        <ele>53.7</ele>
        <time>2011-01-09T08:22:13Z</time>
      </trkpt>
      <trkpt lat="43.58366" lon="3.75543">
        <ele>53.7</ele>
        <time>2011-01-09T08:22:14Z</time>
      </trkpt>
      <trkpt lat="43.58369" lon="3.75549">
        <ele>53.6</ele>
        <time>2011-01-09T08:22:15Z</time>
      </trkpt>
      <trkpt lat="43.58372" lon="3.75555">
        <ele>53.6</ele>
        <time>2011-01-09T08:22:16Z</time>
      </trkpt>
      <trkpt lat="43.58375" lon="3.75561">
        <ele>53.5</ele>
        <time>2011-01-09T08:22:17Z</time>
      </trkpt>
      <trkpt lat="43.58377" lon="3.75567">
        <ele>53.5</ele>
        <time>2011-01-09T08:22:18Z</time>
      </trkpt>
      <trkpt lat="43.5838" lon="3.75573">
        <ele>53.4</ele>
        <time>2011-01-09T08:22:19Z</time>
      </trkpt>
      <trkpt lat="43.58383" lon="3.75579">
        <ele>53.3</ele>
        <time>2011-01-09T08:22:20Z</time>
      </trkpt>
      <trkpt lat="43.58385" lon="3.75586">
        <ele>53.2</ele>
        <time>2011-01-09T08:22:21Z</time>
      </trkpt>
      <trkpt lat="43.58388" lon="3.75592">
        <ele>53.3</ele>
        <time>2011-01-09T08:22:22Z</time>
      </trkpt>
      <trkpt lat="43.5839" lon="3.75598">
        <ele>53.4</ele>
        <time>2011-01-09T08:22:23Z</time>
      </trkpt>
      <trkpt lat="43.58393" lon="3.75604">
        <ele>53.4</ele>
        <time>2011-01-09T08:22:24Z</time>
      </trkpt>
      <trkpt lat="43.58395" lon="3.7561">
        <ele>53.5</ele>
        <time>2011-01-09T08:22:25Z</time>
      </trkpt>
      <trkpt lat="43.58398" lon="3.75616">
        <ele>53.5</ele>
        <time>2011-01-09T08:22:26Z</time>
      </trkpt>
      <trkpt lat="43.584" lon="3.75623">
        <ele>53.6</ele>
        <time>2011-01-09T08:22:27Z</time>
      </trkpt>
      <trkpt lat="43.58403" lon="3.75629">
        <ele>53.7</ele>
        <time>2011-01-09T08:22:28Z</time>
      </trkpt>
      <trkpt lat="43.58405" lon="3.75635">
        <ele>53.7</ele>
        <time>2011-01-09T08:22:29Z</time>
      </trkpt>
      <trkpt lat="43.58408" lon="3.75641">
        <ele>53.8</ele>
        <time>2011-01-09T08:22:30Z</time>
      </trkpt>
      <trkpt lat="43.58411" lon="3.75647">
        <ele>53.9</ele>
        <time>2011-01-09T08:22:31Z</time>
      </trkpt>
      <trkpt lat="43.58413" lon="3.75653">
        <ele>53.9</ele>
        <time>2011-01-09T08:22:32Z</time>
      </trkpt>
      <trkpt lat="43.58416" lon="3.75659">
        <ele>54</ele>
        <time>2011-01-09T08:22:33Z</time>
      </trkpt>
      <trkpt lat="43.58419" lon="3.75665">
        <ele>54.1</ele>
        <time>2011-01-09T08:22:34Z</time>
      </trkpt>
      <trkpt lat="43.58421" lon="3.75672">
        <ele>54.2</ele>
        <time>2011-01-09T08:22:35Z</time>
      </trkpt>
      <trkpt lat="43.58424" lon="3.75678">
        <ele>54.2</ele>
        <time>2011-01-09T08:22:36Z</time>
      </trkpt>
      <trkpt lat="43.58427" lon="3.75684">
        <ele>54.2</ele>
        <time>2011-01-09T08:22:37Z</time>
      </trkpt>
      <trkpt lat="43.5843" lon="3.75691">
        <ele>54.3</ele>
        <time>2011-01-09T08:22:38Z</time>
      </trkpt>
      <trkpt lat="43.58432" lon="3.75697">
        <ele>54.3</ele>
        <time>2011-01-09T08:22:39Z</time>
      </trkpt>
      <trkpt lat="43.58435" lon="3.75703">
        <ele>54.4</ele>
        <time>2011-01-09T08:22:40Z</time>
      </trkpt>
      <trkpt lat="43.58438" lon="3.75709">
        <ele>54.4</ele>
        <time>2011-01-09T08:22:41Z</time>
      </trkpt>
      <trkpt lat="43.58441" lon="3.75715">
        <ele>54.4</ele>
        <time>2011-01-09T08:22:42Z</time>
      </trkpt>
      <trkpt lat="43.58445" lon="3.7572">
        <ele>54.5</ele>
        <time>2011-01-09T08:22:43Z</time>
      </trkpt>
      <trkpt lat="43.58448" lon="3.75726">
        <ele>54.5</ele>
        <time>2011-01-09T08:22:44Z</time>
      </trkpt>
      <trkpt lat="43.5845" lon="3.75732">
        <ele>54.5</ele>
        <time>2011-01-09T08:22:45Z</time>
      </trkpt>
      <trkpt lat="43.58453" lon="3.75738">
        <ele>54.5</ele>
        <time>2011-01-09T08:22:46Z</time>
      </trkpt>
      <trkpt lat="43.58456" lon="3.75744">
        <ele>54.5</ele>
        <time>2011-01-09T08:22:47Z</time>
      </trkpt>
      <trkpt lat="43.58458" lon="3.7575">
        <ele>54.5</ele>
        <time>2011-01-09T08:22:48Z</time>
      </trkpt>
      <trkpt lat="43.58461" lon="3.75755">
        <ele>54.6</ele>
        <time>2011-01-09T08:22:49Z</time>
      </trkpt>
      <trkpt lat="43.58469" lon="3.75759">
        <ele>54.8</ele>
        <time>2011-01-09T08:22:51Z</time>
      </trkpt>
      <trkpt lat="43.58475" lon="3.75756">
        <ele>55</ele>
        <time>2011-01-09T08:22:53Z</time>
      </trkpt>
      <trkpt lat="43.58479" lon="3.75745">
        <ele>55.4</ele>
        <time>2011-01-09T08:22:58Z</time>
      </trkpt>
      <trkpt lat="43.58477" lon="3.75733">
        <ele>55.5</ele>
        <time>2011-01-09T08:25:22Z</time>
      </trkpt>
      <trkpt lat="43.58476" lon="3.75733">
        <ele>55.5</ele>
        <time>2011-01-09T08:25:23Z</time>
      </trkpt>
      <trkpt lat="43.58485" lon="3.75736">
        <ele>55.8</ele>
        <time>2011-01-09T08:27:02Z</time>
      </trkpt>
      <trkpt lat="43.58477" lon="3.75731">
        <ele>55.6</ele>
        <time>2011-01-09T08:28:27Z</time>
      </trkpt>
      <trkpt lat="43.58484" lon="3.75741">
        <ele>55.6</ele>
        <time>2011-01-09T08:33:24Z</time>
      </trkpt>
      <trkpt lat="43.58471" lon="3.75749">
        <ele>55</ele>
        <time>2011-01-09T08:33:32Z</time>
      </trkpt>
      <trkpt lat="43.58463" lon="3.75743">
        <ele>54.8</ele>
        <time>2011-01-09T08:33:35Z</time>
      </trkpt>
      <trkpt lat="43.58457" lon="3.75737">
        <ele>54.7</ele>
        <time>2011-01-09T08:33:38Z</time>
      </trkpt>
      <trkpt lat="43.58452" lon="3.75729">
        <ele>54.6</ele>
        <time>2011-01-09T08:33:41Z</time>
      </trkpt>
      <trkpt lat="43.58447" lon="3.7572">
        <ele>54.6</ele>
        <time>2011-01-09T08:33:45Z</time>
      </trkpt>
      <trkpt lat="43.58442" lon="3.7571">
        <ele>54.5</ele>
        <time>2011-01-09T08:33:48Z</time>
      </trkpt>
      <trkpt lat="43.58438" lon="3.75703">
        <ele>54.5</ele>
        <time>2011-01-09T08:33:50Z</time>
      </trkpt>
      <trkpt lat="43.58434" lon="3.75695">
        <ele>54.4</ele>
        <time>2011-01-09T08:33:52Z</time>
      </trkpt>
      <trkpt lat="43.5843" lon="3.75687">
        <ele>54.4</ele>
        <time>2011-01-09T08:33:54Z</time>
      </trkpt>
      <trkpt lat="43.58426" lon="3.75678">
        <ele>54.3</ele>
        <time>2011-01-09T08:33:56Z</time>
      </trkpt>
      <trkpt lat="43.58422" lon="3.7567">
        <ele>54.2</ele>
        <time>2011-01-09T08:33:58Z</time>
      </trkpt>
      <trkpt lat="43.58418" lon="3.7566">
        <ele>54.1</ele>
        <time>2011-01-09T08:34:00Z</time>
      </trkpt>
      <trkpt lat="43.58414" lon="3.75651">
        <ele>53.9</ele>
        <time>2011-01-09T08:34:02Z</time>
      </trkpt>
      <trkpt lat="43.5841" lon="3.75641">
        <ele>53.8</ele>
        <time>2011-01-09T08:34:04Z</time>
      </trkpt>
      <trkpt lat="43.58406" lon="3.75631">
        <ele>53.7</ele>
        <time>2011-01-09T08:34:06Z</time>
      </trkpt>
      <trkpt lat="43.58401" lon="3.7562">
        <ele>53.6</ele>
        <time>2011-01-09T08:34:08Z</time>
      </trkpt>
      <trkpt lat="43.58399" lon="3.75615">
        <ele>53.6</ele>
        <time>2011-01-09T08:34:09Z</time>
      </trkpt>
      <trkpt lat="43.58397" lon="3.75609">
        <ele>53.5</ele>
        <time>2011-01-09T08:34:10Z</time>
      </trkpt>
      <trkpt lat="43.58394" lon="3.75603">
        <ele>53.5</ele>
        <time>2011-01-09T08:34:11Z</time>
      </trkpt>
      <trkpt lat="43.58392" lon="3.75598">
        <ele>53.4</ele>
        <time>2011-01-09T08:34:12Z</time>
      </trkpt>
      <trkpt lat="43.5839" lon="3.75592">
        <ele>53.4</ele>
        <time>2011-01-09T08:34:13Z</time>
      </trkpt>
      <trkpt lat="43.58388" lon="3.75586">
        <ele>53.3</ele>
        <time>2011-01-09T08:34:14Z</time>
      </trkpt>
      <trkpt lat="43.58385" lon="3.75581">
        <ele>53.3</ele>
        <time>2011-01-09T08:34:15Z</time>
      </trkpt>
      <trkpt lat="43.58383" lon="3.75575">
        <ele>53.4</ele>
        <time>2011-01-09T08:34:16Z</time>
      </trkpt>
      <trkpt lat="43.5838" lon="3.7557">
        <ele>53.5</ele>
        <time>2011-01-09T08:34:17Z</time>
      </trkpt>
      <trkpt lat="43.58378" lon="3.75565">
        <ele>53.5</ele>
        <time>2011-01-09T08:34:18Z</time>
      </trkpt>
      <trkpt lat="43.58376" lon="3.75559">
        <ele>53.6</ele>
        <time>2011-01-09T08:34:19Z</time>
      </trkpt>
      <trkpt lat="43.58373" lon="3.75554">
        <ele>53.7</ele>
        <time>2011-01-09T08:34:20Z</time>
      </trkpt>
      <trkpt lat="43.58371" lon="3.75548">
        <ele>53.7</ele>
        <time>2011-01-09T08:34:21Z</time>
      </trkpt>
      <trkpt lat="43.58368" lon="3.75543">
        <ele>53.7</ele>
        <time>2011-01-09T08:34:22Z</time>
      </trkpt>
      <trkpt lat="43.58366" lon="3.75537">
        <ele>53.8</ele>
        <time>2011-01-09T08:34:23Z</time>
      </trkpt>
      <trkpt lat="43.58363" lon="3.75531">
        <ele>53.8</ele>
        <time>2011-01-09T08:34:24Z</time>
      </trkpt>
      <trkpt lat="43.58361" lon="3.75526">
        <ele>53.8</ele>
        <time>2011-01-09T08:34:25Z</time>
      </trkpt>
      <trkpt lat="43.58358" lon="3.75521">
        <ele>53.8</ele>
        <time>2011-01-09T08:34:26Z</time>
      </trkpt>
      <trkpt lat="43.58355" lon="3.75516">
        <ele>53.7</ele>
        <time>2011-01-09T08:34:27Z</time>
      </trkpt>
      <trkpt lat="43.58352" lon="3.7551">
        <ele>53.7</ele>
        <time>2011-01-09T08:34:28Z</time>
      </trkpt>
      <trkpt lat="43.5835" lon="3.75505">
        <ele>53.7</ele>
        <time>2011-01-09T08:34:29Z</time>
      </trkpt>
      <trkpt lat="43.58347" lon="3.75499">
        <ele>53.7</ele>
        <time>2011-01-09T08:34:30Z</time>
      </trkpt>
      <trkpt lat="43.58345" lon="3.75494">
        <ele>53.7</ele>
        <time>2011-01-09T08:34:31Z</time>
      </trkpt>
      <trkpt lat="43.58342" lon="3.75488">
        <ele>53.7</ele>
        <time>2011-01-09T08:34:32Z</time>
      </trkpt>
      <trkpt lat="43.5834" lon="3.75482">
        <ele>53.7</ele>
        <time>2011-01-09T08:34:33Z</time>
      </trkpt>
      <trkpt lat="43.58337" lon="3.75477">
        <ele>53.8</ele>
        <time>2011-01-09T08:34:34Z</time>
      </trkpt>
      <trkpt lat="43.58335" lon="3.75471">
        <ele>53.8</ele>
        <time>2011-01-09T08:34:35Z</time>
      </trkpt>
      <trkpt lat="43.58333" lon="3.75466">
        <ele>53.8</ele>
        <time>2011-01-09T08:34:36Z</time>
      </trkpt>
      <trkpt lat="43.5833" lon="3.7546">
        <ele>53.9</ele>
        <time>2011-01-09T08:34:37Z</time>
      </trkpt>
      <trkpt lat="43.58328" lon="3.75455">
        <ele>53.9</ele>
        <time>2011-01-09T08:34:38Z</time>
      </trkpt>
      <trkpt lat="43.58325" lon="3.7545">
        <ele>54</ele>
        <time>2011-01-09T08:34:39Z</time>
      </trkpt>
      <trkpt lat="43.58323" lon="3.75444">
        <ele>54.1</ele>
        <time>2011-01-09T08:34:40Z</time>
      </trkpt>
      <trkpt lat="43.58321" lon="3.75438">
        <ele>54.1</ele>
        <time>2011-01-09T08:34:41Z</time>
      </trkpt>
      <trkpt lat="43.58318" lon="3.75433">
        <ele>54.1</ele>
        <time>2011-01-09T08:34:42Z</time>
      </trkpt>
      <trkpt lat="43.58315" lon="3.75427">
        <ele>54.2</ele>
        <time>2011-01-09T08:34:43Z</time>
      </trkpt>
      <trkpt lat="43.58313" lon="3.75422">
        <ele>54.2</ele>
        <time>2011-01-09T08:34:44Z</time>
      </trkpt>
      <trkpt lat="43.5831" lon="3.75416">
        <ele>54.2</ele>
        <time>2011-01-09T08:34:45Z</time>
      </trkpt>
      <trkpt lat="43.58308" lon="3.75411">
        <ele>54.3</ele>
        <time>2011-01-09T08:34:46Z</time>
      </trkpt>
      <trkpt lat="43.58306" lon="3.75406">
        <ele>54.3</ele>
        <time>2011-01-09T08:34:47Z</time>
      </trkpt>
      <trkpt lat="43.58303" lon="3.754">
        <ele>54.4</ele>
        <time>2011-01-09T08:34:48Z</time>
      </trkpt>
      <trkpt lat="43.58301" lon="3.75395">
        <ele>54.5</ele>
        <time>2011-01-09T08:34:49Z</time>
      </trkpt>
      <trkpt lat="43.58298" lon="3.75389">
        <ele>54.6</ele>
        <time>2011-01-09T08:34:50Z</time>
      </trkpt>
      <trkpt lat="43.58296" lon="3.75384">
        <ele>54.7</ele>
        <time>2011-01-09T08:34:51Z</time>
      </trkpt>
      <trkpt lat="43.58293" lon="3.75378">
        <ele>54.7</ele>
        <time>2011-01-09T08:34:52Z</time>
      </trkpt>
      <trkpt lat="43.58291" lon="3.75372">
        <ele>54.8</ele>
        <time>2011-01-09T08:34:53Z</time>
      </trkpt>
      <trkpt lat="43.58289" lon="3.75367">
        <ele>54.9</ele>
        <time>2011-01-09T08:34:54Z</time>
      </trkpt>
      <trkpt lat="43.58286" lon="3.75361">
        <ele>54.9</ele>
        <time>2011-01-09T08:34:55Z</time>
      </trkpt>
      <trkpt lat="43.58284" lon="3.75355">
        <ele>55</ele>
        <time>2011-01-09T08:34:56Z</time>
      </trkpt>
      <trkpt lat="43.58281" lon="3.7535">
        <ele>55</ele>
        <time>2011-01-09T08:34:57Z</time>
      </trkpt>
      <trkpt lat="43.58279" lon="3.75344">
        <ele>55.1</ele>
        <time>2011-01-09T08:34:58Z</time>
      </trkpt>
      <trkpt lat="43.58276" lon="3.75338">
        <ele>55.1</ele>
        <time>2011-01-09T08:34:59Z</time>
      </trkpt>
      <trkpt lat="43.58274" lon="3.75332">
        <ele>55.2</ele>
        <time>2011-01-09T08:35:00Z</time>
      </trkpt>
      <trkpt lat="43.58271" lon="3.75327">
        <ele>55.2</ele>
        <time>2011-01-09T08:35:01Z</time>
      </trkpt>
      <trkpt lat="43.58269" lon="3.75321">
        <ele>55.3</ele>
        <time>2011-01-09T08:35:02Z</time>
      </trkpt>
      <trkpt lat="43.58266" lon="3.75316">
        <ele>55.3</ele>
        <time>2011-01-09T08:35:03Z</time>
      </trkpt>
      <trkpt lat="43.58264" lon="3.7531">
        <ele>55.3</ele>
        <time>2011-01-09T08:35:04Z</time>
      </trkpt>
      <trkpt lat="43.58261" lon="3.75305">
        <ele>55.3</ele>
        <time>2011-01-09T08:35:05Z</time>
      </trkpt>
      <trkpt lat="43.58259" lon="3.75299">
        <ele>55.3</ele>
        <time>2011-01-09T08:35:06Z</time>
      </trkpt>
      <trkpt lat="43.58256" lon="3.75294">
        <ele>55.3</ele>
        <time>2011-01-09T08:35:07Z</time>
      </trkpt>
      <trkpt lat="43.58254" lon="3.75289">
        <ele>55.3</ele>
        <time>2011-01-09T08:35:08Z</time>
      </trkpt>
      <trkpt lat="43.5825" lon="3.75278">
        <ele>55.3</ele>
        <time>2011-01-09T08:35:10Z</time>
      </trkpt>
      <trkpt lat="43.58247" lon="3.75273">
        <ele>55.4</ele>
        <time>2011-01-09T08:35:11Z</time>
      </trkpt>
      <trkpt lat="43.58245" lon="3.75268">
        <ele>55.4</ele>
        <time>2011-01-09T08:35:12Z</time>
      </trkpt>
      <trkpt lat="43.58242" lon="3.75262">
        <ele>55.4</ele>
        <time>2011-01-09T08:35:13Z</time>
      </trkpt>
      <trkpt lat="43.5824" lon="3.75257">
        <ele>55.5</ele>
        <time>2011-01-09T08:35:14Z</time>
      </trkpt>
      <trkpt lat="43.58237" lon="3.75251">
        <ele>55.5</ele>
        <time>2011-01-09T08:35:15Z</time>
      </trkpt>
      <trkpt lat="43.58235" lon="3.75246">
        <ele>55.6</ele>
        <time>2011-01-09T08:35:16Z</time>
      </trkpt>
      <trkpt lat="43.58232" lon="3.75241">
        <ele>55.7</ele>
        <time>2011-01-09T08:35:17Z</time>
      </trkpt>
      <trkpt lat="43.5823" lon="3.75235">
        <ele>55.9</ele>
        <time>2011-01-09T08:35:18Z</time>
      </trkpt>
      <trkpt lat="43.58226" lon="3.75224">
        <ele>56.1</ele>
        <time>2011-01-09T08:35:20Z</time>
      </trkpt>
      <trkpt lat="43.58223" lon="3.75219">
        <ele>56.3</ele>
        <time>2011-01-09T08:35:21Z</time>
      </trkpt>
      <trkpt lat="43.58221" lon="3.75214">
        <ele>56.4</ele>
        <time>2011-01-09T08:35:22Z</time>
      </trkpt>
      <trkpt lat="43.58219" lon="3.75208">
        <ele>56.6</ele>
        <time>2011-01-09T08:35:23Z</time>
      </trkpt>
      <trkpt lat="43.58216" lon="3.75203">
        <ele>56.7</ele>
        <time>2011-01-09T08:35:24Z</time>
      </trkpt>
      <trkpt lat="43.58214" lon="3.75197">
        <ele>56.9</ele>
        <time>2011-01-09T08:35:25Z</time>
      </trkpt>
      <trkpt lat="43.58211" lon="3.75192">
        <ele>57</ele>
        <time>2011-01-09T08:35:26Z</time>
      </trkpt>
      <trkpt lat="43.58209" lon="3.75186">
        <ele>57.2</ele>
        <time>2011-01-09T08:35:27Z</time>
      </trkpt>
      <trkpt lat="43.58206" lon="3.75181">
        <ele>57.4</ele>
        <time>2011-01-09T08:35:28Z</time>
      </trkpt>
      <trkpt lat="43.58204" lon="3.75175">
        <ele>57.5</ele>
        <time>2011-01-09T08:35:29Z</time>
      </trkpt>
      <trkpt lat="43.58201" lon="3.7517">
        <ele>57.7</ele>
        <time>2011-01-09T08:35:30Z</time>
      </trkpt>
      <trkpt lat="43.58199" lon="3.75164">
        <ele>57.9</ele>
        <time>2011-01-09T08:35:31Z</time>
      </trkpt>
      <trkpt lat="43.58196" lon="3.75159">
        <ele>58</ele>
        <time>2011-01-09T08:35:32Z</time>
      </trkpt>
      <trkpt lat="43.58194" lon="3.75153">
        <ele>58.2</ele>
        <time>2011-01-09T08:35:33Z</time>
      </trkpt>
      <trkpt lat="43.58192" lon="3.75148">
        <ele>58.3</ele>
        <time>2011-01-09T08:35:34Z</time>
      </trkpt>
      <trkpt lat="43.58189" lon="3.75142">
        <ele>58.5</ele>
        <time>2011-01-09T08:35:35Z</time>
      </trkpt>
      <trkpt lat="43.58187" lon="3.75137">
        <ele>58.6</ele>
        <time>2011-01-09T08:35:36Z</time>
      </trkpt>
      <trkpt lat="43.58184" lon="3.75131">
        <ele>58.8</ele>
        <time>2011-01-09T08:35:37Z</time>
      </trkpt>
      <trkpt lat="43.58182" lon="3.75126">
        <ele>58.9</ele>
        <time>2011-01-09T08:35:38Z</time>
      </trkpt>
      <trkpt lat="43.58179" lon="3.7512">
        <ele>59.1</ele>
        <time>2011-01-09T08:35:39Z</time>
      </trkpt>
      <trkpt lat="43.58177" lon="3.75115">
        <ele>59.2</ele>
        <time>2011-01-09T08:35:40Z</time>
      </trkpt>
      <trkpt lat="43.58175" lon="3.75109">
        <ele>59.3</ele>
        <time>2011-01-09T08:35:41Z</time>
      </trkpt>
      <trkpt lat="43.5817" lon="3.75099">
        <ele>59.6</ele>
        <time>2011-01-09T08:35:43Z</time>
      </trkpt>
      <trkpt lat="43.58165" lon="3.75089">
        <ele>59.8</ele>
        <time>2011-01-09T08:35:45Z</time>
      </trkpt>
      <trkpt lat="43.58163" lon="3.75083">
        <ele>59.9</ele>
        <time>2011-01-09T08:35:46Z</time>
      </trkpt>
      <trkpt lat="43.58158" lon="3.75073">
        <ele>59.9</ele>
        <time>2011-01-09T08:35:48Z</time>
      </trkpt>
      <trkpt lat="43.58156" lon="3.75068">
        <ele>59.9</ele>
        <time>2011-01-09T08:35:49Z</time>
      </trkpt>
      <trkpt lat="43.58154" lon="3.75062">
        <ele>59.8</ele>
        <time>2011-01-09T08:35:50Z</time>
      </trkpt>
      <trkpt lat="43.58151" lon="3.75057">
        <ele>59.8</ele>
        <time>2011-01-09T08:35:51Z</time>
      </trkpt>
      <trkpt lat="43.58149" lon="3.75052">
        <ele>59.7</ele>
        <time>2011-01-09T08:35:52Z</time>
      </trkpt>
      <trkpt lat="43.58144" lon="3.75041">
        <ele>59.6</ele>
        <time>2011-01-09T08:35:54Z</time>
      </trkpt>
      <trkpt lat="43.5814" lon="3.75031">
        <ele>59.4</ele>
        <time>2011-01-09T08:35:56Z</time>
      </trkpt>
      <trkpt lat="43.58137" lon="3.75026">
        <ele>59.2</ele>
        <time>2011-01-09T08:35:57Z</time>
      </trkpt>
      <trkpt lat="43.58135" lon="3.7502">
        <ele>59.1</ele>
        <time>2011-01-09T08:35:58Z</time>
      </trkpt>
      <trkpt lat="43.58132" lon="3.75015">
        <ele>59</ele>
        <time>2011-01-09T08:35:59Z</time>
      </trkpt>
      <trkpt lat="43.5813" lon="3.75009">
        <ele>58.8</ele>
        <time>2011-01-09T08:36:00Z</time>
      </trkpt>
      <trkpt lat="43.58127" lon="3.75003">
        <ele>58.6</ele>
        <time>2011-01-09T08:36:01Z</time>
      </trkpt>
      <trkpt lat="43.58124" lon="3.74997">
        <ele>58.5</ele>
        <time>2011-01-09T08:36:02Z</time>
      </trkpt>
      <trkpt lat="43.58121" lon="3.74991">
        <ele>58.4</ele>
        <time>2011-01-09T08:36:03Z</time>
      </trkpt>
      <trkpt lat="43.58118" lon="3.74985">
        <ele>58.3</ele>
        <time>2011-01-09T08:36:04Z</time>
      </trkpt>
      <trkpt lat="43.58115" lon="3.74979">
        <ele>58.2</ele>
        <time>2011-01-09T08:36:05Z</time>
      </trkpt>
      <trkpt lat="43.58112" lon="3.74973">
        <ele>58.1</ele>
        <time>2011-01-09T08:36:06Z</time>
      </trkpt>
      <trkpt lat="43.5811" lon="3.74967">
        <ele>58</ele>
        <time>2011-01-09T08:36:07Z</time>
      </trkpt>
      <trkpt lat="43.58107" lon="3.74961">
        <ele>57.9</ele>
        <time>2011-01-09T08:36:08Z</time>
      </trkpt>
      <trkpt lat="43.58104" lon="3.74955">
        <ele>57.8</ele>
        <time>2011-01-09T08:36:09Z</time>
      </trkpt>
      <trkpt lat="43.58101" lon="3.74949">
        <ele>57.7</ele>
        <time>2011-01-09T08:36:10Z</time>
      </trkpt>
      <trkpt lat="43.58098" lon="3.74943">
        <ele>57.6</ele>
        <time>2011-01-09T08:36:11Z</time>
      </trkpt>
      <trkpt lat="43.58096" lon="3.74937">
        <ele>57.5</ele>
        <time>2011-01-09T08:36:12Z</time>
      </trkpt>
      <trkpt lat="43.58093" lon="3.74931">
        <ele>57.4</ele>
        <time>2011-01-09T08:36:13Z</time>
      </trkpt>
      <trkpt lat="43.5809" lon="3.74926">
        <ele>57.3</ele>
        <time>2011-01-09T08:36:14Z</time>
      </trkpt>
      <trkpt lat="43.58087" lon="3.7492">
        <ele>57.2</ele>
        <time>2011-01-09T08:36:15Z</time>
      </trkpt>
      <trkpt lat="43.58084" lon="3.74914">
        <ele>57.1</ele>
        <time>2011-01-09T08:36:16Z</time>
      </trkpt>
      <trkpt lat="43.58081" lon="3.74909">
        <ele>57.2</ele>
        <time>2011-01-09T08:36:17Z</time>
      </trkpt>
      <trkpt lat="43.58078" lon="3.74904">
        <ele>57.3</ele>
        <time>2011-01-09T08:36:18Z</time>
      </trkpt>
      <trkpt lat="43.58075" lon="3.74898">
        <ele>57.4</ele>
        <time>2011-01-09T08:36:19Z</time>
      </trkpt>
      <trkpt lat="43.58072" lon="3.74892">
        <ele>57.5</ele>
        <time>2011-01-09T08:36:20Z</time>
      </trkpt>
      <trkpt lat="43.5807" lon="3.74886">
        <ele>57.6</ele>
        <time>2011-01-09T08:36:21Z</time>
      </trkpt>
      <trkpt lat="43.58067" lon="3.74881">
        <ele>57.7</ele>
        <time>2011-01-09T08:36:22Z</time>
      </trkpt>
      <trkpt lat="43.58064" lon="3.74875">
        <ele>57.8</ele>
        <time>2011-01-09T08:36:23Z</time>
      </trkpt>
      <trkpt lat="43.58062" lon="3.74869">
        <ele>57.8</ele>
        <time>2011-01-09T08:36:24Z</time>
      </trkpt>
      <trkpt lat="43.58059" lon="3.74863">
        <ele>57.9</ele>
        <time>2011-01-09T08:36:25Z</time>
      </trkpt>
      <trkpt lat="43.58056" lon="3.74858">
        <ele>58</ele>
        <time>2011-01-09T08:36:26Z</time>
      </trkpt>
      <trkpt lat="43.58054" lon="3.74852">
        <ele>58.1</ele>
        <time>2011-01-09T08:36:27Z</time>
      </trkpt>
      <trkpt lat="43.58051" lon="3.74847">
        <ele>58.1</ele>
        <time>2011-01-09T08:36:28Z</time>
      </trkpt>
      <trkpt lat="43.58048" lon="3.74841">
        <ele>58.1</ele>
        <time>2011-01-09T08:36:29Z</time>
      </trkpt>
      <trkpt lat="43.58046" lon="3.74836">
        <ele>58.2</ele>
        <time>2011-01-09T08:36:30Z</time>
      </trkpt>
      <trkpt lat="43.58043" lon="3.7483">
        <ele>58.2</ele>
        <time>2011-01-09T08:36:31Z</time>
      </trkpt>
      <trkpt lat="43.58041" lon="3.74825">
        <ele>58.2</ele>
        <time>2011-01-09T08:36:32Z</time>
      </trkpt>
      <trkpt lat="43.58039" lon="3.7482">
        <ele>58.3</ele>
        <time>2011-01-09T08:36:33Z</time>
      </trkpt>
      <trkpt lat="43.58036" lon="3.74814">
        <ele>58.3</ele>
        <time>2011-01-09T08:36:34Z</time>
      </trkpt>
      <trkpt lat="43.58034" lon="3.74809">
        <ele>58.3</ele>
        <time>2011-01-09T08:36:35Z</time>
      </trkpt>
      <trkpt lat="43.58031" lon="3.74804">
        <ele>58.3</ele>
        <time>2011-01-09T08:36:36Z</time>
      </trkpt>
      <trkpt lat="43.58028" lon="3.74799">
        <ele>58.3</ele>
        <time>2011-01-09T08:36:37Z</time>
      </trkpt>
      <trkpt lat="43.58026" lon="3.74793">
        <ele>58.3</ele>
        <time>2011-01-09T08:36:38Z</time>
      </trkpt>
      <trkpt lat="43.58021" lon="3.74783">
        <ele>58.3</ele>
        <time>2011-01-09T08:36:40Z</time>
      </trkpt>
      <trkpt lat="43.58019" lon="3.74778">
        <ele>58.4</ele>
        <time>2011-01-09T08:36:41Z</time>
      </trkpt>
      <trkpt lat="43.58014" lon="3.74767">
        <ele>58.4</ele>
        <time>2011-01-09T08:36:43Z</time>
      </trkpt>
      <trkpt lat="43.58012" lon="3.74762">
        <ele>58.4</ele>
        <time>2011-01-09T08:36:44Z</time>
      </trkpt>
      <trkpt lat="43.58009" lon="3.74756">
        <ele>58.4</ele>
        <time>2011-01-09T08:36:45Z</time>
      </trkpt>
      <trkpt lat="43.58007" lon="3.74751">
        <ele>58.4</ele>
        <time>2011-01-09T08:36:46Z</time>
      </trkpt>
      <trkpt lat="43.58004" lon="3.74746">
        <ele>58.5</ele>
        <time>2011-01-09T08:36:47Z</time>
      </trkpt>
      <trkpt lat="43.57999" lon="3.74736">
        <ele>58.6</ele>
        <time>2011-01-09T08:36:49Z</time>
      </trkpt>
      <trkpt lat="43.57994" lon="3.74725">
        <ele>58.8</ele>
        <time>2011-01-09T08:36:51Z</time>
      </trkpt>
      <trkpt lat="43.57992" lon="3.7472">
        <ele>58.9</ele>
        <time>2011-01-09T08:36:52Z</time>
      </trkpt>
      <trkpt lat="43.57989" lon="3.74715">
        <ele>59</ele>
        <time>2011-01-09T08:36:53Z</time>
      </trkpt>
      <trkpt lat="43.57986" lon="3.7471">
        <ele>59</ele>
        <time>2011-01-09T08:36:54Z</time>
      </trkpt>
      <trkpt lat="43.57984" lon="3.74704">
        <ele>59.1</ele>
        <time>2011-01-09T08:36:55Z</time>
      </trkpt>
      <trkpt lat="43.57981" lon="3.74699">
        <ele>59.2</ele>
        <time>2011-01-09T08:36:56Z</time>
      </trkpt>
      <trkpt lat="43.57979" lon="3.74694">
        <ele>59.3</ele>
        <time>2011-01-09T08:36:57Z</time>
      </trkpt>
      <trkpt lat="43.57976" lon="3.74688">
        <ele>59.3</ele>
        <time>2011-01-09T08:36:58Z</time>
      </trkpt>
      <trkpt lat="43.57974" lon="3.74683">
        <ele>59.4</ele>
        <time>2011-01-09T08:36:59Z</time>
      </trkpt>
      <trkpt lat="43.57971" lon="3.74678">
        <ele>59.5</ele>
        <time>2011-01-09T08:37:00Z</time>
      </trkpt>
      <trkpt lat="43.57969" lon="3.74672">
        <ele>59.5</ele>
        <time>2011-01-09T08:37:01Z</time>
      </trkpt>
      <trkpt lat="43.57966" lon="3.74667">
        <ele>59.5</ele>
        <time>2011-01-09T08:37:02Z</time>
      </trkpt>
      <trkpt lat="43.57964" lon="3.74662">
        <ele>59.7</ele>
        <time>2011-01-09T08:37:03Z</time>
      </trkpt>
      <trkpt lat="43.57959" lon="3.74651">
        <ele>60</ele>
        <time>2011-01-09T08:37:05Z</time>
      </trkpt>
      <trkpt lat="43.57955" lon="3.74641">
        <ele>60.2</ele>
        <time>2011-01-09T08:37:07Z</time>
      </trkpt>
      <trkpt lat="43.5795" lon="3.74631">
        <ele>60.4</ele>
        <time>2011-01-09T08:37:09Z</time>
      </trkpt>
      <trkpt lat="43.57945" lon="3.74621">
        <ele>60.6</ele>
        <time>2011-01-09T08:37:11Z</time>
      </trkpt>
      <trkpt lat="43.57941" lon="3.74611">
        <ele>60.8</ele>
        <time>2011-01-09T08:37:13Z</time>
      </trkpt>
      <trkpt lat="43.57936" lon="3.74601">
        <ele>60.9</ele>
        <time>2011-01-09T08:37:15Z</time>
      </trkpt>
      <trkpt lat="43.57932" lon="3.74592">
        <ele>61</ele>
        <time>2011-01-09T08:37:17Z</time>
      </trkpt>
      <trkpt lat="43.57927" lon="3.74581">
        <ele>61.2</ele>
        <time>2011-01-09T08:37:19Z</time>
      </trkpt>
      <trkpt lat="43.57925" lon="3.74569">
        <ele>61.6</ele>
        <time>2011-01-09T08:37:21Z</time>
      </trkpt>
      <trkpt lat="43.57922" lon="3.74559">
        <ele>62</ele>
        <time>2011-01-09T08:37:23Z</time>
      </trkpt>
      <trkpt lat="43.5792" lon="3.7455">
        <ele>62.3</ele>
        <time>2011-01-09T08:37:25Z</time>
      </trkpt>
      <trkpt lat="43.57918" lon="3.74541">
        <ele>62.7</ele>
        <time>2011-01-09T08:37:27Z</time>
      </trkpt>
      <trkpt lat="43.57917" lon="3.74536">
        <ele>62.9</ele>
        <time>2011-01-09T08:37:28Z</time>
      </trkpt>
      <trkpt lat="43.57914" lon="3.74521">
        <ele>63.5</ele>
        <time>2011-01-09T08:37:31Z</time>
      </trkpt>
      <trkpt lat="43.57911" lon="3.74513">
        <ele>63.8</ele>
        <time>2011-01-09T08:37:33Z</time>
      </trkpt>
      <trkpt lat="43.57907" lon="3.74504">
        <ele>63.9</ele>
        <time>2011-01-09T08:37:35Z</time>
      </trkpt>
      <trkpt lat="43.57903" lon="3.74496">
        <ele>64.2</ele>
        <time>2011-01-09T08:37:37Z</time>
      </trkpt>
      <trkpt lat="43.57899" lon="3.74487">
        <ele>64.4</ele>
        <time>2011-01-09T08:37:39Z</time>
      </trkpt>
      <trkpt lat="43.57896" lon="3.74479">
        <ele>64.7</ele>
        <time>2011-01-09T08:37:41Z</time>
      </trkpt>
      <trkpt lat="43.57892" lon="3.7447">
        <ele>65</ele>
        <time>2011-01-09T08:37:43Z</time>
      </trkpt>
      <trkpt lat="43.57888" lon="3.74461">
        <ele>65.2</ele>
        <time>2011-01-09T08:37:45Z</time>
      </trkpt>
      <trkpt lat="43.57884" lon="3.74452">
        <ele>65.5</ele>
        <time>2011-01-09T08:37:47Z</time>
      </trkpt>
      <trkpt lat="43.57879" lon="3.74443">
        <ele>65.7</ele>
        <time>2011-01-09T08:37:49Z</time>
      </trkpt>
      <trkpt lat="43.57875" lon="3.74434">
        <ele>65.9</ele>
        <time>2011-01-09T08:37:51Z</time>
      </trkpt>
      <trkpt lat="43.57871" lon="3.74426">
        <ele>66</ele>
        <time>2011-01-09T08:37:53Z</time>
      </trkpt>
      <trkpt lat="43.57866" lon="3.74418">
        <ele>66</ele>
        <time>2011-01-09T08:37:55Z</time>
      </trkpt>
      <trkpt lat="43.57861" lon="3.74411">
        <ele>65.7</ele>
        <time>2011-01-09T08:37:57Z</time>
      </trkpt>
      <trkpt lat="43.57854" lon="3.74403">
        <ele>65.1</ele>
        <time>2011-01-09T08:37:59Z</time>
      </trkpt>
      <trkpt lat="43.57851" lon="3.74398">
        <ele>64.8</ele>
        <time>2011-01-09T08:38:00Z</time>
      </trkpt>
      <trkpt lat="43.57848" lon="3.74392">
        <ele>64.5</ele>
        <time>2011-01-09T08:38:01Z</time>
      </trkpt>
      <trkpt lat="43.57844" lon="3.74386">
        <ele>64.2</ele>
        <time>2011-01-09T08:38:02Z</time>
      </trkpt>
      <trkpt lat="43.57841" lon="3.7438">
        <ele>63.8</ele>
        <time>2011-01-09T08:38:03Z</time>
      </trkpt>
      <trkpt lat="43.57837" lon="3.74374">
        <ele>63.4</ele>
        <time>2011-01-09T08:38:04Z</time>
      </trkpt>
      <trkpt lat="43.57833" lon="3.74368">
        <ele>63</ele>
        <time>2011-01-09T08:38:05Z</time>
      </trkpt>
      <trkpt lat="43.5783" lon="3.74362">
        <ele>62.7</ele>
        <time>2011-01-09T08:38:06Z</time>
      </trkpt>
      <trkpt lat="43.57827" lon="3.74356">
        <ele>62.4</ele>
        <time>2011-01-09T08:38:07Z</time>
      </trkpt>
      <trkpt lat="43.57825" lon="3.7435">
        <ele>62.2</ele>
        <time>2011-01-09T08:38:08Z</time>
      </trkpt>
      <trkpt lat="43.57819" lon="3.74341">
        <ele>61.7</ele>
        <time>2011-01-09T08:38:10Z</time>
      </trkpt>
      <trkpt lat="43.57811" lon="3.74341">
        <ele>60.9</ele>
        <time>2011-01-09T08:38:13Z</time>
      </trkpt>
      <trkpt lat="43.57806" lon="3.74344">
        <ele>60.4</ele>
        <time>2011-01-09T08:38:15Z</time>
      </trkpt>
      <trkpt lat="43.578" lon="3.74341">
        <ele>59.8</ele>
        <time>2011-01-09T08:38:17Z</time>
      </trkpt>
      <trkpt lat="43.57795" lon="3.74334">
        <ele>59.3</ele>
        <time>2011-01-09T08:38:19Z</time>
      </trkpt>
      <trkpt lat="43.5779" lon="3.74327">
        <ele>59</ele>
        <time>2011-01-09T08:38:21Z</time>
      </trkpt>
      <trkpt lat="43.57786" lon="3.74321">
        <ele>58.6</ele>
        <time>2011-01-09T08:38:23Z</time>
      </trkpt>
      <trkpt lat="43.57779" lon="3.74314">
        <ele>58.1</ele>
        <time>2011-01-09T08:38:26Z</time>
      </trkpt>
      <trkpt lat="43.57772" lon="3.74307">
        <ele>57.6</ele>
        <time>2011-01-09T08:38:29Z</time>
      </trkpt>
      <trkpt lat="43.5777" lon="3.74305">
        <ele>57.4</ele>
        <time>2011-01-09T08:38:30Z</time>
      </trkpt>
      <trkpt lat="43.57761" lon="3.74295">
        <ele>56.6</ele>
        <time>2011-01-09T08:38:34Z</time>
      </trkpt>
      <trkpt lat="43.57756" lon="3.74289">
        <ele>56.1</ele>
        <time>2011-01-09T08:38:36Z</time>
      </trkpt>
      <trkpt lat="43.57751" lon="3.74284">
        <ele>55.7</ele>
        <time>2011-01-09T08:38:38Z</time>
      </trkpt>
      <trkpt lat="43.57746" lon="3.74278">
        <ele>55.7</ele>
        <time>2011-01-09T08:38:40Z</time>
      </trkpt>
      <trkpt lat="43.57742" lon="3.74273">
        <ele>55.8</ele>
        <time>2011-01-09T08:38:42Z</time>
      </trkpt>
      <trkpt lat="43.57737" lon="3.74267">
        <ele>55.9</ele>
        <time>2011-01-09T08:38:44Z</time>
      </trkpt>
      <trkpt lat="43.57732" lon="3.74262">
        <ele>56</ele>
        <time>2011-01-09T08:38:46Z</time>
      </trkpt>
      <trkpt lat="43.57726" lon="3.74256">
        <ele>56.2</ele>
        <time>2011-01-09T08:38:48Z</time>
      </trkpt>
      <trkpt lat="43.57721" lon="3.7425">
        <ele>56.4</ele>
        <time>2011-01-09T08:38:50Z</time>
      </trkpt>
      <trkpt lat="43.57715" lon="3.74244">
        <ele>56.8</ele>
        <time>2011-01-09T08:38:52Z</time>
      </trkpt>
      <trkpt lat="43.5771" lon="3.74238">
        <ele>57.1</ele>
        <time>2011-01-09T08:38:54Z</time>
      </trkpt>
      <trkpt lat="43.57704" lon="3.74232">
        <ele>57.6</ele>
        <time>2011-01-09T08:38:56Z</time>
      </trkpt>
      <trkpt lat="43.57698" lon="3.74226">
        <ele>58</ele>
        <time>2011-01-09T08:38:58Z</time>
      </trkpt>
      <trkpt lat="43.57693" lon="3.74219">
        <ele>58.4</ele>
        <time>2011-01-09T08:39:00Z</time>
      </trkpt>
      <trkpt lat="43.57687" lon="3.74213">
        <ele>58.9</ele>
        <time>2011-01-09T08:39:02Z</time>
      </trkpt>
      <trkpt lat="43.57681" lon="3.74206">
        <ele>59.4</ele>
        <time>2011-01-09T08:39:04Z</time>
      </trkpt>
      <trkpt lat="43.57675" lon="3.742">
        <ele>59.9</ele>
        <time>2011-01-09T08:39:06Z</time>
      </trkpt>
      <trkpt lat="43.57669" lon="3.74193">
        <ele>60.4</ele>
        <time>2011-01-09T08:39:08Z</time>
      </trkpt>
      <trkpt lat="43.57663" lon="3.74186">
        <ele>60.8</ele>
        <time>2011-01-09T08:39:10Z</time>
      </trkpt>
      <trkpt lat="43.57658" lon="3.74179">
        <ele>61</ele>
        <time>2011-01-09T08:39:12Z</time>
      </trkpt>
      <trkpt lat="43.57651" lon="3.74171">
        <ele>61.2</ele>
        <time>2011-01-09T08:39:14Z</time>
      </trkpt>
      <trkpt lat="43.57645" lon="3.74164">
        <ele>61.4</ele>
        <time>2011-01-09T08:39:16Z</time>
      </trkpt>
      <trkpt lat="43.57639" lon="3.74157">
        <ele>61.7</ele>
        <time>2011-01-09T08:39:18Z</time>
      </trkpt>
      <trkpt lat="43.57632" lon="3.74151">
        <ele>61.8</ele>
        <time>2011-01-09T08:39:20Z</time>
      </trkpt>
      <trkpt lat="43.57626" lon="3.74143">
        <ele>62.1</ele>
        <time>2011-01-09T08:39:22Z</time>
      </trkpt>
      <trkpt lat="43.57619" lon="3.74136">
        <ele>62.3</ele>
        <time>2011-01-09T08:39:24Z</time>
      </trkpt>
      <trkpt lat="43.57613" lon="3.74129">
        <ele>62.4</ele>
        <time>2011-01-09T08:39:26Z</time>
      </trkpt>
      <trkpt lat="43.57606" lon="3.74121">
        <ele>62.5</ele>
        <time>2011-01-09T08:39:28Z</time>
      </trkpt>
      <trkpt lat="43.576" lon="3.74113">
        <ele>62.5</ele>
        <time>2011-01-09T08:39:30Z</time>
      </trkpt>
      <trkpt lat="43.57596" lon="3.7411">
        <ele>62.5</ele>
        <time>2011-01-09T08:39:31Z</time>
      </trkpt>
      <trkpt lat="43.57586" lon="3.74099">
        <ele>62.4</ele>
        <time>2011-01-09T08:39:34Z</time>
      </trkpt>
      <trkpt lat="43.57579" lon="3.74091">
        <ele>62.5</ele>
        <time>2011-01-09T08:39:36Z</time>
      </trkpt>
      <trkpt lat="43.57572" lon="3.74083">
        <ele>62.6</ele>
        <time>2011-01-09T08:39:38Z</time>
      </trkpt>
      <trkpt lat="43.57566" lon="3.74076">
        <ele>62.8</ele>
        <time>2011-01-09T08:39:40Z</time>
      </trkpt>
      <trkpt lat="43.57559" lon="3.74068">
        <ele>62.9</ele>
        <time>2011-01-09T08:39:42Z</time>
      </trkpt>
      <trkpt lat="43.57552" lon="3.74061">
        <ele>62.9</ele>
        <time>2011-01-09T08:39:44Z</time>
      </trkpt>
      <trkpt lat="43.57545" lon="3.74053">
        <ele>62.9</ele>
        <time>2011-01-09T08:39:46Z</time>
      </trkpt>
      <trkpt lat="43.57538" lon="3.74046">
        <ele>62.9</ele>
        <time>2011-01-09T08:39:48Z</time>
      </trkpt>
      <trkpt lat="43.57532" lon="3.74038">
        <ele>62.8</ele>
        <time>2011-01-09T08:39:50Z</time>
      </trkpt>
      <trkpt lat="43.57525" lon="3.74031">
        <ele>62.7</ele>
        <time>2011-01-09T08:39:52Z</time>
      </trkpt>
      <trkpt lat="43.57521" lon="3.74027">
        <ele>62.6</ele>
        <time>2011-01-09T08:39:53Z</time>
      </trkpt>
      <trkpt lat="43.57518" lon="3.74023">
        <ele>62.6</ele>
        <time>2011-01-09T08:39:54Z</time>
      </trkpt>
      <trkpt lat="43.57514" lon="3.74019">
        <ele>62.5</ele>
        <time>2011-01-09T08:39:55Z</time>
      </trkpt>
      <trkpt lat="43.57511" lon="3.74014">
        <ele>62.4</ele>
        <time>2011-01-09T08:39:56Z</time>
      </trkpt>
      <trkpt lat="43.57504" lon="3.74006">
        <ele>62.1</ele>
        <time>2011-01-09T08:39:58Z</time>
      </trkpt>
      <trkpt lat="43.57501" lon="3.74002">
        <ele>62</ele>
        <time>2011-01-09T08:39:59Z</time>
      </trkpt>
      <trkpt lat="43.57494" lon="3.73994">
        <ele>62.1</ele>
        <time>2011-01-09T08:40:01Z</time>
      </trkpt>
      <trkpt lat="43.57488" lon="3.73986">
        <ele>62.2</ele>
        <time>2011-01-09T08:40:03Z</time>
      </trkpt>
      <trkpt lat="43.57481" lon="3.73978">
        <ele>62.2</ele>
        <time>2011-01-09T08:40:05Z</time>
      </trkpt>
      <trkpt lat="43.57475" lon="3.73969">
        <ele>62.3</ele>
        <time>2011-01-09T08:40:07Z</time>
      </trkpt>
      <trkpt lat="43.57468" lon="3.73961">
        <ele>62.3</ele>
        <time>2011-01-09T08:40:09Z</time>
      </trkpt>
      <trkpt lat="43.57462" lon="3.73953">
        <ele>62.2</ele>
        <time>2011-01-09T08:40:11Z</time>
      </trkpt>
      <trkpt lat="43.57456" lon="3.73944">
        <ele>62.2</ele>
        <time>2011-01-09T08:40:13Z</time>
      </trkpt>
      <trkpt lat="43.57454" lon="3.73933">
        <ele>62.5</ele>
        <time>2011-01-09T08:40:15Z</time>
      </trkpt>
      <trkpt lat="43.57456" lon="3.73921">
        <ele>63.1</ele>
        <time>2011-01-09T08:40:17Z</time>
      </trkpt>
      <trkpt lat="43.57459" lon="3.73911">
        <ele>63.7</ele>
        <time>2011-01-09T08:40:19Z</time>
      </trkpt>
      <trkpt lat="43.57461" lon="3.73901">
        <ele>64.1</ele>
        <time>2011-01-09T08:40:21Z</time>
      </trkpt>
      <trkpt lat="43.57462" lon="3.7389">
        <ele>64.4</ele>
        <time>2011-01-09T08:40:23Z</time>
      </trkpt>
      <trkpt lat="43.57462" lon="3.7388">
        <ele>64.6</ele>
        <time>2011-01-09T08:40:25Z</time>
      </trkpt>
      <trkpt lat="43.57462" lon="3.7387">
        <ele>64.9</ele>
        <time>2011-01-09T08:40:27Z</time>
      </trkpt>
      <trkpt lat="43.57462" lon="3.7386">
        <ele>65.1</ele>
        <time>2011-01-09T08:40:29Z</time>
      </trkpt>
      <trkpt lat="43.57461" lon="3.7385">
        <ele>65.3</ele>
        <time>2011-01-09T08:40:31Z</time>
      </trkpt>
      <trkpt lat="43.5746" lon="3.73845">
        <ele>65.3</ele>
        <time>2011-01-09T08:40:32Z</time>
      </trkpt>
      <trkpt lat="43.57455" lon="3.73831">
        <ele>65.5</ele>
        <time>2011-01-09T08:40:35Z</time>
      </trkpt>
      <trkpt lat="43.57451" lon="3.7382">
        <ele>65.8</ele>
        <time>2011-01-09T08:40:37Z</time>
      </trkpt>
      <trkpt lat="43.57449" lon="3.73814">
        <ele>65.9</ele>
        <time>2011-01-09T08:40:38Z</time>
      </trkpt>
      <trkpt lat="43.57446" lon="3.73809">
        <ele>66.1</ele>
        <time>2011-01-09T08:40:39Z</time>
      </trkpt>
      <trkpt lat="43.57444" lon="3.73803">
        <ele>66.2</ele>
        <time>2011-01-09T08:40:40Z</time>
      </trkpt>
      <trkpt lat="43.57441" lon="3.73797">
        <ele>66.3</ele>
        <time>2011-01-09T08:40:41Z</time>
      </trkpt>
      <trkpt lat="43.57438" lon="3.73792">
        <ele>66.4</ele>
        <time>2011-01-09T08:40:42Z</time>
      </trkpt>
      <trkpt lat="43.57435" lon="3.73786">
        <ele>66.5</ele>
        <time>2011-01-09T08:40:43Z</time>
      </trkpt>
      <trkpt lat="43.57433" lon="3.73781">
        <ele>66.6</ele>
        <time>2011-01-09T08:40:44Z</time>
      </trkpt>
      <trkpt lat="43.5743" lon="3.73776">
        <ele>66.6</ele>
        <time>2011-01-09T08:40:45Z</time>
      </trkpt>
      <trkpt lat="43.57427" lon="3.73771">
        <ele>66.7</ele>
        <time>2011-01-09T08:40:46Z</time>
      </trkpt>
      <trkpt lat="43.57422" lon="3.73761">
        <ele>66.8</ele>
        <time>2011-01-09T08:40:48Z</time>
      </trkpt>
      <trkpt lat="43.57419" lon="3.73752">
        <ele>67.1</ele>
        <time>2011-01-09T08:40:50Z</time>
      </trkpt>
      <trkpt lat="43.57417" lon="3.73744">
        <ele>67.3</ele>
        <time>2011-01-09T08:40:52Z</time>
      </trkpt>
      <trkpt lat="43.57414" lon="3.73735">
        <ele>67.5</ele>
        <time>2011-01-09T08:40:54Z</time>
      </trkpt>
      <trkpt lat="43.57412" lon="3.73724">
        <ele>67.9</ele>
        <time>2011-01-09T08:40:57Z</time>
      </trkpt>
      <trkpt lat="43.57409" lon="3.73714">
        <ele>68.2</ele>
        <time>2011-01-09T08:41:00Z</time>
      </trkpt>
      <trkpt lat="43.57405" lon="3.73705">
        <ele>68.4</ele>
        <time>2011-01-09T08:41:02Z</time>
      </trkpt>
      <trkpt lat="43.57403" lon="3.73696">
        <ele>68.7</ele>
        <time>2011-01-09T08:41:04Z</time>
      </trkpt>
      <trkpt lat="43.574" lon="3.73685">
        <ele>69.1</ele>
        <time>2011-01-09T08:41:07Z</time>
      </trkpt>
      <trkpt lat="43.57399" lon="3.73674">
        <ele>69.6</ele>
        <time>2011-01-09T08:41:10Z</time>
      </trkpt>
      <trkpt lat="43.57397" lon="3.73666">
        <ele>69.9</ele>
        <time>2011-01-09T08:41:12Z</time>
      </trkpt>
      <trkpt lat="43.57395" lon="3.73658">
        <ele>70.2</ele>
        <time>2011-01-09T08:41:14Z</time>
      </trkpt>
      <trkpt lat="43.57392" lon="3.7365">
        <ele>70.5</ele>
        <time>2011-01-09T08:41:16Z</time>
      </trkpt>
      <trkpt lat="43.57388" lon="3.73642">
        <ele>70.6</ele>
        <time>2011-01-09T08:41:18Z</time>
      </trkpt>
      <trkpt lat="43.57385" lon="3.73635">
        <ele>70.7</ele>
        <time>2011-01-09T08:41:20Z</time>
      </trkpt>
      <trkpt lat="43.57382" lon="3.73628">
        <ele>70.7</ele>
        <time>2011-01-09T08:41:22Z</time>
      </trkpt>
      <trkpt lat="43.57377" lon="3.73618">
        <ele>70.8</ele>
        <time>2011-01-09T08:41:25Z</time>
      </trkpt>
      <trkpt lat="43.57377" lon="3.73608">
        <ele>71.1</ele>
        <time>2011-01-09T08:41:27Z</time>
      </trkpt>
      <trkpt lat="43.57377" lon="3.73597">
        <ele>71.6</ele>
        <time>2011-01-09T08:41:29Z</time>
      </trkpt>
      <trkpt lat="43.57376" lon="3.73587">
        <ele>72</ele>
        <time>2011-01-09T08:41:31Z</time>
      </trkpt>
      <trkpt lat="43.57375" lon="3.73577">
        <ele>72.3</ele>
        <time>2011-01-09T08:41:33Z</time>
      </trkpt>
      <trkpt lat="43.57373" lon="3.73573">
        <ele>72.3</ele>
        <time>2011-01-09T08:41:34Z</time>
      </trkpt>
      <trkpt lat="43.57368" lon="3.73559">
        <ele>72.4</ele>
        <time>2011-01-09T08:41:37Z</time>
      </trkpt>
      <trkpt lat="43.57364" lon="3.73548">
        <ele>72.5</ele>
        <time>2011-01-09T08:41:39Z</time>
      </trkpt>
      <trkpt lat="43.57362" lon="3.73538">
        <ele>72.8</ele>
        <time>2011-01-09T08:41:41Z</time>
      </trkpt>
      <trkpt lat="43.57358" lon="3.73528">
        <ele>72.8</ele>
        <time>2011-01-09T08:41:43Z</time>
      </trkpt>
      <trkpt lat="43.57354" lon="3.73518">
        <ele>72.8</ele>
        <time>2011-01-09T08:41:45Z</time>
      </trkpt>
      <trkpt lat="43.57351" lon="3.73508">
        <ele>72.9</ele>
        <time>2011-01-09T08:41:47Z</time>
      </trkpt>
      <trkpt lat="43.57348" lon="3.73503">
        <ele>72.8</ele>
        <time>2011-01-09T08:41:48Z</time>
      </trkpt>
      <trkpt lat="43.57341" lon="3.73496">
        <ele>72</ele>
        <time>2011-01-09T08:41:50Z</time>
      </trkpt>
      <trkpt lat="43.57336" lon="3.73495">
        <ele>71.4</ele>
        <time>2011-01-09T08:41:51Z</time>
      </trkpt>
      <trkpt lat="43.57332" lon="3.73497">
        <ele>70.8</ele>
        <time>2011-01-09T08:41:52Z</time>
      </trkpt>
      <trkpt lat="43.57327" lon="3.735">
        <ele>70.3</ele>
        <time>2011-01-09T08:41:53Z</time>
      </trkpt>
      <trkpt lat="43.57322" lon="3.73504">
        <ele>69.6</ele>
        <time>2011-01-09T08:41:54Z</time>
      </trkpt>
      <trkpt lat="43.57317" lon="3.73508">
        <ele>68.9</ele>
        <time>2011-01-09T08:41:55Z</time>
      </trkpt>
      <trkpt lat="43.57312" lon="3.73512">
        <ele>68.2</ele>
        <time>2011-01-09T08:41:56Z</time>
      </trkpt>
      <trkpt lat="43.57306" lon="3.73517">
        <ele>67.5</ele>
        <time>2011-01-09T08:41:57Z</time>
      </trkpt>
      <trkpt lat="43.573" lon="3.73521">
        <ele>66.7</ele>
        <time>2011-01-09T08:41:58Z</time>
      </trkpt>
      <trkpt lat="43.57294" lon="3.73526">
        <ele>66</ele>
        <time>2011-01-09T08:41:59Z</time>
      </trkpt>
      <trkpt lat="43.57288" lon="3.73531">
        <ele>65.2</ele>
        <time>2011-01-09T08:42:00Z</time>
      </trkpt>
      <trkpt lat="43.57282" lon="3.73536">
        <ele>64.5</ele>
        <time>2011-01-09T08:42:01Z</time>
      </trkpt>
      <trkpt lat="43.57276" lon="3.73541">
        <ele>63.9</ele>
        <time>2011-01-09T08:42:02Z</time>
      </trkpt>
      <trkpt lat="43.57269" lon="3.73543">
        <ele>63.2</ele>
        <time>2011-01-09T08:42:03Z</time>
      </trkpt>
      <trkpt lat="43.57262" lon="3.73544">
        <ele>62.5</ele>
        <time>2011-01-09T08:42:04Z</time>
      </trkpt>
      <trkpt lat="43.57255" lon="3.73545">
        <ele>61.9</ele>
        <time>2011-01-09T08:42:05Z</time>
      </trkpt>
      <trkpt lat="43.57248" lon="3.73545">
        <ele>61.3</ele>
        <time>2011-01-09T08:42:06Z</time>
      </trkpt>
      <trkpt lat="43.57243" lon="3.73545">
        <ele>60.9</ele>
        <time>2011-01-09T08:42:07Z</time>
      </trkpt>
      <trkpt lat="43.57238" lon="3.73544">
        <ele>60.6</ele>
        <time>2011-01-09T08:42:08Z</time>
      </trkpt>
      <trkpt lat="43.57234" lon="3.7354">
        <ele>60.4</ele>
        <time>2011-01-09T08:42:09Z</time>
      </trkpt>
      <trkpt lat="43.57231" lon="3.73536">
        <ele>60.2</ele>
        <time>2011-01-09T08:42:10Z</time>
      </trkpt>
      <trkpt lat="43.57227" lon="3.73531">
        <ele>60</ele>
        <time>2011-01-09T08:42:11Z</time>
      </trkpt>
      <trkpt lat="43.57224" lon="3.73527">
        <ele>59.8</ele>
        <time>2011-01-09T08:42:12Z</time>
      </trkpt>
      <trkpt lat="43.5722" lon="3.73523">
        <ele>59.6</ele>
        <time>2011-01-09T08:42:13Z</time>
      </trkpt>
      <trkpt lat="43.57217" lon="3.73518">
        <ele>59.4</ele>
        <time>2011-01-09T08:42:14Z</time>
      </trkpt>
      <trkpt lat="43.57214" lon="3.73513">
        <ele>59.3</ele>
        <time>2011-01-09T08:42:15Z</time>
      </trkpt>
      <trkpt lat="43.57212" lon="3.73508">
        <ele>59.1</ele>
        <time>2011-01-09T08:42:16Z</time>
      </trkpt>
      <trkpt lat="43.57209" lon="3.73503">
        <ele>59</ele>
        <time>2011-01-09T08:42:17Z</time>
      </trkpt>
      <trkpt lat="43.57206" lon="3.73498">
        <ele>59</ele>
        <time>2011-01-09T08:42:18Z</time>
      </trkpt>
      <trkpt lat="43.57204" lon="3.73492">
        <ele>59</ele>
        <time>2011-01-09T08:42:19Z</time>
      </trkpt>
      <trkpt lat="43.57201" lon="3.73487">
        <ele>59.1</ele>
        <time>2011-01-09T08:42:20Z</time>
      </trkpt>
      <trkpt lat="43.57198" lon="3.73482">
        <ele>59.2</ele>
        <time>2011-01-09T08:42:21Z</time>
      </trkpt>
      <trkpt lat="43.57195" lon="3.73477">
        <ele>59.2</ele>
        <time>2011-01-09T08:42:22Z</time>
      </trkpt>
      <trkpt lat="43.57192" lon="3.73472">
        <ele>59.3</ele>
        <time>2011-01-09T08:42:23Z</time>
      </trkpt>
      <trkpt lat="43.57186" lon="3.73464">
        <ele>59.5</ele>
        <time>2011-01-09T08:42:25Z</time>
      </trkpt>
      <trkpt lat="43.5718" lon="3.73455">
        <ele>59.7</ele>
        <time>2011-01-09T08:42:27Z</time>
      </trkpt>
      <trkpt lat="43.57177" lon="3.7345">
        <ele>60</ele>
        <time>2011-01-09T08:42:28Z</time>
      </trkpt>
      <trkpt lat="43.57173" lon="3.7344">
        <ele>60.5</ele>
        <time>2011-01-09T08:42:30Z</time>
      </trkpt>
      <trkpt lat="43.57169" lon="3.7343">
        <ele>61.1</ele>
        <time>2011-01-09T08:42:32Z</time>
      </trkpt>
      <trkpt lat="43.57165" lon="3.7342">
        <ele>61.7</ele>
        <time>2011-01-09T08:42:34Z</time>
      </trkpt>
      <trkpt lat="43.57162" lon="3.73415">
        <ele>61.9</ele>
        <time>2011-01-09T08:42:35Z</time>
      </trkpt>
      <trkpt lat="43.57154" lon="3.73403">
        <ele>62.2</ele>
        <time>2011-01-09T08:42:38Z</time>
      </trkpt>
      <trkpt lat="43.5715" lon="3.73395">
        <ele>62.5</ele>
        <time>2011-01-09T08:42:40Z</time>
      </trkpt>
      <trkpt lat="43.57146" lon="3.73387">
        <ele>62.8</ele>
        <time>2011-01-09T08:42:42Z</time>
      </trkpt>
      <trkpt lat="43.57141" lon="3.73379">
        <ele>63.1</ele>
        <time>2011-01-09T08:42:44Z</time>
      </trkpt>
      <trkpt lat="43.57137" lon="3.73371">
        <ele>63.3</ele>
        <time>2011-01-09T08:42:46Z</time>
      </trkpt>
      <trkpt lat="43.57132" lon="3.73363">
        <ele>63.5</ele>
        <time>2011-01-09T08:42:48Z</time>
      </trkpt>
      <trkpt lat="43.57128" lon="3.73357">
        <ele>63.8</ele>
        <time>2011-01-09T08:42:50Z</time>
      </trkpt>
      <trkpt lat="43.57124" lon="3.7335">
        <ele>64</ele>
        <time>2011-01-09T08:42:52Z</time>
      </trkpt>
      <trkpt lat="43.5712" lon="3.73343">
        <ele>64.2</ele>
        <time>2011-01-09T08:42:54Z</time>
      </trkpt>
      <trkpt lat="43.57116" lon="3.73336">
        <ele>64.4</ele>
        <time>2011-01-09T08:42:56Z</time>
      </trkpt>
      <trkpt lat="43.57112" lon="3.73329">
        <ele>64.6</ele>
        <time>2011-01-09T08:42:58Z</time>
      </trkpt>
      <trkpt lat="43.57108" lon="3.73318">
        <ele>64.9</ele>
        <time>2011-01-09T08:43:01Z</time>
      </trkpt>
      <trkpt lat="43.57102" lon="3.73309">
        <ele>65</ele>
        <time>2011-01-09T08:43:04Z</time>
      </trkpt>
      <trkpt lat="43.57098" lon="3.73301">
        <ele>65.1</ele>
        <time>2011-01-09T08:43:06Z</time>
      </trkpt>
      <trkpt lat="43.57094" lon="3.73294">
        <ele>65.1</ele>
        <time>2011-01-09T08:43:08Z</time>
      </trkpt>
      <trkpt lat="43.5709" lon="3.73287">
        <ele>65.1</ele>
        <time>2011-01-09T08:43:10Z</time>
      </trkpt>
      <trkpt lat="43.57085" lon="3.73279">
        <ele>65.1</ele>
        <time>2011-01-09T08:43:12Z</time>
      </trkpt>
      <trkpt lat="43.57081" lon="3.73272">
        <ele>65.1</ele>
        <time>2011-01-09T08:43:14Z</time>
      </trkpt>
      <trkpt lat="43.57076" lon="3.73265">
        <ele>65.1</ele>
        <time>2011-01-09T08:43:16Z</time>
      </trkpt>
      <trkpt lat="43.57072" lon="3.73257">
        <ele>65.1</ele>
        <time>2011-01-09T08:43:18Z</time>
      </trkpt>
      <trkpt lat="43.57067" lon="3.7325">
        <ele>65</ele>
        <time>2011-01-09T08:43:20Z</time>
      </trkpt>
      <trkpt lat="43.57062" lon="3.73244">
        <ele>65.2</ele>
        <time>2011-01-09T08:43:22Z</time>
      </trkpt>
      <trkpt lat="43.57058" lon="3.73236">
        <ele>65.5</ele>
        <time>2011-01-09T08:43:24Z</time>
      </trkpt>
      <trkpt lat="43.57054" lon="3.73227">
        <ele>65.8</ele>
        <time>2011-01-09T08:43:26Z</time>
      </trkpt>
      <trkpt lat="43.57049" lon="3.73221">
        <ele>66</ele>
        <time>2011-01-09T08:43:28Z</time>
      </trkpt>
      <trkpt lat="43.57045" lon="3.73212">
        <ele>66.2</ele>
        <time>2011-01-09T08:43:30Z</time>
      </trkpt>
      <trkpt lat="43.57041" lon="3.73204">
        <ele>66.5</ele>
        <time>2011-01-09T08:43:32Z</time>
      </trkpt>
      <trkpt lat="43.57037" lon="3.73196">
        <ele>66.6</ele>
        <time>2011-01-09T08:43:34Z</time>
      </trkpt>
      <trkpt lat="43.57032" lon="3.7319">
        <ele>66.6</ele>
        <time>2011-01-09T08:43:36Z</time>
      </trkpt>
      <trkpt lat="43.5703" lon="3.73186">
        <ele>66.7</ele>
        <time>2011-01-09T08:43:37Z</time>
      </trkpt>
      <trkpt lat="43.57023" lon="3.73174">
        <ele>66.8</ele>
        <time>2011-01-09T08:43:40Z</time>
      </trkpt>
      <trkpt lat="43.57019" lon="3.73165">
        <ele>66.9</ele>
        <time>2011-01-09T08:43:42Z</time>
      </trkpt>
      <trkpt lat="43.57015" lon="3.73157">
        <ele>67</ele>
        <time>2011-01-09T08:43:44Z</time>
      </trkpt>
      <trkpt lat="43.57011" lon="3.73148">
        <ele>67</ele>
        <time>2011-01-09T08:43:46Z</time>
      </trkpt>
      <trkpt lat="43.57008" lon="3.7314">
        <ele>67.1</ele>
        <time>2011-01-09T08:43:48Z</time>
      </trkpt>
      <trkpt lat="43.57006" lon="3.7313">
        <ele>67.3</ele>
        <time>2011-01-09T08:43:51Z</time>
      </trkpt>
      <trkpt lat="43.57002" lon="3.73119">
        <ele>67.4</ele>
        <time>2011-01-09T08:43:54Z</time>
      </trkpt>
      <trkpt lat="43.56997" lon="3.73112">
        <ele>67.3</ele>
        <time>2011-01-09T08:43:56Z</time>
      </trkpt>
      <trkpt lat="43.56993" lon="3.73105">
        <ele>67.2</ele>
        <time>2011-01-09T08:43:58Z</time>
      </trkpt>
      <trkpt lat="43.56988" lon="3.73096">
        <ele>67.2</ele>
        <time>2011-01-09T08:44:00Z</time>
      </trkpt>
      <trkpt lat="43.56984" lon="3.73087">
        <ele>67.2</ele>
        <time>2011-01-09T08:44:02Z</time>
      </trkpt>
      <trkpt lat="43.56981" lon="3.73078">
        <ele>67</ele>
        <time>2011-01-09T08:44:04Z</time>
      </trkpt>
      <trkpt lat="43.56977" lon="3.7307">
        <ele>66.9</ele>
        <time>2011-01-09T08:44:06Z</time>
      </trkpt>
      <trkpt lat="43.56974" lon="3.73062">
        <ele>66.8</ele>
        <time>2011-01-09T08:44:08Z</time>
      </trkpt>
      <trkpt lat="43.56971" lon="3.73052">
        <ele>66.9</ele>
        <time>2011-01-09T08:44:11Z</time>
      </trkpt>
      <trkpt lat="43.56968" lon="3.73044">
        <ele>66.8</ele>
        <time>2011-01-09T08:44:13Z</time>
      </trkpt>
      <trkpt lat="43.56963" lon="3.73035">
        <ele>66.6</ele>
        <time>2011-01-09T08:44:15Z</time>
      </trkpt>
      <trkpt lat="43.56959" lon="3.73026">
        <ele>66.6</ele>
        <time>2011-01-09T08:44:17Z</time>
      </trkpt>
      <trkpt lat="43.5696" lon="3.73015">
        <ele>67.1</ele>
        <time>2011-01-09T08:44:20Z</time>
      </trkpt>
      <trkpt lat="43.56967" lon="3.73013">
        <ele>67.8</ele>
        <time>2011-01-09T08:44:23Z</time>
      </trkpt>
      <trkpt lat="43.56975" lon="3.73013">
        <ele>68.5</ele>
        <time>2011-01-09T08:44:26Z</time>
      </trkpt>
      <trkpt lat="43.56981" lon="3.73005">
        <ele>69.2</ele>
        <time>2011-01-09T08:44:29Z</time>
      </trkpt>
      <trkpt lat="43.56986" lon="3.72997">
        <ele>69.9</ele>
        <time>2011-01-09T08:44:32Z</time>
      </trkpt>
      <trkpt lat="43.56992" lon="3.72991">
        <ele>70.6</ele>
        <time>2011-01-09T08:44:35Z</time>
      </trkpt>
      <trkpt lat="43.57" lon="3.72988">
        <ele>71.3</ele>
        <time>2011-01-09T08:44:38Z</time>
      </trkpt>
      <trkpt lat="43.57002" lon="3.72987">
        <ele>71.6</ele>
        <time>2011-01-09T08:44:39Z</time>
      </trkpt>
      <trkpt lat="43.57016" lon="3.72989">
        <ele>73.2</ele>
        <time>2011-01-09T08:44:44Z</time>
      </trkpt>
      <trkpt lat="43.57023" lon="3.72992">
        <ele>73.9</ele>
        <time>2011-01-09T08:44:47Z</time>
      </trkpt>
      <trkpt lat="43.5703" lon="3.72995">
        <ele>74.7</ele>
        <time>2011-01-09T08:44:50Z</time>
      </trkpt>
      <trkpt lat="43.57037" lon="3.72997">
        <ele>75.5</ele>
        <time>2011-01-09T08:44:53Z</time>
      </trkpt>
      <trkpt lat="43.57044" lon="3.73001">
        <ele>76.2</ele>
        <time>2011-01-09T08:44:56Z</time>
      </trkpt>
      <trkpt lat="43.5705" lon="3.73006">
        <ele>76.8</ele>
        <time>2011-01-09T08:44:59Z</time>
      </trkpt>
      <trkpt lat="43.57056" lon="3.73012">
        <ele>77.3</ele>
        <time>2011-01-09T08:45:02Z</time>
      </trkpt>
      <trkpt lat="43.57063" lon="3.73016">
        <ele>78</ele>
        <time>2011-01-09T08:45:05Z</time>
      </trkpt>
      <trkpt lat="43.5707" lon="3.73018">
        <ele>78.8</ele>
        <time>2011-01-09T08:45:08Z</time>
      </trkpt>
      <trkpt lat="43.57077" lon="3.73021">
        <ele>79.5</ele>
        <time>2011-01-09T08:45:11Z</time>
      </trkpt>
      <trkpt lat="43.57082" lon="3.73028">
        <ele>79.9</ele>
        <time>2011-01-09T08:45:14Z</time>
      </trkpt>
      <trkpt lat="43.57088" lon="3.73035">
        <ele>80.1</ele>
        <time>2011-01-09T08:45:17Z</time>
      </trkpt>
      <trkpt lat="43.57094" lon="3.73041">
        <ele>80.4</ele>
        <time>2011-01-09T08:45:20Z</time>
      </trkpt>
      <trkpt lat="43.571" lon="3.73046">
        <ele>80.8</ele>
        <time>2011-01-09T08:45:23Z</time>
      </trkpt>
      <trkpt lat="43.57107" lon="3.73049">
        <ele>81.3</ele>
        <time>2011-01-09T08:45:26Z</time>
      </trkpt>
      <trkpt lat="43.57113" lon="3.73051">
        <ele>81.8</ele>
        <time>2011-01-09T08:45:29Z</time>
      </trkpt>
      <trkpt lat="43.57122" lon="3.73052">
        <ele>82.5</ele>
        <time>2011-01-09T08:45:33Z</time>
      </trkpt>
      <trkpt lat="43.5713" lon="3.73056">
        <ele>83.1</ele>
        <time>2011-01-09T08:45:37Z</time>
      </trkpt>
      <trkpt lat="43.57136" lon="3.73061">
        <ele>83.5</ele>
        <time>2011-01-09T08:45:40Z</time>
      </trkpt>
      <trkpt lat="43.57138" lon="3.73062">
        <ele>83.7</ele>
        <time>2011-01-09T08:45:41Z</time>
      </trkpt>
      <trkpt lat="43.57153" lon="3.73065">
        <ele>85</ele>
        <time>2011-01-09T08:45:48Z</time>
      </trkpt>
      <trkpt lat="43.57161" lon="3.73061">
        <ele>85.7</ele>
        <time>2011-01-09T08:45:52Z</time>
      </trkpt>
      <trkpt lat="43.57168" lon="3.73058">
        <ele>86.3</ele>
        <time>2011-01-09T08:45:56Z</time>
      </trkpt>
      <trkpt lat="43.57176" lon="3.73058">
        <ele>86.1</ele>
        <time>2011-01-09T08:46:00Z</time>
      </trkpt>
      <trkpt lat="43.57183" lon="3.7306">
        <ele>85.9</ele>
        <time>2011-01-09T08:46:04Z</time>
      </trkpt>
      <trkpt lat="43.5719" lon="3.73054">
        <ele>85.7</ele>
        <time>2011-01-09T08:46:08Z</time>
      </trkpt>
      <trkpt lat="43.57191" lon="3.73042">
        <ele>85.6</ele>
        <time>2011-01-09T08:46:12Z</time>
      </trkpt>
      <trkpt lat="43.57191" lon="3.73032">
        <ele>85.6</ele>
        <time>2011-01-09T08:46:15Z</time>
      </trkpt>
      <trkpt lat="43.57193" lon="3.7302">
        <ele>85.5</ele>
        <time>2011-01-09T08:46:18Z</time>
      </trkpt>
      <trkpt lat="43.57196" lon="3.73012">
        <ele>85.3</ele>
        <time>2011-01-09T08:46:20Z</time>
      </trkpt>
      <trkpt lat="43.57199" lon="3.73003">
        <ele>85.1</ele>
        <time>2011-01-09T08:46:22Z</time>
      </trkpt>
      <trkpt lat="43.57202" lon="3.72991">
        <ele>85.2</ele>
        <time>2011-01-09T08:46:24Z</time>
      </trkpt>
      <trkpt lat="43.57206" lon="3.7298">
        <ele>85.4</ele>
        <time>2011-01-09T08:46:26Z</time>
      </trkpt>
      <trkpt lat="43.5721" lon="3.72972">
        <ele>85.4</ele>
        <time>2011-01-09T08:46:28Z</time>
      </trkpt>
      <trkpt lat="43.57213" lon="3.72963">
        <ele>85.5</ele>
        <time>2011-01-09T08:46:30Z</time>
      </trkpt>
      <trkpt lat="43.57216" lon="3.72955">
        <ele>85.6</ele>
        <time>2011-01-09T08:46:32Z</time>
      </trkpt>
      <trkpt lat="43.57224" lon="3.72949">
        <ele>85.4</ele>
        <time>2011-01-09T08:46:35Z</time>
      </trkpt>
      <trkpt lat="43.57229" lon="3.72943">
        <ele>85.3</ele>
        <time>2011-01-09T08:46:37Z</time>
      </trkpt>
      <trkpt lat="43.57235" lon="3.72935">
        <ele>85.3</ele>
        <time>2011-01-09T08:46:40Z</time>
      </trkpt>
      <trkpt lat="43.57239" lon="3.72926">
        <ele>85.3</ele>
        <time>2011-01-09T08:46:43Z</time>
      </trkpt>
      <trkpt lat="43.5724" lon="3.72923">
        <ele>85.4</ele>
        <time>2011-01-09T08:46:44Z</time>
      </trkpt>
      <trkpt lat="43.57252" lon="3.72929">
        <ele>84.2</ele>
        <time>2011-01-09T08:46:50Z</time>
      </trkpt>
      <trkpt lat="43.57258" lon="3.72933">
        <ele>83.2</ele>
        <time>2011-01-09T08:46:52Z</time>
      </trkpt>
      <trkpt lat="43.57264" lon="3.72939">
        <ele>82.1</ele>
        <time>2011-01-09T08:46:54Z</time>
      </trkpt>
      <trkpt lat="43.5727" lon="3.72942">
        <ele>81.1</ele>
        <time>2011-01-09T08:46:56Z</time>
      </trkpt>
      <trkpt lat="43.57276" lon="3.72943">
        <ele>80.2</ele>
        <time>2011-01-09T08:46:58Z</time>
      </trkpt>
      <trkpt lat="43.57284" lon="3.72944">
        <ele>78.9</ele>
        <time>2011-01-09T08:47:00Z</time>
      </trkpt>
      <trkpt lat="43.5729" lon="3.72944">
        <ele>78.1</ele>
        <time>2011-01-09T08:47:01Z</time>
      </trkpt>
      <trkpt lat="43.57296" lon="3.72945">
        <ele>77.3</ele>
        <time>2011-01-09T08:47:02Z</time>
      </trkpt>
      <trkpt lat="43.57301" lon="3.72945">
        <ele>76.4</ele>
        <time>2011-01-09T08:47:03Z</time>
      </trkpt>
      <trkpt lat="43.57307" lon="3.72944">
        <ele>75.5</ele>
        <time>2011-01-09T08:47:04Z</time>
      </trkpt>
      <trkpt lat="43.57313" lon="3.72944">
        <ele>74.6</ele>
        <time>2011-01-09T08:47:05Z</time>
      </trkpt>
      <trkpt lat="43.57319" lon="3.72944">
        <ele>73.8</ele>
        <time>2011-01-09T08:47:06Z</time>
      </trkpt>
      <trkpt lat="43.57328" lon="3.72941">
        <ele>72.6</ele>
        <time>2011-01-09T08:47:08Z</time>
      </trkpt>
      <trkpt lat="43.57333" lon="3.72934">
        <ele>71.8</ele>
        <time>2011-01-09T08:47:10Z</time>
      </trkpt>
      <trkpt lat="43.57339" lon="3.72927">
        <ele>72.3</ele>
        <time>2011-01-09T08:47:12Z</time>
      </trkpt>
      <trkpt lat="43.57343" lon="3.72919">
        <ele>72.7</ele>
        <time>2011-01-09T08:47:14Z</time>
      </trkpt>
      <trkpt lat="43.57348" lon="3.7291">
        <ele>73.7</ele>
        <time>2011-01-09T08:47:16Z</time>
      </trkpt>
      <trkpt lat="43.57352" lon="3.72902">
        <ele>74.7</ele>
        <time>2011-01-09T08:47:18Z</time>
      </trkpt>
      <trkpt lat="43.57358" lon="3.72893">
        <ele>75.8</ele>
        <time>2011-01-09T08:47:21Z</time>
      </trkpt>
      <trkpt lat="43.57362" lon="3.72887">
        <ele>76.4</ele>
        <time>2011-01-09T08:47:23Z</time>
      </trkpt>
      <trkpt lat="43.57367" lon="3.72881">
        <ele>76.9</ele>
        <time>2011-01-09T08:47:25Z</time>
      </trkpt>
      <trkpt lat="43.57372" lon="3.72875">
        <ele>77.3</ele>
        <time>2011-01-09T08:47:27Z</time>
      </trkpt>
      <trkpt lat="43.57377" lon="3.72869">
        <ele>77.5</ele>
        <time>2011-01-09T08:47:29Z</time>
      </trkpt>
      <trkpt lat="43.57382" lon="3.72864">
        <ele>77.7</ele>
        <time>2011-01-09T08:47:31Z</time>
      </trkpt>
      <trkpt lat="43.57388" lon="3.72858">
        <ele>77.7</ele>
        <time>2011-01-09T08:47:33Z</time>
      </trkpt>
      <trkpt lat="43.57393" lon="3.72853">
        <ele>77.6</ele>
        <time>2011-01-09T08:47:35Z</time>
      </trkpt>
      <trkpt lat="43.57398" lon="3.72849">
        <ele>77.4</ele>
        <time>2011-01-09T08:47:37Z</time>
      </trkpt>
      <trkpt lat="43.57404" lon="3.72844">
        <ele>77.1</ele>
        <time>2011-01-09T08:47:39Z</time>
      </trkpt>
      <trkpt lat="43.5741" lon="3.7284">
        <ele>76.6</ele>
        <time>2011-01-09T08:47:41Z</time>
      </trkpt>
      <trkpt lat="43.57416" lon="3.72836">
        <ele>76.1</ele>
        <time>2011-01-09T08:47:43Z</time>
      </trkpt>
      <trkpt lat="43.57421" lon="3.72832">
        <ele>76.5</ele>
        <time>2011-01-09T08:47:45Z</time>
      </trkpt>
      <trkpt lat="43.57424" lon="3.7283">
        <ele>76.9</ele>
        <time>2011-01-09T08:47:46Z</time>
      </trkpt>
      <trkpt lat="43.57435" lon="3.72823">
        <ele>78.3</ele>
        <time>2011-01-09T08:47:50Z</time>
      </trkpt>
      <trkpt lat="43.57443" lon="3.72818">
        <ele>79.1</ele>
        <time>2011-01-09T08:47:53Z</time>
      </trkpt>
      <trkpt lat="43.5745" lon="3.72812">
        <ele>79.7</ele>
        <time>2011-01-09T08:47:56Z</time>
      </trkpt>
      <trkpt lat="43.57455" lon="3.72807">
        <ele>80</ele>
        <time>2011-01-09T08:47:58Z</time>
      </trkpt>
      <trkpt lat="43.57462" lon="3.72803">
        <ele>80.3</ele>
        <time>2011-01-09T08:48:00Z</time>
      </trkpt>
      <trkpt lat="43.57469" lon="3.728">
        <ele>80.4</ele>
        <time>2011-01-09T08:48:02Z</time>
      </trkpt>
      <trkpt lat="43.57475" lon="3.72796">
        <ele>80.4</ele>
        <time>2011-01-09T08:48:04Z</time>
      </trkpt>
      <trkpt lat="43.57482" lon="3.72792">
        <ele>80.3</ele>
        <time>2011-01-09T08:48:07Z</time>
      </trkpt>
      <trkpt lat="43.57488" lon="3.72785">
        <ele>80.1</ele>
        <time>2011-01-09T08:48:10Z</time>
      </trkpt>
      <trkpt lat="43.57495" lon="3.72778">
        <ele>79.6</ele>
        <time>2011-01-09T08:48:15Z</time>
      </trkpt>
      <trkpt lat="43.57504" lon="3.72774">
        <ele>79.3</ele>
        <time>2011-01-09T08:48:20Z</time>
      </trkpt>
      <trkpt lat="43.57511" lon="3.72768">
        <ele>79.2</ele>
        <time>2011-01-09T08:48:25Z</time>
      </trkpt>
      <trkpt lat="43.57515" lon="3.72759">
        <ele>79</ele>
        <time>2011-01-09T08:48:30Z</time>
      </trkpt>
      <trkpt lat="43.57519" lon="3.72749">
        <ele>78.7</ele>
        <time>2011-01-09T08:48:36Z</time>
      </trkpt>
      <trkpt lat="43.57523" lon="3.72738">
        <ele>79.4</ele>
        <time>2011-01-09T08:48:42Z</time>
      </trkpt>
      <trkpt lat="43.57526" lon="3.72726">
        <ele>80</ele>
        <time>2011-01-09T08:50:17Z</time>
      </trkpt>
      <trkpt lat="43.57527" lon="3.72725">
        <ele>80</ele>
        <time>2011-01-09T08:50:18Z</time>
      </trkpt>
      <trkpt lat="43.57541" lon="3.72726">
        <ele>80.5</ele>
        <time>2011-01-09T08:50:25Z</time>
      </trkpt>
      <trkpt lat="43.57544" lon="3.72734">
        <ele>80.3</ele>
        <time>2011-01-09T08:50:28Z</time>
      </trkpt>
      <trkpt lat="43.57549" lon="3.72742">
        <ele>80.1</ele>
        <time>2011-01-09T08:50:31Z</time>
      </trkpt>
      <trkpt lat="43.57556" lon="3.72747">
        <ele>80.1</ele>
        <time>2011-01-09T08:50:34Z</time>
      </trkpt>
      <trkpt lat="43.57564" lon="3.72753">
        <ele>80.4</ele>
        <time>2011-01-09T08:50:37Z</time>
      </trkpt>
      <trkpt lat="43.57571" lon="3.72758">
        <ele>81</ele>
        <time>2011-01-09T08:50:40Z</time>
      </trkpt>
      <trkpt lat="43.57578" lon="3.72764">
        <ele>81.5</ele>
        <time>2011-01-09T08:50:43Z</time>
      </trkpt>
      <trkpt lat="43.57585" lon="3.72771">
        <ele>82.1</ele>
        <time>2011-01-09T08:50:46Z</time>
      </trkpt>
      <trkpt lat="43.57591" lon="3.72777">
        <ele>82.8</ele>
        <time>2011-01-09T08:50:49Z</time>
      </trkpt>
      <trkpt lat="43.57598" lon="3.72782">
        <ele>83.4</ele>
        <time>2011-01-09T08:50:52Z</time>
      </trkpt>
      <trkpt lat="43.57606" lon="3.72786">
        <ele>84.1</ele>
        <time>2011-01-09T08:50:55Z</time>
      </trkpt>
      <trkpt lat="43.57611" lon="3.72789">
        <ele>84.5</ele>
        <time>2011-01-09T08:50:57Z</time>
      </trkpt>
      <trkpt lat="43.57616" lon="3.72794">
        <ele>85.1</ele>
        <time>2011-01-09T08:50:59Z</time>
      </trkpt>
      <trkpt lat="43.57621" lon="3.72801">
        <ele>85.7</ele>
        <time>2011-01-09T08:51:01Z</time>
      </trkpt>
      <trkpt lat="43.57627" lon="3.72811">
        <ele>86.5</ele>
        <time>2011-01-09T08:51:09Z</time>
      </trkpt>
      <trkpt lat="43.57633" lon="3.72817">
        <ele>87.2</ele>
        <time>2011-01-09T08:51:12Z</time>
      </trkpt>
      <trkpt lat="43.5764" lon="3.72825">
        <ele>88</ele>
        <time>2011-01-09T08:51:18Z</time>
      </trkpt>
      <trkpt lat="43.5764" lon="3.72825">
        <ele>88</ele>
        <time>2011-01-09T08:51:19Z</time>
      </trkpt>
      <trkpt lat="43.57642" lon="3.72848">
        <ele>89.2</ele>
        <time>2011-01-09T08:51:33Z</time>
      </trkpt>
      <trkpt lat="43.57641" lon="3.72859">
        <ele>89.7</ele>
        <time>2011-01-09T08:51:41Z</time>
      </trkpt>
      <trkpt lat="43.57644" lon="3.7287">
        <ele>90.3</ele>
        <time>2011-01-09T08:51:48Z</time>
      </trkpt>
      <trkpt lat="43.5765" lon="3.72879">
        <ele>90.7</ele>
        <time>2011-01-09T08:51:55Z</time>
      </trkpt>
      <trkpt lat="43.57655" lon="3.72887">
        <ele>91.1</ele>
        <time>2011-01-09T08:52:04Z</time>
      </trkpt>
      <trkpt lat="43.57656" lon="3.72889">
        <ele>91.2</ele>
        <time>2011-01-09T08:52:05Z</time>
      </trkpt>
      <trkpt lat="43.57666" lon="3.72903">
        <ele>91.7</ele>
        <time>2011-01-09T08:52:13Z</time>
      </trkpt>
      <trkpt lat="43.57672" lon="3.72909">
        <ele>92.1</ele>
        <time>2011-01-09T08:52:17Z</time>
      </trkpt>
      <trkpt lat="43.57679" lon="3.72914">
        <ele>92.5</ele>
        <time>2011-01-09T08:52:20Z</time>
      </trkpt>
      <trkpt lat="43.57681" lon="3.72916">
        <ele>92.7</ele>
        <time>2011-01-09T08:52:21Z</time>
      </trkpt>
      <trkpt lat="43.57693" lon="3.72926">
        <ele>93.5</ele>
        <time>2011-01-09T08:52:27Z</time>
      </trkpt>
      <trkpt lat="43.57698" lon="3.72932">
        <ele>93.8</ele>
        <time>2011-01-09T08:52:30Z</time>
      </trkpt>
      <trkpt lat="43.57703" lon="3.7294">
        <ele>94.2</ele>
        <time>2011-01-09T08:52:33Z</time>
      </trkpt>
      <trkpt lat="43.57708" lon="3.72948">
        <ele>94.6</ele>
        <time>2011-01-09T08:52:36Z</time>
      </trkpt>
      <trkpt lat="43.57713" lon="3.72958">
        <ele>94.9</ele>
        <time>2011-01-09T08:52:39Z</time>
      </trkpt>
      <trkpt lat="43.57717" lon="3.72964">
        <ele>95.1</ele>
        <time>2011-01-09T08:52:41Z</time>
      </trkpt>
      <trkpt lat="43.57721" lon="3.72971">
        <ele>95.3</ele>
        <time>2011-01-09T08:52:43Z</time>
      </trkpt>
      <trkpt lat="43.57725" lon="3.72978">
        <ele>95.4</ele>
        <time>2011-01-09T08:52:45Z</time>
      </trkpt>
      <trkpt lat="43.57729" lon="3.72984">
        <ele>95.6</ele>
        <time>2011-01-09T08:52:47Z</time>
      </trkpt>
      <trkpt lat="43.57734" lon="3.7299">
        <ele>95.7</ele>
        <time>2011-01-09T08:52:49Z</time>
      </trkpt>
      <trkpt lat="43.57739" lon="3.72995">
        <ele>95.8</ele>
        <time>2011-01-09T08:52:51Z</time>
      </trkpt>
      <trkpt lat="43.57744" lon="3.73001">
        <ele>96</ele>
        <time>2011-01-09T08:52:53Z</time>
      </trkpt>
      <trkpt lat="43.57749" lon="3.73007">
        <ele>96.2</ele>
        <time>2011-01-09T08:52:55Z</time>
      </trkpt>
      <trkpt lat="43.57755" lon="3.73013">
        <ele>96.7</ele>
        <time>2011-01-09T08:52:57Z</time>
      </trkpt>
      <trkpt lat="43.5776" lon="3.73018">
        <ele>97.2</ele>
        <time>2011-01-09T08:52:59Z</time>
      </trkpt>
      <trkpt lat="43.57763" lon="3.73026">
        <ele>97.5</ele>
        <time>2011-01-09T08:53:01Z</time>
      </trkpt>
      <trkpt lat="43.57766" lon="3.73035">
        <ele>97.9</ele>
        <time>2011-01-09T08:53:03Z</time>
      </trkpt>
      <trkpt lat="43.57772" lon="3.73043">
        <ele>98.4</ele>
        <time>2011-01-09T08:53:07Z</time>
      </trkpt>
      <trkpt lat="43.57778" lon="3.7305">
        <ele>98.9</ele>
        <time>2011-01-09T08:53:11Z</time>
      </trkpt>
      <trkpt lat="43.57782" lon="3.7306">
        <ele>99.3</ele>
        <time>2011-01-09T08:53:14Z</time>
      </trkpt>
      <trkpt lat="43.57785" lon="3.73072">
        <ele>99.6</ele>
        <time>2011-01-09T08:53:17Z</time>
      </trkpt>
      <trkpt lat="43.57786" lon="3.7308">
        <ele>99.8</ele>
        <time>2011-01-09T08:53:19Z</time>
      </trkpt>
      <trkpt lat="43.57786" lon="3.73088">
        <ele>100</ele>
        <time>2011-01-09T08:53:21Z</time>
      </trkpt>
      <trkpt lat="43.57787" lon="3.73093">
        <ele>100.1</ele>
        <time>2011-01-09T08:53:22Z</time>
      </trkpt>
      <trkpt lat="43.57788" lon="3.73105">
        <ele>100.3</ele>
        <time>2011-01-09T08:53:25Z</time>
      </trkpt>
      <trkpt lat="43.57788" lon="3.73114">
        <ele>100.5</ele>
        <time>2011-01-09T08:53:27Z</time>
      </trkpt>
      <trkpt lat="43.57789" lon="3.73122">
        <ele>100.6</ele>
        <time>2011-01-09T08:53:29Z</time>
      </trkpt>
      <trkpt lat="43.57791" lon="3.73134">
        <ele>100.9</ele>
        <time>2011-01-09T08:53:32Z</time>
      </trkpt>
      <trkpt lat="43.57795" lon="3.73144">
        <ele>101.1</ele>
        <time>2011-01-09T08:53:35Z</time>
      </trkpt>
      <trkpt lat="43.578" lon="3.73153">
        <ele>101.4</ele>
        <time>2011-01-09T08:57:19Z</time>
      </trkpt>
      <trkpt lat="43.57801" lon="3.73155">
        <ele>101.4</ele>
        <time>2011-01-09T08:57:20Z</time>
      </trkpt>
      <trkpt lat="43.57811" lon="3.73169">
        <ele>101.8</ele>
        <time>2011-01-09T08:57:27Z</time>
      </trkpt>
      <trkpt lat="43.57815" lon="3.7318">
        <ele>102</ele>
        <time>2011-01-09T08:57:31Z</time>
      </trkpt>
      <trkpt lat="43.57817" lon="3.7319">
        <ele>102.1</ele>
        <time>2011-01-09T08:57:34Z</time>
      </trkpt>
      <trkpt lat="43.57819" lon="3.73201">
        <ele>102.3</ele>
        <time>2011-01-09T08:57:37Z</time>
      </trkpt>
      <trkpt lat="43.57821" lon="3.73211">
        <ele>102.5</ele>
        <time>2011-01-09T08:57:40Z</time>
      </trkpt>
      <trkpt lat="43.57823" lon="3.73221">
        <ele>102.6</ele>
        <time>2011-01-09T08:57:43Z</time>
      </trkpt>
      <trkpt lat="43.57827" lon="3.73231">
        <ele>102.8</ele>
        <time>2011-01-09T08:57:46Z</time>
      </trkpt>
      <trkpt lat="43.57833" lon="3.73239">
        <ele>102.9</ele>
        <time>2011-01-09T08:57:49Z</time>
      </trkpt>
      <trkpt lat="43.57839" lon="3.73248">
        <ele>103</ele>
        <time>2011-01-09T08:57:52Z</time>
      </trkpt>
      <trkpt lat="43.57845" lon="3.73256">
        <ele>103.3</ele>
        <time>2011-01-09T08:57:55Z</time>
      </trkpt>
      <trkpt lat="43.57852" lon="3.73264">
        <ele>103.4</ele>
        <time>2011-01-09T08:57:58Z</time>
      </trkpt>
      <trkpt lat="43.57858" lon="3.73273">
        <ele>103.6</ele>
        <time>2011-01-09T08:58:01Z</time>
      </trkpt>
      <trkpt lat="43.57862" lon="3.73283">
        <ele>103.7</ele>
        <time>2011-01-09T08:58:04Z</time>
      </trkpt>
      <trkpt lat="43.57867" lon="3.73293">
        <ele>103.8</ele>
        <time>2011-01-09T08:58:07Z</time>
      </trkpt>
      <trkpt lat="43.57869" lon="3.73301">
        <ele>103.9</ele>
        <time>2011-01-09T08:58:09Z</time>
      </trkpt>
      <trkpt lat="43.57872" lon="3.73308">
        <ele>103.9</ele>
        <time>2011-01-09T08:58:11Z</time>
      </trkpt>
      <trkpt lat="43.57874" lon="3.73316">
        <ele>103.9</ele>
        <time>2011-01-09T08:58:13Z</time>
      </trkpt>
      <trkpt lat="43.57876" lon="3.73325">
        <ele>103.9</ele>
        <time>2011-01-09T08:58:15Z</time>
      </trkpt>
      <trkpt lat="43.57879" lon="3.73333">
        <ele>103.9</ele>
        <time>2011-01-09T08:58:17Z</time>
      </trkpt>
      <trkpt lat="43.57881" lon="3.73341">
        <ele>103.7</ele>
        <time>2011-01-09T08:58:19Z</time>
      </trkpt>
      <trkpt lat="43.57884" lon="3.73349">
        <ele>103.6</ele>
        <time>2011-01-09T08:58:21Z</time>
      </trkpt>
      <trkpt lat="43.57884" lon="3.73354">
        <ele>103.5</ele>
        <time>2011-01-09T08:58:22Z</time>
      </trkpt>
      <trkpt lat="43.57887" lon="3.73367">
        <ele>103.2</ele>
        <time>2011-01-09T08:58:25Z</time>
      </trkpt>
      <trkpt lat="43.57887" lon="3.73375">
        <ele>103.1</ele>
        <time>2011-01-09T08:58:27Z</time>
      </trkpt>
      <trkpt lat="43.57889" lon="3.73383">
        <ele>102.9</ele>
        <time>2011-01-09T08:58:29Z</time>
      </trkpt>
      <trkpt lat="43.57892" lon="3.7339">
        <ele>102.6</ele>
        <time>2011-01-09T08:58:31Z</time>
      </trkpt>
      <trkpt lat="43.57897" lon="3.73396">
        <ele>102.3</ele>
        <time>2011-01-09T08:58:33Z</time>
      </trkpt>
      <trkpt lat="43.57901" lon="3.73405">
        <ele>102</ele>
        <time>2011-01-09T08:58:35Z</time>
      </trkpt>
      <trkpt lat="43.57904" lon="3.73415">
        <ele>101.6</ele>
        <time>2011-01-09T08:58:37Z</time>
      </trkpt>
      <trkpt lat="43.57908" lon="3.73424">
        <ele>101.4</ele>
        <time>2011-01-09T08:58:39Z</time>
      </trkpt>
      <trkpt lat="43.5791" lon="3.73432">
        <ele>101.3</ele>
        <time>2011-01-09T08:58:41Z</time>
      </trkpt>
      <trkpt lat="43.57915" lon="3.7344">
        <ele>101.1</ele>
        <time>2011-01-09T08:58:44Z</time>
      </trkpt>
      <trkpt lat="43.57919" lon="3.73449">
        <ele>100.9</ele>
        <time>2011-01-09T08:58:47Z</time>
      </trkpt>
      <trkpt lat="43.57923" lon="3.73458">
        <ele>100.5</ele>
        <time>2011-01-09T08:58:50Z</time>
      </trkpt>
      <trkpt lat="43.57929" lon="3.73467">
        <ele>100</ele>
        <time>2011-01-09T08:58:54Z</time>
      </trkpt>
      <trkpt lat="43.57935" lon="3.73474">
        <ele>99.5</ele>
        <time>2011-01-09T08:58:57Z</time>
      </trkpt>
      <trkpt lat="43.57939" lon="3.73481">
        <ele>99</ele>
        <time>2011-01-09T08:58:59Z</time>
      </trkpt>
      <trkpt lat="43.57944" lon="3.73489">
        <ele>98.3</ele>
        <time>2011-01-09T08:59:01Z</time>
      </trkpt>
      <trkpt lat="43.57949" lon="3.73496">
        <ele>97.6</ele>
        <time>2011-01-09T08:59:03Z</time>
      </trkpt>
      <trkpt lat="43.57954" lon="3.73502">
        <ele>96.9</ele>
        <time>2011-01-09T08:59:05Z</time>
      </trkpt>
      <trkpt lat="43.57958" lon="3.73509">
        <ele>96.1</ele>
        <time>2011-01-09T08:59:07Z</time>
      </trkpt>
      <trkpt lat="43.57964" lon="3.73517">
        <ele>95</ele>
        <time>2011-01-09T08:59:10Z</time>
      </trkpt>
      <trkpt lat="43.57971" lon="3.73524">
        <ele>93.8</ele>
        <time>2011-01-09T08:59:13Z</time>
      </trkpt>
      <trkpt lat="43.57978" lon="3.73532">
        <ele>92.5</ele>
        <time>2011-01-09T08:59:16Z</time>
      </trkpt>
      <trkpt lat="43.57983" lon="3.73539">
        <ele>91.4</ele>
        <time>2011-01-09T08:59:19Z</time>
      </trkpt>
      <trkpt lat="43.57989" lon="3.73546">
        <ele>90.1</ele>
        <time>2011-01-09T08:59:22Z</time>
      </trkpt>
      <trkpt lat="43.5799" lon="3.73549">
        <ele>89.8</ele>
        <time>2011-01-09T08:59:23Z</time>
      </trkpt>
      <trkpt lat="43.57995" lon="3.73568">
        <ele>87.9</ele>
        <time>2011-01-09T08:59:30Z</time>
      </trkpt>
      <trkpt lat="43.57996" lon="3.73578">
        <ele>87.1</ele>
        <time>2011-01-09T08:59:38Z</time>
      </trkpt>
      <trkpt lat="43.57999" lon="3.73584">
        <ele>86.1</ele>
        <time>2011-01-09T08:59:40Z</time>
      </trkpt>
      <trkpt lat="43.58003" lon="3.73592">
        <ele>85.6</ele>
        <time>2011-01-09T08:59:42Z</time>
      </trkpt>
      <trkpt lat="43.58006" lon="3.736">
        <ele>85.2</ele>
        <time>2011-01-09T08:59:44Z</time>
      </trkpt>
      <trkpt lat="43.5801" lon="3.73608">
        <ele>84.7</ele>
        <time>2011-01-09T08:59:46Z</time>
      </trkpt>
      <trkpt lat="43.58013" lon="3.73616">
        <ele>84.1</ele>
        <time>2011-01-09T08:59:48Z</time>
      </trkpt>
      <trkpt lat="43.58015" lon="3.73625">
        <ele>83.5</ele>
        <time>2011-01-09T08:59:50Z</time>
      </trkpt>
      <trkpt lat="43.58018" lon="3.73633">
        <ele>82.8</ele>
        <time>2011-01-09T08:59:52Z</time>
      </trkpt>
      <trkpt lat="43.58022" lon="3.73642">
        <ele>82</ele>
        <time>2011-01-09T08:59:54Z</time>
      </trkpt>
      <trkpt lat="43.58025" lon="3.73652">
        <ele>81</ele>
        <time>2011-01-09T08:59:56Z</time>
      </trkpt>
      <trkpt lat="43.58028" lon="3.73661">
        <ele>80.1</ele>
        <time>2011-01-09T08:59:58Z</time>
      </trkpt>
      <trkpt lat="43.5803" lon="3.73671">
        <ele>79.1</ele>
        <time>2011-01-09T09:00:00Z</time>
      </trkpt>
      <trkpt lat="43.58033" lon="3.73681">
        <ele>77.9</ele>
        <time>2011-01-09T09:00:02Z</time>
      </trkpt>
      <trkpt lat="43.58035" lon="3.7369">
        <ele>76.9</ele>
        <time>2011-01-09T09:00:05Z</time>
      </trkpt>
      <trkpt lat="43.58039" lon="3.737">
        <ele>75.7</ele>
        <time>2011-01-09T09:00:08Z</time>
      </trkpt>
      <trkpt lat="43.58043" lon="3.7371">
        <ele>74.5</ele>
        <time>2011-01-09T09:00:11Z</time>
      </trkpt>
      <trkpt lat="43.58045" lon="3.7372">
        <ele>73.4</ele>
        <time>2011-01-09T09:00:16Z</time>
      </trkpt>
      <trkpt lat="43.58043" lon="3.73732">
        <ele>72.5</ele>
        <time>2011-01-09T09:00:20Z</time>
      </trkpt>
      <trkpt lat="43.58043" lon="3.73742">
        <ele>71.6</ele>
        <time>2011-01-09T09:00:23Z</time>
      </trkpt>
      <trkpt lat="43.58044" lon="3.73746">
        <ele>71.2</ele>
        <time>2011-01-09T09:00:24Z</time>
      </trkpt>
      <trkpt lat="43.58052" lon="3.73762">
        <ele>70.6</ele>
        <time>2011-01-09T09:00:29Z</time>
      </trkpt>
      <trkpt lat="43.58056" lon="3.73769">
        <ele>70.7</ele>
        <time>2011-01-09T09:00:31Z</time>
      </trkpt>
      <trkpt lat="43.5806" lon="3.7378">
        <ele>70.9</ele>
        <time>2011-01-09T09:00:34Z</time>
      </trkpt>
      <trkpt lat="43.58064" lon="3.7379">
        <ele>71.2</ele>
        <time>2011-01-09T09:00:37Z</time>
      </trkpt>
      <trkpt lat="43.5806" lon="3.73799">
        <ele>71.7</ele>
        <time>2011-01-09T09:00:42Z</time>
      </trkpt>
      <trkpt lat="43.58052" lon="3.73801">
        <ele>71.9</ele>
        <time>2011-01-09T09:04:18Z</time>
      </trkpt>
      <trkpt lat="43.58051" lon="3.73801">
        <ele>71.9</ele>
        <time>2011-01-09T09:04:19Z</time>
      </trkpt>
      <trkpt lat="43.58039" lon="3.73811">
        <ele>72.1</ele>
        <time>2011-01-09T09:04:25Z</time>
      </trkpt>
      <trkpt lat="43.58033" lon="3.73817">
        <ele>72.1</ele>
        <time>2011-01-09T09:04:27Z</time>
      </trkpt>
      <trkpt lat="43.58028" lon="3.73826">
        <ele>72</ele>
        <time>2011-01-09T09:04:29Z</time>
      </trkpt>
      <trkpt lat="43.58023" lon="3.73835">
        <ele>71.9</ele>
        <time>2011-01-09T09:04:31Z</time>
      </trkpt>
      <trkpt lat="43.58018" lon="3.73844">
        <ele>72.1</ele>
        <time>2011-01-09T09:04:33Z</time>
      </trkpt>
      <trkpt lat="43.58014" lon="3.73854">
        <ele>72.3</ele>
        <time>2011-01-09T09:04:35Z</time>
      </trkpt>
      <trkpt lat="43.58009" lon="3.73864">
        <ele>72.4</ele>
        <time>2011-01-09T09:04:37Z</time>
      </trkpt>
      <trkpt lat="43.58005" lon="3.73874">
        <ele>72.4</ele>
        <time>2011-01-09T09:04:39Z</time>
      </trkpt>
      <trkpt lat="43.58" lon="3.73884">
        <ele>72.2</ele>
        <time>2011-01-09T09:04:41Z</time>
      </trkpt>
      <trkpt lat="43.57995" lon="3.73893">
        <ele>72.5</ele>
        <time>2011-01-09T09:04:43Z</time>
      </trkpt>
      <trkpt lat="43.57991" lon="3.73902">
        <ele>72.6</ele>
        <time>2011-01-09T09:04:45Z</time>
      </trkpt>
      <trkpt lat="43.57988" lon="3.73912">
        <ele>72.7</ele>
        <time>2011-01-09T09:04:47Z</time>
      </trkpt>
      <trkpt lat="43.57985" lon="3.73921">
        <ele>72.7</ele>
        <time>2011-01-09T09:04:49Z</time>
      </trkpt>
      <trkpt lat="43.57981" lon="3.7393">
        <ele>72.8</ele>
        <time>2011-01-09T09:04:51Z</time>
      </trkpt>
      <trkpt lat="43.57978" lon="3.73938">
        <ele>72.8</ele>
        <time>2011-01-09T09:04:53Z</time>
      </trkpt>
      <trkpt lat="43.57974" lon="3.73947">
        <ele>72.6</ele>
        <time>2011-01-09T09:04:55Z</time>
      </trkpt>
      <trkpt lat="43.57968" lon="3.73956">
        <ele>72.4</ele>
        <time>2011-01-09T09:04:57Z</time>
      </trkpt>
      <trkpt lat="43.57963" lon="3.73964">
        <ele>72.1</ele>
        <time>2011-01-09T09:04:59Z</time>
      </trkpt>
      <trkpt lat="43.57958" lon="3.73972">
        <ele>71.6</ele>
        <time>2011-01-09T09:05:01Z</time>
      </trkpt>
      <trkpt lat="43.57952" lon="3.73981">
        <ele>71.1</ele>
        <time>2011-01-09T09:05:03Z</time>
      </trkpt>
      <trkpt lat="43.57949" lon="3.73992">
        <ele>70.6</ele>
        <time>2011-01-09T09:05:05Z</time>
      </trkpt>
      <trkpt lat="43.57945" lon="3.74002">
        <ele>70.2</ele>
        <time>2011-01-09T09:05:07Z</time>
      </trkpt>
      <trkpt lat="43.57941" lon="3.74014">
        <ele>70.5</ele>
        <time>2011-01-09T09:05:09Z</time>
      </trkpt>
      <trkpt lat="43.57937" lon="3.74023">
        <ele>70.6</ele>
        <time>2011-01-09T09:05:11Z</time>
      </trkpt>
      <trkpt lat="43.57929" lon="3.74027">
        <ele>70</ele>
        <time>2011-01-09T09:05:13Z</time>
      </trkpt>
      <trkpt lat="43.57921" lon="3.74029">
        <ele>69.3</ele>
        <time>2011-01-09T09:05:15Z</time>
      </trkpt>
      <trkpt lat="43.57913" lon="3.74028">
        <ele>68.7</ele>
        <time>2011-01-09T09:05:17Z</time>
      </trkpt>
      <trkpt lat="43.57909" lon="3.74027">
        <ele>68.6</ele>
        <time>2011-01-09T09:05:18Z</time>
      </trkpt>
      <trkpt lat="43.57904" lon="3.74027">
        <ele>68.5</ele>
        <time>2011-01-09T09:05:19Z</time>
      </trkpt>
      <trkpt lat="43.57899" lon="3.74026">
        <ele>68.5</ele>
        <time>2011-01-09T09:05:20Z</time>
      </trkpt>
      <trkpt lat="43.57894" lon="3.74026">
        <ele>68.4</ele>
        <time>2011-01-09T09:05:21Z</time>
      </trkpt>
      <trkpt lat="43.57888" lon="3.74026">
        <ele>68.4</ele>
        <time>2011-01-09T09:05:22Z</time>
      </trkpt>
      <trkpt lat="43.57883" lon="3.74027">
        <ele>68.4</ele>
        <time>2011-01-09T09:05:23Z</time>
      </trkpt>
      <trkpt lat="43.57877" lon="3.74028">
        <ele>68.4</ele>
        <time>2011-01-09T09:05:24Z</time>
      </trkpt>
      <trkpt lat="43.57872" lon="3.7403">
        <ele>68.3</ele>
        <time>2011-01-09T09:05:25Z</time>
      </trkpt>
      <trkpt lat="43.57867" lon="3.7403">
        <ele>68.3</ele>
        <time>2011-01-09T09:05:26Z</time>
      </trkpt>
      <trkpt lat="43.57862" lon="3.74032">
        <ele>68.2</ele>
        <time>2011-01-09T09:05:27Z</time>
      </trkpt>
      <trkpt lat="43.57857" lon="3.74033">
        <ele>68.1</ele>
        <time>2011-01-09T09:05:28Z</time>
      </trkpt>
      <trkpt lat="43.57853" lon="3.74035">
        <ele>68.1</ele>
        <time>2011-01-09T09:05:29Z</time>
      </trkpt>
      <trkpt lat="43.57849" lon="3.74038">
        <ele>67.9</ele>
        <time>2011-01-09T09:05:30Z</time>
      </trkpt>
      <trkpt lat="43.57845" lon="3.74042">
        <ele>67.8</ele>
        <time>2011-01-09T09:05:31Z</time>
      </trkpt>
      <trkpt lat="43.57841" lon="3.74045">
        <ele>67.6</ele>
        <time>2011-01-09T09:05:32Z</time>
      </trkpt>
      <trkpt lat="43.57836" lon="3.74049">
        <ele>67.3</ele>
        <time>2011-01-09T09:05:33Z</time>
      </trkpt>
      <trkpt lat="43.57832" lon="3.74053">
        <ele>67.2</ele>
        <time>2011-01-09T09:05:34Z</time>
      </trkpt>
      <trkpt lat="43.57828" lon="3.74057">
        <ele>67.2</ele>
        <time>2011-01-09T09:05:35Z</time>
      </trkpt>
      <trkpt lat="43.57823" lon="3.74061">
        <ele>67.3</ele>
        <time>2011-01-09T09:05:36Z</time>
      </trkpt>
      <trkpt lat="43.57819" lon="3.74066">
        <ele>67.2</ele>
        <time>2011-01-09T09:05:37Z</time>
      </trkpt>
      <trkpt lat="43.57814" lon="3.74071">
        <ele>67.1</ele>
        <time>2011-01-09T09:05:38Z</time>
      </trkpt>
      <trkpt lat="43.5781" lon="3.74076">
        <ele>67</ele>
        <time>2011-01-09T09:05:39Z</time>
      </trkpt>
      <trkpt lat="43.57806" lon="3.74082">
        <ele>66.8</ele>
        <time>2011-01-09T09:05:40Z</time>
      </trkpt>
      <trkpt lat="43.57802" lon="3.74087">
        <ele>66.7</ele>
        <time>2011-01-09T09:05:41Z</time>
      </trkpt>
      <trkpt lat="43.57797" lon="3.74093">
        <ele>66.7</ele>
        <time>2011-01-09T09:05:42Z</time>
      </trkpt>
      <trkpt lat="43.57792" lon="3.74098">
        <ele>66.6</ele>
        <time>2011-01-09T09:05:43Z</time>
      </trkpt>
      <trkpt lat="43.57788" lon="3.74104">
        <ele>66.4</ele>
        <time>2011-01-09T09:05:44Z</time>
      </trkpt>
      <trkpt lat="43.57783" lon="3.74109">
        <ele>66.1</ele>
        <time>2011-01-09T09:05:45Z</time>
      </trkpt>
      <trkpt lat="43.57779" lon="3.74115">
        <ele>65.7</ele>
        <time>2011-01-09T09:05:46Z</time>
      </trkpt>
      <trkpt lat="43.57776" lon="3.74122">
        <ele>65.3</ele>
        <time>2011-01-09T09:05:47Z</time>
      </trkpt>
      <trkpt lat="43.57773" lon="3.74128">
        <ele>64.8</ele>
        <time>2011-01-09T09:05:48Z</time>
      </trkpt>
      <trkpt lat="43.5777" lon="3.74135">
        <ele>64.2</ele>
        <time>2011-01-09T09:05:49Z</time>
      </trkpt>
      <trkpt lat="43.57768" lon="3.74141">
        <ele>63.7</ele>
        <time>2011-01-09T09:05:50Z</time>
      </trkpt>
      <trkpt lat="43.57767" lon="3.74148">
        <ele>63.1</ele>
        <time>2011-01-09T09:05:51Z</time>
      </trkpt>
      <trkpt lat="43.57765" lon="3.74154">
        <ele>62.6</ele>
        <time>2011-01-09T09:05:52Z</time>
      </trkpt>
      <trkpt lat="43.57763" lon="3.74166">
        <ele>61.5</ele>
        <time>2011-01-09T09:05:54Z</time>
      </trkpt>
      <trkpt lat="43.57762" lon="3.74175">
        <ele>60.9</ele>
        <time>2011-01-09T09:05:56Z</time>
      </trkpt>
      <trkpt lat="43.57763" lon="3.74185">
        <ele>60.5</ele>
        <time>2011-01-09T09:05:58Z</time>
      </trkpt>
      <trkpt lat="43.57763" lon="3.74197">
        <ele>60</ele>
        <time>2011-01-09T09:06:00Z</time>
      </trkpt>
      <trkpt lat="43.57763" lon="3.74203">
        <ele>59.7</ele>
        <time>2011-01-09T09:06:01Z</time>
      </trkpt>
      <trkpt lat="43.57764" lon="3.7421">
        <ele>59.4</ele>
        <time>2011-01-09T09:06:02Z</time>
      </trkpt>
      <trkpt lat="43.57765" lon="3.74216">
        <ele>59.2</ele>
        <time>2011-01-09T09:06:03Z</time>
      </trkpt>
      <trkpt lat="43.57765" lon="3.74223">
        <ele>59</ele>
        <time>2011-01-09T09:06:04Z</time>
      </trkpt>
      <trkpt lat="43.57766" lon="3.74229">
        <ele>58.8</ele>
        <time>2011-01-09T09:06:05Z</time>
      </trkpt>
      <trkpt lat="43.57767" lon="3.74236">
        <ele>58.5</ele>
        <time>2011-01-09T09:06:06Z</time>
      </trkpt>
      <trkpt lat="43.57768" lon="3.74242">
        <ele>58.3</ele>
        <time>2011-01-09T09:06:07Z</time>
      </trkpt>
      <trkpt lat="43.57769" lon="3.74249">
        <ele>58.1</ele>
        <time>2011-01-09T09:06:08Z</time>
      </trkpt>
      <trkpt lat="43.57771" lon="3.74254">
        <ele>58.2</ele>
        <time>2011-01-09T09:06:09Z</time>
      </trkpt>
      <trkpt lat="43.57775" lon="3.74265">
        <ele>58.5</ele>
        <time>2011-01-09T09:06:11Z</time>
      </trkpt>
      <trkpt lat="43.5778" lon="3.74274">
        <ele>58.9</ele>
        <time>2011-01-09T09:06:13Z</time>
      </trkpt>
      <trkpt lat="43.57785" lon="3.74284">
        <ele>59.2</ele>
        <time>2011-01-09T09:06:15Z</time>
      </trkpt>
      <trkpt lat="43.5779" lon="3.74293">
        <ele>59.6</ele>
        <time>2011-01-09T09:06:17Z</time>
      </trkpt>
      <trkpt lat="43.57795" lon="3.74301">
        <ele>59.9</ele>
        <time>2011-01-09T09:06:19Z</time>
      </trkpt>
      <trkpt lat="43.57799" lon="3.74309">
        <ele>60.2</ele>
        <time>2011-01-09T09:06:21Z</time>
      </trkpt>
      <trkpt lat="43.578" lon="3.74313">
        <ele>60.2</ele>
        <time>2011-01-09T09:06:22Z</time>
      </trkpt>
      <trkpt lat="43.57805" lon="3.74323">
        <ele>60.5</ele>
        <time>2011-01-09T09:06:25Z</time>
      </trkpt>
      <trkpt lat="43.5781" lon="3.74333">
        <ele>60.8</ele>
        <time>2011-01-09T09:06:28Z</time>
      </trkpt>
      <trkpt lat="43.57816" lon="3.74343">
        <ele>61.3</ele>
        <time>2011-01-09T09:06:31Z</time>
      </trkpt>
      <trkpt lat="43.57821" lon="3.74352">
        <ele>61.9</ele>
        <time>2011-01-09T09:06:34Z</time>
      </trkpt>
      <trkpt lat="43.57826" lon="3.74362">
        <ele>62.3</ele>
        <time>2011-01-09T09:06:37Z</time>
      </trkpt>
      <trkpt lat="43.57831" lon="3.74372">
        <ele>62.7</ele>
        <time>2011-01-09T09:06:40Z</time>
      </trkpt>
      <trkpt lat="43.57836" lon="3.74381">
        <ele>63.3</ele>
        <time>2011-01-09T09:06:43Z</time>
      </trkpt>
      <trkpt lat="43.57842" lon="3.7439">
        <ele>63.9</ele>
        <time>2011-01-09T09:06:46Z</time>
      </trkpt>
      <trkpt lat="43.57848" lon="3.74399">
        <ele>64.5</ele>
        <time>2011-01-09T09:06:49Z</time>
      </trkpt>
      <trkpt lat="43.57853" lon="3.74408">
        <ele>64.9</ele>
        <time>2011-01-09T09:06:52Z</time>
      </trkpt>
      <trkpt lat="43.57859" lon="3.74416">
        <ele>65.5</ele>
        <time>2011-01-09T09:06:55Z</time>
      </trkpt>
      <trkpt lat="43.57866" lon="3.74409">
        <ele>66.2</ele>
        <time>2011-01-09T09:06:59Z</time>
      </trkpt>
      <trkpt lat="43.57868" lon="3.74399">
        <ele>66.6</ele>
        <time>2011-01-09T09:07:02Z</time>
      </trkpt>
      <trkpt lat="43.57872" lon="3.74391">
        <ele>67.2</ele>
        <time>2011-01-09T09:07:05Z</time>
      </trkpt>
      <trkpt lat="43.57878" lon="3.74381">
        <ele>67.9</ele>
        <time>2011-01-09T09:07:09Z</time>
      </trkpt>
      <trkpt lat="43.57883" lon="3.74372">
        <ele>68.7</ele>
        <time>2011-01-09T09:07:13Z</time>
      </trkpt>
      <trkpt lat="43.5789" lon="3.74365">
        <ele>69.7</ele>
        <time>2011-01-09T09:07:17Z</time>
      </trkpt>
      <trkpt lat="43.57898" lon="3.74359">
        <ele>70.8</ele>
        <time>2011-01-09T09:07:21Z</time>
      </trkpt>
      <trkpt lat="43.57907" lon="3.74358">
        <ele>71.9</ele>
        <time>2011-01-09T09:07:25Z</time>
      </trkpt>
      <trkpt lat="43.57909" lon="3.74358">
        <ele>72.2</ele>
        <time>2011-01-09T09:07:26Z</time>
      </trkpt>
      <trkpt lat="43.57922" lon="3.74361">
        <ele>73.5</ele>
        <time>2011-01-09T09:07:32Z</time>
      </trkpt>
      <trkpt lat="43.5793" lon="3.74365">
        <ele>74.2</ele>
        <time>2011-01-09T09:07:36Z</time>
      </trkpt>
      <trkpt lat="43.57937" lon="3.74368">
        <ele>74.8</ele>
        <time>2011-01-09T09:07:39Z</time>
      </trkpt>
      <trkpt lat="43.57944" lon="3.74368">
        <ele>75.5</ele>
        <time>2011-01-09T09:07:42Z</time>
      </trkpt>
      <trkpt lat="43.57951" lon="3.74368">
        <ele>76.3</ele>
        <time>2011-01-09T09:07:45Z</time>
      </trkpt>
      <trkpt lat="43.5796" lon="3.74366">
        <ele>77.2</ele>
        <time>2011-01-09T09:07:49Z</time>
      </trkpt>
      <trkpt lat="43.57969" lon="3.74366">
        <ele>78</ele>
        <time>2011-01-09T09:07:53Z</time>
      </trkpt>
      <trkpt lat="43.57977" lon="3.74367">
        <ele>78.8</ele>
        <time>2011-01-09T09:07:57Z</time>
      </trkpt>
      <trkpt lat="43.57985" lon="3.74369">
        <ele>79.7</ele>
        <time>2011-01-09T09:08:01Z</time>
      </trkpt>
      <trkpt lat="43.57994" lon="3.7437">
        <ele>80.5</ele>
        <time>2011-01-09T09:08:05Z</time>
      </trkpt>
      <trkpt lat="43.58002" lon="3.7437">
        <ele>81.3</ele>
        <time>2011-01-09T09:08:09Z</time>
      </trkpt>
      <trkpt lat="43.5801" lon="3.74368">
        <ele>81.9</ele>
        <time>2011-01-09T09:08:13Z</time>
      </trkpt>
      <trkpt lat="43.58019" lon="3.74366">
        <ele>82.6</ele>
        <time>2011-01-09T09:08:17Z</time>
      </trkpt>
      <trkpt lat="43.58027" lon="3.74364">
        <ele>83.3</ele>
        <time>2011-01-09T09:08:21Z</time>
      </trkpt>
      <trkpt lat="43.58035" lon="3.7436">
        <ele>84</ele>
        <time>2011-01-09T09:08:25Z</time>
      </trkpt>
      <trkpt lat="43.58041" lon="3.74353">
        <ele>84.6</ele>
        <time>2011-01-09T09:08:29Z</time>
      </trkpt>
      <trkpt lat="43.58042" lon="3.7435">
        <ele>84.7</ele>
        <time>2011-01-09T09:08:30Z</time>
      </trkpt>
      <trkpt lat="43.58042" lon="3.74332">
        <ele>85.1</ele>
        <time>2011-01-09T09:08:36Z</time>
      </trkpt>
      <trkpt lat="43.58042" lon="3.74321">
        <ele>85.3</ele>
        <time>2011-01-09T09:08:39Z</time>
      </trkpt>
      <trkpt lat="43.58043" lon="3.74309">
        <ele>85.5</ele>
        <time>2011-01-09T09:08:42Z</time>
      </trkpt>
      <trkpt lat="43.58044" lon="3.74301">
        <ele>85.7</ele>
        <time>2011-01-09T09:08:44Z</time>
      </trkpt>
      <trkpt lat="43.58045" lon="3.74292">
        <ele>86</ele>
        <time>2011-01-09T09:08:46Z</time>
      </trkpt>
      <trkpt lat="43.58046" lon="3.74283">
        <ele>86.3</ele>
        <time>2011-01-09T09:08:48Z</time>
      </trkpt>
      <trkpt lat="43.58047" lon="3.74274">
        <ele>86.5</ele>
        <time>2011-01-09T09:08:50Z</time>
      </trkpt>
      <trkpt lat="43.58049" lon="3.74264">
        <ele>86.8</ele>
        <time>2011-01-09T09:08:52Z</time>
      </trkpt>
      <trkpt lat="43.58051" lon="3.74256">
        <ele>87.1</ele>
        <time>2011-01-09T09:08:54Z</time>
      </trkpt>
      <trkpt lat="43.58053" lon="3.74248">
        <ele>87.5</ele>
        <time>2011-01-09T09:08:56Z</time>
      </trkpt>
      <trkpt lat="43.58055" lon="3.7424">
        <ele>87.9</ele>
        <time>2011-01-09T09:08:58Z</time>
      </trkpt>
      <trkpt lat="43.58058" lon="3.74232">
        <ele>88.4</ele>
        <time>2011-01-09T09:09:00Z</time>
      </trkpt>
      <trkpt lat="43.58061" lon="3.74224">
        <ele>88.9</ele>
        <time>2011-01-09T09:09:02Z</time>
      </trkpt>
      <trkpt lat="43.58066" lon="3.74216">
        <ele>89.6</ele>
        <time>2011-01-09T09:09:05Z</time>
      </trkpt>
      <trkpt lat="43.58074" lon="3.74213">
        <ele>90.4</ele>
        <time>2011-01-09T09:09:09Z</time>
      </trkpt>
      <trkpt lat="43.58082" lon="3.74219">
        <ele>91</ele>
        <time>2011-01-09T09:09:13Z</time>
      </trkpt>
      <trkpt lat="43.58089" lon="3.74226">
        <ele>91.2</ele>
        <time>2011-01-09T09:09:18Z</time>
      </trkpt>
      <trkpt lat="43.58097" lon="3.7423">
        <ele>91.4</ele>
        <time>2011-01-09T09:09:33Z</time>
      </trkpt>
      <trkpt lat="43.58098" lon="3.74231">
        <ele>91.4</ele>
        <time>2011-01-09T09:09:34Z</time>
      </trkpt>
      <trkpt lat="43.58108" lon="3.74244">
        <ele>91.4</ele>
        <time>2011-01-09T09:09:44Z</time>
      </trkpt>
      <trkpt lat="43.58116" lon="3.74249">
        <ele>91.6</ele>
        <time>2011-01-09T09:09:48Z</time>
      </trkpt>
      <trkpt lat="43.58124" lon="3.74245">
        <ele>92.1</ele>
        <time>2011-01-09T09:09:51Z</time>
      </trkpt>
      <trkpt lat="43.58132" lon="3.74245">
        <ele>92.5</ele>
        <time>2011-01-09T09:09:54Z</time>
      </trkpt>
      <trkpt lat="43.58141" lon="3.74246">
        <ele>92.9</ele>
        <time>2011-01-09T09:09:57Z</time>
      </trkpt>
      <trkpt lat="43.58149" lon="3.74248">
        <ele>93.2</ele>
        <time>2011-01-09T09:10:00Z</time>
      </trkpt>
      <trkpt lat="43.58158" lon="3.74249">
        <ele>93.6</ele>
        <time>2011-01-09T09:10:03Z</time>
      </trkpt>
      <trkpt lat="43.58167" lon="3.74249">
        <ele>94</ele>
        <time>2011-01-09T09:10:06Z</time>
      </trkpt>
      <trkpt lat="43.58174" lon="3.74245">
        <ele>94.2</ele>
        <time>2011-01-09T09:10:10Z</time>
      </trkpt>
      <trkpt lat="43.58182" lon="3.74245">
        <ele>94.2</ele>
        <time>2011-01-09T09:10:18Z</time>
      </trkpt>
      <trkpt lat="43.5819" lon="3.74247">
        <ele>94.1</ele>
        <time>2011-01-09T09:10:23Z</time>
      </trkpt>
      <trkpt lat="43.58196" lon="3.74256">
        <ele>93.6</ele>
        <time>2011-01-09T09:10:27Z</time>
      </trkpt>
      <trkpt lat="43.58201" lon="3.74265">
        <ele>93.2</ele>
        <time>2011-01-09T09:10:31Z</time>
      </trkpt>
      <trkpt lat="43.5821" lon="3.74264">
        <ele>93.2</ele>
        <time>2011-01-09T09:11:16Z</time>
      </trkpt>
      <trkpt lat="43.58211" lon="3.74263">
        <ele>93.3</ele>
        <time>2011-01-09T09:11:17Z</time>
      </trkpt>
      <trkpt lat="43.58222" lon="3.74249">
        <ele>94</ele>
        <time>2011-01-09T09:11:27Z</time>
      </trkpt>
      <trkpt lat="43.58229" lon="3.74241">
        <ele>94.5</ele>
        <time>2011-01-09T09:11:32Z</time>
      </trkpt>
      <trkpt lat="43.58235" lon="3.74233">
        <ele>95</ele>
        <time>2011-01-09T09:11:37Z</time>
      </trkpt>
      <trkpt lat="43.5824" lon="3.74225">
        <ele>95.4</ele>
        <time>2011-01-09T09:11:41Z</time>
      </trkpt>
      <trkpt lat="43.58246" lon="3.74218">
        <ele>95.9</ele>
        <time>2011-01-09T09:11:45Z</time>
      </trkpt>
      <trkpt lat="43.58252" lon="3.7421">
        <ele>96.4</ele>
        <time>2011-01-09T09:11:49Z</time>
      </trkpt>
      <trkpt lat="43.58257" lon="3.74202">
        <ele>96.9</ele>
        <time>2011-01-09T09:11:53Z</time>
      </trkpt>
      <trkpt lat="43.58264" lon="3.74194">
        <ele>97.3</ele>
        <time>2011-01-09T09:11:57Z</time>
      </trkpt>
      <trkpt lat="43.58271" lon="3.74188">
        <ele>97.6</ele>
        <time>2011-01-09T09:12:01Z</time>
      </trkpt>
      <trkpt lat="43.58277" lon="3.74187">
        <ele>97.6</ele>
        <time>2011-01-09T09:12:04Z</time>
      </trkpt>
      <trkpt lat="43.58285" lon="3.7419">
        <ele>97.4</ele>
        <time>2011-01-09T09:12:07Z</time>
      </trkpt>
      <trkpt lat="43.58291" lon="3.7419">
        <ele>97.4</ele>
        <time>2011-01-09T09:12:09Z</time>
      </trkpt>
      <trkpt lat="43.58296" lon="3.74185">
        <ele>97.6</ele>
        <time>2011-01-09T09:12:11Z</time>
      </trkpt>
      <trkpt lat="43.58302" lon="3.74177">
        <ele>97.9</ele>
        <time>2011-01-09T09:12:14Z</time>
      </trkpt>
      <trkpt lat="43.58307" lon="3.74169">
        <ele>98.2</ele>
        <time>2011-01-09T09:12:17Z</time>
      </trkpt>
      <trkpt lat="43.58308" lon="3.74166">
        <ele>98.3</ele>
        <time>2011-01-09T09:12:18Z</time>
      </trkpt>
      <trkpt lat="43.58314" lon="3.7415">
        <ele>98.2</ele>
        <time>2011-01-09T09:12:23Z</time>
      </trkpt>
      <trkpt lat="43.58318" lon="3.74141">
        <ele>98.1</ele>
        <time>2011-01-09T09:12:26Z</time>
      </trkpt>
      <trkpt lat="43.58323" lon="3.74132">
        <ele>98.1</ele>
        <time>2011-01-09T09:12:29Z</time>
      </trkpt>
      <trkpt lat="43.58328" lon="3.74124">
        <ele>98</ele>
        <time>2011-01-09T09:12:32Z</time>
      </trkpt>
      <trkpt lat="43.58333" lon="3.74118">
        <ele>98</ele>
        <time>2011-01-09T09:12:34Z</time>
      </trkpt>
      <trkpt lat="43.58337" lon="3.74112">
        <ele>97.8</ele>
        <time>2011-01-09T09:12:36Z</time>
      </trkpt>
      <trkpt lat="43.58343" lon="3.74107">
        <ele>97.6</ele>
        <time>2011-01-09T09:12:38Z</time>
      </trkpt>
      <trkpt lat="43.58348" lon="3.741">
        <ele>97.5</ele>
        <time>2011-01-09T09:12:40Z</time>
      </trkpt>
      <trkpt lat="43.58353" lon="3.74093">
        <ele>97.4</ele>
        <time>2011-01-09T09:12:42Z</time>
      </trkpt>
      <trkpt lat="43.58357" lon="3.74086">
        <ele>97.4</ele>
        <time>2011-01-09T09:12:44Z</time>
      </trkpt>
      <trkpt lat="43.58362" lon="3.74079">
        <ele>97.3</ele>
        <time>2011-01-09T09:12:46Z</time>
      </trkpt>
      <trkpt lat="43.58366" lon="3.74071">
        <ele>97.2</ele>
        <time>2011-01-09T09:12:48Z</time>
      </trkpt>
      <trkpt lat="43.5837" lon="3.74061">
        <ele>97.1</ele>
        <time>2011-01-09T09:12:50Z</time>
      </trkpt>
      <trkpt lat="43.58373" lon="3.74052">
        <ele>97.2</ele>
        <time>2011-01-09T09:12:52Z</time>
      </trkpt>
      <trkpt lat="43.58377" lon="3.74043">
        <ele>97.3</ele>
        <time>2011-01-09T09:12:54Z</time>
      </trkpt>
      <trkpt lat="43.58381" lon="3.74036">
        <ele>97.4</ele>
        <time>2011-01-09T09:12:56Z</time>
      </trkpt>
      <trkpt lat="43.58385" lon="3.74029">
        <ele>97.6</ele>
        <time>2011-01-09T09:12:58Z</time>
      </trkpt>
      <trkpt lat="43.58389" lon="3.74021">
        <ele>97.9</ele>
        <time>2011-01-09T09:13:00Z</time>
      </trkpt>
      <trkpt lat="43.58393" lon="3.74014">
        <ele>98.2</ele>
        <time>2011-01-09T09:13:02Z</time>
      </trkpt>
      <trkpt lat="43.58398" lon="3.74007">
        <ele>98.7</ele>
        <time>2011-01-09T09:13:04Z</time>
      </trkpt>
      <trkpt lat="43.58402" lon="3.74">
        <ele>99.1</ele>
        <time>2011-01-09T09:13:06Z</time>
      </trkpt>
      <trkpt lat="43.58406" lon="3.73993">
        <ele>99.7</ele>
        <time>2011-01-09T09:13:08Z</time>
      </trkpt>
      <trkpt lat="43.58409" lon="3.73986">
        <ele>100.3</ele>
        <time>2011-01-09T09:13:10Z</time>
      </trkpt>
      <trkpt lat="43.58413" lon="3.73975">
        <ele>101.2</ele>
        <time>2011-01-09T09:13:13Z</time>
      </trkpt>
      <trkpt lat="43.58416" lon="3.73964">
        <ele>102.1</ele>
        <time>2011-01-09T09:13:16Z</time>
      </trkpt>
      <trkpt lat="43.58419" lon="3.73953">
        <ele>102.8</ele>
        <time>2011-01-09T09:13:19Z</time>
      </trkpt>
      <trkpt lat="43.58419" lon="3.7395">
        <ele>103</ele>
        <time>2011-01-09T09:13:20Z</time>
      </trkpt>
      <trkpt lat="43.58421" lon="3.73932">
        <ele>104.1</ele>
        <time>2011-01-09T09:13:25Z</time>
      </trkpt>
      <trkpt lat="43.58422" lon="3.73922">
        <ele>104.8</ele>
        <time>2011-01-09T09:13:28Z</time>
      </trkpt>
      <trkpt lat="43.58425" lon="3.73911">
        <ele>105.3</ele>
        <time>2011-01-09T09:13:31Z</time>
      </trkpt>
      <trkpt lat="43.58427" lon="3.73901">
        <ele>105.7</ele>
        <time>2011-01-09T09:13:34Z</time>
      </trkpt>
      <trkpt lat="43.58429" lon="3.7389">
        <ele>106.1</ele>
        <time>2011-01-09T09:13:37Z</time>
      </trkpt>
      <trkpt lat="43.5843" lon="3.73879">
        <ele>106.5</ele>
        <time>2011-01-09T09:13:40Z</time>
      </trkpt>
      <trkpt lat="43.5843" lon="3.73868">
        <ele>106.9</ele>
        <time>2011-01-09T09:13:43Z</time>
      </trkpt>
      <trkpt lat="43.58431" lon="3.73858">
        <ele>107.3</ele>
        <time>2011-01-09T09:13:46Z</time>
      </trkpt>
      <trkpt lat="43.5843" lon="3.73848">
        <ele>107.6</ele>
        <time>2011-01-09T09:13:49Z</time>
      </trkpt>
      <trkpt lat="43.58431" lon="3.73838">
        <ele>108</ele>
        <time>2011-01-09T09:13:52Z</time>
      </trkpt>
      <trkpt lat="43.58432" lon="3.73829">
        <ele>108.6</ele>
        <time>2011-01-09T09:13:55Z</time>
      </trkpt>
      <trkpt lat="43.58432" lon="3.73819">
        <ele>109.2</ele>
        <time>2011-01-09T09:13:58Z</time>
      </trkpt>
      <trkpt lat="43.58434" lon="3.73809">
        <ele>109.8</ele>
        <time>2011-01-09T09:14:01Z</time>
      </trkpt>
      <trkpt lat="43.58435" lon="3.738">
        <ele>110.5</ele>
        <time>2011-01-09T09:14:04Z</time>
      </trkpt>
      <trkpt lat="43.58437" lon="3.73791">
        <ele>111.2</ele>
        <time>2011-01-09T09:14:07Z</time>
      </trkpt>
      <trkpt lat="43.58442" lon="3.73781">
        <ele>112.1</ele>
        <time>2011-01-09T09:14:11Z</time>
      </trkpt>
      <trkpt lat="43.58449" lon="3.73773">
        <ele>113</ele>
        <time>2011-01-09T09:14:15Z</time>
      </trkpt>
      <trkpt lat="43.58453" lon="3.73766">
        <ele>113.8</ele>
        <time>2011-01-09T09:14:18Z</time>
      </trkpt>
      <trkpt lat="43.58457" lon="3.73758">
        <ele>114.5</ele>
        <time>2011-01-09T09:14:21Z</time>
      </trkpt>
      <trkpt lat="43.58459" lon="3.73756">
        <ele>114.7</ele>
        <time>2011-01-09T09:14:22Z</time>
      </trkpt>
      <trkpt lat="43.58467" lon="3.73744">
        <ele>115.4</ele>
        <time>2011-01-09T09:14:27Z</time>
      </trkpt>
      <trkpt lat="43.58472" lon="3.73735">
        <ele>115.6</ele>
        <time>2011-01-09T09:14:31Z</time>
      </trkpt>
      <trkpt lat="43.58477" lon="3.73724">
        <ele>115.7</ele>
        <time>2011-01-09T09:14:35Z</time>
      </trkpt>
      <trkpt lat="43.58481" lon="3.73714">
        <ele>115.7</ele>
        <time>2011-01-09T09:14:39Z</time>
      </trkpt>
      <trkpt lat="43.58485" lon="3.73706">
        <ele>115.8</ele>
        <time>2011-01-09T09:14:42Z</time>
      </trkpt>
      <trkpt lat="43.5849" lon="3.73697">
        <ele>116</ele>
        <time>2011-01-09T09:14:45Z</time>
      </trkpt>
      <trkpt lat="43.58494" lon="3.73691">
        <ele>116.1</ele>
        <time>2011-01-09T09:14:47Z</time>
      </trkpt>
      <trkpt lat="43.58499" lon="3.73684">
        <ele>116.3</ele>
        <time>2011-01-09T09:14:49Z</time>
      </trkpt>
      <trkpt lat="43.58504" lon="3.73676">
        <ele>116.2</ele>
        <time>2011-01-09T09:14:51Z</time>
      </trkpt>
      <trkpt lat="43.58509" lon="3.73666">
        <ele>115.9</ele>
        <time>2011-01-09T09:14:53Z</time>
      </trkpt>
      <trkpt lat="43.58512" lon="3.73661">
        <ele>115.7</ele>
        <time>2011-01-09T09:14:54Z</time>
      </trkpt>
      <trkpt lat="43.58515" lon="3.73655">
        <ele>115.5</ele>
        <time>2011-01-09T09:14:55Z</time>
      </trkpt>
      <trkpt lat="43.58518" lon="3.73649">
        <ele>115.3</ele>
        <time>2011-01-09T09:14:56Z</time>
      </trkpt>
      <trkpt lat="43.58521" lon="3.73643">
        <ele>115.1</ele>
        <time>2011-01-09T09:14:57Z</time>
      </trkpt>
      <trkpt lat="43.58525" lon="3.73637">
        <ele>115</ele>
        <time>2011-01-09T09:14:58Z</time>
      </trkpt>
      <trkpt lat="43.58528" lon="3.73631">
        <ele>114.8</ele>
        <time>2011-01-09T09:14:59Z</time>
      </trkpt>
      <trkpt lat="43.58531" lon="3.73625">
        <ele>114.7</ele>
        <time>2011-01-09T09:15:00Z</time>
      </trkpt>
      <trkpt lat="43.58534" lon="3.73619">
        <ele>114.6</ele>
        <time>2011-01-09T09:15:01Z</time>
      </trkpt>
      <trkpt lat="43.58536" lon="3.73613">
        <ele>114.5</ele>
        <time>2011-01-09T09:15:02Z</time>
      </trkpt>
      <trkpt lat="43.58538" lon="3.73606">
        <ele>114.4</ele>
        <time>2011-01-09T09:15:03Z</time>
      </trkpt>
      <trkpt lat="43.5854" lon="3.736">
        <ele>114.3</ele>
        <time>2011-01-09T09:15:04Z</time>
      </trkpt>
      <trkpt lat="43.58545" lon="3.73592">
        <ele>114.2</ele>
        <time>2011-01-09T09:15:06Z</time>
      </trkpt>
      <trkpt lat="43.58552" lon="3.73591">
        <ele>114.3</ele>
        <time>2011-01-09T09:15:08Z</time>
      </trkpt>
      <trkpt lat="43.5856" lon="3.73593">
        <ele>114.5</ele>
        <time>2011-01-09T09:15:11Z</time>
      </trkpt>
      <trkpt lat="43.58568" lon="3.73595">
        <ele>114.7</ele>
        <time>2011-01-09T09:15:14Z</time>
      </trkpt>
      <trkpt lat="43.58576" lon="3.73598">
        <ele>114.9</ele>
        <time>2011-01-09T09:15:18Z</time>
      </trkpt>
      <trkpt lat="43.58583" lon="3.73602">
        <ele>115</ele>
        <time>2011-01-09T09:15:22Z</time>
      </trkpt>
      <trkpt lat="43.58585" lon="3.73603">
        <ele>115.1</ele>
        <time>2011-01-09T09:15:23Z</time>
      </trkpt>
      <trkpt lat="43.58598" lon="3.7361">
        <ele>115.5</ele>
        <time>2011-01-09T09:15:30Z</time>
      </trkpt>
      <trkpt lat="43.58605" lon="3.73613">
        <ele>115.6</ele>
        <time>2011-01-09T09:15:33Z</time>
      </trkpt>
      <trkpt lat="43.58613" lon="3.73617">
        <ele>115.8</ele>
        <time>2011-01-09T09:15:37Z</time>
      </trkpt>
      <trkpt lat="43.58621" lon="3.73621">
        <ele>115.8</ele>
        <time>2011-01-09T09:15:41Z</time>
      </trkpt>
      <trkpt lat="43.58628" lon="3.73624">
        <ele>115.9</ele>
        <time>2011-01-09T09:15:44Z</time>
      </trkpt>
      <trkpt lat="43.58636" lon="3.73623">
        <ele>116</ele>
        <time>2011-01-09T09:15:47Z</time>
      </trkpt>
      <trkpt lat="43.58644" lon="3.73618">
        <ele>116.5</ele>
        <time>2011-01-09T09:15:51Z</time>
      </trkpt>
      <trkpt lat="43.58652" lon="3.73618">
        <ele>116.7</ele>
        <time>2011-01-09T09:15:55Z</time>
      </trkpt>
      <trkpt lat="43.58661" lon="3.73618">
        <ele>117</ele>
        <time>2011-01-09T09:15:59Z</time>
      </trkpt>
      <trkpt lat="43.58669" lon="3.73622">
        <ele>116.9</ele>
        <time>2011-01-09T09:16:03Z</time>
      </trkpt>
      <trkpt lat="43.58676" lon="3.73626">
        <ele>117</ele>
        <time>2011-01-09T09:16:26Z</time>
      </trkpt>
      <trkpt lat="43.58677" lon="3.73628">
        <ele>117</ele>
        <time>2011-01-09T09:16:27Z</time>
      </trkpt>
      <trkpt lat="43.58688" lon="3.73638">
        <ele>116.8</ele>
        <time>2011-01-09T09:16:34Z</time>
      </trkpt>
      <trkpt lat="43.58695" lon="3.73645">
        <ele>116.6</ele>
        <time>2011-01-09T09:16:38Z</time>
      </trkpt>
      <trkpt lat="43.587" lon="3.73651">
        <ele>116.4</ele>
        <time>2011-01-09T09:16:41Z</time>
      </trkpt>
      <trkpt lat="43.58707" lon="3.73656">
        <ele>116.4</ele>
        <time>2011-01-09T09:16:44Z</time>
      </trkpt>
      <trkpt lat="43.58714" lon="3.73659">
        <ele>116.5</ele>
        <time>2011-01-09T09:16:47Z</time>
      </trkpt>
      <trkpt lat="43.5872" lon="3.73664">
        <ele>116.5</ele>
        <time>2011-01-09T09:16:50Z</time>
      </trkpt>
      <trkpt lat="43.58728" lon="3.73666">
        <ele>116.7</ele>
        <time>2011-01-09T09:16:53Z</time>
      </trkpt>
      <trkpt lat="43.58735" lon="3.73667">
        <ele>117.1</ele>
        <time>2011-01-09T09:16:56Z</time>
      </trkpt>
      <trkpt lat="43.58741" lon="3.7366">
        <ele>118.1</ele>
        <time>2011-01-09T09:17:00Z</time>
      </trkpt>
      <trkpt lat="43.58746" lon="3.73654">
        <ele>119</ele>
        <time>2011-01-09T09:17:03Z</time>
      </trkpt>
      <trkpt lat="43.58753" lon="3.73649">
        <ele>120</ele>
        <time>2011-01-09T09:17:06Z</time>
      </trkpt>
      <trkpt lat="43.58761" lon="3.73644">
        <ele>121</ele>
        <time>2011-01-09T09:17:10Z</time>
      </trkpt>
      <trkpt lat="43.58768" lon="3.73643">
        <ele>121.6</ele>
        <time>2011-01-09T09:17:13Z</time>
      </trkpt>
      <trkpt lat="43.58775" lon="3.73642">
        <ele>122.1</ele>
        <time>2011-01-09T09:17:16Z</time>
      </trkpt>
      <trkpt lat="43.58783" lon="3.73637">
        <ele>123</ele>
        <time>2011-01-09T09:17:20Z</time>
      </trkpt>
      <trkpt lat="43.58788" lon="3.73631">
        <ele>123.7</ele>
        <time>2011-01-09T09:17:23Z</time>
      </trkpt>
      <trkpt lat="43.58795" lon="3.73626">
        <ele>124.4</ele>
        <time>2011-01-09T09:17:26Z</time>
      </trkpt>
      <trkpt lat="43.58803" lon="3.73622">
        <ele>125</ele>
        <time>2011-01-09T09:17:30Z</time>
      </trkpt>
      <trkpt lat="43.58805" lon="3.7362">
        <ele>125.2</ele>
        <time>2011-01-09T09:17:31Z</time>
      </trkpt>
      <trkpt lat="43.58817" lon="3.73607">
        <ele>126.1</ele>
        <time>2011-01-09T09:17:38Z</time>
      </trkpt>
      <trkpt lat="43.58824" lon="3.73603">
        <ele>126.5</ele>
        <time>2011-01-09T09:17:42Z</time>
      </trkpt>
      <trkpt lat="43.5883" lon="3.73597">
        <ele>126.8</ele>
        <time>2011-01-09T09:17:46Z</time>
      </trkpt>
      <trkpt lat="43.58836" lon="3.73588">
        <ele>127.2</ele>
        <time>2011-01-09T09:17:50Z</time>
      </trkpt>
      <trkpt lat="43.58843" lon="3.73581">
        <ele>127.9</ele>
        <time>2011-01-09T09:17:54Z</time>
      </trkpt>
      <trkpt lat="43.5885" lon="3.73575">
        <ele>128.5</ele>
        <time>2011-01-09T09:17:58Z</time>
      </trkpt>
      <trkpt lat="43.58856" lon="3.73569">
        <ele>128.9</ele>
        <time>2011-01-09T09:18:02Z</time>
      </trkpt>
      <trkpt lat="43.58864" lon="3.73566">
        <ele>129.5</ele>
        <time>2011-01-09T09:18:06Z</time>
      </trkpt>
      <trkpt lat="43.58871" lon="3.7356">
        <ele>130</ele>
        <time>2011-01-09T09:18:10Z</time>
      </trkpt>
      <trkpt lat="43.58878" lon="3.73554">
        <ele>130.3</ele>
        <time>2011-01-09T09:18:14Z</time>
      </trkpt>
      <trkpt lat="43.58886" lon="3.73555">
        <ele>131</ele>
        <time>2011-01-09T09:18:18Z</time>
      </trkpt>
      <trkpt lat="43.58893" lon="3.73551">
        <ele>131.3</ele>
        <time>2011-01-09T09:18:23Z</time>
      </trkpt>
      <trkpt lat="43.58898" lon="3.73542">
        <ele>131.3</ele>
        <time>2011-01-09T09:18:27Z</time>
      </trkpt>
      <trkpt lat="43.58903" lon="3.73534">
        <ele>131.2</ele>
        <time>2011-01-09T09:18:31Z</time>
      </trkpt>
      <trkpt lat="43.58904" lon="3.73532">
        <ele>131.2</ele>
        <time>2011-01-09T09:18:32Z</time>
      </trkpt>
      <trkpt lat="43.58912" lon="3.7352">
        <ele>130.9</ele>
        <time>2011-01-09T09:18:37Z</time>
      </trkpt>
      <trkpt lat="43.58918" lon="3.73511">
        <ele>130.7</ele>
        <time>2011-01-09T09:18:40Z</time>
      </trkpt>
      <trkpt lat="43.58922" lon="3.73504">
        <ele>130.6</ele>
        <time>2011-01-09T09:18:42Z</time>
      </trkpt>
      <trkpt lat="43.58925" lon="3.73498">
        <ele>130.4</ele>
        <time>2011-01-09T09:18:44Z</time>
      </trkpt>
      <trkpt lat="43.58929" lon="3.73491">
        <ele>130.3</ele>
        <time>2011-01-09T09:18:46Z</time>
      </trkpt>
      <trkpt lat="43.58933" lon="3.73484">
        <ele>130.1</ele>
        <time>2011-01-09T09:18:48Z</time>
      </trkpt>
      <trkpt lat="43.58937" lon="3.73477">
        <ele>130</ele>
        <time>2011-01-09T09:18:50Z</time>
      </trkpt>
      <trkpt lat="43.58941" lon="3.73469">
        <ele>129.8</ele>
        <time>2011-01-09T09:18:52Z</time>
      </trkpt>
      <trkpt lat="43.58946" lon="3.73464">
        <ele>129.7</ele>
        <time>2011-01-09T09:18:54Z</time>
      </trkpt>
      <trkpt lat="43.58951" lon="3.73458">
        <ele>129.6</ele>
        <time>2011-01-09T09:18:56Z</time>
      </trkpt>
      <trkpt lat="43.58957" lon="3.73451">
        <ele>129.5</ele>
        <time>2011-01-09T09:18:58Z</time>
      </trkpt>
      <trkpt lat="43.58964" lon="3.73447">
        <ele>129.5</ele>
        <time>2011-01-09T09:19:00Z</time>
      </trkpt>
      <trkpt lat="43.5897" lon="3.73443">
        <ele>129.6</ele>
        <time>2011-01-09T09:19:02Z</time>
      </trkpt>
      <trkpt lat="43.58976" lon="3.73441">
        <ele>129.7</ele>
        <time>2011-01-09T09:19:04Z</time>
      </trkpt>
      <trkpt lat="43.58985" lon="3.7344">
        <ele>130</ele>
        <time>2011-01-09T09:19:07Z</time>
      </trkpt>
      <trkpt lat="43.58992" lon="3.7344">
        <ele>130.3</ele>
        <time>2011-01-09T09:19:09Z</time>
      </trkpt>
      <trkpt lat="43.58999" lon="3.7344">
        <ele>130.6</ele>
        <time>2011-01-09T09:19:11Z</time>
      </trkpt>
      <trkpt lat="43.59007" lon="3.7344">
        <ele>131.1</ele>
        <time>2011-01-09T09:19:14Z</time>
      </trkpt>
      <trkpt lat="43.59014" lon="3.73439">
        <ele>131.5</ele>
        <time>2011-01-09T09:19:16Z</time>
      </trkpt>
      <trkpt lat="43.59022" lon="3.73439">
        <ele>132</ele>
        <time>2011-01-09T09:19:18Z</time>
      </trkpt>
      <trkpt lat="43.5903" lon="3.73436">
        <ele>132.3</ele>
        <time>2011-01-09T09:19:20Z</time>
      </trkpt>
      <trkpt lat="43.59037" lon="3.73434">
        <ele>132.5</ele>
        <time>2011-01-09T09:19:22Z</time>
      </trkpt>
      <trkpt lat="43.59043" lon="3.7343">
        <ele>132.6</ele>
        <time>2011-01-09T09:19:24Z</time>
      </trkpt>
      <trkpt lat="43.59049" lon="3.73427">
        <ele>132.7</ele>
        <time>2011-01-09T09:19:26Z</time>
      </trkpt>
      <trkpt lat="43.59056" lon="3.73424">
        <ele>133</ele>
        <time>2011-01-09T09:19:28Z</time>
      </trkpt>
      <trkpt lat="43.59062" lon="3.73421">
        <ele>133.1</ele>
        <time>2011-01-09T09:19:30Z</time>
      </trkpt>
      <trkpt lat="43.59068" lon="3.73417">
        <ele>133.1</ele>
        <time>2011-01-09T09:19:32Z</time>
      </trkpt>
      <trkpt lat="43.59071" lon="3.73415">
        <ele>133.4</ele>
        <time>2011-01-09T09:19:33Z</time>
      </trkpt>
      <trkpt lat="43.59082" lon="3.73408">
        <ele>134.7</ele>
        <time>2011-01-09T09:19:37Z</time>
      </trkpt>
      <trkpt lat="43.59088" lon="3.73405">
        <ele>135.5</ele>
        <time>2011-01-09T09:19:39Z</time>
      </trkpt>
      <trkpt lat="43.59094" lon="3.73403">
        <ele>136.2</ele>
        <time>2011-01-09T09:19:41Z</time>
      </trkpt>
      <trkpt lat="43.59102" lon="3.734">
        <ele>137.3</ele>
        <time>2011-01-09T09:19:44Z</time>
      </trkpt>
      <trkpt lat="43.59111" lon="3.73396">
        <ele>138.5</ele>
        <time>2011-01-09T09:19:47Z</time>
      </trkpt>
      <trkpt lat="43.59118" lon="3.73392">
        <ele>139.3</ele>
        <time>2011-01-09T09:19:50Z</time>
      </trkpt>
      <trkpt lat="43.59126" lon="3.73387">
        <ele>140.3</ele>
        <time>2011-01-09T09:19:54Z</time>
      </trkpt>
      <trkpt lat="43.59134" lon="3.73384">
        <ele>141.2</ele>
        <time>2011-01-09T09:19:58Z</time>
      </trkpt>
      <trkpt lat="43.59141" lon="3.73378">
        <ele>141.9</ele>
        <time>2011-01-09T09:20:02Z</time>
      </trkpt>
      <trkpt lat="43.59149" lon="3.73373">
        <ele>142.6</ele>
        <time>2011-01-09T09:20:06Z</time>
      </trkpt>
      <trkpt lat="43.59156" lon="3.73367">
        <ele>143.3</ele>
        <time>2011-01-09T09:20:10Z</time>
      </trkpt>
      <trkpt lat="43.59163" lon="3.73363">
        <ele>143.8</ele>
        <time>2011-01-09T09:20:13Z</time>
      </trkpt>
      <trkpt lat="43.5917" lon="3.73357">
        <ele>144.1</ele>
        <time>2011-01-09T09:20:17Z</time>
      </trkpt>
      <trkpt lat="43.59177" lon="3.73353">
        <ele>144.2</ele>
        <time>2011-01-09T09:20:20Z</time>
      </trkpt>
      <trkpt lat="43.59183" lon="3.73348">
        <ele>144.3</ele>
        <time>2011-01-09T09:20:23Z</time>
      </trkpt>
      <trkpt lat="43.5919" lon="3.73341">
        <ele>144.4</ele>
        <time>2011-01-09T09:20:27Z</time>
      </trkpt>
      <trkpt lat="43.59195" lon="3.73335">
        <ele>144.4</ele>
        <time>2011-01-09T09:20:30Z</time>
      </trkpt>
      <trkpt lat="43.592" lon="3.73329">
        <ele>144.7</ele>
        <time>2011-01-09T09:20:33Z</time>
      </trkpt>
      <trkpt lat="43.59202" lon="3.73327">
        <ele>144.9</ele>
        <time>2011-01-09T09:20:34Z</time>
      </trkpt>
      <trkpt lat="43.59213" lon="3.73315">
        <ele>145.8</ele>
        <time>2011-01-09T09:20:41Z</time>
      </trkpt>
      <trkpt lat="43.5922" lon="3.73307">
        <ele>146.2</ele>
        <time>2011-01-09T09:20:46Z</time>
      </trkpt>
      <trkpt lat="43.59227" lon="3.733">
        <ele>146.7</ele>
        <time>2011-01-09T09:20:55Z</time>
      </trkpt>
      <trkpt lat="43.59231" lon="3.7329">
        <ele>147.2</ele>
        <time>2011-01-09T09:21:01Z</time>
      </trkpt>
      <trkpt lat="43.59236" lon="3.7328">
        <ele>147.7</ele>
        <time>2011-01-09T09:21:08Z</time>
      </trkpt>
      <trkpt lat="43.59241" lon="3.73271">
        <ele>148.1</ele>
        <time>2011-01-09T09:21:15Z</time>
      </trkpt>
      <trkpt lat="43.59246" lon="3.73262">
        <ele>148.5</ele>
        <time>2011-01-09T09:21:22Z</time>
      </trkpt>
      <trkpt lat="43.59251" lon="3.73252">
        <ele>149</ele>
        <time>2011-01-09T09:21:33Z</time>
      </trkpt>
      <trkpt lat="43.59256" lon="3.73244">
        <ele>149.6</ele>
        <time>2011-01-09T09:21:38Z</time>
      </trkpt>
      <trkpt lat="43.59257" lon="3.73242">
        <ele>149.7</ele>
        <time>2011-01-09T09:21:39Z</time>
      </trkpt>
      <trkpt lat="43.59265" lon="3.73227">
        <ele>150.4</ele>
        <time>2011-01-09T09:21:46Z</time>
      </trkpt>
      <trkpt lat="43.59269" lon="3.73218">
        <ele>150.7</ele>
        <time>2011-01-09T09:21:50Z</time>
      </trkpt>
      <trkpt lat="43.59273" lon="3.73209">
        <ele>151</ele>
        <time>2011-01-09T09:21:54Z</time>
      </trkpt>
      <trkpt lat="43.59277" lon="3.73201">
        <ele>151.3</ele>
        <time>2011-01-09T09:21:57Z</time>
      </trkpt>
      <trkpt lat="43.59282" lon="3.73192">
        <ele>151.6</ele>
        <time>2011-01-09T09:22:01Z</time>
      </trkpt>
      <trkpt lat="43.59287" lon="3.73182">
        <ele>151.8</ele>
        <time>2011-01-09T09:22:05Z</time>
      </trkpt>
      <trkpt lat="43.5929" lon="3.73174">
        <ele>152</ele>
        <time>2011-01-09T09:22:08Z</time>
      </trkpt>
      <trkpt lat="43.59293" lon="3.73165">
        <ele>151.9</ele>
        <time>2011-01-09T09:22:11Z</time>
      </trkpt>
      <trkpt lat="43.59295" lon="3.73156">
        <ele>151.4</ele>
        <time>2011-01-09T09:22:14Z</time>
      </trkpt>
      <trkpt lat="43.59299" lon="3.73147">
        <ele>150.9</ele>
        <time>2011-01-09T09:22:17Z</time>
      </trkpt>
      <trkpt lat="43.59306" lon="3.73142">
        <ele>150.8</ele>
        <time>2011-01-09T09:22:21Z</time>
      </trkpt>
      <trkpt lat="43.59315" lon="3.73141">
        <ele>151.1</ele>
        <time>2011-01-09T09:22:27Z</time>
      </trkpt>
      <trkpt lat="43.59322" lon="3.73136">
        <ele>150.9</ele>
        <time>2011-01-09T09:23:55Z</time>
      </trkpt>
      <trkpt lat="43.59323" lon="3.73136">
        <ele>151</ele>
        <time>2011-01-09T09:23:56Z</time>
      </trkpt>
      <trkpt lat="43.59339" lon="3.73132">
        <ele>151.2</ele>
        <time>2011-01-09T09:24:07Z</time>
      </trkpt>
      <trkpt lat="43.59346" lon="3.73131">
        <ele>151</ele>
        <time>2011-01-09T09:24:10Z</time>
      </trkpt>
      <trkpt lat="43.59352" lon="3.73128">
        <ele>150.9</ele>
        <time>2011-01-09T09:24:12Z</time>
      </trkpt>
      <trkpt lat="43.5936" lon="3.73127">
        <ele>150.8</ele>
        <time>2011-01-09T09:24:14Z</time>
      </trkpt>
      <trkpt lat="43.59365" lon="3.73126">
        <ele>150.7</ele>
        <time>2011-01-09T09:24:15Z</time>
      </trkpt>
      <trkpt lat="43.59369" lon="3.73124">
        <ele>150.6</ele>
        <time>2011-01-09T09:24:16Z</time>
      </trkpt>
      <trkpt lat="43.59374" lon="3.73123">
        <ele>150.5</ele>
        <time>2011-01-09T09:24:17Z</time>
      </trkpt>
      <trkpt lat="43.59379" lon="3.73121">
        <ele>150.4</ele>
        <time>2011-01-09T09:24:18Z</time>
      </trkpt>
      <trkpt lat="43.59384" lon="3.7312">
        <ele>150.3</ele>
        <time>2011-01-09T09:24:19Z</time>
      </trkpt>
      <trkpt lat="43.59389" lon="3.73118">
        <ele>150.2</ele>
        <time>2011-01-09T09:24:20Z</time>
      </trkpt>
      <trkpt lat="43.59397" lon="3.73114">
        <ele>149.9</ele>
        <time>2011-01-09T09:24:22Z</time>
      </trkpt>
      <trkpt lat="43.59405" lon="3.73111">
        <ele>149.6</ele>
        <time>2011-01-09T09:24:24Z</time>
      </trkpt>
      <trkpt lat="43.59412" lon="3.73109">
        <ele>149.5</ele>
        <time>2011-01-09T09:24:26Z</time>
      </trkpt>
      <trkpt lat="43.59418" lon="3.73107">
        <ele>149.3</ele>
        <time>2011-01-09T09:24:28Z</time>
      </trkpt>
      <trkpt lat="43.59425" lon="3.73105">
        <ele>149.3</ele>
        <time>2011-01-09T09:24:30Z</time>
      </trkpt>
      <trkpt lat="43.59431" lon="3.73102">
        <ele>149.3</ele>
        <time>2011-01-09T09:24:32Z</time>
      </trkpt>
      <trkpt lat="43.59437" lon="3.73099">
        <ele>149.3</ele>
        <time>2011-01-09T09:24:34Z</time>
      </trkpt>
      <trkpt lat="43.59443" lon="3.73096">
        <ele>149.2</ele>
        <time>2011-01-09T09:24:36Z</time>
      </trkpt>
      <trkpt lat="43.59449" lon="3.73092">
        <ele>149.1</ele>
        <time>2011-01-09T09:24:38Z</time>
      </trkpt>
      <trkpt lat="43.59455" lon="3.73089">
        <ele>148.9</ele>
        <time>2011-01-09T09:24:40Z</time>
      </trkpt>
      <trkpt lat="43.59461" lon="3.73085">
        <ele>148.7</ele>
        <time>2011-01-09T09:24:42Z</time>
      </trkpt>
      <trkpt lat="43.59467" lon="3.73081">
        <ele>148.6</ele>
        <time>2011-01-09T09:24:44Z</time>
      </trkpt>
      <trkpt lat="43.59475" lon="3.73076">
        <ele>148.6</ele>
        <time>2011-01-09T09:24:46Z</time>
      </trkpt>
      <trkpt lat="43.59483" lon="3.73072">
        <ele>148.5</ele>
        <time>2011-01-09T09:24:48Z</time>
      </trkpt>
      <trkpt lat="43.59491" lon="3.73066">
        <ele>148.4</ele>
        <time>2011-01-09T09:24:50Z</time>
      </trkpt>
      <trkpt lat="43.59495" lon="3.73064">
        <ele>148.4</ele>
        <time>2011-01-09T09:24:51Z</time>
      </trkpt>
      <trkpt lat="43.59499" lon="3.73061">
        <ele>148.3</ele>
        <time>2011-01-09T09:24:52Z</time>
      </trkpt>
      <trkpt lat="43.59503" lon="3.73058">
        <ele>148.2</ele>
        <time>2011-01-09T09:24:53Z</time>
      </trkpt>
      <trkpt lat="43.59507" lon="3.73055">
        <ele>148</ele>
        <time>2011-01-09T09:24:54Z</time>
      </trkpt>
      <trkpt lat="43.59512" lon="3.73053">
        <ele>147.8</ele>
        <time>2011-01-09T09:24:55Z</time>
      </trkpt>
      <trkpt lat="43.59516" lon="3.7305">
        <ele>147.6</ele>
        <time>2011-01-09T09:24:56Z</time>
      </trkpt>
      <trkpt lat="43.5952" lon="3.73048">
        <ele>147.4</ele>
        <time>2011-01-09T09:24:57Z</time>
      </trkpt>
      <trkpt lat="43.59524" lon="3.73045">
        <ele>147.2</ele>
        <time>2011-01-09T09:24:58Z</time>
      </trkpt>
      <trkpt lat="43.59532" lon="3.73042">
        <ele>147</ele>
        <time>2011-01-09T09:25:00Z</time>
      </trkpt>
      <trkpt lat="43.59541" lon="3.73042">
        <ele>147</ele>
        <time>2011-01-09T09:25:02Z</time>
      </trkpt>
      <trkpt lat="43.59547" lon="3.73043">
        <ele>147.1</ele>
        <time>2011-01-09T09:25:04Z</time>
      </trkpt>
      <trkpt lat="43.59554" lon="3.73045">
        <ele>147.2</ele>
        <time>2011-01-09T09:25:06Z</time>
      </trkpt>
      <trkpt lat="43.59559" lon="3.73051">
        <ele>147.5</ele>
        <time>2011-01-09T09:25:08Z</time>
      </trkpt>
      <trkpt lat="43.59564" lon="3.73062">
        <ele>148.1</ele>
        <time>2011-01-09T09:25:11Z</time>
      </trkpt>
      <trkpt lat="43.59564" lon="3.73071">
        <ele>148.6</ele>
        <time>2011-01-09T09:25:14Z</time>
      </trkpt>
      <trkpt lat="43.59561" lon="3.73082">
        <ele>149.2</ele>
        <time>2011-01-09T09:25:18Z</time>
      </trkpt>
      <trkpt lat="43.59558" lon="3.73092">
        <ele>150.1</ele>
        <time>2011-01-09T09:25:23Z</time>
      </trkpt>
      <trkpt lat="43.59554" lon="3.73101">
        <ele>151</ele>
        <time>2011-01-09T09:25:28Z</time>
      </trkpt>
      <trkpt lat="43.5955" lon="3.7311">
        <ele>151.9</ele>
        <time>2011-01-09T09:25:33Z</time>
      </trkpt>
      <trkpt lat="43.59549" lon="3.7312">
        <ele>152.9</ele>
        <time>2011-01-09T09:25:38Z</time>
      </trkpt>
      <trkpt lat="43.59548" lon="3.73133">
        <ele>154.1</ele>
        <time>2011-01-09T09:25:44Z</time>
      </trkpt>
      <trkpt lat="43.59545" lon="3.73144">
        <ele>155.2</ele>
        <time>2011-01-09T09:25:50Z</time>
      </trkpt>
      <trkpt lat="43.59542" lon="3.73155">
        <ele>156.4</ele>
        <time>2011-01-09T09:25:56Z</time>
      </trkpt>
      <trkpt lat="43.59539" lon="3.73166">
        <ele>157.5</ele>
        <time>2011-01-09T09:26:02Z</time>
      </trkpt>
      <trkpt lat="43.59538" lon="3.73168">
        <ele>157.7</ele>
        <time>2011-01-09T09:26:03Z</time>
      </trkpt>
      <trkpt lat="43.59536" lon="3.73189">
        <ele>159.3</ele>
        <time>2011-01-09T09:26:14Z</time>
      </trkpt>
      <trkpt lat="43.59538" lon="3.732">
        <ele>159.9</ele>
        <time>2011-01-09T09:26:19Z</time>
      </trkpt>
      <trkpt lat="43.5954" lon="3.7321">
        <ele>160.7</ele>
        <time>2011-01-09T09:26:24Z</time>
      </trkpt>
      <trkpt lat="43.5954" lon="3.73221">
        <ele>161.4</ele>
        <time>2011-01-09T09:26:29Z</time>
      </trkpt>
      <trkpt lat="43.59541" lon="3.73232">
        <ele>162.2</ele>
        <time>2011-01-09T09:26:34Z</time>
      </trkpt>
      <trkpt lat="43.59542" lon="3.73242">
        <ele>162.9</ele>
        <time>2011-01-09T09:26:39Z</time>
      </trkpt>
      <trkpt lat="43.59542" lon="3.73254">
        <ele>163.7</ele>
        <time>2011-01-09T09:26:44Z</time>
      </trkpt>
      <trkpt lat="43.59543" lon="3.73265">
        <ele>164.2</ele>
        <time>2011-01-09T09:26:49Z</time>
      </trkpt>
      <trkpt lat="43.59543" lon="3.73276">
        <ele>164.8</ele>
        <time>2011-01-09T09:26:54Z</time>
      </trkpt>
      <trkpt lat="43.59544" lon="3.73287">
        <ele>165.3</ele>
        <time>2011-01-09T09:26:59Z</time>
      </trkpt>
      <trkpt lat="43.59547" lon="3.73298">
        <ele>166</ele>
        <time>2011-01-09T09:27:04Z</time>
      </trkpt>
      <trkpt lat="43.59548" lon="3.733">
        <ele>166.1</ele>
        <time>2011-01-09T09:27:05Z</time>
      </trkpt>
      <trkpt lat="43.59549" lon="3.7332">
        <ele>167.1</ele>
        <time>2011-01-09T09:27:14Z</time>
      </trkpt>
      <trkpt lat="43.59549" lon="3.73332">
        <ele>167.7</ele>
        <time>2011-01-09T09:27:19Z</time>
      </trkpt>
      <trkpt lat="43.59549" lon="3.73342">
        <ele>168.6</ele>
        <time>2011-01-09T09:27:24Z</time>
      </trkpt>
      <trkpt lat="43.59548" lon="3.73353">
        <ele>169.5</ele>
        <time>2011-01-09T09:27:29Z</time>
      </trkpt>
      <trkpt lat="43.59548" lon="3.73364">
        <ele>170.5</ele>
        <time>2011-01-09T09:27:34Z</time>
      </trkpt>
      <trkpt lat="43.59553" lon="3.73373">
        <ele>171.6</ele>
        <time>2011-01-09T09:27:39Z</time>
      </trkpt>
      <trkpt lat="43.59559" lon="3.73383">
        <ele>172.7</ele>
        <time>2011-01-09T09:27:45Z</time>
      </trkpt>
      <trkpt lat="43.59562" lon="3.73393">
        <ele>173.7</ele>
        <time>2011-01-09T09:27:50Z</time>
      </trkpt>
      <trkpt lat="43.59568" lon="3.73401">
        <ele>174.8</ele>
        <time>2011-01-09T09:27:56Z</time>
      </trkpt>
      <trkpt lat="43.59576" lon="3.73404">
        <ele>175.4</ele>
        <time>2011-01-09T09:28:07Z</time>
      </trkpt>
      <trkpt lat="43.59577" lon="3.73405">
        <ele>175.5</ele>
        <time>2011-01-09T09:28:08Z</time>
      </trkpt>
      <trkpt lat="43.59591" lon="3.73414">
        <ele>175.8</ele>
        <time>2011-01-09T09:32:06Z</time>
      </trkpt>
      <trkpt lat="43.59594" lon="3.73416">
        <ele>175.7</ele>
        <time>2011-01-09T09:32:07Z</time>
      </trkpt>
      <trkpt lat="43.59603" lon="3.73425">
        <ele>175.2</ele>
        <time>2011-01-09T09:32:11Z</time>
      </trkpt>
      <trkpt lat="43.59609" lon="3.73431">
        <ele>175</ele>
        <time>2011-01-09T09:32:13Z</time>
      </trkpt>
      <trkpt lat="43.59614" lon="3.73438">
        <ele>175</ele>
        <time>2011-01-09T09:32:15Z</time>
      </trkpt>
      <trkpt lat="43.5962" lon="3.73445">
        <ele>175</ele>
        <time>2011-01-09T09:32:17Z</time>
      </trkpt>
      <trkpt lat="43.59623" lon="3.73449">
        <ele>175.1</ele>
        <time>2011-01-09T09:32:18Z</time>
      </trkpt>
      <trkpt lat="43.59626" lon="3.73454">
        <ele>175.2</ele>
        <time>2011-01-09T09:32:19Z</time>
      </trkpt>
      <trkpt lat="43.5963" lon="3.73459">
        <ele>175.5</ele>
        <time>2011-01-09T09:32:20Z</time>
      </trkpt>
      <trkpt lat="43.59633" lon="3.73465">
        <ele>175.8</ele>
        <time>2011-01-09T09:32:21Z</time>
      </trkpt>
      <trkpt lat="43.59637" lon="3.73471">
        <ele>176.1</ele>
        <time>2011-01-09T09:32:22Z</time>
      </trkpt>
      <trkpt lat="43.59641" lon="3.73477">
        <ele>176.4</ele>
        <time>2011-01-09T09:32:23Z</time>
      </trkpt>
      <trkpt lat="43.59646" lon="3.73483">
        <ele>176.8</ele>
        <time>2011-01-09T09:32:24Z</time>
      </trkpt>
      <trkpt lat="43.59651" lon="3.73488">
        <ele>177.2</ele>
        <time>2011-01-09T09:32:25Z</time>
      </trkpt>
      <trkpt lat="43.59658" lon="3.73492">
        <ele>177.3</ele>
        <time>2011-01-09T09:32:26Z</time>
      </trkpt>
      <trkpt lat="43.59664" lon="3.73496">
        <ele>177.5</ele>
        <time>2011-01-09T09:32:27Z</time>
      </trkpt>
      <trkpt lat="43.59672" lon="3.73499">
        <ele>177.5</ele>
        <time>2011-01-09T09:32:28Z</time>
      </trkpt>
      <trkpt lat="43.59679" lon="3.73502">
        <ele>177.2</ele>
        <time>2011-01-09T09:32:29Z</time>
      </trkpt>
      <trkpt lat="43.59686" lon="3.73505">
        <ele>176.9</ele>
        <time>2011-01-09T09:32:30Z</time>
      </trkpt>
      <trkpt lat="43.59692" lon="3.73508">
        <ele>176.6</ele>
        <time>2011-01-09T09:32:31Z</time>
      </trkpt>
      <trkpt lat="43.59696" lon="3.73511">
        <ele>176.4</ele>
        <time>2011-01-09T09:32:32Z</time>
      </trkpt>
      <trkpt lat="43.59702" lon="3.73513">
        <ele>176.2</ele>
        <time>2011-01-09T09:32:33Z</time>
      </trkpt>
      <trkpt lat="43.59707" lon="3.73514">
        <ele>175.9</ele>
        <time>2011-01-09T09:32:34Z</time>
      </trkpt>
      <trkpt lat="43.59712" lon="3.73515">
        <ele>175.6</ele>
        <time>2011-01-09T09:32:35Z</time>
      </trkpt>
      <trkpt lat="43.59716" lon="3.73514">
        <ele>175.2</ele>
        <time>2011-01-09T09:32:36Z</time>
      </trkpt>
      <trkpt lat="43.59721" lon="3.73514">
        <ele>174.9</ele>
        <time>2011-01-09T09:32:37Z</time>
      </trkpt>
      <trkpt lat="43.59726" lon="3.73515">
        <ele>174.5</ele>
        <time>2011-01-09T09:32:38Z</time>
      </trkpt>
      <trkpt lat="43.59732" lon="3.73515">
        <ele>174.2</ele>
        <time>2011-01-09T09:32:39Z</time>
      </trkpt>
      <trkpt lat="43.59738" lon="3.73515">
        <ele>173.8</ele>
        <time>2011-01-09T09:32:40Z</time>
      </trkpt>
      <trkpt lat="43.59743" lon="3.73515">
        <ele>173.3</ele>
        <time>2011-01-09T09:32:41Z</time>
      </trkpt>
      <trkpt lat="43.59749" lon="3.73515">
        <ele>173</ele>
        <time>2011-01-09T09:32:42Z</time>
      </trkpt>
      <trkpt lat="43.59754" lon="3.73516">
        <ele>172.3</ele>
        <time>2011-01-09T09:32:43Z</time>
      </trkpt>
      <trkpt lat="43.59761" lon="3.73516">
        <ele>171.3</ele>
        <time>2011-01-09T09:32:44Z</time>
      </trkpt>
      <trkpt lat="43.59767" lon="3.73516">
        <ele>170.4</ele>
        <time>2011-01-09T09:32:45Z</time>
      </trkpt>
      <trkpt lat="43.59772" lon="3.73514">
        <ele>169.6</ele>
        <time>2011-01-09T09:32:46Z</time>
      </trkpt>
      <trkpt lat="43.59777" lon="3.7351">
        <ele>168.8</ele>
        <time>2011-01-09T09:32:47Z</time>
      </trkpt>
      <trkpt lat="43.59783" lon="3.73507">
        <ele>167.8</ele>
        <time>2011-01-09T09:32:48Z</time>
      </trkpt>
      <trkpt lat="43.5979" lon="3.73506">
        <ele>166.8</ele>
        <time>2011-01-09T09:32:49Z</time>
      </trkpt>
      <trkpt lat="43.59797" lon="3.73504">
        <ele>165.9</ele>
        <time>2011-01-09T09:32:50Z</time>
      </trkpt>
      <trkpt lat="43.59802" lon="3.73501">
        <ele>165.1</ele>
        <time>2011-01-09T09:32:51Z</time>
      </trkpt>
      <trkpt lat="43.59807" lon="3.73498">
        <ele>164.2</ele>
        <time>2011-01-09T09:32:52Z</time>
      </trkpt>
      <trkpt lat="43.59813" lon="3.73492">
        <ele>162.7</ele>
        <time>2011-01-09T09:32:54Z</time>
      </trkpt>
      <trkpt lat="43.59815" lon="3.7348">
        <ele>161.3</ele>
        <time>2011-01-09T09:32:57Z</time>
      </trkpt>
      <trkpt lat="43.59813" lon="3.73472">
        <ele>160.5</ele>
        <time>2011-01-09T09:32:59Z</time>
      </trkpt>
      <trkpt lat="43.59809" lon="3.73462">
        <ele>159.9</ele>
        <time>2011-01-09T09:33:01Z</time>
      </trkpt>
      <trkpt lat="43.59808" lon="3.7345">
        <ele>158.7</ele>
        <time>2011-01-09T09:33:03Z</time>
      </trkpt>
      <trkpt lat="43.59809" lon="3.73439">
        <ele>157.2</ele>
        <time>2011-01-09T09:33:05Z</time>
      </trkpt>
      <trkpt lat="43.5981" lon="3.73428">
        <ele>155.8</ele>
        <time>2011-01-09T09:33:07Z</time>
      </trkpt>
      <trkpt lat="43.59809" lon="3.73421">
        <ele>155.1</ele>
        <time>2011-01-09T09:33:08Z</time>
      </trkpt>
      <trkpt lat="43.59809" lon="3.73409">
        <ele>153.9</ele>
        <time>2011-01-09T09:33:10Z</time>
      </trkpt>
      <trkpt lat="43.59809" lon="3.73402">
        <ele>153.2</ele>
        <time>2011-01-09T09:33:11Z</time>
      </trkpt>
      <trkpt lat="43.59809" lon="3.73395">
        <ele>152.6</ele>
        <time>2011-01-09T09:33:12Z</time>
      </trkpt>
      <trkpt lat="43.59808" lon="3.73388">
        <ele>152</ele>
        <time>2011-01-09T09:33:13Z</time>
      </trkpt>
      <trkpt lat="43.59806" lon="3.73382">
        <ele>151.6</ele>
        <time>2011-01-09T09:33:14Z</time>
      </trkpt>
      <trkpt lat="43.59803" lon="3.73376">
        <ele>151.4</ele>
        <time>2011-01-09T09:33:15Z</time>
      </trkpt>
      <trkpt lat="43.598" lon="3.73372">
        <ele>151.3</ele>
        <time>2011-01-09T09:33:16Z</time>
      </trkpt>
      <trkpt lat="43.59796" lon="3.73368">
        <ele>151.4</ele>
        <time>2011-01-09T09:33:17Z</time>
      </trkpt>
      <trkpt lat="43.59791" lon="3.73366">
        <ele>151.6</ele>
        <time>2011-01-09T09:33:18Z</time>
      </trkpt>
      <trkpt lat="43.59787" lon="3.73364">
        <ele>151.9</ele>
        <time>2011-01-09T09:33:19Z</time>
      </trkpt>
      <trkpt lat="43.59782" lon="3.73363">
        <ele>152.3</ele>
        <time>2011-01-09T09:33:20Z</time>
      </trkpt>
      <trkpt lat="43.59774" lon="3.73363">
        <ele>153.2</ele>
        <time>2011-01-09T09:33:22Z</time>
      </trkpt>
      <trkpt lat="43.59766" lon="3.73363">
        <ele>154.2</ele>
        <time>2011-01-09T09:33:24Z</time>
      </trkpt>
      <trkpt lat="43.59757" lon="3.73364">
        <ele>155.2</ele>
        <time>2011-01-09T09:33:26Z</time>
      </trkpt>
      <trkpt lat="43.59748" lon="3.73365">
        <ele>156.2</ele>
        <time>2011-01-09T09:33:28Z</time>
      </trkpt>
      <trkpt lat="43.59744" lon="3.73366">
        <ele>156.7</ele>
        <time>2011-01-09T09:33:29Z</time>
      </trkpt>
      <trkpt lat="43.59739" lon="3.73364">
        <ele>157</ele>
        <time>2011-01-09T09:33:30Z</time>
      </trkpt>
      <trkpt lat="43.59735" lon="3.73361">
        <ele>157.2</ele>
        <time>2011-01-09T09:33:31Z</time>
      </trkpt>
      <trkpt lat="43.59731" lon="3.73356">
        <ele>157</ele>
        <time>2011-01-09T09:33:32Z</time>
      </trkpt>
      <trkpt lat="43.5973" lon="3.73349">
        <ele>156.6</ele>
        <time>2011-01-09T09:33:33Z</time>
      </trkpt>
      <trkpt lat="43.5973" lon="3.73342">
        <ele>156</ele>
        <time>2011-01-09T09:33:34Z</time>
      </trkpt>
      <trkpt lat="43.59731" lon="3.73335">
        <ele>155.2</ele>
        <time>2011-01-09T09:33:35Z</time>
      </trkpt>
      <trkpt lat="43.59733" lon="3.73329">
        <ele>154.5</ele>
        <time>2011-01-09T09:33:36Z</time>
      </trkpt>
      <trkpt lat="43.59735" lon="3.73322">
        <ele>153.8</ele>
        <time>2011-01-09T09:33:37Z</time>
      </trkpt>
      <trkpt lat="43.59737" lon="3.73315">
        <ele>153</ele>
        <time>2011-01-09T09:33:38Z</time>
      </trkpt>
      <trkpt lat="43.59738" lon="3.73308">
        <ele>152.3</ele>
        <time>2011-01-09T09:33:39Z</time>
      </trkpt>
      <trkpt lat="43.5974" lon="3.733">
        <ele>151.6</ele>
        <time>2011-01-09T09:33:40Z</time>
      </trkpt>
      <trkpt lat="43.59742" lon="3.73293">
        <ele>150.9</ele>
        <time>2011-01-09T09:33:41Z</time>
      </trkpt>
      <trkpt lat="43.59743" lon="3.73285">
        <ele>150.1</ele>
        <time>2011-01-09T09:33:42Z</time>
      </trkpt>
      <trkpt lat="43.59746" lon="3.73277">
        <ele>149.4</ele>
        <time>2011-01-09T09:33:43Z</time>
      </trkpt>
      <trkpt lat="43.59747" lon="3.73269">
        <ele>148.7</ele>
        <time>2011-01-09T09:33:44Z</time>
      </trkpt>
      <trkpt lat="43.59747" lon="3.73261">
        <ele>148.1</ele>
        <time>2011-01-09T09:33:45Z</time>
      </trkpt>
      <trkpt lat="43.59745" lon="3.73253">
        <ele>147.6</ele>
        <time>2011-01-09T09:33:46Z</time>
      </trkpt>
      <trkpt lat="43.59743" lon="3.73245">
        <ele>147.2</ele>
        <time>2011-01-09T09:33:47Z</time>
      </trkpt>
      <trkpt lat="43.59739" lon="3.73239">
        <ele>147</ele>
        <time>2011-01-09T09:33:48Z</time>
      </trkpt>
      <trkpt lat="43.59734" lon="3.73233">
        <ele>146.9</ele>
        <time>2011-01-09T09:33:49Z</time>
      </trkpt>
      <trkpt lat="43.59729" lon="3.73229">
        <ele>147</ele>
        <time>2011-01-09T09:33:50Z</time>
      </trkpt>
      <trkpt lat="43.59723" lon="3.73226">
        <ele>147.2</ele>
        <time>2011-01-09T09:33:51Z</time>
      </trkpt>
      <trkpt lat="43.59718" lon="3.73222">
        <ele>147.4</ele>
        <time>2011-01-09T09:33:52Z</time>
      </trkpt>
      <trkpt lat="43.59713" lon="3.73218">
        <ele>147.4</ele>
        <time>2011-01-09T09:33:53Z</time>
      </trkpt>
      <trkpt lat="43.59708" lon="3.73213">
        <ele>147.5</ele>
        <time>2011-01-09T09:33:54Z</time>
      </trkpt>
      <trkpt lat="43.59703" lon="3.73207">
        <ele>147.4</ele>
        <time>2011-01-09T09:33:55Z</time>
      </trkpt>
      <trkpt lat="43.59699" lon="3.73201">
        <ele>147.2</ele>
        <time>2011-01-09T09:33:56Z</time>
      </trkpt>
      <trkpt lat="43.59696" lon="3.73193">
        <ele>146.8</ele>
        <time>2011-01-09T09:33:57Z</time>
      </trkpt>
      <trkpt lat="43.59695" lon="3.73185">
        <ele>146.2</ele>
        <time>2011-01-09T09:33:58Z</time>
      </trkpt>
      <trkpt lat="43.59695" lon="3.73178">
        <ele>145.5</ele>
        <time>2011-01-09T09:33:59Z</time>
      </trkpt>
      <trkpt lat="43.59696" lon="3.7317">
        <ele>144.8</ele>
        <time>2011-01-09T09:34:00Z</time>
      </trkpt>
      <trkpt lat="43.59696" lon="3.73163">
        <ele>144.5</ele>
        <time>2011-01-09T09:34:01Z</time>
      </trkpt>
      <trkpt lat="43.59696" lon="3.73156">
        <ele>144.3</ele>
        <time>2011-01-09T09:34:02Z</time>
      </trkpt>
      <trkpt lat="43.59695" lon="3.73149">
        <ele>144.2</ele>
        <time>2011-01-09T09:34:03Z</time>
      </trkpt>
      <trkpt lat="43.59695" lon="3.73142">
        <ele>144.1</ele>
        <time>2011-01-09T09:34:04Z</time>
      </trkpt>
      <trkpt lat="43.59693" lon="3.73136">
        <ele>144</ele>
        <time>2011-01-09T09:34:05Z</time>
      </trkpt>
      <trkpt lat="43.59692" lon="3.73129">
        <ele>144</ele>
        <time>2011-01-09T09:34:06Z</time>
      </trkpt>
      <trkpt lat="43.59691" lon="3.73122">
        <ele>143.9</ele>
        <time>2011-01-09T09:34:07Z</time>
      </trkpt>
      <trkpt lat="43.59692" lon="3.7311">
        <ele>143.6</ele>
        <time>2011-01-09T09:34:09Z</time>
      </trkpt>
      <trkpt lat="43.59694" lon="3.73106">
        <ele>143.3</ele>
        <time>2011-01-09T09:34:10Z</time>
      </trkpt>
      <trkpt lat="43.59703" lon="3.73096">
        <ele>142.2</ele>
        <time>2011-01-09T09:34:13Z</time>
      </trkpt>
      <trkpt lat="43.59711" lon="3.7309">
        <ele>141.4</ele>
        <time>2011-01-09T09:34:24Z</time>
      </trkpt>
      <trkpt lat="43.5972" lon="3.73087">
        <ele>140.6</ele>
        <time>2011-01-09T09:34:29Z</time>
      </trkpt>
      <trkpt lat="43.59727" lon="3.73082">
        <ele>140</ele>
        <time>2011-01-09T09:34:34Z</time>
      </trkpt>
      <trkpt lat="43.59733" lon="3.73076">
        <ele>139.8</ele>
        <time>2011-01-09T09:34:38Z</time>
      </trkpt>
      <trkpt lat="43.59735" lon="3.73065">
        <ele>140.2</ele>
        <time>2011-01-09T09:34:43Z</time>
      </trkpt>
      <trkpt lat="43.59744" lon="3.73063">
        <ele>139.6</ele>
        <time>2011-01-09T09:35:13Z</time>
      </trkpt>
      <trkpt lat="43.59744" lon="3.73062">
        <ele>139.7</ele>
        <time>2011-01-09T09:35:14Z</time>
      </trkpt>
      <trkpt lat="43.59758" lon="3.73063">
        <ele>138.5</ele>
        <time>2011-01-09T09:35:46Z</time>
      </trkpt>
      <trkpt lat="43.59766" lon="3.73066">
        <ele>137.5</ele>
        <time>2011-01-09T09:35:49Z</time>
      </trkpt>
      <trkpt lat="43.59775" lon="3.73068">
        <ele>136.6</ele>
        <time>2011-01-09T09:35:53Z</time>
      </trkpt>
      <trkpt lat="43.59783" lon="3.73067">
        <ele>135.9</ele>
        <time>2011-01-09T09:35:58Z</time>
      </trkpt>
      <trkpt lat="43.5979" lon="3.73062">
        <ele>135.5</ele>
        <time>2011-01-09T09:36:02Z</time>
      </trkpt>
      <trkpt lat="43.59796" lon="3.73063">
        <ele>134.8</ele>
        <time>2011-01-09T09:36:05Z</time>
      </trkpt>
      <trkpt lat="43.59805" lon="3.73062">
        <ele>134</ele>
        <time>2011-01-09T09:36:08Z</time>
      </trkpt>
      <trkpt lat="43.59809" lon="3.73054">
        <ele>134.1</ele>
        <time>2011-01-09T09:36:11Z</time>
      </trkpt>
      <trkpt lat="43.59813" lon="3.73045">
        <ele>134.2</ele>
        <time>2011-01-09T09:36:14Z</time>
      </trkpt>
      <trkpt lat="43.59814" lon="3.73042">
        <ele>134.4</ele>
        <time>2011-01-09T09:36:15Z</time>
      </trkpt>
      <trkpt lat="43.59822" lon="3.73028">
        <ele>134.4</ele>
        <time>2011-01-09T09:36:22Z</time>
      </trkpt>
      <trkpt lat="43.59829" lon="3.73024">
        <ele>134</ele>
        <time>2011-01-09T09:36:25Z</time>
      </trkpt>
      <trkpt lat="43.59835" lon="3.73017">
        <ele>133.9</ele>
        <time>2011-01-09T09:36:28Z</time>
      </trkpt>
      <trkpt lat="43.59839" lon="3.73008">
        <ele>134</ele>
        <time>2011-01-09T09:36:31Z</time>
      </trkpt>
      <trkpt lat="43.59846" lon="3.73">
        <ele>134</ele>
        <time>2011-01-09T09:36:34Z</time>
      </trkpt>
      <trkpt lat="43.59852" lon="3.72995">
        <ele>133.7</ele>
        <time>2011-01-09T09:36:36Z</time>
      </trkpt>
      <trkpt lat="43.59857" lon="3.72988">
        <ele>133.6</ele>
        <time>2011-01-09T09:36:38Z</time>
      </trkpt>
      <trkpt lat="43.59862" lon="3.7298">
        <ele>133.7</ele>
        <time>2011-01-09T09:36:40Z</time>
      </trkpt>
      <trkpt lat="43.59866" lon="3.72973">
        <ele>133.7</ele>
        <time>2011-01-09T09:36:42Z</time>
      </trkpt>
      <trkpt lat="43.59872" lon="3.72965">
        <ele>133.5</ele>
        <time>2011-01-09T09:36:45Z</time>
      </trkpt>
      <trkpt lat="43.59873" lon="3.72954">
        <ele>133.9</ele>
        <time>2011-01-09T09:36:48Z</time>
      </trkpt>
      <trkpt lat="43.59878" lon="3.72946">
        <ele>133.8</ele>
        <time>2011-01-09T09:36:51Z</time>
      </trkpt>
      <trkpt lat="43.59883" lon="3.72938">
        <ele>133.6</ele>
        <time>2011-01-09T09:36:54Z</time>
      </trkpt>
      <trkpt lat="43.5989" lon="3.7293">
        <ele>133.3</ele>
        <time>2011-01-09T09:36:57Z</time>
      </trkpt>
      <trkpt lat="43.59894" lon="3.72921">
        <ele>133.3</ele>
        <time>2011-01-09T09:37:00Z</time>
      </trkpt>
      <trkpt lat="43.59898" lon="3.7291">
        <ele>133.2</ele>
        <time>2011-01-09T09:37:03Z</time>
      </trkpt>
      <trkpt lat="43.59904" lon="3.72902">
        <ele>132.9</ele>
        <time>2011-01-09T09:37:06Z</time>
      </trkpt>
      <trkpt lat="43.59909" lon="3.72896">
        <ele>132.5</ele>
        <time>2011-01-09T09:37:08Z</time>
      </trkpt>
      <trkpt lat="43.59915" lon="3.72887">
        <ele>132.2</ele>
        <time>2011-01-09T09:37:11Z</time>
      </trkpt>
      <trkpt lat="43.59919" lon="3.72881">
        <ele>132.3</ele>
        <time>2011-01-09T09:37:13Z</time>
      </trkpt>
      <trkpt lat="43.59923" lon="3.72874">
        <ele>132.5</ele>
        <time>2011-01-09T09:37:15Z</time>
      </trkpt>
      <trkpt lat="43.59926" lon="3.7287">
        <ele>132.6</ele>
        <time>2011-01-09T09:37:16Z</time>
      </trkpt>
      <trkpt lat="43.59929" lon="3.72858">
        <ele>133</ele>
        <time>2011-01-09T09:37:19Z</time>
      </trkpt>
      <trkpt lat="43.59928" lon="3.72846">
        <ele>133.3</ele>
        <time>2011-01-09T09:37:22Z</time>
      </trkpt>
      <trkpt lat="43.59932" lon="3.72835">
        <ele>133.6</ele>
        <time>2011-01-09T09:37:25Z</time>
      </trkpt>
      <trkpt lat="43.59936" lon="3.72828">
        <ele>133.6</ele>
        <time>2011-01-09T09:37:27Z</time>
      </trkpt>
      <trkpt lat="43.59939" lon="3.7282">
        <ele>133.7</ele>
        <time>2011-01-09T09:37:29Z</time>
      </trkpt>
      <trkpt lat="43.59938" lon="3.72811">
        <ele>133.9</ele>
        <time>2011-01-09T09:37:31Z</time>
      </trkpt>
      <trkpt lat="43.59938" lon="3.72802">
        <ele>134</ele>
        <time>2011-01-09T09:37:33Z</time>
      </trkpt>
      <trkpt lat="43.59941" lon="3.72791">
        <ele>134.2</ele>
        <time>2011-01-09T09:37:36Z</time>
      </trkpt>
      <trkpt lat="43.59946" lon="3.72782">
        <ele>134.4</ele>
        <time>2011-01-09T09:37:40Z</time>
      </trkpt>
      <trkpt lat="43.59952" lon="3.72775">
        <ele>134.5</ele>
        <time>2011-01-09T09:37:44Z</time>
      </trkpt>
      <trkpt lat="43.59961" lon="3.72772">
        <ele>134.4</ele>
        <time>2011-01-09T09:37:49Z</time>
      </trkpt>
      <trkpt lat="43.59968" lon="3.72774">
        <ele>134.4</ele>
        <time>2011-01-09T09:37:52Z</time>
      </trkpt>
      <trkpt lat="43.59975" lon="3.72774">
        <ele>134.3</ele>
        <time>2011-01-09T09:37:55Z</time>
      </trkpt>
      <trkpt lat="43.59982" lon="3.7277">
        <ele>134.4</ele>
        <time>2011-01-09T09:37:58Z</time>
      </trkpt>
      <trkpt lat="43.59986" lon="3.72761">
        <ele>134.6</ele>
        <time>2011-01-09T09:38:01Z</time>
      </trkpt>
      <trkpt lat="43.59989" lon="3.72752">
        <ele>135</ele>
        <time>2011-01-09T09:38:05Z</time>
      </trkpt>
      <trkpt lat="43.59992" lon="3.72742">
        <ele>135.4</ele>
        <time>2011-01-09T09:38:09Z</time>
      </trkpt>
      <trkpt lat="43.59996" lon="3.72734">
        <ele>135.8</ele>
        <time>2011-01-09T09:38:12Z</time>
      </trkpt>
      <trkpt lat="43.6" lon="3.72724">
        <ele>136.2</ele>
        <time>2011-01-09T09:38:16Z</time>
      </trkpt>
      <trkpt lat="43.60001" lon="3.72723">
        <ele>136.3</ele>
        <time>2011-01-09T09:38:17Z</time>
      </trkpt>
      <trkpt lat="43.60013" lon="3.72716">
        <ele>136.9</ele>
        <time>2011-01-09T09:38:25Z</time>
      </trkpt>
      <trkpt lat="43.60021" lon="3.72718">
        <ele>137</ele>
        <time>2011-01-09T09:38:29Z</time>
      </trkpt>
      <trkpt lat="43.60029" lon="3.72723">
        <ele>136.9</ele>
        <time>2011-01-09T09:38:33Z</time>
      </trkpt>
      <trkpt lat="43.60035" lon="3.7273">
        <ele>136.7</ele>
        <time>2011-01-09T09:38:37Z</time>
      </trkpt>
      <trkpt lat="43.6004" lon="3.72738">
        <ele>136.5</ele>
        <time>2011-01-09T09:38:40Z</time>
      </trkpt>
      <trkpt lat="43.60044" lon="3.72747">
        <ele>136.2</ele>
        <time>2011-01-09T09:38:43Z</time>
      </trkpt>
      <trkpt lat="43.60049" lon="3.72755">
        <ele>136</ele>
        <time>2011-01-09T09:38:46Z</time>
      </trkpt>
      <trkpt lat="43.60052" lon="3.72764">
        <ele>135.7</ele>
        <time>2011-01-09T09:38:49Z</time>
      </trkpt>
      <trkpt lat="43.60058" lon="3.72771">
        <ele>135.6</ele>
        <time>2011-01-09T09:38:53Z</time>
      </trkpt>
      <trkpt lat="43.60067" lon="3.72768">
        <ele>135.9</ele>
        <time>2011-01-09T09:38:57Z</time>
      </trkpt>
      <trkpt lat="43.60075" lon="3.72764">
        <ele>136.3</ele>
        <time>2011-01-09T09:39:01Z</time>
      </trkpt>
      <trkpt lat="43.60082" lon="3.72758">
        <ele>136.7</ele>
        <time>2011-01-09T09:39:05Z</time>
      </trkpt>
      <trkpt lat="43.60088" lon="3.72753">
        <ele>137</ele>
        <time>2011-01-09T09:39:08Z</time>
      </trkpt>
      <trkpt lat="43.60096" lon="3.72747">
        <ele>137.4</ele>
        <time>2011-01-09T09:39:12Z</time>
      </trkpt>
      <trkpt lat="43.60102" lon="3.72743">
        <ele>137.7</ele>
        <time>2011-01-09T09:39:15Z</time>
      </trkpt>
      <trkpt lat="43.60109" lon="3.72736">
        <ele>138.1</ele>
        <time>2011-01-09T09:39:19Z</time>
      </trkpt>
      <trkpt lat="43.6011" lon="3.72735">
        <ele>138.1</ele>
        <time>2011-01-09T09:39:20Z</time>
      </trkpt>
      <trkpt lat="43.60122" lon="3.72722">
        <ele>138.8</ele>
        <time>2011-01-09T09:39:30Z</time>
      </trkpt>
      <trkpt lat="43.60128" lon="3.72714">
        <ele>139.1</ele>
        <time>2011-01-09T09:39:35Z</time>
      </trkpt>
      <trkpt lat="43.60133" lon="3.72707">
        <ele>139.4</ele>
        <time>2011-01-09T09:39:39Z</time>
      </trkpt>
      <trkpt lat="43.60138" lon="3.727">
        <ele>139.7</ele>
        <time>2011-01-09T09:39:43Z</time>
      </trkpt>
      <trkpt lat="43.60144" lon="3.72692">
        <ele>140</ele>
        <time>2011-01-09T09:39:47Z</time>
      </trkpt>
      <trkpt lat="43.6015" lon="3.72683">
        <ele>140.4</ele>
        <time>2011-01-09T09:39:51Z</time>
      </trkpt>
      <trkpt lat="43.60155" lon="3.72674">
        <ele>140.7</ele>
        <time>2011-01-09T09:39:55Z</time>
      </trkpt>
      <trkpt lat="43.6016" lon="3.72667">
        <ele>140.9</ele>
        <time>2011-01-09T09:39:58Z</time>
      </trkpt>
      <trkpt lat="43.60166" lon="3.72661">
        <ele>141.4</ele>
        <time>2011-01-09T09:40:01Z</time>
      </trkpt>
      <trkpt lat="43.60171" lon="3.72654">
        <ele>142.2</ele>
        <time>2011-01-09T09:40:04Z</time>
      </trkpt>
      <trkpt lat="43.60177" lon="3.72649">
        <ele>143</ele>
        <time>2011-01-09T09:40:07Z</time>
      </trkpt>
      <trkpt lat="43.60182" lon="3.72643">
        <ele>143.8</ele>
        <time>2011-01-09T09:40:10Z</time>
      </trkpt>
      <trkpt lat="43.60187" lon="3.72637">
        <ele>144.4</ele>
        <time>2011-01-09T09:40:13Z</time>
      </trkpt>
      <trkpt lat="43.60193" lon="3.72631">
        <ele>145</ele>
        <time>2011-01-09T09:40:16Z</time>
      </trkpt>
      <trkpt lat="43.60199" lon="3.72625">
        <ele>145.5</ele>
        <time>2011-01-09T09:40:19Z</time>
      </trkpt>
      <trkpt lat="43.60205" lon="3.7262">
        <ele>146</ele>
        <time>2011-01-09T09:40:22Z</time>
      </trkpt>
      <trkpt lat="43.60207" lon="3.72618">
        <ele>146.1</ele>
        <time>2011-01-09T09:40:23Z</time>
      </trkpt>
      <trkpt lat="43.60217" lon="3.72609">
        <ele>146.6</ele>
        <time>2011-01-09T09:40:28Z</time>
      </trkpt>
      <trkpt lat="43.60223" lon="3.72603">
        <ele>146.9</ele>
        <time>2011-01-09T09:40:31Z</time>
      </trkpt>
      <trkpt lat="43.60229" lon="3.72598">
        <ele>147</ele>
        <time>2011-01-09T09:40:34Z</time>
      </trkpt>
      <trkpt lat="43.60235" lon="3.72592">
        <ele>147.1</ele>
        <time>2011-01-09T09:40:37Z</time>
      </trkpt>
      <trkpt lat="43.60241" lon="3.72587">
        <ele>147.1</ele>
        <time>2011-01-09T09:40:40Z</time>
      </trkpt>
      <trkpt lat="43.60247" lon="3.72582">
        <ele>147.1</ele>
        <time>2011-01-09T09:40:43Z</time>
      </trkpt>
      <trkpt lat="43.60254" lon="3.72577">
        <ele>148.1</ele>
        <time>2011-01-09T09:40:46Z</time>
      </trkpt>
      <trkpt lat="43.6026" lon="3.72571">
        <ele>149.2</ele>
        <time>2011-01-09T09:40:49Z</time>
      </trkpt>
      <trkpt lat="43.60266" lon="3.72566">
        <ele>150.2</ele>
        <time>2011-01-09T09:40:52Z</time>
      </trkpt>
      <trkpt lat="43.60273" lon="3.72562">
        <ele>151</ele>
        <time>2011-01-09T09:40:55Z</time>
      </trkpt>
      <trkpt lat="43.60279" lon="3.72558">
        <ele>151.7</ele>
        <time>2011-01-09T09:40:58Z</time>
      </trkpt>
      <trkpt lat="43.60286" lon="3.72554">
        <ele>152.3</ele>
        <time>2011-01-09T09:41:01Z</time>
      </trkpt>
      <trkpt lat="43.60293" lon="3.72549">
        <ele>152.9</ele>
        <time>2011-01-09T09:41:04Z</time>
      </trkpt>
      <trkpt lat="43.603" lon="3.72544">
        <ele>153.4</ele>
        <time>2011-01-09T09:41:07Z</time>
      </trkpt>
      <trkpt lat="43.60306" lon="3.72538">
        <ele>153.8</ele>
        <time>2011-01-09T09:41:10Z</time>
      </trkpt>
      <trkpt lat="43.60312" lon="3.72533">
        <ele>154.1</ele>
        <time>2011-01-09T09:41:13Z</time>
      </trkpt>
      <trkpt lat="43.60319" lon="3.72527">
        <ele>154.2</ele>
        <time>2011-01-09T09:41:16Z</time>
      </trkpt>
      <trkpt lat="43.60326" lon="3.72522">
        <ele>154.3</ele>
        <time>2011-01-09T09:41:19Z</time>
      </trkpt>
      <trkpt lat="43.60332" lon="3.72517">
        <ele>154.2</ele>
        <time>2011-01-09T09:41:22Z</time>
      </trkpt>
      <trkpt lat="43.60339" lon="3.72512">
        <ele>154.3</ele>
        <time>2011-01-09T09:41:25Z</time>
      </trkpt>
      <trkpt lat="43.60341" lon="3.72511">
        <ele>154.3</ele>
        <time>2011-01-09T09:41:26Z</time>
      </trkpt>
      <trkpt lat="43.60354" lon="3.72503">
        <ele>154.3</ele>
        <time>2011-01-09T09:41:32Z</time>
      </trkpt>
      <trkpt lat="43.60361" lon="3.72496">
        <ele>154.6</ele>
        <time>2011-01-09T09:41:36Z</time>
      </trkpt>
      <trkpt lat="43.60368" lon="3.72492">
        <ele>155</ele>
        <time>2011-01-09T09:41:39Z</time>
      </trkpt>
      <trkpt lat="43.60376" lon="3.72487">
        <ele>155.4</ele>
        <time>2011-01-09T09:41:43Z</time>
      </trkpt>
      <trkpt lat="43.60384" lon="3.72482">
        <ele>155.8</ele>
        <time>2011-01-09T09:41:47Z</time>
      </trkpt>
      <trkpt lat="43.6039" lon="3.72479">
        <ele>155.9</ele>
        <time>2011-01-09T09:41:50Z</time>
      </trkpt>
      <trkpt lat="43.60397" lon="3.72477">
        <ele>156</ele>
        <time>2011-01-09T09:41:53Z</time>
      </trkpt>
      <trkpt lat="43.60405" lon="3.72473">
        <ele>156.1</ele>
        <time>2011-01-09T09:41:57Z</time>
      </trkpt>
      <trkpt lat="43.60411" lon="3.72469">
        <ele>156.2</ele>
        <time>2011-01-09T09:42:00Z</time>
      </trkpt>
      <trkpt lat="43.60419" lon="3.72465">
        <ele>156.5</ele>
        <time>2011-01-09T09:42:03Z</time>
      </trkpt>
      <trkpt lat="43.60426" lon="3.7246">
        <ele>157.1</ele>
        <time>2011-01-09T09:42:06Z</time>
      </trkpt>
      <trkpt lat="43.60433" lon="3.72456">
        <ele>157.7</ele>
        <time>2011-01-09T09:42:09Z</time>
      </trkpt>
      <trkpt lat="43.60439" lon="3.72451">
        <ele>158.2</ele>
        <time>2011-01-09T09:42:12Z</time>
      </trkpt>
      <trkpt lat="43.60446" lon="3.72446">
        <ele>158.6</ele>
        <time>2011-01-09T09:42:16Z</time>
      </trkpt>
      <trkpt lat="43.6045" lon="3.72436">
        <ele>158.8</ele>
        <time>2011-01-09T09:42:20Z</time>
      </trkpt>
      <trkpt lat="43.60454" lon="3.72424">
        <ele>158.9</ele>
        <time>2011-01-09T09:42:24Z</time>
      </trkpt>
      <trkpt lat="43.60459" lon="3.72417">
        <ele>159</ele>
        <time>2011-01-09T09:42:27Z</time>
      </trkpt>
      <trkpt lat="43.60461" lon="3.72415">
        <ele>159.1</ele>
        <time>2011-01-09T09:42:28Z</time>
      </trkpt>
      <trkpt lat="43.60469" lon="3.72402">
        <ele>159.5</ele>
        <time>2011-01-09T09:42:33Z</time>
      </trkpt>
      <trkpt lat="43.60473" lon="3.72394">
        <ele>159.6</ele>
        <time>2011-01-09T09:42:36Z</time>
      </trkpt>
      <trkpt lat="43.60478" lon="3.72386">
        <ele>159.7</ele>
        <time>2011-01-09T09:42:39Z</time>
      </trkpt>
      <trkpt lat="43.60482" lon="3.72378">
        <ele>159.7</ele>
        <time>2011-01-09T09:42:42Z</time>
      </trkpt>
      <trkpt lat="43.60486" lon="3.7237">
        <ele>159.7</ele>
        <time>2011-01-09T09:42:45Z</time>
      </trkpt>
      <trkpt lat="43.60491" lon="3.72362">
        <ele>159.6</ele>
        <time>2011-01-09T09:42:48Z</time>
      </trkpt>
      <trkpt lat="43.60496" lon="3.72354">
        <ele>159.4</ele>
        <time>2011-01-09T09:42:51Z</time>
      </trkpt>
      <trkpt lat="43.60501" lon="3.72346">
        <ele>159.2</ele>
        <time>2011-01-09T09:42:54Z</time>
      </trkpt>
      <trkpt lat="43.60505" lon="3.72338">
        <ele>159.6</ele>
        <time>2011-01-09T09:42:57Z</time>
      </trkpt>
      <trkpt lat="43.6051" lon="3.7233">
        <ele>160.2</ele>
        <time>2011-01-09T09:43:00Z</time>
      </trkpt>
      <trkpt lat="43.60515" lon="3.72321">
        <ele>161</ele>
        <time>2011-01-09T09:43:03Z</time>
      </trkpt>
      <trkpt lat="43.6052" lon="3.72314">
        <ele>161.8</ele>
        <time>2011-01-09T09:43:06Z</time>
      </trkpt>
      <trkpt lat="43.60526" lon="3.72306">
        <ele>162.5</ele>
        <time>2011-01-09T09:43:09Z</time>
      </trkpt>
      <trkpt lat="43.6053" lon="3.72298">
        <ele>163.1</ele>
        <time>2011-01-09T09:43:12Z</time>
      </trkpt>
      <trkpt lat="43.60534" lon="3.72289">
        <ele>163.6</ele>
        <time>2011-01-09T09:43:15Z</time>
      </trkpt>
      <trkpt lat="43.60538" lon="3.72279">
        <ele>164.1</ele>
        <time>2011-01-09T09:43:18Z</time>
      </trkpt>
      <trkpt lat="43.60541" lon="3.72269">
        <ele>164.5</ele>
        <time>2011-01-09T09:43:21Z</time>
      </trkpt>
      <trkpt lat="43.60546" lon="3.7226">
        <ele>164.9</ele>
        <time>2011-01-09T09:43:24Z</time>
      </trkpt>
      <trkpt lat="43.6055" lon="3.72251">
        <ele>165.2</ele>
        <time>2011-01-09T09:43:27Z</time>
      </trkpt>
      <trkpt lat="43.60553" lon="3.72241">
        <ele>165.6</ele>
        <time>2011-01-09T09:43:30Z</time>
      </trkpt>
      <trkpt lat="43.60554" lon="3.72238">
        <ele>165.7</ele>
        <time>2011-01-09T09:43:31Z</time>
      </trkpt>
      <trkpt lat="43.60558" lon="3.7222">
        <ele>166.3</ele>
        <time>2011-01-09T09:43:36Z</time>
      </trkpt>
      <trkpt lat="43.6056" lon="3.72209">
        <ele>166.7</ele>
        <time>2011-01-09T09:43:39Z</time>
      </trkpt>
      <trkpt lat="43.60563" lon="3.722">
        <ele>167</ele>
        <time>2011-01-09T09:43:42Z</time>
      </trkpt>
      <trkpt lat="43.60567" lon="3.72192">
        <ele>167.3</ele>
        <time>2011-01-09T09:43:45Z</time>
      </trkpt>
      <trkpt lat="43.60568" lon="3.7218">
        <ele>167.6</ele>
        <time>2011-01-09T09:43:49Z</time>
      </trkpt>
      <trkpt lat="43.60568" lon="3.7217">
        <ele>167.9</ele>
        <time>2011-01-09T09:43:52Z</time>
      </trkpt>
      <trkpt lat="43.60566" lon="3.72159">
        <ele>168.3</ele>
        <time>2011-01-09T09:43:55Z</time>
      </trkpt>
      <trkpt lat="43.60564" lon="3.72148">
        <ele>168.8</ele>
        <time>2011-01-09T09:43:58Z</time>
      </trkpt>
      <trkpt lat="43.6056" lon="3.72139">
        <ele>169.3</ele>
        <time>2011-01-09T09:44:01Z</time>
      </trkpt>
      <trkpt lat="43.60557" lon="3.72129">
        <ele>169.8</ele>
        <time>2011-01-09T09:44:04Z</time>
      </trkpt>
      <trkpt lat="43.60553" lon="3.72119">
        <ele>170.3</ele>
        <time>2011-01-09T09:44:07Z</time>
      </trkpt>
      <trkpt lat="43.60548" lon="3.72109">
        <ele>171</ele>
        <time>2011-01-09T09:44:10Z</time>
      </trkpt>
      <trkpt lat="43.60543" lon="3.72101">
        <ele>171.5</ele>
        <time>2011-01-09T09:44:13Z</time>
      </trkpt>
      <trkpt lat="43.60538" lon="3.72091">
        <ele>172.2</ele>
        <time>2011-01-09T09:44:17Z</time>
      </trkpt>
      <trkpt lat="43.60536" lon="3.72083">
        <ele>172.8</ele>
        <time>2011-01-09T09:44:20Z</time>
      </trkpt>
      <trkpt lat="43.60535" lon="3.72072">
        <ele>173.7</ele>
        <time>2011-01-09T09:44:23Z</time>
      </trkpt>
      <trkpt lat="43.60535" lon="3.72062">
        <ele>174.7</ele>
        <time>2011-01-09T09:44:26Z</time>
      </trkpt>
      <trkpt lat="43.60535" lon="3.72052">
        <ele>175.6</ele>
        <time>2011-01-09T09:44:29Z</time>
      </trkpt>
      <trkpt lat="43.60533" lon="3.7204">
        <ele>176.7</ele>
        <time>2011-01-09T09:44:33Z</time>
      </trkpt>
      <trkpt lat="43.60532" lon="3.72037">
        <ele>176.9</ele>
        <time>2011-01-09T09:44:34Z</time>
      </trkpt>
      <trkpt lat="43.60527" lon="3.72017">
        <ele>178.6</ele>
        <time>2011-01-09T09:44:41Z</time>
      </trkpt>
      <trkpt lat="43.60531" lon="3.72008">
        <ele>179.5</ele>
        <time>2011-01-09T09:44:46Z</time>
      </trkpt>
      <trkpt lat="43.60538" lon="3.72002">
        <ele>180.2</ele>
        <time>2011-01-09T09:44:52Z</time>
      </trkpt>
      <trkpt lat="43.60544" lon="3.72011">
        <ele>179.5</ele>
        <time>2011-01-09T09:44:57Z</time>
      </trkpt>
      <trkpt lat="43.6055" lon="3.72019">
        <ele>178.8</ele>
        <time>2011-01-09T09:45:01Z</time>
      </trkpt>
      <trkpt lat="43.60555" lon="3.72028">
        <ele>178</ele>
        <time>2011-01-09T09:45:05Z</time>
      </trkpt>
      <trkpt lat="43.6056" lon="3.72038">
        <ele>176.9</ele>
        <time>2011-01-09T09:45:09Z</time>
      </trkpt>
      <trkpt lat="43.60564" lon="3.72046">
        <ele>176</ele>
        <time>2011-01-09T09:45:12Z</time>
      </trkpt>
      <trkpt lat="43.60569" lon="3.72054">
        <ele>175.1</ele>
        <time>2011-01-09T09:45:15Z</time>
      </trkpt>
      <trkpt lat="43.60575" lon="3.72063">
        <ele>173.8</ele>
        <time>2011-01-09T09:45:18Z</time>
      </trkpt>
      <trkpt lat="43.60579" lon="3.7207">
        <ele>172.9</ele>
        <time>2011-01-09T09:45:20Z</time>
      </trkpt>
      <trkpt lat="43.60584" lon="3.72076">
        <ele>172</ele>
        <time>2011-01-09T09:45:22Z</time>
      </trkpt>
      <trkpt lat="43.60589" lon="3.72086">
        <ele>171.8</ele>
        <time>2011-01-09T09:45:25Z</time>
      </trkpt>
      <trkpt lat="43.60594" lon="3.72093">
        <ele>172.1</ele>
        <time>2011-01-09T09:45:27Z</time>
      </trkpt>
      <trkpt lat="43.606" lon="3.72097">
        <ele>172.7</ele>
        <time>2011-01-09T09:45:29Z</time>
      </trkpt>
      <trkpt lat="43.60606" lon="3.72101">
        <ele>173.4</ele>
        <time>2011-01-09T09:45:31Z</time>
      </trkpt>
      <trkpt lat="43.60612" lon="3.72103">
        <ele>174.1</ele>
        <time>2011-01-09T09:45:33Z</time>
      </trkpt>
      <trkpt lat="43.6062" lon="3.7211">
        <ele>174.7</ele>
        <time>2011-01-09T09:45:36Z</time>
      </trkpt>
      <trkpt lat="43.60623" lon="3.72113">
        <ele>174.9</ele>
        <time>2011-01-09T09:45:37Z</time>
      </trkpt>
      <trkpt lat="43.6063" lon="3.72124">
        <ele>175.2</ele>
        <time>2011-01-09T09:45:40Z</time>
      </trkpt>
      <trkpt lat="43.60633" lon="3.72132">
        <ele>175</ele>
        <time>2011-01-09T09:45:42Z</time>
      </trkpt>
      <trkpt lat="43.60636" lon="3.72142">
        <ele>174.7</ele>
        <time>2011-01-09T09:45:45Z</time>
      </trkpt>
      <trkpt lat="43.60639" lon="3.72152">
        <ele>174.4</ele>
        <time>2011-01-09T09:45:48Z</time>
      </trkpt>
      <trkpt lat="43.60643" lon="3.72162">
        <ele>174.1</ele>
        <time>2011-01-09T09:45:51Z</time>
      </trkpt>
      <trkpt lat="43.60649" lon="3.72172">
        <ele>174.3</ele>
        <time>2011-01-09T09:45:54Z</time>
      </trkpt>
      <trkpt lat="43.60652" lon="3.72179">
        <ele>174.8</ele>
        <time>2011-01-09T09:45:56Z</time>
      </trkpt>
      <trkpt lat="43.60657" lon="3.72188">
        <ele>175.5</ele>
        <time>2011-01-09T09:45:59Z</time>
      </trkpt>
      <trkpt lat="43.60662" lon="3.72197">
        <ele>176.2</ele>
        <time>2011-01-09T09:46:02Z</time>
      </trkpt>
      <trkpt lat="43.60665" lon="3.72207">
        <ele>176.8</ele>
        <time>2011-01-09T09:46:05Z</time>
      </trkpt>
      <trkpt lat="43.60667" lon="3.72218">
        <ele>177.3</ele>
        <time>2011-01-09T09:46:08Z</time>
      </trkpt>
      <trkpt lat="43.60669" lon="3.72228">
        <ele>177.7</ele>
        <time>2011-01-09T09:46:11Z</time>
      </trkpt>
      <trkpt lat="43.60671" lon="3.72237">
        <ele>178</ele>
        <time>2011-01-09T09:46:14Z</time>
      </trkpt>
      <trkpt lat="43.60671" lon="3.72248">
        <ele>178.2</ele>
        <time>2011-01-09T09:46:17Z</time>
      </trkpt>
      <trkpt lat="43.6067" lon="3.72259">
        <ele>178.4</ele>
        <time>2011-01-09T09:46:21Z</time>
      </trkpt>
      <trkpt lat="43.60669" lon="3.72269">
        <ele>178.5</ele>
        <time>2011-01-09T09:46:25Z</time>
      </trkpt>
      <trkpt lat="43.60666" lon="3.7228">
        <ele>178.7</ele>
        <time>2011-01-09T09:46:29Z</time>
      </trkpt>
      <trkpt lat="43.60664" lon="3.72289">
        <ele>178.5</ele>
        <time>2011-01-09T09:46:32Z</time>
      </trkpt>
      <trkpt lat="43.60664" lon="3.72302">
        <ele>178.8</ele>
        <time>2011-01-09T09:46:37Z</time>
      </trkpt>
      <trkpt lat="43.60664" lon="3.72304">
        <ele>178.9</ele>
        <time>2011-01-09T09:46:38Z</time>
      </trkpt>
      <trkpt lat="43.60676" lon="3.72309">
        <ele>178.9</ele>
        <time>2011-01-09T09:46:46Z</time>
      </trkpt>
      <trkpt lat="43.60684" lon="3.72306">
        <ele>178.6</ele>
        <time>2011-01-09T09:46:49Z</time>
      </trkpt>
      <trkpt lat="43.60691" lon="3.72308">
        <ele>178.2</ele>
        <time>2011-01-09T09:46:52Z</time>
      </trkpt>
      <trkpt lat="43.60698" lon="3.72313">
        <ele>177.7</ele>
        <time>2011-01-09T09:46:55Z</time>
      </trkpt>
      <trkpt lat="43.60692" lon="3.72306">
        <ele>178.2</ele>
        <time>2011-01-09T09:49:05Z</time>
      </trkpt>
      <trkpt lat="43.60692" lon="3.72303">
        <ele>178.3</ele>
        <time>2011-01-09T09:49:06Z</time>
      </trkpt>
      <trkpt lat="43.60701" lon="3.72286">
        <ele>178.6</ele>
        <time>2011-01-09T09:49:14Z</time>
      </trkpt>
      <trkpt lat="43.60706" lon="3.72277">
        <ele>179</ele>
        <time>2011-01-09T09:49:18Z</time>
      </trkpt>
      <trkpt lat="43.60711" lon="3.72268">
        <ele>179.6</ele>
        <time>2011-01-09T09:49:21Z</time>
      </trkpt>
      <trkpt lat="43.60716" lon="3.7226">
        <ele>180.3</ele>
        <time>2011-01-09T09:49:24Z</time>
      </trkpt>
      <trkpt lat="43.60718" lon="3.72251">
        <ele>181</ele>
        <time>2011-01-09T09:49:27Z</time>
      </trkpt>
      <trkpt lat="43.60718" lon="3.72241">
        <ele>181.7</ele>
        <time>2011-01-09T09:49:30Z</time>
      </trkpt>
      <trkpt lat="43.60717" lon="3.72231">
        <ele>182.4</ele>
        <time>2011-01-09T09:49:33Z</time>
      </trkpt>
      <trkpt lat="43.60717" lon="3.72221">
        <ele>183.1</ele>
        <time>2011-01-09T09:49:36Z</time>
      </trkpt>
      <trkpt lat="43.60718" lon="3.72211">
        <ele>183.8</ele>
        <time>2011-01-09T09:49:39Z</time>
      </trkpt>
      <trkpt lat="43.60718" lon="3.72202">
        <ele>184.5</ele>
        <time>2011-01-09T09:49:42Z</time>
      </trkpt>
      <trkpt lat="43.60718" lon="3.72192">
        <ele>185.2</ele>
        <time>2011-01-09T09:49:45Z</time>
      </trkpt>
      <trkpt lat="43.60717" lon="3.72182">
        <ele>185.8</ele>
        <time>2011-01-09T09:49:48Z</time>
      </trkpt>
      <trkpt lat="43.60715" lon="3.72173">
        <ele>186</ele>
        <time>2011-01-09T09:49:51Z</time>
      </trkpt>
      <trkpt lat="43.60714" lon="3.72163">
        <ele>186.4</ele>
        <time>2011-01-09T09:49:54Z</time>
      </trkpt>
      <trkpt lat="43.60712" lon="3.72151">
        <ele>187.3</ele>
        <time>2011-01-09T09:49:58Z</time>
      </trkpt>
      <trkpt lat="43.60712" lon="3.72141">
        <ele>188.2</ele>
        <time>2011-01-09T09:50:01Z</time>
      </trkpt>
      <trkpt lat="43.60711" lon="3.72132">
        <ele>189</ele>
        <time>2011-01-09T09:50:04Z</time>
      </trkpt>
      <trkpt lat="43.60712" lon="3.72122">
        <ele>190.1</ele>
        <time>2011-01-09T09:50:07Z</time>
      </trkpt>
      <trkpt lat="43.60712" lon="3.72119">
        <ele>190.5</ele>
        <time>2011-01-09T09:50:08Z</time>
      </trkpt>
      <trkpt lat="43.60713" lon="3.72102">
        <ele>192.3</ele>
        <time>2011-01-09T09:50:13Z</time>
      </trkpt>
      <trkpt lat="43.60714" lon="3.72091">
        <ele>193.6</ele>
        <time>2011-01-09T09:50:16Z</time>
      </trkpt>
      <trkpt lat="43.60716" lon="3.72082">
        <ele>194.9</ele>
        <time>2011-01-09T09:50:19Z</time>
      </trkpt>
      <trkpt lat="43.60716" lon="3.72072">
        <ele>196</ele>
        <time>2011-01-09T09:50:22Z</time>
      </trkpt>
      <trkpt lat="43.60717" lon="3.72062">
        <ele>197.2</ele>
        <time>2011-01-09T09:50:25Z</time>
      </trkpt>
      <trkpt lat="43.60717" lon="3.72053">
        <ele>198.3</ele>
        <time>2011-01-09T09:50:28Z</time>
      </trkpt>
      <trkpt lat="43.60717" lon="3.72043">
        <ele>199.2</ele>
        <time>2011-01-09T09:50:31Z</time>
      </trkpt>
      <trkpt lat="43.60716" lon="3.72034">
        <ele>199.9</ele>
        <time>2011-01-09T09:50:34Z</time>
      </trkpt>
      <trkpt lat="43.60712" lon="3.72024">
        <ele>200.4</ele>
        <time>2011-01-09T09:50:38Z</time>
      </trkpt>
      <trkpt lat="43.60708" lon="3.72015">
        <ele>200.7</ele>
        <time>2011-01-09T09:50:42Z</time>
      </trkpt>
      <trkpt lat="43.60703" lon="3.72007">
        <ele>200.9</ele>
        <time>2011-01-09T09:50:46Z</time>
      </trkpt>
      <trkpt lat="43.60698" lon="3.72">
        <ele>201.2</ele>
        <time>2011-01-09T09:50:50Z</time>
      </trkpt>
      <trkpt lat="43.60693" lon="3.71992">
        <ele>201.1</ele>
        <time>2011-01-09T09:50:54Z</time>
      </trkpt>
      <trkpt lat="43.60687" lon="3.71984">
        <ele>201.2</ele>
        <time>2011-01-09T09:50:58Z</time>
      </trkpt>
      <trkpt lat="43.60683" lon="3.71974">
        <ele>201.5</ele>
        <time>2011-01-09T09:51:02Z</time>
      </trkpt>
      <trkpt lat="43.6068" lon="3.71964">
        <ele>202.2</ele>
        <time>2011-01-09T09:51:06Z</time>
      </trkpt>
      <trkpt lat="43.60678" lon="3.71953">
        <ele>203</ele>
        <time>2011-01-09T09:51:10Z</time>
      </trkpt>
      <trkpt lat="43.60677" lon="3.7195">
        <ele>203.3</ele>
        <time>2011-01-09T09:51:11Z</time>
      </trkpt>
      <trkpt lat="43.60674" lon="3.71932">
        <ele>204.9</ele>
        <time>2011-01-09T09:51:17Z</time>
      </trkpt>
      <trkpt lat="43.60672" lon="3.7192">
        <ele>205.9</ele>
        <time>2011-01-09T09:51:21Z</time>
      </trkpt>
      <trkpt lat="43.60669" lon="3.71909">
        <ele>206</ele>
        <time>2011-01-09T09:51:25Z</time>
      </trkpt>
      <trkpt lat="43.60667" lon="3.71897">
        <ele>205.8</ele>
        <time>2011-01-09T09:51:29Z</time>
      </trkpt>
      <trkpt lat="43.60665" lon="3.71886">
        <ele>205.5</ele>
        <time>2011-01-09T09:51:33Z</time>
      </trkpt>
      <trkpt lat="43.60663" lon="3.71876">
        <ele>205.3</ele>
        <time>2011-01-09T09:51:36Z</time>
      </trkpt>
      <trkpt lat="43.60657" lon="3.71867">
        <ele>204.8</ele>
        <time>2011-01-09T09:51:41Z</time>
      </trkpt>
      <trkpt lat="43.60649" lon="3.71862">
        <ele>204.5</ele>
        <time>2011-01-09T09:51:45Z</time>
      </trkpt>
      <trkpt lat="43.60645" lon="3.71856">
        <ele>204.4</ele>
        <time>2011-01-09T09:51:47Z</time>
      </trkpt>
      <trkpt lat="43.6064" lon="3.7185">
        <ele>204.4</ele>
        <time>2011-01-09T09:51:49Z</time>
      </trkpt>
      <trkpt lat="43.60634" lon="3.71844">
        <ele>204.5</ele>
        <time>2011-01-09T09:51:52Z</time>
      </trkpt>
      <trkpt lat="43.60626" lon="3.71837">
        <ele>204.8</ele>
        <time>2011-01-09T09:51:56Z</time>
      </trkpt>
      <trkpt lat="43.6062" lon="3.71833">
        <ele>205</ele>
        <time>2011-01-09T09:51:59Z</time>
      </trkpt>
      <trkpt lat="43.60613" lon="3.7183">
        <ele>204.9</ele>
        <time>2011-01-09T09:52:02Z</time>
      </trkpt>
      <trkpt lat="43.60605" lon="3.71829">
        <ele>204.9</ele>
        <time>2011-01-09T09:52:05Z</time>
      </trkpt>
      <trkpt lat="43.60597" lon="3.71827">
        <ele>204.9</ele>
        <time>2011-01-09T09:52:08Z</time>
      </trkpt>
      <trkpt lat="43.6059" lon="3.71824">
        <ele>205</ele>
        <time>2011-01-09T09:52:11Z</time>
      </trkpt>
      <trkpt lat="43.60588" lon="3.71823">
        <ele>205.1</ele>
        <time>2011-01-09T09:52:12Z</time>
      </trkpt>
      <trkpt lat="43.60576" lon="3.71818">
        <ele>205.4</ele>
        <time>2011-01-09T09:52:17Z</time>
      </trkpt>
      <trkpt lat="43.60569" lon="3.71815">
        <ele>205.6</ele>
        <time>2011-01-09T09:52:20Z</time>
      </trkpt>
      <trkpt lat="43.60562" lon="3.71811">
        <ele>206</ele>
        <time>2011-01-09T09:52:23Z</time>
      </trkpt>
      <trkpt lat="43.60554" lon="3.71805">
        <ele>206.7</ele>
        <time>2011-01-09T09:52:27Z</time>
      </trkpt>
      <trkpt lat="43.60546" lon="3.71799">
        <ele>207.4</ele>
        <time>2011-01-09T09:52:31Z</time>
      </trkpt>
      <trkpt lat="43.6054" lon="3.71795">
        <ele>208.1</ele>
        <time>2011-01-09T09:52:34Z</time>
      </trkpt>
      <trkpt lat="43.60533" lon="3.71791">
        <ele>208.9</ele>
        <time>2011-01-09T09:52:37Z</time>
      </trkpt>
      <trkpt lat="43.60526" lon="3.71787">
        <ele>209.8</ele>
        <time>2011-01-09T09:52:40Z</time>
      </trkpt>
      <trkpt lat="43.60519" lon="3.71784">
        <ele>210.6</ele>
        <time>2011-01-09T09:52:43Z</time>
      </trkpt>
      <trkpt lat="43.60512" lon="3.71782">
        <ele>211.5</ele>
        <time>2011-01-09T09:52:46Z</time>
      </trkpt>
      <trkpt lat="43.60505" lon="3.7178">
        <ele>212.3</ele>
        <time>2011-01-09T09:52:49Z</time>
      </trkpt>
      <trkpt lat="43.60496" lon="3.71778">
        <ele>213.5</ele>
        <time>2011-01-09T09:52:53Z</time>
      </trkpt>
      <trkpt lat="43.60487" lon="3.71774">
        <ele>215</ele>
        <time>2011-01-09T09:52:57Z</time>
      </trkpt>
      <trkpt lat="43.60479" lon="3.71771">
        <ele>216.4</ele>
        <time>2011-01-09T09:53:02Z</time>
      </trkpt>
      <trkpt lat="43.60486" lon="3.71764">
        <ele>216.5</ele>
        <time>2011-01-09T09:53:08Z</time>
      </trkpt>
      <trkpt lat="43.60493" lon="3.71757">
        <ele>216.7</ele>
        <time>2011-01-09T09:53:12Z</time>
      </trkpt>
      <trkpt lat="43.60497" lon="3.71746">
        <ele>217.5</ele>
        <time>2011-01-09T09:54:13Z</time>
      </trkpt>
      <trkpt lat="43.60497" lon="3.71746">
        <ele>217.5</ele>
        <time>2011-01-09T09:54:14Z</time>
      </trkpt>
      <trkpt lat="43.605" lon="3.71724">
        <ele>218.3</ele>
        <time>2011-01-09T09:55:00Z</time>
      </trkpt>
      <trkpt lat="43.60503" lon="3.71713">
        <ele>218.4</ele>
        <time>2011-01-09T09:55:04Z</time>
      </trkpt>
      <trkpt lat="43.60505" lon="3.71704">
        <ele>218.6</ele>
        <time>2011-01-09T09:55:07Z</time>
      </trkpt>
      <trkpt lat="43.60507" lon="3.71693">
        <ele>218.8</ele>
        <time>2011-01-09T09:55:10Z</time>
      </trkpt>
      <trkpt lat="43.60509" lon="3.71682">
        <ele>219.1</ele>
        <time>2011-01-09T09:55:13Z</time>
      </trkpt>
      <trkpt lat="43.6051" lon="3.71672">
        <ele>219.4</ele>
        <time>2011-01-09T09:55:17Z</time>
      </trkpt>
      <trkpt lat="43.60511" lon="3.71669">
        <ele>219.5</ele>
        <time>2011-01-09T09:55:18Z</time>
      </trkpt>
      <trkpt lat="43.60514" lon="3.7165">
        <ele>219.5</ele>
        <time>2011-01-09T09:55:25Z</time>
      </trkpt>
      <trkpt lat="43.60514" lon="3.7164">
        <ele>219.6</ele>
        <time>2011-01-09T09:55:29Z</time>
      </trkpt>
      <trkpt lat="43.6051" lon="3.71629">
        <ele>220.4</ele>
        <time>2011-01-09T09:55:34Z</time>
      </trkpt>
      <trkpt lat="43.60507" lon="3.71619">
        <ele>221.2</ele>
        <time>2011-01-09T09:55:38Z</time>
      </trkpt>
      <trkpt lat="43.60505" lon="3.71607">
        <ele>221.7</ele>
        <time>2011-01-09T09:55:42Z</time>
      </trkpt>
      <trkpt lat="43.60503" lon="3.71597">
        <ele>222.1</ele>
        <time>2011-01-09T09:55:45Z</time>
      </trkpt>
      <trkpt lat="43.60503" lon="3.71588">
        <ele>222.4</ele>
        <time>2011-01-09T09:55:48Z</time>
      </trkpt>
      <trkpt lat="43.60505" lon="3.71576">
        <ele>221.6</ele>
        <time>2011-01-09T09:55:53Z</time>
      </trkpt>
      <trkpt lat="43.60513" lon="3.71578">
        <ele>220.5</ele>
        <time>2011-01-09T09:56:50Z</time>
      </trkpt>
      <trkpt lat="43.60515" lon="3.71579">
        <ele>220.2</ele>
        <time>2011-01-09T09:56:51Z</time>
      </trkpt>
      <trkpt lat="43.6053" lon="3.71581">
        <ele>217.7</ele>
        <time>2011-01-09T09:57:27Z</time>
      </trkpt>
      <trkpt lat="43.60535" lon="3.71581">
        <ele>217</ele>
        <time>2011-01-09T09:57:28Z</time>
      </trkpt>
      <trkpt lat="43.6054" lon="3.71581">
        <ele>216.1</ele>
        <time>2011-01-09T09:57:29Z</time>
      </trkpt>
      <trkpt lat="43.60546" lon="3.71582">
        <ele>215.1</ele>
        <time>2011-01-09T09:57:30Z</time>
      </trkpt>
      <trkpt lat="43.60553" lon="3.71583">
        <ele>214</ele>
        <time>2011-01-09T09:57:31Z</time>
      </trkpt>
      <trkpt lat="43.6056" lon="3.71583">
        <ele>212.8</ele>
        <time>2011-01-09T09:57:32Z</time>
      </trkpt>
      <trkpt lat="43.60568" lon="3.71583">
        <ele>211.5</ele>
        <time>2011-01-09T09:57:33Z</time>
      </trkpt>
      <trkpt lat="43.60577" lon="3.71584">
        <ele>210</ele>
        <time>2011-01-09T09:57:34Z</time>
      </trkpt>
      <trkpt lat="43.60587" lon="3.71584">
        <ele>208.6</ele>
        <time>2011-01-09T09:57:35Z</time>
      </trkpt>
      <trkpt lat="43.60596" lon="3.71584">
        <ele>207.2</ele>
        <time>2011-01-09T09:57:36Z</time>
      </trkpt>
      <trkpt lat="43.60606" lon="3.71585">
        <ele>205.8</ele>
        <time>2011-01-09T09:57:37Z</time>
      </trkpt>
      <trkpt lat="43.60615" lon="3.71585">
        <ele>204.4</ele>
        <time>2011-01-09T09:57:38Z</time>
      </trkpt>
      <trkpt lat="43.60625" lon="3.71585">
        <ele>203</ele>
        <time>2011-01-09T09:57:39Z</time>
      </trkpt>
      <trkpt lat="43.60634" lon="3.71585">
        <ele>201.6</ele>
        <time>2011-01-09T09:57:40Z</time>
      </trkpt>
      <trkpt lat="43.60643" lon="3.71585">
        <ele>200.4</ele>
        <time>2011-01-09T09:57:41Z</time>
      </trkpt>
      <trkpt lat="43.6065" lon="3.71585">
        <ele>199.3</ele>
        <time>2011-01-09T09:57:42Z</time>
      </trkpt>
      <trkpt lat="43.60656" lon="3.71585">
        <ele>198.6</ele>
        <time>2011-01-09T09:57:43Z</time>
      </trkpt>
      <trkpt lat="43.60664" lon="3.71584">
        <ele>197.4</ele>
        <time>2011-01-09T09:57:45Z</time>
      </trkpt>
      <trkpt lat="43.60671" lon="3.7158">
        <ele>195.5</ele>
        <time>2011-01-09T09:57:48Z</time>
      </trkpt>
      <trkpt lat="43.60678" lon="3.71575">
        <ele>193.4</ele>
        <time>2011-01-09T09:57:51Z</time>
      </trkpt>
      <trkpt lat="43.6068" lon="3.71573">
        <ele>192.7</ele>
        <time>2011-01-09T09:57:52Z</time>
      </trkpt>
      <trkpt lat="43.6069" lon="3.71564">
        <ele>189.5</ele>
        <time>2011-01-09T09:57:57Z</time>
      </trkpt>
      <trkpt lat="43.60696" lon="3.7156">
        <ele>187.9</ele>
        <time>2011-01-09T09:57:59Z</time>
      </trkpt>
      <trkpt lat="43.60703" lon="3.71556">
        <ele>186</ele>
        <time>2011-01-09T09:58:01Z</time>
      </trkpt>
      <trkpt lat="43.60709" lon="3.71548">
        <ele>184.2</ele>
        <time>2011-01-09T09:58:04Z</time>
      </trkpt>
      <trkpt lat="43.60708" lon="3.71539">
        <ele>183.5</ele>
        <time>2011-01-09T09:58:07Z</time>
      </trkpt>
      <trkpt lat="43.60706" lon="3.71528">
        <ele>182.9</ele>
        <time>2011-01-09T09:58:13Z</time>
      </trkpt>
      <trkpt lat="43.60702" lon="3.71517">
        <ele>182.4</ele>
        <time>2011-01-09T09:58:19Z</time>
      </trkpt>
      <trkpt lat="43.60697" lon="3.71508">
        <ele>182.1</ele>
        <time>2011-01-09T09:58:22Z</time>
      </trkpt>
      <trkpt lat="43.60692" lon="3.71499">
        <ele>181.9</ele>
        <time>2011-01-09T09:58:25Z</time>
      </trkpt>
      <trkpt lat="43.60687" lon="3.71492">
        <ele>181.8</ele>
        <time>2011-01-09T09:58:28Z</time>
      </trkpt>
      <trkpt lat="43.60681" lon="3.71485">
        <ele>181.7</ele>
        <time>2011-01-09T09:58:31Z</time>
      </trkpt>
      <trkpt lat="43.60675" lon="3.71482">
        <ele>181.9</ele>
        <time>2011-01-09T09:58:33Z</time>
      </trkpt>
      <trkpt lat="43.60668" lon="3.71478">
        <ele>182.2</ele>
        <time>2011-01-09T09:58:35Z</time>
      </trkpt>
      <trkpt lat="43.60661" lon="3.71472">
        <ele>182.5</ele>
        <time>2011-01-09T09:58:37Z</time>
      </trkpt>
      <trkpt lat="43.60656" lon="3.71464">
        <ele>182.2</ele>
        <time>2011-01-09T09:59:05Z</time>
      </trkpt>
      <trkpt lat="43.60654" lon="3.71463">
        <ele>182.2</ele>
        <time>2011-01-09T09:59:06Z</time>
      </trkpt>
      <trkpt lat="43.60646" lon="3.71452">
        <ele>182</ele>
        <time>2011-01-09T09:59:10Z</time>
      </trkpt>
      <trkpt lat="43.60639" lon="3.71449">
        <ele>182.5</ele>
        <time>2011-01-09T09:59:12Z</time>
      </trkpt>
      <trkpt lat="43.60631" lon="3.71447">
        <ele>183.1</ele>
        <time>2011-01-09T09:59:14Z</time>
      </trkpt>
      <trkpt lat="43.60625" lon="3.71442">
        <ele>183.3</ele>
        <time>2011-01-09T09:59:16Z</time>
      </trkpt>
      <trkpt lat="43.60618" lon="3.71436">
        <ele>183.4</ele>
        <time>2011-01-09T09:59:19Z</time>
      </trkpt>
      <trkpt lat="43.60612" lon="3.7143">
        <ele>183.3</ele>
        <time>2011-01-09T09:59:22Z</time>
      </trkpt>
      <trkpt lat="43.6061" lon="3.71421">
        <ele>182.4</ele>
        <time>2011-01-09T09:59:25Z</time>
      </trkpt>
      <trkpt lat="43.60607" lon="3.71413">
        <ele>181.8</ele>
        <time>2011-01-09T09:59:27Z</time>
      </trkpt>
      <trkpt lat="43.60603" lon="3.71403">
        <ele>181.4</ele>
        <time>2011-01-09T09:59:29Z</time>
      </trkpt>
      <trkpt lat="43.60599" lon="3.71397">
        <ele>181.2</ele>
        <time>2011-01-09T09:59:31Z</time>
      </trkpt>
      <trkpt lat="43.60595" lon="3.71389">
        <ele>180.7</ele>
        <time>2011-01-09T09:59:33Z</time>
      </trkpt>
      <trkpt lat="43.60593" lon="3.71377">
        <ele>179.6</ele>
        <time>2011-01-09T09:59:36Z</time>
      </trkpt>
      <trkpt lat="43.60588" lon="3.71366">
        <ele>178.7</ele>
        <time>2011-01-09T09:59:50Z</time>
      </trkpt>
      <trkpt lat="43.60585" lon="3.71356">
        <ele>177.7</ele>
        <time>2011-01-09T10:00:17Z</time>
      </trkpt>
      <trkpt lat="43.60584" lon="3.71355">
        <ele>177.6</ele>
        <time>2011-01-09T10:00:18Z</time>
      </trkpt>
      <trkpt lat="43.60583" lon="3.71334">
        <ele>175.2</ele>
        <time>2011-01-09T10:00:26Z</time>
      </trkpt>
      <trkpt lat="43.60584" lon="3.71323">
        <ele>173.8</ele>
        <time>2011-01-09T10:00:29Z</time>
      </trkpt>
      <trkpt lat="43.60582" lon="3.71313">
        <ele>173.2</ele>
        <time>2011-01-09T10:00:31Z</time>
      </trkpt>
      <trkpt lat="43.60578" lon="3.71303">
        <ele>172.9</ele>
        <time>2011-01-09T10:00:33Z</time>
      </trkpt>
      <trkpt lat="43.60573" lon="3.71295">
        <ele>172.9</ele>
        <time>2011-01-09T10:00:35Z</time>
      </trkpt>
      <trkpt lat="43.60568" lon="3.71286">
        <ele>172.8</ele>
        <time>2011-01-09T10:00:37Z</time>
      </trkpt>
      <trkpt lat="43.60564" lon="3.71281">
        <ele>173</ele>
        <time>2011-01-09T10:00:38Z</time>
      </trkpt>
      <trkpt lat="43.6056" lon="3.71276">
        <ele>173.1</ele>
        <time>2011-01-09T10:00:39Z</time>
      </trkpt>
      <trkpt lat="43.60557" lon="3.71271">
        <ele>172.8</ele>
        <time>2011-01-09T10:00:40Z</time>
      </trkpt>
      <trkpt lat="43.60555" lon="3.71265">
        <ele>172.4</ele>
        <time>2011-01-09T10:00:41Z</time>
      </trkpt>
      <trkpt lat="43.60552" lon="3.71259">
        <ele>172.1</ele>
        <time>2011-01-09T10:00:42Z</time>
      </trkpt>
      <trkpt lat="43.60549" lon="3.71253">
        <ele>171.9</ele>
        <time>2011-01-09T10:00:43Z</time>
      </trkpt>
      <trkpt lat="43.60544" lon="3.71248">
        <ele>171.8</ele>
        <time>2011-01-09T10:00:44Z</time>
      </trkpt>
      <trkpt lat="43.6054" lon="3.71242">
        <ele>171.7</ele>
        <time>2011-01-09T10:00:45Z</time>
      </trkpt>
      <trkpt lat="43.60536" lon="3.71237">
        <ele>171.6</ele>
        <time>2011-01-09T10:00:46Z</time>
      </trkpt>
      <trkpt lat="43.60532" lon="3.71232">
        <ele>171.2</ele>
        <time>2011-01-09T10:00:47Z</time>
      </trkpt>
      <trkpt lat="43.60528" lon="3.71227">
        <ele>171.1</ele>
        <time>2011-01-09T10:00:48Z</time>
      </trkpt>
      <trkpt lat="43.60524" lon="3.71224">
        <ele>170.9</ele>
        <time>2011-01-09T10:00:49Z</time>
      </trkpt>
      <trkpt lat="43.6052" lon="3.71221">
        <ele>170.9</ele>
        <time>2011-01-09T10:00:50Z</time>
      </trkpt>
      <trkpt lat="43.60516" lon="3.71217">
        <ele>170.7</ele>
        <time>2011-01-09T10:00:51Z</time>
      </trkpt>
      <trkpt lat="43.60512" lon="3.71212">
        <ele>170.1</ele>
        <time>2011-01-09T10:00:52Z</time>
      </trkpt>
      <trkpt lat="43.60508" lon="3.71207">
        <ele>169.5</ele>
        <time>2011-01-09T10:00:53Z</time>
      </trkpt>
      <trkpt lat="43.60505" lon="3.71202">
        <ele>168.9</ele>
        <time>2011-01-09T10:00:54Z</time>
      </trkpt>
      <trkpt lat="43.605" lon="3.71197">
        <ele>168.1</ele>
        <time>2011-01-09T10:00:55Z</time>
      </trkpt>
      <trkpt lat="43.60495" lon="3.71192">
        <ele>167.4</ele>
        <time>2011-01-09T10:00:56Z</time>
      </trkpt>
      <trkpt lat="43.60491" lon="3.71188">
        <ele>166.7</ele>
        <time>2011-01-09T10:00:57Z</time>
      </trkpt>
      <trkpt lat="43.60487" lon="3.71184">
        <ele>166.1</ele>
        <time>2011-01-09T10:00:58Z</time>
      </trkpt>
      <trkpt lat="43.60482" lon="3.71182">
        <ele>165.7</ele>
        <time>2011-01-09T10:00:59Z</time>
      </trkpt>
      <trkpt lat="43.60477" lon="3.71179">
        <ele>165.3</ele>
        <time>2011-01-09T10:01:00Z</time>
      </trkpt>
      <trkpt lat="43.60471" lon="3.71177">
        <ele>165</ele>
        <time>2011-01-09T10:01:01Z</time>
      </trkpt>
      <trkpt lat="43.60464" lon="3.71173">
        <ele>164</ele>
        <time>2011-01-09T10:01:03Z</time>
      </trkpt>
      <trkpt lat="43.60458" lon="3.71167">
        <ele>162.5</ele>
        <time>2011-01-09T10:01:05Z</time>
      </trkpt>
      <trkpt lat="43.60455" lon="3.71161">
        <ele>161.5</ele>
        <time>2011-01-09T10:01:06Z</time>
      </trkpt>
      <trkpt lat="43.60449" lon="3.71155">
        <ele>160.4</ele>
        <time>2011-01-09T10:01:08Z</time>
      </trkpt>
      <trkpt lat="43.60443" lon="3.71151">
        <ele>159.7</ele>
        <time>2011-01-09T10:01:10Z</time>
      </trkpt>
      <trkpt lat="43.60436" lon="3.71147">
        <ele>158.8</ele>
        <time>2011-01-09T10:01:12Z</time>
      </trkpt>
      <trkpt lat="43.60427" lon="3.71145">
        <ele>158.4</ele>
        <time>2011-01-09T10:01:14Z</time>
      </trkpt>
      <trkpt lat="43.60422" lon="3.71144">
        <ele>158.2</ele>
        <time>2011-01-09T10:01:15Z</time>
      </trkpt>
      <trkpt lat="43.60414" lon="3.71143">
        <ele>157.9</ele>
        <time>2011-01-09T10:01:17Z</time>
      </trkpt>
      <trkpt lat="43.60406" lon="3.7114">
        <ele>157.4</ele>
        <time>2011-01-09T10:01:19Z</time>
      </trkpt>
      <trkpt lat="43.60403" lon="3.71139">
        <ele>157.1</ele>
        <time>2011-01-09T10:01:20Z</time>
      </trkpt>
      <trkpt lat="43.60393" lon="3.71131">
        <ele>155.5</ele>
        <time>2011-01-09T10:01:23Z</time>
      </trkpt>
      <trkpt lat="43.60386" lon="3.71125">
        <ele>154.3</ele>
        <time>2011-01-09T10:01:25Z</time>
      </trkpt>
      <trkpt lat="43.6038" lon="3.71119">
        <ele>153.1</ele>
        <time>2011-01-09T10:01:27Z</time>
      </trkpt>
      <trkpt lat="43.60372" lon="3.71115">
        <ele>152.3</ele>
        <time>2011-01-09T10:01:36Z</time>
      </trkpt>
      <trkpt lat="43.60378" lon="3.71112">
        <ele>151.6</ele>
        <time>2011-01-09T10:04:28Z</time>
      </trkpt>
      <trkpt lat="43.60381" lon="3.71112">
        <ele>151.7</ele>
        <time>2011-01-09T10:04:29Z</time>
      </trkpt>
      <trkpt lat="43.60396" lon="3.71114">
        <ele>151.9</ele>
        <time>2011-01-09T10:04:34Z</time>
      </trkpt>
      <trkpt lat="43.60402" lon="3.71114">
        <ele>151.9</ele>
        <time>2011-01-09T10:04:36Z</time>
      </trkpt>
      <trkpt lat="43.6041" lon="3.71115">
        <ele>151.8</ele>
        <time>2011-01-09T10:04:39Z</time>
      </trkpt>
      <trkpt lat="43.60416" lon="3.71114">
        <ele>151.6</ele>
        <time>2011-01-09T10:04:41Z</time>
      </trkpt>
      <trkpt lat="43.60423" lon="3.71113">
        <ele>151.6</ele>
        <time>2011-01-09T10:04:43Z</time>
      </trkpt>
      <trkpt lat="43.6043" lon="3.71111">
        <ele>151.4</ele>
        <time>2011-01-09T10:04:45Z</time>
      </trkpt>
      <trkpt lat="43.60437" lon="3.7111">
        <ele>151.5</ele>
        <time>2011-01-09T10:04:47Z</time>
      </trkpt>
      <trkpt lat="43.60443" lon="3.71105">
        <ele>150.8</ele>
        <time>2011-01-09T10:04:49Z</time>
      </trkpt>
      <trkpt lat="43.60448" lon="3.71097">
        <ele>149.4</ele>
        <time>2011-01-09T10:04:51Z</time>
      </trkpt>
      <trkpt lat="43.60451" lon="3.71087">
        <ele>147.8</ele>
        <time>2011-01-09T10:04:53Z</time>
      </trkpt>
      <trkpt lat="43.60455" lon="3.71077">
        <ele>147.3</ele>
        <time>2011-01-09T10:04:55Z</time>
      </trkpt>
      <trkpt lat="43.60461" lon="3.7107">
        <ele>147.6</ele>
        <time>2011-01-09T10:04:57Z</time>
      </trkpt>
      <trkpt lat="43.60467" lon="3.71062">
        <ele>147.8</ele>
        <time>2011-01-09T10:04:59Z</time>
      </trkpt>
      <trkpt lat="43.60472" lon="3.71054">
        <ele>148</ele>
        <time>2011-01-09T10:05:01Z</time>
      </trkpt>
      <trkpt lat="43.60478" lon="3.71046">
        <ele>148</ele>
        <time>2011-01-09T10:05:03Z</time>
      </trkpt>
      <trkpt lat="43.60484" lon="3.71038">
        <ele>148</ele>
        <time>2011-01-09T10:05:05Z</time>
      </trkpt>
      <trkpt lat="43.6049" lon="3.71032">
        <ele>148</ele>
        <time>2011-01-09T10:05:07Z</time>
      </trkpt>
      <trkpt lat="43.60493" lon="3.71023">
        <ele>147.8</ele>
        <time>2011-01-09T10:05:09Z</time>
      </trkpt>
      <trkpt lat="43.60491" lon="3.71012">
        <ele>147.4</ele>
        <time>2011-01-09T10:05:11Z</time>
      </trkpt>
      <trkpt lat="43.60487" lon="3.71005">
        <ele>147.3</ele>
        <time>2011-01-09T10:05:13Z</time>
      </trkpt>
      <trkpt lat="43.60484" lon="3.70994">
        <ele>147.4</ele>
        <time>2011-01-09T10:05:16Z</time>
      </trkpt>
      <trkpt lat="43.60483" lon="3.70982">
        <ele>147.9</ele>
        <time>2011-01-09T10:05:19Z</time>
      </trkpt>
      <trkpt lat="43.60483" lon="3.70973">
        <ele>148.2</ele>
        <time>2011-01-09T10:05:21Z</time>
      </trkpt>
      <trkpt lat="43.60484" lon="3.70964">
        <ele>148.6</ele>
        <time>2011-01-09T10:05:23Z</time>
      </trkpt>
      <trkpt lat="43.60484" lon="3.70956">
        <ele>148.9</ele>
        <time>2011-01-09T10:05:25Z</time>
      </trkpt>
      <trkpt lat="43.60479" lon="3.70946">
        <ele>149.4</ele>
        <time>2011-01-09T10:05:28Z</time>
      </trkpt>
      <trkpt lat="43.60472" lon="3.7094">
        <ele>149.8</ele>
        <time>2011-01-09T10:05:31Z</time>
      </trkpt>
      <trkpt lat="43.60469" lon="3.70938">
        <ele>149.9</ele>
        <time>2011-01-09T10:05:32Z</time>
      </trkpt>
      <trkpt lat="43.60456" lon="3.70931">
        <ele>150.4</ele>
        <time>2011-01-09T10:05:37Z</time>
      </trkpt>
      <trkpt lat="43.6045" lon="3.70928">
        <ele>150.7</ele>
        <time>2011-01-09T10:05:40Z</time>
      </trkpt>
      <trkpt lat="43.60444" lon="3.70923">
        <ele>151.1</ele>
        <time>2011-01-09T10:05:43Z</time>
      </trkpt>
      <trkpt lat="43.60439" lon="3.70913">
        <ele>151.7</ele>
        <time>2011-01-09T10:05:47Z</time>
      </trkpt>
      <trkpt lat="43.60436" lon="3.70905">
        <ele>152.3</ele>
        <time>2011-01-09T10:05:50Z</time>
      </trkpt>
      <trkpt lat="43.60435" lon="3.70896">
        <ele>152.8</ele>
        <time>2011-01-09T10:05:53Z</time>
      </trkpt>
      <trkpt lat="43.60433" lon="3.70886">
        <ele>153.5</ele>
        <time>2011-01-09T10:05:56Z</time>
      </trkpt>
      <trkpt lat="43.60431" lon="3.70877">
        <ele>154.1</ele>
        <time>2011-01-09T10:05:59Z</time>
      </trkpt>
      <trkpt lat="43.6043" lon="3.70866">
        <ele>154.8</ele>
        <time>2011-01-09T10:06:03Z</time>
      </trkpt>
      <trkpt lat="43.60428" lon="3.70856">
        <ele>155.4</ele>
        <time>2011-01-09T10:06:06Z</time>
      </trkpt>
      <trkpt lat="43.60426" lon="3.70844">
        <ele>156.1</ele>
        <time>2011-01-09T10:06:10Z</time>
      </trkpt>
      <trkpt lat="43.60424" lon="3.70833">
        <ele>156.8</ele>
        <time>2011-01-09T10:06:14Z</time>
      </trkpt>
      <trkpt lat="43.60422" lon="3.70824">
        <ele>157.6</ele>
        <time>2011-01-09T10:06:17Z</time>
      </trkpt>
      <trkpt lat="43.6042" lon="3.70815">
        <ele>158.5</ele>
        <time>2011-01-09T10:06:20Z</time>
      </trkpt>
      <trkpt lat="43.60418" lon="3.70806">
        <ele>159.3</ele>
        <time>2011-01-09T10:06:23Z</time>
      </trkpt>
      <trkpt lat="43.60416" lon="3.70794">
        <ele>160.3</ele>
        <time>2011-01-09T10:06:27Z</time>
      </trkpt>
      <trkpt lat="43.60415" lon="3.70782">
        <ele>161.4</ele>
        <time>2011-01-09T10:06:31Z</time>
      </trkpt>
      <trkpt lat="43.60413" lon="3.70771">
        <ele>162.5</ele>
        <time>2011-01-09T10:06:35Z</time>
      </trkpt>
      <trkpt lat="43.60412" lon="3.70768">
        <ele>162.8</ele>
        <time>2011-01-09T10:06:36Z</time>
      </trkpt>
      <trkpt lat="43.60411" lon="3.70747">
        <ele>164.4</ele>
        <time>2011-01-09T10:06:43Z</time>
      </trkpt>
      <trkpt lat="43.60412" lon="3.70736">
        <ele>164.9</ele>
        <time>2011-01-09T10:06:47Z</time>
      </trkpt>
      <trkpt lat="43.6041" lon="3.70726">
        <ele>165.4</ele>
        <time>2011-01-09T10:06:51Z</time>
      </trkpt>
      <trkpt lat="43.60403" lon="3.70719">
        <ele>166.3</ele>
        <time>2011-01-09T10:06:56Z</time>
      </trkpt>
      <trkpt lat="43.60396" lon="3.70718">
        <ele>167</ele>
        <time>2011-01-09T10:07:00Z</time>
      </trkpt>
      <trkpt lat="43.60389" lon="3.7072">
        <ele>167.5</ele>
        <time>2011-01-09T10:07:04Z</time>
      </trkpt>
      <trkpt lat="43.60381" lon="3.70723">
        <ele>168</ele>
        <time>2011-01-09T10:07:08Z</time>
      </trkpt>
      <trkpt lat="43.60372" lon="3.70726">
        <ele>168.4</ele>
        <time>2011-01-09T10:07:12Z</time>
      </trkpt>
      <trkpt lat="43.60364" lon="3.7073">
        <ele>168.8</ele>
        <time>2011-01-09T10:07:16Z</time>
      </trkpt>
      <trkpt lat="43.60356" lon="3.70731">
        <ele>169.3</ele>
        <time>2011-01-09T10:07:20Z</time>
      </trkpt>
      <trkpt lat="43.6035" lon="3.70723">
        <ele>170.5</ele>
        <time>2011-01-09T10:07:24Z</time>
      </trkpt>
      <trkpt lat="43.6035" lon="3.70713">
        <ele>171.4</ele>
        <time>2011-01-09T10:07:27Z</time>
      </trkpt>
      <trkpt lat="43.60351" lon="3.70702">
        <ele>172.4</ele>
        <time>2011-01-09T10:07:31Z</time>
      </trkpt>
      <trkpt lat="43.60352" lon="3.70691">
        <ele>173.3</ele>
        <time>2011-01-09T10:07:35Z</time>
      </trkpt>
      <trkpt lat="43.60353" lon="3.70681">
        <ele>174.1</ele>
        <time>2011-01-09T10:07:39Z</time>
      </trkpt>
      <trkpt lat="43.60354" lon="3.70678">
        <ele>174.3</ele>
        <time>2011-01-09T10:07:40Z</time>
      </trkpt>
      <trkpt lat="43.60359" lon="3.70659">
        <ele>175.5</ele>
        <time>2011-01-09T10:07:47Z</time>
      </trkpt>
      <trkpt lat="43.60361" lon="3.70649">
        <ele>176.3</ele>
        <time>2011-01-09T10:07:51Z</time>
      </trkpt>
      <trkpt lat="43.60362" lon="3.70639">
        <ele>177.2</ele>
        <time>2011-01-09T10:07:55Z</time>
      </trkpt>
      <trkpt lat="43.60364" lon="3.70628">
        <ele>178.1</ele>
        <time>2011-01-09T10:07:59Z</time>
      </trkpt>
      <trkpt lat="43.60365" lon="3.70618">
        <ele>179.1</ele>
        <time>2011-01-09T10:08:03Z</time>
      </trkpt>
      <trkpt lat="43.60366" lon="3.70607">
        <ele>179.9</ele>
        <time>2011-01-09T10:08:07Z</time>
      </trkpt>
      <trkpt lat="43.60367" lon="3.70598">
        <ele>180.7</ele>
        <time>2011-01-09T10:08:11Z</time>
      </trkpt>
      <trkpt lat="43.60369" lon="3.70588">
        <ele>181.3</ele>
        <time>2011-01-09T10:08:15Z</time>
      </trkpt>
      <trkpt lat="43.60373" lon="3.70578">
        <ele>181.3</ele>
        <time>2011-01-09T10:08:19Z</time>
      </trkpt>
      <trkpt lat="43.60376" lon="3.70569">
        <ele>181.4</ele>
        <time>2011-01-09T10:08:23Z</time>
      </trkpt>
      <trkpt lat="43.60381" lon="3.70559">
        <ele>181.3</ele>
        <time>2011-01-09T10:08:27Z</time>
      </trkpt>
      <trkpt lat="43.60383" lon="3.7055">
        <ele>181.8</ele>
        <time>2011-01-09T10:08:30Z</time>
      </trkpt>
      <trkpt lat="43.60386" lon="3.70541">
        <ele>182.1</ele>
        <time>2011-01-09T10:08:33Z</time>
      </trkpt>
      <trkpt lat="43.60388" lon="3.70532">
        <ele>182.7</ele>
        <time>2011-01-09T10:08:36Z</time>
      </trkpt>
      <trkpt lat="43.6039" lon="3.70523">
        <ele>183.3</ele>
        <time>2011-01-09T10:08:39Z</time>
      </trkpt>
      <trkpt lat="43.60393" lon="3.70513">
        <ele>184.1</ele>
        <time>2011-01-09T10:08:42Z</time>
      </trkpt>
      <trkpt lat="43.60393" lon="3.7051">
        <ele>184.4</ele>
        <time>2011-01-09T10:08:43Z</time>
      </trkpt>
      <trkpt lat="43.60397" lon="3.70491">
        <ele>185.9</ele>
        <time>2011-01-09T10:08:50Z</time>
      </trkpt>
      <trkpt lat="43.604" lon="3.70479">
        <ele>186.7</ele>
        <time>2011-01-09T10:08:54Z</time>
      </trkpt>
      <trkpt lat="43.60403" lon="3.70468">
        <ele>187.6</ele>
        <time>2011-01-09T10:08:58Z</time>
      </trkpt>
      <trkpt lat="43.60405" lon="3.70458">
        <ele>188.5</ele>
        <time>2011-01-09T10:09:01Z</time>
      </trkpt>
      <trkpt lat="43.60402" lon="3.70447">
        <ele>189.4</ele>
        <time>2011-01-09T10:09:05Z</time>
      </trkpt>
      <trkpt lat="43.60396" lon="3.7044">
        <ele>189.8</ele>
        <time>2011-01-09T10:09:09Z</time>
      </trkpt>
      <trkpt lat="43.60389" lon="3.70435">
        <ele>189.9</ele>
        <time>2011-01-09T10:09:13Z</time>
      </trkpt>
      <trkpt lat="43.60383" lon="3.70429">
        <ele>189.9</ele>
        <time>2011-01-09T10:09:18Z</time>
      </trkpt>
      <trkpt lat="43.60377" lon="3.70421">
        <ele>189.9</ele>
        <time>2011-01-09T10:09:23Z</time>
      </trkpt>
      <trkpt lat="43.60371" lon="3.70415">
        <ele>189.7</ele>
        <time>2011-01-09T10:09:28Z</time>
      </trkpt>
      <trkpt lat="43.60364" lon="3.7041">
        <ele>189.4</ele>
        <time>2011-01-09T10:09:33Z</time>
      </trkpt>
      <trkpt lat="43.60358" lon="3.70404">
        <ele>189.1</ele>
        <time>2011-01-09T10:09:37Z</time>
      </trkpt>
      <trkpt lat="43.60351" lon="3.70397">
        <ele>188.9</ele>
        <time>2011-01-09T10:09:42Z</time>
      </trkpt>
      <trkpt lat="43.60344" lon="3.70389">
        <ele>188.7</ele>
        <time>2011-01-09T10:11:48Z</time>
      </trkpt>
      <trkpt lat="43.60342" lon="3.70387">
        <ele>188.6</ele>
        <time>2011-01-09T10:11:49Z</time>
      </trkpt>
      <trkpt lat="43.60331" lon="3.70379">
        <ele>188.4</ele>
        <time>2011-01-09T10:11:54Z</time>
      </trkpt>
      <trkpt lat="43.60323" lon="3.70373">
        <ele>188.7</ele>
        <time>2011-01-09T10:11:57Z</time>
      </trkpt>
      <trkpt lat="43.60317" lon="3.70366">
        <ele>189.2</ele>
        <time>2011-01-09T10:12:00Z</time>
      </trkpt>
      <trkpt lat="43.60311" lon="3.70359">
        <ele>189.9</ele>
        <time>2011-01-09T10:12:03Z</time>
      </trkpt>
      <trkpt lat="43.60303" lon="3.70356">
        <ele>190.4</ele>
        <time>2011-01-09T10:12:06Z</time>
      </trkpt>
      <trkpt lat="43.60295" lon="3.70356">
        <ele>190.8</ele>
        <time>2011-01-09T10:12:09Z</time>
      </trkpt>
      <trkpt lat="43.60288" lon="3.70354">
        <ele>191.4</ele>
        <time>2011-01-09T10:12:12Z</time>
      </trkpt>
      <trkpt lat="43.60281" lon="3.70351">
        <ele>192</ele>
        <time>2011-01-09T10:12:15Z</time>
      </trkpt>
      <trkpt lat="43.60272" lon="3.70349">
        <ele>192.8</ele>
        <time>2011-01-09T10:12:19Z</time>
      </trkpt>
      <trkpt lat="43.60263" lon="3.70346">
        <ele>193.7</ele>
        <time>2011-01-09T10:12:23Z</time>
      </trkpt>
      <trkpt lat="43.60255" lon="3.70343">
        <ele>194.8</ele>
        <time>2011-01-09T10:12:27Z</time>
      </trkpt>
      <trkpt lat="43.60247" lon="3.70339">
        <ele>195.5</ele>
        <time>2011-01-09T10:12:32Z</time>
      </trkpt>
      <trkpt lat="43.6024" lon="3.70334">
        <ele>195.8</ele>
        <time>2011-01-09T10:12:36Z</time>
      </trkpt>
      <trkpt lat="43.60234" lon="3.70327">
        <ele>195.7</ele>
        <time>2011-01-09T10:12:40Z</time>
      </trkpt>
      <trkpt lat="43.60228" lon="3.70321">
        <ele>195.7</ele>
        <time>2011-01-09T10:12:44Z</time>
      </trkpt>
      <trkpt lat="43.6022" lon="3.70316">
        <ele>195.4</ele>
        <time>2011-01-09T10:12:48Z</time>
      </trkpt>
      <trkpt lat="43.60212" lon="3.70311">
        <ele>195.2</ele>
        <time>2011-01-09T10:12:52Z</time>
      </trkpt>
      <trkpt lat="43.60211" lon="3.70309">
        <ele>195.3</ele>
        <time>2011-01-09T10:12:53Z</time>
      </trkpt>
      <trkpt lat="43.60201" lon="3.70295">
        <ele>196.1</ele>
        <time>2011-01-09T10:12:59Z</time>
      </trkpt>
      <trkpt lat="43.60197" lon="3.70288">
        <ele>196.7</ele>
        <time>2011-01-09T10:13:02Z</time>
      </trkpt>
      <trkpt lat="43.60192" lon="3.7028">
        <ele>197.5</ele>
        <time>2011-01-09T10:13:05Z</time>
      </trkpt>
      <trkpt lat="43.60188" lon="3.70274">
        <ele>198</ele>
        <time>2011-01-09T10:13:07Z</time>
      </trkpt>
      <trkpt lat="43.60183" lon="3.70268">
        <ele>198.4</ele>
        <time>2011-01-09T10:13:09Z</time>
      </trkpt>
      <trkpt lat="43.6018" lon="3.70261">
        <ele>199.1</ele>
        <time>2011-01-09T10:13:11Z</time>
      </trkpt>
      <trkpt lat="43.60176" lon="3.70253">
        <ele>200.1</ele>
        <time>2011-01-09T10:13:13Z</time>
      </trkpt>
      <trkpt lat="43.60171" lon="3.70245">
        <ele>200.1</ele>
        <time>2011-01-09T10:13:15Z</time>
      </trkpt>
      <trkpt lat="43.60169" lon="3.70235">
        <ele>199.8</ele>
        <time>2011-01-09T10:13:18Z</time>
      </trkpt>
      <trkpt lat="43.60166" lon="3.70226">
        <ele>199.4</ele>
        <time>2011-01-09T10:13:21Z</time>
      </trkpt>
      <trkpt lat="43.60161" lon="3.7022">
        <ele>199.5</ele>
        <time>2011-01-09T10:13:24Z</time>
      </trkpt>
      <trkpt lat="43.60158" lon="3.70211">
        <ele>199.6</ele>
        <time>2011-01-09T10:13:27Z</time>
      </trkpt>
      <trkpt lat="43.60154" lon="3.702">
        <ele>199.7</ele>
        <time>2011-01-09T10:13:30Z</time>
      </trkpt>
      <trkpt lat="43.60151" lon="3.70193">
        <ele>199.9</ele>
        <time>2011-01-09T10:13:32Z</time>
      </trkpt>
      <trkpt lat="43.60147" lon="3.70185">
        <ele>200.2</ele>
        <time>2011-01-09T10:13:34Z</time>
      </trkpt>
      <trkpt lat="43.60143" lon="3.70175">
        <ele>200.5</ele>
        <time>2011-01-09T10:13:36Z</time>
      </trkpt>
      <trkpt lat="43.60139" lon="3.70167">
        <ele>201</ele>
        <time>2011-01-09T10:13:38Z</time>
      </trkpt>
      <trkpt lat="43.60136" lon="3.70156">
        <ele>200.4</ele>
        <time>2011-01-09T10:13:41Z</time>
      </trkpt>
      <trkpt lat="43.60137" lon="3.70146">
        <ele>199.5</ele>
        <time>2011-01-09T10:13:44Z</time>
      </trkpt>
      <trkpt lat="43.60141" lon="3.70136">
        <ele>198.1</ele>
        <time>2011-01-09T10:13:51Z</time>
      </trkpt>
      <trkpt lat="43.6015" lon="3.70136">
        <ele>197</ele>
        <time>2011-01-09T10:13:58Z</time>
      </trkpt>
      <trkpt lat="43.60152" lon="3.70136">
        <ele>196.7</ele>
        <time>2011-01-09T10:13:59Z</time>
      </trkpt>
      <trkpt lat="43.60158" lon="3.70118">
        <ele>194</ele>
        <time>2011-01-09T10:14:05Z</time>
      </trkpt>
      <trkpt lat="43.60162" lon="3.70111">
        <ele>192.8</ele>
        <time>2011-01-09T10:14:07Z</time>
      </trkpt>
      <trkpt lat="43.60166" lon="3.70104">
        <ele>191.3</ele>
        <time>2011-01-09T10:14:09Z</time>
      </trkpt>
      <trkpt lat="43.60173" lon="3.70096">
        <ele>190.3</ele>
        <time>2011-01-09T10:14:11Z</time>
      </trkpt>
      <trkpt lat="43.60177" lon="3.7009">
        <ele>189.7</ele>
        <time>2011-01-09T10:14:12Z</time>
      </trkpt>
      <trkpt lat="43.60181" lon="3.70086">
        <ele>189.1</ele>
        <time>2011-01-09T10:14:13Z</time>
      </trkpt>
      <trkpt lat="43.60186" lon="3.70081">
        <ele>188.6</ele>
        <time>2011-01-09T10:14:14Z</time>
      </trkpt>
      <trkpt lat="43.6019" lon="3.70076">
        <ele>188.1</ele>
        <time>2011-01-09T10:14:15Z</time>
      </trkpt>
      <trkpt lat="43.60194" lon="3.7007">
        <ele>187.5</ele>
        <time>2011-01-09T10:14:16Z</time>
      </trkpt>
      <trkpt lat="43.60199" lon="3.70064">
        <ele>186.8</ele>
        <time>2011-01-09T10:14:17Z</time>
      </trkpt>
      <trkpt lat="43.60204" lon="3.70058">
        <ele>186</ele>
        <time>2011-01-09T10:14:18Z</time>
      </trkpt>
      <trkpt lat="43.60209" lon="3.70052">
        <ele>185</ele>
        <time>2011-01-09T10:14:19Z</time>
      </trkpt>
      <trkpt lat="43.60213" lon="3.70046">
        <ele>184.1</ele>
        <time>2011-01-09T10:14:20Z</time>
      </trkpt>
      <trkpt lat="43.60216" lon="3.70038">
        <ele>183</ele>
        <time>2011-01-09T10:14:22Z</time>
      </trkpt>
      <trkpt lat="43.60219" lon="3.70029">
        <ele>181.6</ele>
        <time>2011-01-09T10:14:24Z</time>
      </trkpt>
      <trkpt lat="43.60224" lon="3.70021">
        <ele>180.2</ele>
        <time>2011-01-09T10:14:26Z</time>
      </trkpt>
      <trkpt lat="43.60226" lon="3.7001">
        <ele>178.4</ele>
        <time>2011-01-09T10:14:30Z</time>
      </trkpt>
      <trkpt lat="43.60224" lon="3.69999">
        <ele>177.3</ele>
        <time>2011-01-09T10:14:33Z</time>
      </trkpt>
      <trkpt lat="43.60228" lon="3.69991">
        <ele>176.2</ele>
        <time>2011-01-09T10:14:35Z</time>
      </trkpt>
      <trkpt lat="43.60232" lon="3.69981">
        <ele>175.1</ele>
        <time>2011-01-09T10:14:37Z</time>
      </trkpt>
      <trkpt lat="43.60233" lon="3.69972">
        <ele>174.3</ele>
        <time>2011-01-09T10:14:39Z</time>
      </trkpt>
      <trkpt lat="43.60231" lon="3.69961">
        <ele>173.8</ele>
        <time>2011-01-09T10:14:41Z</time>
      </trkpt>
      <trkpt lat="43.60227" lon="3.69953">
        <ele>173.5</ele>
        <time>2011-01-09T10:14:43Z</time>
      </trkpt>
      <trkpt lat="43.60224" lon="3.69945">
        <ele>173.1</ele>
        <time>2011-01-09T10:14:45Z</time>
      </trkpt>
      <trkpt lat="43.60222" lon="3.69935">
        <ele>172.4</ele>
        <time>2011-01-09T10:14:47Z</time>
      </trkpt>
      <trkpt lat="43.60223" lon="3.69924">
        <ele>171.6</ele>
        <time>2011-01-09T10:14:49Z</time>
      </trkpt>
      <trkpt lat="43.60218" lon="3.69915">
        <ele>171.1</ele>
        <time>2011-01-09T10:14:52Z</time>
      </trkpt>
      <trkpt lat="43.60214" lon="3.69904">
        <ele>171</ele>
        <time>2011-01-09T10:14:55Z</time>
      </trkpt>
      <trkpt lat="43.60208" lon="3.69897">
        <ele>170.9</ele>
        <time>2011-01-09T10:14:57Z</time>
      </trkpt>
      <trkpt lat="43.602" lon="3.69896">
        <ele>170.9</ele>
        <time>2011-01-09T10:15:00Z</time>
      </trkpt>
      <trkpt lat="43.60197" lon="3.69894">
        <ele>170.9</ele>
        <time>2011-01-09T10:15:01Z</time>
      </trkpt>
      <trkpt lat="43.60191" lon="3.6988">
        <ele>170.2</ele>
        <time>2011-01-09T10:15:06Z</time>
      </trkpt>
      <trkpt lat="43.60189" lon="3.69872">
        <ele>169.7</ele>
        <time>2011-01-09T10:15:08Z</time>
      </trkpt>
      <trkpt lat="43.60186" lon="3.69861">
        <ele>169</ele>
        <time>2011-01-09T10:15:11Z</time>
      </trkpt>
      <trkpt lat="43.60189" lon="3.69849">
        <ele>168.4</ele>
        <time>2011-01-09T10:15:16Z</time>
      </trkpt>
      <trkpt lat="43.60186" lon="3.69837">
        <ele>167.6</ele>
        <time>2011-01-09T10:15:28Z</time>
      </trkpt>
      <trkpt lat="43.60181" lon="3.69827">
        <ele>167.6</ele>
        <time>2011-01-09T10:15:51Z</time>
      </trkpt>
      <trkpt lat="43.60188" lon="3.69829">
        <ele>167.9</ele>
        <time>2011-01-09T10:17:00Z</time>
      </trkpt>
      <trkpt lat="43.6019" lon="3.6983">
        <ele>168</ele>
        <time>2011-01-09T10:17:01Z</time>
      </trkpt>
      <trkpt lat="43.60204" lon="3.69837">
        <ele>168.8</ele>
        <time>2011-01-09T10:17:18Z</time>
      </trkpt>
      <trkpt lat="43.60211" lon="3.69842">
        <ele>169.4</ele>
        <time>2011-01-09T10:17:23Z</time>
      </trkpt>
      <trkpt lat="43.60216" lon="3.6985">
        <ele>169.9</ele>
        <time>2011-01-09T10:17:27Z</time>
      </trkpt>
      <trkpt lat="43.60224" lon="3.69855">
        <ele>170.3</ele>
        <time>2011-01-09T10:17:32Z</time>
      </trkpt>
      <trkpt lat="43.60232" lon="3.69857">
        <ele>170.7</ele>
        <time>2011-01-09T10:17:37Z</time>
      </trkpt>
      <trkpt lat="43.60239" lon="3.6986">
        <ele>171</ele>
        <time>2011-01-09T10:17:43Z</time>
      </trkpt>
      <trkpt lat="43.60248" lon="3.69862">
        <ele>171.2</ele>
        <time>2011-01-09T10:17:52Z</time>
      </trkpt>
      <trkpt lat="43.60257" lon="3.69864">
        <ele>171.7</ele>
        <time>2011-01-09T10:18:02Z</time>
      </trkpt>
      <trkpt lat="43.60258" lon="3.69865">
        <ele>171.7</ele>
        <time>2011-01-09T10:18:03Z</time>
      </trkpt>
      <trkpt lat="43.60271" lon="3.69874">
        <ele>172.4</ele>
        <time>2011-01-09T10:18:16Z</time>
      </trkpt>
      <trkpt lat="43.6028" lon="3.69878">
        <ele>172.9</ele>
        <time>2011-01-09T10:18:25Z</time>
      </trkpt>
      <trkpt lat="43.60288" lon="3.69881">
        <ele>173.4</ele>
        <time>2011-01-09T10:18:33Z</time>
      </trkpt>
      <trkpt lat="43.60296" lon="3.69879">
        <ele>174</ele>
        <time>2011-01-09T10:18:42Z</time>
      </trkpt>
      <trkpt lat="43.60303" lon="3.6987">
        <ele>174.6</ele>
        <time>2011-01-09T10:18:50Z</time>
      </trkpt>
      <trkpt lat="43.60309" lon="3.69863">
        <ele>175.1</ele>
        <time>2011-01-09T10:18:58Z</time>
      </trkpt>
      <trkpt lat="43.60316" lon="3.69855">
        <ele>175.7</ele>
        <time>2011-01-09T10:19:06Z</time>
      </trkpt>
      <trkpt lat="43.60317" lon="3.69854">
        <ele>175.7</ele>
        <time>2011-01-09T10:19:07Z</time>
      </trkpt>
      <trkpt lat="43.60323" lon="3.69858">
        <ele>176</ele>
        <time>2011-01-09T10:23:45Z</time>
      </trkpt>
      <trkpt lat="43.60323" lon="3.69859">
        <ele>176</ele>
        <time>2011-01-09T10:23:46Z</time>
      </trkpt>
      <trkpt lat="43.60327" lon="3.6988">
        <ele>176</ele>
        <time>2011-01-09T10:23:54Z</time>
      </trkpt>
      <trkpt lat="43.60331" lon="3.69889">
        <ele>176.2</ele>
        <time>2011-01-09T10:23:58Z</time>
      </trkpt>
      <trkpt lat="43.60334" lon="3.69899">
        <ele>176.1</ele>
        <time>2011-01-09T10:24:02Z</time>
      </trkpt>
      <trkpt lat="43.60337" lon="3.69909">
        <ele>175.7</ele>
        <time>2011-01-09T10:24:06Z</time>
      </trkpt>
      <trkpt lat="43.60339" lon="3.69919">
        <ele>175.3</ele>
        <time>2011-01-09T10:24:09Z</time>
      </trkpt>
      <trkpt lat="43.60338" lon="3.69931">
        <ele>174.9</ele>
        <time>2011-01-09T10:24:12Z</time>
      </trkpt>
      <trkpt lat="43.60336" lon="3.69941">
        <ele>174.8</ele>
        <time>2011-01-09T10:24:14Z</time>
      </trkpt>
      <trkpt lat="43.60335" lon="3.69947">
        <ele>174.7</ele>
        <time>2011-01-09T10:24:15Z</time>
      </trkpt>
      <trkpt lat="43.60334" lon="3.69953">
        <ele>174.6</ele>
        <time>2011-01-09T10:24:16Z</time>
      </trkpt>
      <trkpt lat="43.60333" lon="3.6996">
        <ele>174.4</ele>
        <time>2011-01-09T10:24:17Z</time>
      </trkpt>
      <trkpt lat="43.60332" lon="3.69972">
        <ele>174</ele>
        <time>2011-01-09T10:24:19Z</time>
      </trkpt>
      <trkpt lat="43.6033" lon="3.69981">
        <ele>173.7</ele>
        <time>2011-01-09T10:24:21Z</time>
      </trkpt>
      <trkpt lat="43.60325" lon="3.69987">
        <ele>173.5</ele>
        <time>2011-01-09T10:24:23Z</time>
      </trkpt>
      <trkpt lat="43.60318" lon="3.69993">
        <ele>173.3</ele>
        <time>2011-01-09T10:24:26Z</time>
      </trkpt>
      <trkpt lat="43.6031" lon="3.69991">
        <ele>173.4</ele>
        <time>2011-01-09T10:24:28Z</time>
      </trkpt>
      <trkpt lat="43.60302" lon="3.69995">
        <ele>173.4</ele>
        <time>2011-01-09T10:24:30Z</time>
      </trkpt>
      <trkpt lat="43.60298" lon="3.7">
        <ele>173.4</ele>
        <time>2011-01-09T10:24:31Z</time>
      </trkpt>
      <trkpt lat="43.60296" lon="3.70006">
        <ele>174</ele>
        <time>2011-01-09T10:24:32Z</time>
      </trkpt>
      <trkpt lat="43.60296" lon="3.70017">
        <ele>175</ele>
        <time>2011-01-09T10:24:34Z</time>
      </trkpt>
      <trkpt lat="43.603" lon="3.70024">
        <ele>175.5</ele>
        <time>2011-01-09T10:24:36Z</time>
      </trkpt>
      <trkpt lat="43.60303" lon="3.70032">
        <ele>176</ele>
        <time>2011-01-09T10:24:38Z</time>
      </trkpt>
      <trkpt lat="43.60307" lon="3.70039">
        <ele>176.3</ele>
        <time>2011-01-09T10:24:40Z</time>
      </trkpt>
      <trkpt lat="43.60311" lon="3.70046">
        <ele>176.6</ele>
        <time>2011-01-09T10:24:42Z</time>
      </trkpt>
      <trkpt lat="43.60314" lon="3.70053">
        <ele>176.8</ele>
        <time>2011-01-09T10:24:44Z</time>
      </trkpt>
      <trkpt lat="43.60317" lon="3.7006">
        <ele>176.9</ele>
        <time>2011-01-09T10:24:46Z</time>
      </trkpt>
      <trkpt lat="43.60318" lon="3.70064">
        <ele>177</ele>
        <time>2011-01-09T10:24:47Z</time>
      </trkpt>
      <trkpt lat="43.60323" lon="3.70075">
        <ele>177.1</ele>
        <time>2011-01-09T10:24:50Z</time>
      </trkpt>
      <trkpt lat="43.60327" lon="3.70086">
        <ele>177.2</ele>
        <time>2011-01-09T10:24:53Z</time>
      </trkpt>
      <trkpt lat="43.60331" lon="3.70093">
        <ele>177.4</ele>
        <time>2011-01-09T10:24:55Z</time>
      </trkpt>
      <trkpt lat="43.60333" lon="3.701">
        <ele>177.6</ele>
        <time>2011-01-09T10:24:57Z</time>
      </trkpt>
      <trkpt lat="43.60337" lon="3.70111">
        <ele>178.4</ele>
        <time>2011-01-09T10:25:00Z</time>
      </trkpt>
      <trkpt lat="43.6034" lon="3.70123">
        <ele>179.4</ele>
        <time>2011-01-09T10:25:04Z</time>
      </trkpt>
      <trkpt lat="43.60342" lon="3.70134">
        <ele>180.4</ele>
        <time>2011-01-09T10:25:08Z</time>
      </trkpt>
      <trkpt lat="43.60344" lon="3.70145">
        <ele>181.4</ele>
        <time>2011-01-09T10:25:12Z</time>
      </trkpt>
      <trkpt lat="43.60343" lon="3.70156">
        <ele>182.6</ele>
        <time>2011-01-09T10:25:16Z</time>
      </trkpt>
      <trkpt lat="43.60343" lon="3.70166">
        <ele>183.6</ele>
        <time>2011-01-09T10:25:19Z</time>
      </trkpt>
      <trkpt lat="43.60343" lon="3.70176">
        <ele>184.2</ele>
        <time>2011-01-09T10:25:22Z</time>
      </trkpt>
      <trkpt lat="43.60343" lon="3.70186">
        <ele>184.7</ele>
        <time>2011-01-09T10:25:25Z</time>
      </trkpt>
      <trkpt lat="43.60344" lon="3.70196">
        <ele>185.3</ele>
        <time>2011-01-09T10:25:28Z</time>
      </trkpt>
      <trkpt lat="43.60343" lon="3.70206">
        <ele>185.8</ele>
        <time>2011-01-09T10:25:31Z</time>
      </trkpt>
      <trkpt lat="43.60342" lon="3.70218">
        <ele>186.5</ele>
        <time>2011-01-09T10:25:35Z</time>
      </trkpt>
      <trkpt lat="43.6034" lon="3.70228">
        <ele>187</ele>
        <time>2011-01-09T10:25:39Z</time>
      </trkpt>
      <trkpt lat="43.60339" lon="3.70239">
        <ele>187.6</ele>
        <time>2011-01-09T10:25:43Z</time>
      </trkpt>
      <trkpt lat="43.60337" lon="3.70249">
        <ele>188</ele>
        <time>2011-01-09T10:25:47Z</time>
      </trkpt>
      <trkpt lat="43.60336" lon="3.70252">
        <ele>188.1</ele>
        <time>2011-01-09T10:25:48Z</time>
      </trkpt>
      <trkpt lat="43.60334" lon="3.70271">
        <ele>188.5</ele>
        <time>2011-01-09T10:25:55Z</time>
      </trkpt>
      <trkpt lat="43.60334" lon="3.70283">
        <ele>188.8</ele>
        <time>2011-01-09T10:25:59Z</time>
      </trkpt>
      <trkpt lat="43.60333" lon="3.70294">
        <ele>189.1</ele>
        <time>2011-01-09T10:26:03Z</time>
      </trkpt>
      <trkpt lat="43.60331" lon="3.70305">
        <ele>189.6</ele>
        <time>2011-01-09T10:26:07Z</time>
      </trkpt>
      <trkpt lat="43.60329" lon="3.70315">
        <ele>190</ele>
        <time>2011-01-09T10:26:11Z</time>
      </trkpt>
      <trkpt lat="43.60327" lon="3.70326">
        <ele>190.4</ele>
        <time>2011-01-09T10:26:15Z</time>
      </trkpt>
      <trkpt lat="43.60325" lon="3.70337">
        <ele>190.5</ele>
        <time>2011-01-09T10:26:20Z</time>
      </trkpt>
      <trkpt lat="43.60323" lon="3.70349">
        <ele>190</ele>
        <time>2011-01-09T10:26:25Z</time>
      </trkpt>
      <trkpt lat="43.60316" lon="3.70357">
        <ele>189.8</ele>
        <time>2011-01-09T10:26:31Z</time>
      </trkpt>
      <trkpt lat="43.60307" lon="3.70359">
        <ele>190</ele>
        <time>2011-01-09T10:27:13Z</time>
      </trkpt>
      <trkpt lat="43.60305" lon="3.70358">
        <ele>190.1</ele>
        <time>2011-01-09T10:27:14Z</time>
      </trkpt>
      <trkpt lat="43.60291" lon="3.70357">
        <ele>190.8</ele>
        <time>2011-01-09T10:27:22Z</time>
      </trkpt>
      <trkpt lat="43.60283" lon="3.70354">
        <ele>191.5</ele>
        <time>2011-01-09T10:27:27Z</time>
      </trkpt>
      <trkpt lat="43.60276" lon="3.70353">
        <ele>192.1</ele>
        <time>2011-01-09T10:27:31Z</time>
      </trkpt>
      <trkpt lat="43.60269" lon="3.70351">
        <ele>192.7</ele>
        <time>2011-01-09T10:27:35Z</time>
      </trkpt>
      <trkpt lat="43.60261" lon="3.70348">
        <ele>193.6</ele>
        <time>2011-01-09T10:27:40Z</time>
      </trkpt>
      <trkpt lat="43.60254" lon="3.70345">
        <ele>194.5</ele>
        <time>2011-01-09T10:27:45Z</time>
      </trkpt>
      <trkpt lat="43.60246" lon="3.70341">
        <ele>195.1</ele>
        <time>2011-01-09T10:27:50Z</time>
      </trkpt>
      <trkpt lat="43.60239" lon="3.70335">
        <ele>195.5</ele>
        <time>2011-01-09T10:27:55Z</time>
      </trkpt>
      <trkpt lat="43.60233" lon="3.70327">
        <ele>195.6</ele>
        <time>2011-01-09T10:28:00Z</time>
      </trkpt>
      <trkpt lat="43.60226" lon="3.70322">
        <ele>195.4</ele>
        <time>2011-01-09T10:28:04Z</time>
      </trkpt>
      <trkpt lat="43.60218" lon="3.70316">
        <ele>195.2</ele>
        <time>2011-01-09T10:28:08Z</time>
      </trkpt>
      <trkpt lat="43.60212" lon="3.70311">
        <ele>195.1</ele>
        <time>2011-01-09T10:28:11Z</time>
      </trkpt>
      <trkpt lat="43.60206" lon="3.70304">
        <ele>195.5</ele>
        <time>2011-01-09T10:28:14Z</time>
      </trkpt>
      <trkpt lat="43.60204" lon="3.70301">
        <ele>195.7</ele>
        <time>2011-01-09T10:28:15Z</time>
      </trkpt>
      <trkpt lat="43.60197" lon="3.70287">
        <ele>196.9</ele>
        <time>2011-01-09T10:28:20Z</time>
      </trkpt>
      <trkpt lat="43.60192" lon="3.70278">
        <ele>197.7</ele>
        <time>2011-01-09T10:28:23Z</time>
      </trkpt>
      <trkpt lat="43.60187" lon="3.70272">
        <ele>198.1</ele>
        <time>2011-01-09T10:28:25Z</time>
      </trkpt>
      <trkpt lat="43.60182" lon="3.70264">
        <ele>198.9</ele>
        <time>2011-01-09T10:28:27Z</time>
      </trkpt>
      <trkpt lat="43.60177" lon="3.70255">
        <ele>199.9</ele>
        <time>2011-01-09T10:28:29Z</time>
      </trkpt>
      <trkpt lat="43.60173" lon="3.70247">
        <ele>200.3</ele>
        <time>2011-01-09T10:28:31Z</time>
      </trkpt>
      <trkpt lat="43.60167" lon="3.70238">
        <ele>199.7</ele>
        <time>2011-01-09T10:28:44Z</time>
      </trkpt>
      <trkpt lat="43.60158" lon="3.70231">
        <ele>199.8</ele>
        <time>2011-01-09T10:29:10Z</time>
      </trkpt>
      <trkpt lat="43.60152" lon="3.70235">
        <ele>200.1</ele>
        <time>2011-01-09T10:29:34Z</time>
      </trkpt>
      <trkpt lat="43.6015" lon="3.70238">
        <ele>200.1</ele>
        <time>2011-01-09T10:29:35Z</time>
      </trkpt>
      <trkpt lat="43.60151" lon="3.70257">
        <ele>199.1</ele>
        <time>2011-01-09T10:29:41Z</time>
      </trkpt>
      <trkpt lat="43.6015" lon="3.70268">
        <ele>197.4</ele>
        <time>2011-01-09T10:29:43Z</time>
      </trkpt>
      <trkpt lat="43.60151" lon="3.70278">
        <ele>195.8</ele>
        <time>2011-01-09T10:29:45Z</time>
      </trkpt>
      <trkpt lat="43.60153" lon="3.70289">
        <ele>194.1</ele>
        <time>2011-01-09T10:29:47Z</time>
      </trkpt>
      <trkpt lat="43.60154" lon="3.70297">
        <ele>192.7</ele>
        <time>2011-01-09T10:29:49Z</time>
      </trkpt>
      <trkpt lat="43.60156" lon="3.70309">
        <ele>190.8</ele>
        <time>2011-01-09T10:29:52Z</time>
      </trkpt>
      <trkpt lat="43.60156" lon="3.70318">
        <ele>189.4</ele>
        <time>2011-01-09T10:29:54Z</time>
      </trkpt>
      <trkpt lat="43.60156" lon="3.70328">
        <ele>187.9</ele>
        <time>2011-01-09T10:29:56Z</time>
      </trkpt>
      <trkpt lat="43.60159" lon="3.70337">
        <ele>186.3</ele>
        <time>2011-01-09T10:29:59Z</time>
      </trkpt>
      <trkpt lat="43.60154" lon="3.70347">
        <ele>184.5</ele>
        <time>2011-01-09T10:30:04Z</time>
      </trkpt>
      <trkpt lat="43.60146" lon="3.70345">
        <ele>184.9</ele>
        <time>2011-01-09T10:30:07Z</time>
      </trkpt>
      <trkpt lat="43.60137" lon="3.70341">
        <ele>185.7</ele>
        <time>2011-01-09T10:30:10Z</time>
      </trkpt>
      <trkpt lat="43.60131" lon="3.70336">
        <ele>186.5</ele>
        <time>2011-01-09T10:30:14Z</time>
      </trkpt>
      <trkpt lat="43.60126" lon="3.70347">
        <ele>184.7</ele>
        <time>2011-01-09T10:30:19Z</time>
      </trkpt>
      <trkpt lat="43.60127" lon="3.70355">
        <ele>183.2</ele>
        <time>2011-01-09T10:30:21Z</time>
      </trkpt>
      <trkpt lat="43.60129" lon="3.70365">
        <ele>181.4</ele>
        <time>2011-01-09T10:30:23Z</time>
      </trkpt>
      <trkpt lat="43.6013" lon="3.70374">
        <ele>179.8</ele>
        <time>2011-01-09T10:30:25Z</time>
      </trkpt>
      <trkpt lat="43.60131" lon="3.70384">
        <ele>178.1</ele>
        <time>2011-01-09T10:30:27Z</time>
      </trkpt>
      <trkpt lat="43.60132" lon="3.70396">
        <ele>176.1</ele>
        <time>2011-01-09T10:30:30Z</time>
      </trkpt>
      <trkpt lat="43.60131" lon="3.70405">
        <ele>174.5</ele>
        <time>2011-01-09T10:30:33Z</time>
      </trkpt>
      <trkpt lat="43.60129" lon="3.70415">
        <ele>172.7</ele>
        <time>2011-01-09T10:30:36Z</time>
      </trkpt>
      <trkpt lat="43.60128" lon="3.70417">
        <ele>172.5</ele>
        <time>2011-01-09T10:30:37Z</time>
      </trkpt>
      <trkpt lat="43.60122" lon="3.70432">
        <ele>172</ele>
        <time>2011-01-09T10:31:10Z</time>
      </trkpt>
      <trkpt lat="43.60113" lon="3.70436">
        <ele>171.8</ele>
        <time>2011-01-09T10:31:14Z</time>
      </trkpt>
      <trkpt lat="43.60105" lon="3.7044">
        <ele>171.4</ele>
        <time>2011-01-09T10:31:17Z</time>
      </trkpt>
      <trkpt lat="43.601" lon="3.70445">
        <ele>171</ele>
        <time>2011-01-09T10:31:19Z</time>
      </trkpt>
      <trkpt lat="43.60095" lon="3.70451">
        <ele>170.5</ele>
        <time>2011-01-09T10:31:21Z</time>
      </trkpt>
      <trkpt lat="43.6009" lon="3.70457">
        <ele>169.9</ele>
        <time>2011-01-09T10:31:23Z</time>
      </trkpt>
      <trkpt lat="43.60084" lon="3.70465">
        <ele>169</ele>
        <time>2011-01-09T10:31:25Z</time>
      </trkpt>
      <trkpt lat="43.60082" lon="3.70469">
        <ele>168.9</ele>
        <time>2011-01-09T10:31:26Z</time>
      </trkpt>
      <trkpt lat="43.6008" lon="3.70475">
        <ele>168.9</ele>
        <time>2011-01-09T10:31:27Z</time>
      </trkpt>
      <trkpt lat="43.60078" lon="3.70483">
        <ele>168.7</ele>
        <time>2011-01-09T10:31:28Z</time>
      </trkpt>
      <trkpt lat="43.60077" lon="3.70491">
        <ele>168.3</ele>
        <time>2011-01-09T10:31:29Z</time>
      </trkpt>
      <trkpt lat="43.60075" lon="3.705">
        <ele>167.9</ele>
        <time>2011-01-09T10:31:30Z</time>
      </trkpt>
      <trkpt lat="43.60075" lon="3.70509">
        <ele>167.1</ele>
        <time>2011-01-09T10:31:31Z</time>
      </trkpt>
      <trkpt lat="43.60074" lon="3.70518">
        <ele>166.3</ele>
        <time>2011-01-09T10:31:32Z</time>
      </trkpt>
      <trkpt lat="43.60072" lon="3.70528">
        <ele>165.7</ele>
        <time>2011-01-09T10:31:33Z</time>
      </trkpt>
      <trkpt lat="43.60071" lon="3.70537">
        <ele>165.1</ele>
        <time>2011-01-09T10:31:34Z</time>
      </trkpt>
      <trkpt lat="43.6007" lon="3.70547">
        <ele>164.4</ele>
        <time>2011-01-09T10:31:35Z</time>
      </trkpt>
      <trkpt lat="43.60069" lon="3.70558">
        <ele>163.5</ele>
        <time>2011-01-09T10:31:36Z</time>
      </trkpt>
      <trkpt lat="43.60068" lon="3.70568">
        <ele>162.6</ele>
        <time>2011-01-09T10:31:37Z</time>
      </trkpt>
      <trkpt lat="43.60068" lon="3.70579">
        <ele>161.7</ele>
        <time>2011-01-09T10:31:38Z</time>
      </trkpt>
      <trkpt lat="43.60067" lon="3.7059">
        <ele>161.1</ele>
        <time>2011-01-09T10:31:39Z</time>
      </trkpt>
      <trkpt lat="43.60067" lon="3.70601">
        <ele>160.9</ele>
        <time>2011-01-09T10:31:40Z</time>
      </trkpt>
      <trkpt lat="43.60065" lon="3.70612">
        <ele>160.7</ele>
        <time>2011-01-09T10:31:41Z</time>
      </trkpt>
      <trkpt lat="43.60063" lon="3.70622">
        <ele>160.7</ele>
        <time>2011-01-09T10:31:42Z</time>
      </trkpt>
      <trkpt lat="43.6006" lon="3.70632">
        <ele>160.7</ele>
        <time>2011-01-09T10:31:43Z</time>
      </trkpt>
      <trkpt lat="43.60056" lon="3.70642">
        <ele>160.5</ele>
        <time>2011-01-09T10:31:44Z</time>
      </trkpt>
      <trkpt lat="43.60053" lon="3.70652">
        <ele>160.4</ele>
        <time>2011-01-09T10:31:45Z</time>
      </trkpt>
      <trkpt lat="43.60049" lon="3.70661">
        <ele>160</ele>
        <time>2011-01-09T10:31:46Z</time>
      </trkpt>
      <trkpt lat="43.60046" lon="3.70671">
        <ele>159.7</ele>
        <time>2011-01-09T10:31:47Z</time>
      </trkpt>
      <trkpt lat="43.60043" lon="3.7068">
        <ele>159.7</ele>
        <time>2011-01-09T10:31:48Z</time>
      </trkpt>
      <trkpt lat="43.6004" lon="3.70689">
        <ele>159.5</ele>
        <time>2011-01-09T10:31:49Z</time>
      </trkpt>
      <trkpt lat="43.60037" lon="3.70699">
        <ele>159.1</ele>
        <time>2011-01-09T10:31:50Z</time>
      </trkpt>
      <trkpt lat="43.60035" lon="3.70708">
        <ele>158.7</ele>
        <time>2011-01-09T10:31:51Z</time>
      </trkpt>
      <trkpt lat="43.60032" lon="3.70718">
        <ele>158.1</ele>
        <time>2011-01-09T10:31:52Z</time>
      </trkpt>
      <trkpt lat="43.6003" lon="3.70728">
        <ele>157.4</ele>
        <time>2011-01-09T10:31:53Z</time>
      </trkpt>
      <trkpt lat="43.60028" lon="3.70738">
        <ele>156.7</ele>
        <time>2011-01-09T10:31:54Z</time>
      </trkpt>
      <trkpt lat="43.60026" lon="3.70748">
        <ele>155.9</ele>
        <time>2011-01-09T10:31:55Z</time>
      </trkpt>
      <trkpt lat="43.60023" lon="3.70758">
        <ele>154.9</ele>
        <time>2011-01-09T10:31:56Z</time>
      </trkpt>
      <trkpt lat="43.60021" lon="3.70767">
        <ele>153.9</ele>
        <time>2011-01-09T10:31:57Z</time>
      </trkpt>
      <trkpt lat="43.60018" lon="3.70775">
        <ele>152.7</ele>
        <time>2011-01-09T10:31:58Z</time>
      </trkpt>
      <trkpt lat="43.60015" lon="3.70784">
        <ele>151.4</ele>
        <time>2011-01-09T10:31:59Z</time>
      </trkpt>
      <trkpt lat="43.60011" lon="3.70793">
        <ele>150</ele>
        <time>2011-01-09T10:32:00Z</time>
      </trkpt>
      <trkpt lat="43.60006" lon="3.708">
        <ele>148.5</ele>
        <time>2011-01-09T10:32:01Z</time>
      </trkpt>
      <trkpt lat="43.60001" lon="3.70806">
        <ele>146.8</ele>
        <time>2011-01-09T10:32:02Z</time>
      </trkpt>
      <trkpt lat="43.59996" lon="3.70813">
        <ele>146.1</ele>
        <time>2011-01-09T10:32:03Z</time>
      </trkpt>
      <trkpt lat="43.59991" lon="3.70818">
        <ele>145.8</ele>
        <time>2011-01-09T10:32:04Z</time>
      </trkpt>
      <trkpt lat="43.59987" lon="3.70823">
        <ele>145.4</ele>
        <time>2011-01-09T10:32:05Z</time>
      </trkpt>
      <trkpt lat="43.59982" lon="3.70829">
        <ele>144.9</ele>
        <time>2011-01-09T10:32:06Z</time>
      </trkpt>
      <trkpt lat="43.5998" lon="3.70836">
        <ele>144.3</ele>
        <time>2011-01-09T10:32:07Z</time>
      </trkpt>
      <trkpt lat="43.59979" lon="3.70844">
        <ele>143.8</ele>
        <time>2011-01-09T10:32:08Z</time>
      </trkpt>
      <trkpt lat="43.59979" lon="3.70852">
        <ele>143.3</ele>
        <time>2011-01-09T10:32:09Z</time>
      </trkpt>
      <trkpt lat="43.59979" lon="3.7086">
        <ele>142.7</ele>
        <time>2011-01-09T10:32:10Z</time>
      </trkpt>
      <trkpt lat="43.59978" lon="3.70868">
        <ele>142.2</ele>
        <time>2011-01-09T10:32:11Z</time>
      </trkpt>
      <trkpt lat="43.59977" lon="3.70876">
        <ele>141.7</ele>
        <time>2011-01-09T10:32:12Z</time>
      </trkpt>
      <trkpt lat="43.59975" lon="3.70883">
        <ele>141.3</ele>
        <time>2011-01-09T10:32:13Z</time>
      </trkpt>
      <trkpt lat="43.59973" lon="3.70891">
        <ele>140.8</ele>
        <time>2011-01-09T10:32:14Z</time>
      </trkpt>
      <trkpt lat="43.59971" lon="3.70898">
        <ele>140.3</ele>
        <time>2011-01-09T10:32:15Z</time>
      </trkpt>
      <trkpt lat="43.59968" lon="3.70906">
        <ele>139.8</ele>
        <time>2011-01-09T10:32:16Z</time>
      </trkpt>
      <trkpt lat="43.59966" lon="3.70913">
        <ele>139.3</ele>
        <time>2011-01-09T10:32:17Z</time>
      </trkpt>
      <trkpt lat="43.59963" lon="3.70919">
        <ele>138.9</ele>
        <time>2011-01-09T10:32:18Z</time>
      </trkpt>
      <trkpt lat="43.5996" lon="3.70925">
        <ele>138.6</ele>
        <time>2011-01-09T10:32:19Z</time>
      </trkpt>
      <trkpt lat="43.59957" lon="3.7093">
        <ele>138.3</ele>
        <time>2011-01-09T10:32:20Z</time>
      </trkpt>
      <trkpt lat="43.59954" lon="3.70935">
        <ele>138.1</ele>
        <time>2011-01-09T10:32:21Z</time>
      </trkpt>
      <trkpt lat="43.59949" lon="3.70944">
        <ele>137.6</ele>
        <time>2011-01-09T10:32:23Z</time>
      </trkpt>
      <trkpt lat="43.59943" lon="3.70951">
        <ele>137</ele>
        <time>2011-01-09T10:32:25Z</time>
      </trkpt>
      <trkpt lat="43.59936" lon="3.70958">
        <ele>136.5</ele>
        <time>2011-01-09T10:32:27Z</time>
      </trkpt>
      <trkpt lat="43.5993" lon="3.70963">
        <ele>136</ele>
        <time>2011-01-09T10:32:29Z</time>
      </trkpt>
      <trkpt lat="43.59924" lon="3.70968">
        <ele>135.5</ele>
        <time>2011-01-09T10:32:31Z</time>
      </trkpt>
      <trkpt lat="43.59918" lon="3.70973">
        <ele>135</ele>
        <time>2011-01-09T10:32:33Z</time>
      </trkpt>
      <trkpt lat="43.59912" lon="3.70977">
        <ele>134.9</ele>
        <time>2011-01-09T10:32:35Z</time>
      </trkpt>
      <trkpt lat="43.59906" lon="3.7098">
        <ele>134.8</ele>
        <time>2011-01-09T10:32:37Z</time>
      </trkpt>
      <trkpt lat="43.599" lon="3.70983">
        <ele>134.9</ele>
        <time>2011-01-09T10:32:39Z</time>
      </trkpt>
      <trkpt lat="43.59896" lon="3.70984">
        <ele>134.9</ele>
        <time>2011-01-09T10:32:40Z</time>
      </trkpt>
      <trkpt lat="43.59886" lon="3.70986">
        <ele>135.1</ele>
        <time>2011-01-09T10:32:43Z</time>
      </trkpt>
      <trkpt lat="43.59879" lon="3.70986">
        <ele>135.3</ele>
        <time>2011-01-09T10:32:45Z</time>
      </trkpt>
      <trkpt lat="43.59872" lon="3.70986">
        <ele>135.5</ele>
        <time>2011-01-09T10:32:47Z</time>
      </trkpt>
      <trkpt lat="43.59865" lon="3.70986">
        <ele>135.8</ele>
        <time>2011-01-09T10:32:49Z</time>
      </trkpt>
      <trkpt lat="43.59859" lon="3.70985">
        <ele>136.1</ele>
        <time>2011-01-09T10:32:51Z</time>
      </trkpt>
      <trkpt lat="43.59851" lon="3.70984">
        <ele>136.5</ele>
        <time>2011-01-09T10:32:53Z</time>
      </trkpt>
      <trkpt lat="43.59845" lon="3.70982">
        <ele>136.9</ele>
        <time>2011-01-09T10:32:55Z</time>
      </trkpt>
      <trkpt lat="43.59838" lon="3.7098">
        <ele>137.5</ele>
        <time>2011-01-09T10:32:57Z</time>
      </trkpt>
      <trkpt lat="43.5983" lon="3.70976">
        <ele>138.1</ele>
        <time>2011-01-09T10:32:59Z</time>
      </trkpt>
      <trkpt lat="43.59824" lon="3.70971">
        <ele>138.6</ele>
        <time>2011-01-09T10:33:01Z</time>
      </trkpt>
      <trkpt lat="43.59818" lon="3.70966">
        <ele>139.1</ele>
        <time>2011-01-09T10:33:03Z</time>
      </trkpt>
      <trkpt lat="43.59811" lon="3.7096">
        <ele>139.6</ele>
        <time>2011-01-09T10:33:05Z</time>
      </trkpt>
      <trkpt lat="43.59805" lon="3.70955">
        <ele>140.1</ele>
        <time>2011-01-09T10:33:07Z</time>
      </trkpt>
      <trkpt lat="43.59798" lon="3.7095">
        <ele>140.4</ele>
        <time>2011-01-09T10:33:09Z</time>
      </trkpt>
      <trkpt lat="43.59791" lon="3.70946">
        <ele>140.8</ele>
        <time>2011-01-09T10:33:11Z</time>
      </trkpt>
      <trkpt lat="43.59784" lon="3.7094">
        <ele>141.3</ele>
        <time>2011-01-09T10:33:13Z</time>
      </trkpt>
      <trkpt lat="43.59778" lon="3.70935">
        <ele>141.7</ele>
        <time>2011-01-09T10:33:15Z</time>
      </trkpt>
      <trkpt lat="43.59772" lon="3.7093">
        <ele>142.2</ele>
        <time>2011-01-09T10:33:17Z</time>
      </trkpt>
      <trkpt lat="43.59766" lon="3.70924">
        <ele>142.7</ele>
        <time>2011-01-09T10:33:19Z</time>
      </trkpt>
      <trkpt lat="43.5976" lon="3.70917">
        <ele>143.3</ele>
        <time>2011-01-09T10:33:21Z</time>
      </trkpt>
      <trkpt lat="43.59755" lon="3.7091">
        <ele>143.8</ele>
        <time>2011-01-09T10:33:23Z</time>
      </trkpt>
      <trkpt lat="43.59751" lon="3.70903">
        <ele>144.2</ele>
        <time>2011-01-09T10:33:25Z</time>
      </trkpt>
      <trkpt lat="43.59746" lon="3.70895">
        <ele>144.5</ele>
        <time>2011-01-09T10:33:27Z</time>
      </trkpt>
      <trkpt lat="43.59742" lon="3.70887">
        <ele>144.8</ele>
        <time>2011-01-09T10:33:29Z</time>
      </trkpt>
      <trkpt lat="43.59738" lon="3.70879">
        <ele>145.1</ele>
        <time>2011-01-09T10:33:31Z</time>
      </trkpt>
      <trkpt lat="43.59734" lon="3.70871">
        <ele>145.5</ele>
        <time>2011-01-09T10:33:33Z</time>
      </trkpt>
      <trkpt lat="43.59731" lon="3.70862">
        <ele>145.9</ele>
        <time>2011-01-09T10:33:35Z</time>
      </trkpt>
      <trkpt lat="43.59728" lon="3.70853">
        <ele>146.4</ele>
        <time>2011-01-09T10:33:37Z</time>
      </trkpt>
      <trkpt lat="43.59725" lon="3.70845">
        <ele>146.9</ele>
        <time>2011-01-09T10:33:39Z</time>
      </trkpt>
      <trkpt lat="43.59722" lon="3.70835">
        <ele>147.5</ele>
        <time>2011-01-09T10:33:41Z</time>
      </trkpt>
      <trkpt lat="43.59722" lon="3.70831">
        <ele>147.8</ele>
        <time>2011-01-09T10:33:42Z</time>
      </trkpt>
      <trkpt lat="43.59717" lon="3.70815">
        <ele>148.5</ele>
        <time>2011-01-09T10:33:46Z</time>
      </trkpt>
      <trkpt lat="43.59713" lon="3.70805">
        <ele>148.8</ele>
        <time>2011-01-09T10:33:50Z</time>
      </trkpt>
      <trkpt lat="43.59706" lon="3.70797">
        <ele>148.6</ele>
        <time>2011-01-09T10:33:54Z</time>
      </trkpt>
      <trkpt lat="43.59699" lon="3.70791">
        <ele>148.5</ele>
        <time>2011-01-09T10:33:58Z</time>
      </trkpt>
      <trkpt lat="43.59692" lon="3.70783">
        <ele>148.4</ele>
        <time>2011-01-09T10:34:03Z</time>
      </trkpt>
      <trkpt lat="43.59686" lon="3.70777">
        <ele>148.2</ele>
        <time>2011-01-09T10:34:07Z</time>
      </trkpt>
      <trkpt lat="43.5968" lon="3.7077">
        <ele>148.1</ele>
        <time>2011-01-09T10:34:12Z</time>
      </trkpt>
      <trkpt lat="43.59674" lon="3.70763">
        <ele>147.9</ele>
        <time>2011-01-09T10:34:17Z</time>
      </trkpt>
      <trkpt lat="43.59668" lon="3.70755">
        <ele>147.8</ele>
        <time>2011-01-09T10:34:22Z</time>
      </trkpt>
      <trkpt lat="43.59662" lon="3.70746">
        <ele>147.7</ele>
        <time>2011-01-09T10:34:27Z</time>
      </trkpt>
      <trkpt lat="43.59656" lon="3.70738">
        <ele>147.4</ele>
        <time>2011-01-09T10:34:32Z</time>
      </trkpt>
      <trkpt lat="43.5965" lon="3.70731">
        <ele>147.1</ele>
        <time>2011-01-09T10:34:36Z</time>
      </trkpt>
      <trkpt lat="43.59645" lon="3.70725">
        <ele>146.8</ele>
        <time>2011-01-09T10:34:40Z</time>
      </trkpt>
      <trkpt lat="43.59638" lon="3.70717">
        <ele>146.4</ele>
        <time>2011-01-09T10:34:44Z</time>
      </trkpt>
      <trkpt lat="43.59637" lon="3.70715">
        <ele>146.4</ele>
        <time>2011-01-09T10:34:45Z</time>
      </trkpt>
      <trkpt lat="43.59626" lon="3.70703">
        <ele>145.8</ele>
        <time>2011-01-09T10:34:51Z</time>
      </trkpt>
      <trkpt lat="43.5962" lon="3.70696">
        <ele>145.5</ele>
        <time>2011-01-09T10:34:54Z</time>
      </trkpt>
      <trkpt lat="43.59613" lon="3.70688">
        <ele>145.1</ele>
        <time>2011-01-09T10:34:57Z</time>
      </trkpt>
      <trkpt lat="43.59606" lon="3.70681">
        <ele>144.7</ele>
        <time>2011-01-09T10:35:00Z</time>
      </trkpt>
      <trkpt lat="43.596" lon="3.70673">
        <ele>144.4</ele>
        <time>2011-01-09T10:35:03Z</time>
      </trkpt>
      <trkpt lat="43.59594" lon="3.70667">
        <ele>144</ele>
        <time>2011-01-09T10:35:06Z</time>
      </trkpt>
      <trkpt lat="43.59588" lon="3.7066">
        <ele>143.6</ele>
        <time>2011-01-09T10:35:09Z</time>
      </trkpt>
      <trkpt lat="43.59582" lon="3.70654">
        <ele>143.2</ele>
        <time>2011-01-09T10:35:12Z</time>
      </trkpt>
      <trkpt lat="43.59576" lon="3.70647">
        <ele>142.9</ele>
        <time>2011-01-09T10:35:16Z</time>
      </trkpt>
      <trkpt lat="43.59571" lon="3.7064">
        <ele>142.6</ele>
        <time>2011-01-09T10:35:19Z</time>
      </trkpt>
      <trkpt lat="43.59566" lon="3.70633">
        <ele>142.4</ele>
        <time>2011-01-09T10:35:22Z</time>
      </trkpt>
      <trkpt lat="43.59561" lon="3.70626">
        <ele>142.1</ele>
        <time>2011-01-09T10:35:25Z</time>
      </trkpt>
      <trkpt lat="43.59557" lon="3.70619">
        <ele>141.9</ele>
        <time>2011-01-09T10:35:28Z</time>
      </trkpt>
      <trkpt lat="43.5955" lon="3.7061">
        <ele>141.6</ele>
        <time>2011-01-09T10:35:32Z</time>
      </trkpt>
      <trkpt lat="43.59544" lon="3.70603">
        <ele>141.2</ele>
        <time>2011-01-09T10:35:35Z</time>
      </trkpt>
      <trkpt lat="43.59538" lon="3.70597">
        <ele>140.8</ele>
        <time>2011-01-09T10:35:38Z</time>
      </trkpt>
      <trkpt lat="43.59531" lon="3.7059">
        <ele>140.4</ele>
        <time>2011-01-09T10:35:41Z</time>
      </trkpt>
      <trkpt lat="43.59525" lon="3.70586">
        <ele>140.1</ele>
        <time>2011-01-09T10:35:43Z</time>
      </trkpt>
      <trkpt lat="43.5952" lon="3.70582">
        <ele>139.7</ele>
        <time>2011-01-09T10:35:45Z</time>
      </trkpt>
      <trkpt lat="43.59517" lon="3.7058">
        <ele>139.6</ele>
        <time>2011-01-09T10:35:46Z</time>
      </trkpt>
      <trkpt lat="43.59508" lon="3.70574">
        <ele>138.9</ele>
        <time>2011-01-09T10:35:49Z</time>
      </trkpt>
      <trkpt lat="43.59502" lon="3.70571">
        <ele>138.5</ele>
        <time>2011-01-09T10:35:51Z</time>
      </trkpt>
      <trkpt lat="43.59495" lon="3.70569">
        <ele>137.9</ele>
        <time>2011-01-09T10:35:53Z</time>
      </trkpt>
      <trkpt lat="43.59488" lon="3.70567">
        <ele>137.2</ele>
        <time>2011-01-09T10:35:55Z</time>
      </trkpt>
      <trkpt lat="43.59481" lon="3.70565">
        <ele>136.5</ele>
        <time>2011-01-09T10:35:57Z</time>
      </trkpt>
      <trkpt lat="43.59474" lon="3.70564">
        <ele>135.9</ele>
        <time>2011-01-09T10:35:59Z</time>
      </trkpt>
      <trkpt lat="43.59468" lon="3.70563">
        <ele>135.2</ele>
        <time>2011-01-09T10:36:01Z</time>
      </trkpt>
      <trkpt lat="43.59463" lon="3.7056">
        <ele>134.7</ele>
        <time>2011-01-09T10:36:03Z</time>
      </trkpt>
      <trkpt lat="43.59456" lon="3.70557">
        <ele>134.1</ele>
        <time>2011-01-09T10:36:05Z</time>
      </trkpt>
      <trkpt lat="43.5945" lon="3.70555">
        <ele>133.5</ele>
        <time>2011-01-09T10:36:07Z</time>
      </trkpt>
      <trkpt lat="43.59444" lon="3.70556">
        <ele>132.8</ele>
        <time>2011-01-09T10:36:09Z</time>
      </trkpt>
      <trkpt lat="43.59437" lon="3.70561">
        <ele>132.1</ele>
        <time>2011-01-09T10:36:11Z</time>
      </trkpt>
      <trkpt lat="43.59431" lon="3.70566">
        <ele>131.4</ele>
        <time>2011-01-09T10:36:13Z</time>
      </trkpt>
      <trkpt lat="43.59425" lon="3.70573">
        <ele>130.8</ele>
        <time>2011-01-09T10:36:15Z</time>
      </trkpt>
      <trkpt lat="43.59419" lon="3.70581">
        <ele>130.2</ele>
        <time>2011-01-09T10:36:17Z</time>
      </trkpt>
      <trkpt lat="43.59414" lon="3.70591">
        <ele>129.9</ele>
        <time>2011-01-09T10:36:19Z</time>
      </trkpt>
      <trkpt lat="43.59412" lon="3.70597">
        <ele>129.8</ele>
        <time>2011-01-09T10:36:20Z</time>
      </trkpt>
      <trkpt lat="43.5941" lon="3.70603">
        <ele>129.7</ele>
        <time>2011-01-09T10:36:21Z</time>
      </trkpt>
      <trkpt lat="43.59409" lon="3.70609">
        <ele>129.7</ele>
        <time>2011-01-09T10:36:22Z</time>
      </trkpt>
      <trkpt lat="43.59408" lon="3.70615">
        <ele>129.6</ele>
        <time>2011-01-09T10:36:23Z</time>
      </trkpt>
      <trkpt lat="43.59407" lon="3.70621">
        <ele>129.6</ele>
        <time>2011-01-09T10:36:24Z</time>
      </trkpt>
      <trkpt lat="43.59405" lon="3.70627">
        <ele>129.5</ele>
        <time>2011-01-09T10:36:25Z</time>
      </trkpt>
      <trkpt lat="43.59404" lon="3.70633">
        <ele>129.5</ele>
        <time>2011-01-09T10:36:26Z</time>
      </trkpt>
      <trkpt lat="43.59402" lon="3.70639">
        <ele>129.4</ele>
        <time>2011-01-09T10:36:27Z</time>
      </trkpt>
      <trkpt lat="43.594" lon="3.70645">
        <ele>129.3</ele>
        <time>2011-01-09T10:36:28Z</time>
      </trkpt>
      <trkpt lat="43.59398" lon="3.70651">
        <ele>129.3</ele>
        <time>2011-01-09T10:36:29Z</time>
      </trkpt>
      <trkpt lat="43.59395" lon="3.70657">
        <ele>129.2</ele>
        <time>2011-01-09T10:36:30Z</time>
      </trkpt>
      <trkpt lat="43.59393" lon="3.70662">
        <ele>129.1</ele>
        <time>2011-01-09T10:36:31Z</time>
      </trkpt>
      <trkpt lat="43.5939" lon="3.70667">
        <ele>129</ele>
        <time>2011-01-09T10:36:32Z</time>
      </trkpt>
      <trkpt lat="43.59382" lon="3.70672">
        <ele>128.5</ele>
        <time>2011-01-09T10:36:34Z</time>
      </trkpt>
      <trkpt lat="43.59373" lon="3.7067">
        <ele>128.3</ele>
        <time>2011-01-09T10:36:36Z</time>
      </trkpt>
      <trkpt lat="43.59366" lon="3.70664">
        <ele>128.1</ele>
        <time>2011-01-09T10:36:38Z</time>
      </trkpt>
      <trkpt lat="43.59358" lon="3.7066">
        <ele>127.8</ele>
        <time>2011-01-09T10:36:40Z</time>
      </trkpt>
      <trkpt lat="43.59351" lon="3.70655">
        <ele>127.5</ele>
        <time>2011-01-09T10:36:42Z</time>
      </trkpt>
      <trkpt lat="43.59344" lon="3.7065">
        <ele>127.2</ele>
        <time>2011-01-09T10:36:44Z</time>
      </trkpt>
      <trkpt lat="43.59337" lon="3.70645">
        <ele>126.9</ele>
        <time>2011-01-09T10:36:46Z</time>
      </trkpt>
      <trkpt lat="43.59334" lon="3.70643">
        <ele>126.7</ele>
        <time>2011-01-09T10:36:47Z</time>
      </trkpt>
      <trkpt lat="43.59324" lon="3.70635">
        <ele>127</ele>
        <time>2011-01-09T10:36:50Z</time>
      </trkpt>
      <trkpt lat="43.59317" lon="3.7063">
        <ele>127.2</ele>
        <time>2011-01-09T10:36:52Z</time>
      </trkpt>
      <trkpt lat="43.59311" lon="3.70624">
        <ele>127.4</ele>
        <time>2011-01-09T10:36:54Z</time>
      </trkpt>
      <trkpt lat="43.59305" lon="3.70618">
        <ele>127.6</ele>
        <time>2011-01-09T10:36:56Z</time>
      </trkpt>
      <trkpt lat="43.59298" lon="3.70613">
        <ele>127.8</ele>
        <time>2011-01-09T10:36:58Z</time>
      </trkpt>
      <trkpt lat="43.59292" lon="3.70608">
        <ele>127.9</ele>
        <time>2011-01-09T10:37:00Z</time>
      </trkpt>
      <trkpt lat="43.59285" lon="3.70603">
        <ele>128.1</ele>
        <time>2011-01-09T10:37:02Z</time>
      </trkpt>
      <trkpt lat="43.59279" lon="3.70597">
        <ele>128.2</ele>
        <time>2011-01-09T10:37:04Z</time>
      </trkpt>
      <trkpt lat="43.59272" lon="3.70592">
        <ele>128.4</ele>
        <time>2011-01-09T10:37:06Z</time>
      </trkpt>
      <trkpt lat="43.59266" lon="3.70587">
        <ele>128.5</ele>
        <time>2011-01-09T10:37:08Z</time>
      </trkpt>
      <trkpt lat="43.59259" lon="3.70582">
        <ele>128.6</ele>
        <time>2011-01-09T10:37:10Z</time>
      </trkpt>
      <trkpt lat="43.59252" lon="3.70577">
        <ele>128.2</ele>
        <time>2011-01-09T10:37:12Z</time>
      </trkpt>
      <trkpt lat="43.59246" lon="3.70573">
        <ele>127.9</ele>
        <time>2011-01-09T10:37:14Z</time>
      </trkpt>
      <trkpt lat="43.59239" lon="3.70567">
        <ele>127.5</ele>
        <time>2011-01-09T10:37:16Z</time>
      </trkpt>
      <trkpt lat="43.59231" lon="3.70563">
        <ele>127.2</ele>
        <time>2011-01-09T10:37:18Z</time>
      </trkpt>
      <trkpt lat="43.59224" lon="3.70558">
        <ele>126.8</ele>
        <time>2011-01-09T10:37:20Z</time>
      </trkpt>
      <trkpt lat="43.59217" lon="3.70553">
        <ele>126.6</ele>
        <time>2011-01-09T10:37:22Z</time>
      </trkpt>
      <trkpt lat="43.59211" lon="3.70549">
        <ele>126.3</ele>
        <time>2011-01-09T10:37:24Z</time>
      </trkpt>
      <trkpt lat="43.59203" lon="3.70544">
        <ele>125.9</ele>
        <time>2011-01-09T10:37:26Z</time>
      </trkpt>
      <trkpt lat="43.59196" lon="3.7054">
        <ele>125.7</ele>
        <time>2011-01-09T10:37:28Z</time>
      </trkpt>
      <trkpt lat="43.59188" lon="3.70535">
        <ele>125.4</ele>
        <time>2011-01-09T10:37:30Z</time>
      </trkpt>
      <trkpt lat="43.5918" lon="3.70531">
        <ele>125.2</ele>
        <time>2011-01-09T10:37:32Z</time>
      </trkpt>
      <trkpt lat="43.59172" lon="3.70528">
        <ele>125.2</ele>
        <time>2011-01-09T10:37:34Z</time>
      </trkpt>
      <trkpt lat="43.59163" lon="3.70527">
        <ele>124.8</ele>
        <time>2011-01-09T10:37:36Z</time>
      </trkpt>
      <trkpt lat="43.59159" lon="3.70527">
        <ele>124.3</ele>
        <time>2011-01-09T10:37:37Z</time>
      </trkpt>
      <trkpt lat="43.5915" lon="3.70529">
        <ele>123.5</ele>
        <time>2011-01-09T10:37:39Z</time>
      </trkpt>
      <trkpt lat="43.59141" lon="3.70533">
        <ele>123.1</ele>
        <time>2011-01-09T10:37:41Z</time>
      </trkpt>
      <trkpt lat="43.59134" lon="3.70538">
        <ele>122.7</ele>
        <time>2011-01-09T10:37:43Z</time>
      </trkpt>
      <trkpt lat="43.59126" lon="3.70542">
        <ele>122.4</ele>
        <time>2011-01-09T10:37:45Z</time>
      </trkpt>
      <trkpt lat="43.59119" lon="3.70547">
        <ele>122.2</ele>
        <time>2011-01-09T10:37:47Z</time>
      </trkpt>
      <trkpt lat="43.59116" lon="3.70549">
        <ele>122.1</ele>
        <time>2011-01-09T10:37:48Z</time>
      </trkpt>
      <trkpt lat="43.59105" lon="3.70559">
        <ele>122.2</ele>
        <time>2011-01-09T10:37:51Z</time>
      </trkpt>
      <trkpt lat="43.59099" lon="3.70567">
        <ele>122.5</ele>
        <time>2011-01-09T10:37:53Z</time>
      </trkpt>
      <trkpt lat="43.59094" lon="3.70575">
        <ele>123</ele>
        <time>2011-01-09T10:37:55Z</time>
      </trkpt>
      <trkpt lat="43.59089" lon="3.70584">
        <ele>123.6</ele>
        <time>2011-01-09T10:37:57Z</time>
      </trkpt>
      <trkpt lat="43.59085" lon="3.70595">
        <ele>122.7</ele>
        <time>2011-01-09T10:37:59Z</time>
      </trkpt>
      <trkpt lat="43.59082" lon="3.70605">
        <ele>121.7</ele>
        <time>2011-01-09T10:38:01Z</time>
      </trkpt>
      <trkpt lat="43.5908" lon="3.70616">
        <ele>120.8</ele>
        <time>2011-01-09T10:38:03Z</time>
      </trkpt>
      <trkpt lat="43.59079" lon="3.70628">
        <ele>120.1</ele>
        <time>2011-01-09T10:38:05Z</time>
      </trkpt>
      <trkpt lat="43.5908" lon="3.70639">
        <ele>119.6</ele>
        <time>2011-01-09T10:38:07Z</time>
      </trkpt>
      <trkpt lat="43.59081" lon="3.70645">
        <ele>119.5</ele>
        <time>2011-01-09T10:38:08Z</time>
      </trkpt>
      <trkpt lat="43.59082" lon="3.70651">
        <ele>119.4</ele>
        <time>2011-01-09T10:38:09Z</time>
      </trkpt>
      <trkpt lat="43.59083" lon="3.70658">
        <ele>119.4</ele>
        <time>2011-01-09T10:38:10Z</time>
      </trkpt>
      <trkpt lat="43.59085" lon="3.70664">
        <ele>119.3</ele>
        <time>2011-01-09T10:38:11Z</time>
      </trkpt>
      <trkpt lat="43.59086" lon="3.70671">
        <ele>119.2</ele>
        <time>2011-01-09T10:38:12Z</time>
      </trkpt>
      <trkpt lat="43.59088" lon="3.70678">
        <ele>119</ele>
        <time>2011-01-09T10:38:13Z</time>
      </trkpt>
      <trkpt lat="43.59089" lon="3.70686">
        <ele>118.7</ele>
        <time>2011-01-09T10:38:14Z</time>
      </trkpt>
      <trkpt lat="43.5909" lon="3.70694">
        <ele>118.4</ele>
        <time>2011-01-09T10:38:15Z</time>
      </trkpt>
      <trkpt lat="43.5909" lon="3.70703">
        <ele>117.9</ele>
        <time>2011-01-09T10:38:16Z</time>
      </trkpt>
      <trkpt lat="43.59091" lon="3.70712">
        <ele>117.5</ele>
        <time>2011-01-09T10:38:17Z</time>
      </trkpt>
      <trkpt lat="43.59091" lon="3.70722">
        <ele>116.9</ele>
        <time>2011-01-09T10:38:18Z</time>
      </trkpt>
      <trkpt lat="43.59092" lon="3.70732">
        <ele>116.4</ele>
        <time>2011-01-09T10:38:19Z</time>
      </trkpt>
      <trkpt lat="43.59093" lon="3.70742">
        <ele>115.9</ele>
        <time>2011-01-09T10:38:20Z</time>
      </trkpt>
      <trkpt lat="43.59094" lon="3.70752">
        <ele>115.5</ele>
        <time>2011-01-09T10:38:21Z</time>
      </trkpt>
      <trkpt lat="43.59097" lon="3.70762">
        <ele>115.2</ele>
        <time>2011-01-09T10:38:22Z</time>
      </trkpt>
      <trkpt lat="43.591" lon="3.70772">
        <ele>114.9</ele>
        <time>2011-01-09T10:38:23Z</time>
      </trkpt>
      <trkpt lat="43.59104" lon="3.70782">
        <ele>114.6</ele>
        <time>2011-01-09T10:38:24Z</time>
      </trkpt>
      <trkpt lat="43.59108" lon="3.70791">
        <ele>114.3</ele>
        <time>2011-01-09T10:38:25Z</time>
      </trkpt>
      <trkpt lat="43.59113" lon="3.70801">
        <ele>113.8</ele>
        <time>2011-01-09T10:38:26Z</time>
      </trkpt>
      <trkpt lat="43.59117" lon="3.7081">
        <ele>113.3</ele>
        <time>2011-01-09T10:38:27Z</time>
      </trkpt>
      <trkpt lat="43.59121" lon="3.70819">
        <ele>112.7</ele>
        <time>2011-01-09T10:38:28Z</time>
      </trkpt>
      <trkpt lat="43.59126" lon="3.70828">
        <ele>112.1</ele>
        <time>2011-01-09T10:38:29Z</time>
      </trkpt>
      <trkpt lat="43.59131" lon="3.70836">
        <ele>111.7</ele>
        <time>2011-01-09T10:38:30Z</time>
      </trkpt>
      <trkpt lat="43.59137" lon="3.70843">
        <ele>111.8</ele>
        <time>2011-01-09T10:38:31Z</time>
      </trkpt>
      <trkpt lat="43.59144" lon="3.70848">
        <ele>112</ele>
        <time>2011-01-09T10:38:32Z</time>
      </trkpt>
      <trkpt lat="43.59152" lon="3.7085">
        <ele>112.4</ele>
        <time>2011-01-09T10:38:33Z</time>
      </trkpt>
      <trkpt lat="43.5916" lon="3.70851">
        <ele>112.8</ele>
        <time>2011-01-09T10:38:34Z</time>
      </trkpt>
      <trkpt lat="43.59169" lon="3.7085">
        <ele>113.2</ele>
        <time>2011-01-09T10:38:35Z</time>
      </trkpt>
      <trkpt lat="43.59178" lon="3.70849">
        <ele>113</ele>
        <time>2011-01-09T10:38:36Z</time>
      </trkpt>
      <trkpt lat="43.59187" lon="3.70846">
        <ele>112.9</ele>
        <time>2011-01-09T10:38:37Z</time>
      </trkpt>
      <trkpt lat="43.59195" lon="3.70843">
        <ele>112.7</ele>
        <time>2011-01-09T10:38:38Z</time>
      </trkpt>
      <trkpt lat="43.59203" lon="3.70841">
        <ele>112.6</ele>
        <time>2011-01-09T10:38:39Z</time>
      </trkpt>
      <trkpt lat="43.5921" lon="3.70839">
        <ele>112.4</ele>
        <time>2011-01-09T10:38:40Z</time>
      </trkpt>
      <trkpt lat="43.59217" lon="3.70838">
        <ele>112.2</ele>
        <time>2011-01-09T10:38:41Z</time>
      </trkpt>
      <trkpt lat="43.59222" lon="3.7084">
        <ele>112</ele>
        <time>2011-01-09T10:38:42Z</time>
      </trkpt>
      <trkpt lat="43.59228" lon="3.70846">
        <ele>111.8</ele>
        <time>2011-01-09T10:38:44Z</time>
      </trkpt>
      <trkpt lat="43.59228" lon="3.70857">
        <ele>111.9</ele>
        <time>2011-01-09T10:38:47Z</time>
      </trkpt>
      <trkpt lat="43.59221" lon="3.70865">
        <ele>112</ele>
        <time>2011-01-09T10:38:50Z</time>
      </trkpt>
      <trkpt lat="43.5922" lon="3.70869">
        <ele>112</ele>
        <time>2011-01-09T10:38:51Z</time>
      </trkpt>
      <trkpt lat="43.59237" lon="3.70863">
        <ele>111.9</ele>
        <time>2011-01-09T10:39:02Z</time>
      </trkpt>
      <trkpt lat="43.59245" lon="3.7086">
        <ele>111.7</ele>
        <time>2011-01-09T10:39:05Z</time>
      </trkpt>
      <trkpt lat="43.59252" lon="3.70858">
        <ele>111.6</ele>
        <time>2011-01-09T10:39:07Z</time>
      </trkpt>
      <trkpt lat="43.59258" lon="3.70858">
        <ele>111.8</ele>
        <time>2011-01-09T10:39:09Z</time>
      </trkpt>
      <trkpt lat="43.59264" lon="3.70858">
        <ele>112</ele>
        <time>2011-01-09T10:39:11Z</time>
      </trkpt>
      <trkpt lat="43.5927" lon="3.7086">
        <ele>112.2</ele>
        <time>2011-01-09T10:39:13Z</time>
      </trkpt>
      <trkpt lat="43.59278" lon="3.70866">
        <ele>112.5</ele>
        <time>2011-01-09T10:39:16Z</time>
      </trkpt>
      <trkpt lat="43.59284" lon="3.70875">
        <ele>112.6</ele>
        <time>2011-01-09T10:39:19Z</time>
      </trkpt>
      <trkpt lat="43.59288" lon="3.70885">
        <ele>112.6</ele>
        <time>2011-01-09T10:39:22Z</time>
      </trkpt>
      <trkpt lat="43.59289" lon="3.70897">
        <ele>112.6</ele>
        <time>2011-01-09T10:39:25Z</time>
      </trkpt>
      <trkpt lat="43.59289" lon="3.70905">
        <ele>112.6</ele>
        <time>2011-01-09T10:39:27Z</time>
      </trkpt>
      <trkpt lat="43.59289" lon="3.70914">
        <ele>112.5</ele>
        <time>2011-01-09T10:39:29Z</time>
      </trkpt>
      <trkpt lat="43.59289" lon="3.70926">
        <ele>113.4</ele>
        <time>2011-01-09T10:39:32Z</time>
      </trkpt>
      <trkpt lat="43.5929" lon="3.70935">
        <ele>114.2</ele>
        <time>2011-01-09T10:39:34Z</time>
      </trkpt>
      <trkpt lat="43.5929" lon="3.70943">
        <ele>114.9</ele>
        <time>2011-01-09T10:39:36Z</time>
      </trkpt>
      <trkpt lat="43.59291" lon="3.70955">
        <ele>116</ele>
        <time>2011-01-09T10:39:39Z</time>
      </trkpt>
      <trkpt lat="43.59292" lon="3.70967">
        <ele>117</ele>
        <time>2011-01-09T10:39:42Z</time>
      </trkpt>
      <trkpt lat="43.59295" lon="3.70978">
        <ele>117.8</ele>
        <time>2011-01-09T10:39:45Z</time>
      </trkpt>
      <trkpt lat="43.59299" lon="3.70986">
        <ele>118.1</ele>
        <time>2011-01-09T10:39:47Z</time>
      </trkpt>
      <trkpt lat="43.59302" lon="3.70993">
        <ele>118.4</ele>
        <time>2011-01-09T10:39:49Z</time>
      </trkpt>
      <trkpt lat="43.59306" lon="3.70999">
        <ele>118.5</ele>
        <time>2011-01-09T10:39:51Z</time>
      </trkpt>
      <trkpt lat="43.59309" lon="3.71002">
        <ele>118.6</ele>
        <time>2011-01-09T10:39:52Z</time>
      </trkpt>
      <trkpt lat="43.59316" lon="3.71009">
        <ele>119</ele>
        <time>2011-01-09T10:39:55Z</time>
      </trkpt>
      <trkpt lat="43.59322" lon="3.71014">
        <ele>119.2</ele>
        <time>2011-01-09T10:39:57Z</time>
      </trkpt>
      <trkpt lat="43.59327" lon="3.71018">
        <ele>119.5</ele>
        <time>2011-01-09T10:39:59Z</time>
      </trkpt>
      <trkpt lat="43.59332" lon="3.71023">
        <ele>119.6</ele>
        <time>2011-01-09T10:40:01Z</time>
      </trkpt>
      <trkpt lat="43.59338" lon="3.71024">
        <ele>119.7</ele>
        <time>2011-01-09T10:40:03Z</time>
      </trkpt>
      <trkpt lat="43.59345" lon="3.71022">
        <ele>119.4</ele>
        <time>2011-01-09T10:40:05Z</time>
      </trkpt>
      <trkpt lat="43.5935" lon="3.71018">
        <ele>118.8</ele>
        <time>2011-01-09T10:40:07Z</time>
      </trkpt>
      <trkpt lat="43.59356" lon="3.71015">
        <ele>118.3</ele>
        <time>2011-01-09T10:40:09Z</time>
      </trkpt>
      <trkpt lat="43.59362" lon="3.71012">
        <ele>118</ele>
        <time>2011-01-09T10:40:11Z</time>
      </trkpt>
      <trkpt lat="43.5937" lon="3.71011">
        <ele>117.8</ele>
        <time>2011-01-09T10:40:14Z</time>
      </trkpt>
      <trkpt lat="43.59379" lon="3.71011">
        <ele>117.9</ele>
        <time>2011-01-09T10:40:17Z</time>
      </trkpt>
      <trkpt lat="43.59388" lon="3.71014">
        <ele>118.3</ele>
        <time>2011-01-09T10:40:20Z</time>
      </trkpt>
      <trkpt lat="43.59395" lon="3.71019">
        <ele>118.8</ele>
        <time>2011-01-09T10:40:23Z</time>
      </trkpt>
      <trkpt lat="43.59403" lon="3.71026">
        <ele>119.6</ele>
        <time>2011-01-09T10:40:26Z</time>
      </trkpt>
      <trkpt lat="43.59407" lon="3.71033">
        <ele>120.3</ele>
        <time>2011-01-09T10:40:28Z</time>
      </trkpt>
      <trkpt lat="43.59409" lon="3.71041">
        <ele>121</ele>
        <time>2011-01-09T10:40:30Z</time>
      </trkpt>
      <trkpt lat="43.59412" lon="3.71052">
        <ele>122.2</ele>
        <time>2011-01-09T10:40:33Z</time>
      </trkpt>
      <trkpt lat="43.59413" lon="3.7106">
        <ele>122.9</ele>
        <time>2011-01-09T10:40:35Z</time>
      </trkpt>
      <trkpt lat="43.59416" lon="3.71072">
        <ele>124</ele>
        <time>2011-01-09T10:40:38Z</time>
      </trkpt>
      <trkpt lat="43.59419" lon="3.71083">
        <ele>124.9</ele>
        <time>2011-01-09T10:40:41Z</time>
      </trkpt>
      <trkpt lat="43.59425" lon="3.71091">
        <ele>126.5</ele>
        <time>2011-01-09T10:40:44Z</time>
      </trkpt>
      <trkpt lat="43.59433" lon="3.71096">
        <ele>127.3</ele>
        <time>2011-01-09T10:40:47Z</time>
      </trkpt>
      <trkpt lat="43.59441" lon="3.71099">
        <ele>127.4</ele>
        <time>2011-01-09T10:40:50Z</time>
      </trkpt>
      <trkpt lat="43.5945" lon="3.71098">
        <ele>126.9</ele>
        <time>2011-01-09T10:40:53Z</time>
      </trkpt>
      <trkpt lat="43.59453" lon="3.71098">
        <ele>126.7</ele>
        <time>2011-01-09T10:40:54Z</time>
      </trkpt>
      <trkpt lat="43.59466" lon="3.71095">
        <ele>125.4</ele>
        <time>2011-01-09T10:40:59Z</time>
      </trkpt>
      <trkpt lat="43.59474" lon="3.71093">
        <ele>124.6</ele>
        <time>2011-01-09T10:41:02Z</time>
      </trkpt>
      <trkpt lat="43.59482" lon="3.7109">
        <ele>123.8</ele>
        <time>2011-01-09T10:41:05Z</time>
      </trkpt>
      <trkpt lat="43.5949" lon="3.71089">
        <ele>123.3</ele>
        <time>2011-01-09T10:41:08Z</time>
      </trkpt>
      <trkpt lat="43.59497" lon="3.71087">
        <ele>122.7</ele>
        <time>2011-01-09T10:41:12Z</time>
      </trkpt>
      <trkpt lat="43.59505" lon="3.7109">
        <ele>123.1</ele>
        <time>2011-01-09T10:41:15Z</time>
      </trkpt>
      <trkpt lat="43.59512" lon="3.71095">
        <ele>123.9</ele>
        <time>2011-01-09T10:41:18Z</time>
      </trkpt>
      <trkpt lat="43.5952" lon="3.71101">
        <ele>124.8</ele>
        <time>2011-01-09T10:41:21Z</time>
      </trkpt>
      <trkpt lat="43.59526" lon="3.71107">
        <ele>125.6</ele>
        <time>2011-01-09T10:41:24Z</time>
      </trkpt>
      <trkpt lat="43.59532" lon="3.71114">
        <ele>126.4</ele>
        <time>2011-01-09T10:41:27Z</time>
      </trkpt>
      <trkpt lat="43.59537" lon="3.71121">
        <ele>127.2</ele>
        <time>2011-01-09T10:41:30Z</time>
      </trkpt>
      <trkpt lat="43.59542" lon="3.71128">
        <ele>127.8</ele>
        <time>2011-01-09T10:41:33Z</time>
      </trkpt>
      <trkpt lat="43.59547" lon="3.71136">
        <ele>128.5</ele>
        <time>2011-01-09T10:41:36Z</time>
      </trkpt>
      <trkpt lat="43.59551" lon="3.71144">
        <ele>129.1</ele>
        <time>2011-01-09T10:41:39Z</time>
      </trkpt>
      <trkpt lat="43.59555" lon="3.71152">
        <ele>129.7</ele>
        <time>2011-01-09T10:41:42Z</time>
      </trkpt>
      <trkpt lat="43.59558" lon="3.71161">
        <ele>130.3</ele>
        <time>2011-01-09T10:41:45Z</time>
      </trkpt>
      <trkpt lat="43.59562" lon="3.71171">
        <ele>130.7</ele>
        <time>2011-01-09T10:41:48Z</time>
      </trkpt>
      <trkpt lat="43.59566" lon="3.71181">
        <ele>130.8</ele>
        <time>2011-01-09T10:41:51Z</time>
      </trkpt>
      <trkpt lat="43.59569" lon="3.71192">
        <ele>130.8</ele>
        <time>2011-01-09T10:41:54Z</time>
      </trkpt>
      <trkpt lat="43.5957" lon="3.71196">
        <ele>130.8</ele>
        <time>2011-01-09T10:41:55Z</time>
      </trkpt>
      <trkpt lat="43.59573" lon="3.71215">
        <ele>130.9</ele>
        <time>2011-01-09T10:42:00Z</time>
      </trkpt>
      <trkpt lat="43.59574" lon="3.71226">
        <ele>131</ele>
        <time>2011-01-09T10:42:03Z</time>
      </trkpt>
      <trkpt lat="43.59575" lon="3.71237">
        <ele>131.1</ele>
        <time>2011-01-09T10:42:06Z</time>
      </trkpt>
      <trkpt lat="43.59576" lon="3.71248">
        <ele>131.2</ele>
        <time>2011-01-09T10:42:09Z</time>
      </trkpt>
      <trkpt lat="43.59577" lon="3.7126">
        <ele>131.5</ele>
        <time>2011-01-09T10:42:12Z</time>
      </trkpt>
      <trkpt lat="43.59577" lon="3.71271">
        <ele>131.8</ele>
        <time>2011-01-09T10:42:15Z</time>
      </trkpt>
      <trkpt lat="43.59577" lon="3.71282">
        <ele>132.2</ele>
        <time>2011-01-09T10:42:18Z</time>
      </trkpt>
      <trkpt lat="43.59576" lon="3.71293">
        <ele>132.7</ele>
        <time>2011-01-09T10:42:21Z</time>
      </trkpt>
      <trkpt lat="43.59575" lon="3.71304">
        <ele>133.2</ele>
        <time>2011-01-09T10:42:24Z</time>
      </trkpt>
      <trkpt lat="43.59574" lon="3.71315">
        <ele>133.8</ele>
        <time>2011-01-09T10:42:27Z</time>
      </trkpt>
      <trkpt lat="43.59573" lon="3.71326">
        <ele>134.4</ele>
        <time>2011-01-09T10:42:30Z</time>
      </trkpt>
      <trkpt lat="43.59571" lon="3.71337">
        <ele>135</ele>
        <time>2011-01-09T10:42:33Z</time>
      </trkpt>
      <trkpt lat="43.59571" lon="3.71348">
        <ele>135.3</ele>
        <time>2011-01-09T10:42:36Z</time>
      </trkpt>
      <trkpt lat="43.59571" lon="3.7136">
        <ele>135.5</ele>
        <time>2011-01-09T10:42:39Z</time>
      </trkpt>
      <trkpt lat="43.59571" lon="3.71371">
        <ele>135.6</ele>
        <time>2011-01-09T10:42:42Z</time>
      </trkpt>
      <trkpt lat="43.5957" lon="3.71381">
        <ele>136</ele>
        <time>2011-01-09T10:42:45Z</time>
      </trkpt>
      <trkpt lat="43.59568" lon="3.71392">
        <ele>136.4</ele>
        <time>2011-01-09T10:42:48Z</time>
      </trkpt>
      <trkpt lat="43.59566" lon="3.71402">
        <ele>136.9</ele>
        <time>2011-01-09T10:42:51Z</time>
      </trkpt>
      <trkpt lat="43.59563" lon="3.71413">
        <ele>137.3</ele>
        <time>2011-01-09T10:42:54Z</time>
      </trkpt>
      <trkpt lat="43.59561" lon="3.71423">
        <ele>137.9</ele>
        <time>2011-01-09T10:42:57Z</time>
      </trkpt>
      <trkpt lat="43.5956" lon="3.71426">
        <ele>138.2</ele>
        <time>2011-01-09T10:42:58Z</time>
      </trkpt>
      <trkpt lat="43.59557" lon="3.71443">
        <ele>139.1</ele>
        <time>2011-01-09T10:43:03Z</time>
      </trkpt>
      <trkpt lat="43.59555" lon="3.71453">
        <ele>139.5</ele>
        <time>2011-01-09T10:43:06Z</time>
      </trkpt>
      <trkpt lat="43.59553" lon="3.71463">
        <ele>140</ele>
        <time>2011-01-09T10:43:09Z</time>
      </trkpt>
      <trkpt lat="43.59551" lon="3.71474">
        <ele>140.5</ele>
        <time>2011-01-09T10:43:12Z</time>
      </trkpt>
      <trkpt lat="43.59549" lon="3.71484">
        <ele>140.9</ele>
        <time>2011-01-09T10:43:15Z</time>
      </trkpt>
      <trkpt lat="43.59546" lon="3.71495">
        <ele>141.2</ele>
        <time>2011-01-09T10:43:18Z</time>
      </trkpt>
      <trkpt lat="43.59543" lon="3.71506">
        <ele>141.7</ele>
        <time>2011-01-09T10:43:21Z</time>
      </trkpt>
      <trkpt lat="43.59541" lon="3.71517">
        <ele>142.2</ele>
        <time>2011-01-09T10:43:24Z</time>
      </trkpt>
      <trkpt lat="43.59538" lon="3.71528">
        <ele>142.7</ele>
        <time>2011-01-09T10:43:27Z</time>
      </trkpt>
      <trkpt lat="43.59536" lon="3.71539">
        <ele>143.1</ele>
        <time>2011-01-09T10:43:30Z</time>
      </trkpt>
      <trkpt lat="43.59534" lon="3.7155">
        <ele>143.5</ele>
        <time>2011-01-09T10:43:33Z</time>
      </trkpt>
      <trkpt lat="43.59532" lon="3.71561">
        <ele>143.8</ele>
        <time>2011-01-09T10:43:36Z</time>
      </trkpt>
      <trkpt lat="43.5953" lon="3.71572">
        <ele>144.1</ele>
        <time>2011-01-09T10:43:39Z</time>
      </trkpt>
      <trkpt lat="43.59527" lon="3.71584">
        <ele>144.3</ele>
        <time>2011-01-09T10:43:42Z</time>
      </trkpt>
      <trkpt lat="43.59525" lon="3.71594">
        <ele>144.7</ele>
        <time>2011-01-09T10:43:45Z</time>
      </trkpt>
      <trkpt lat="43.59522" lon="3.71605">
        <ele>145</ele>
        <time>2011-01-09T10:43:48Z</time>
      </trkpt>
      <trkpt lat="43.59519" lon="3.71615">
        <ele>145.2</ele>
        <time>2011-01-09T10:43:51Z</time>
      </trkpt>
      <trkpt lat="43.59516" lon="3.71625">
        <ele>145.5</ele>
        <time>2011-01-09T10:43:54Z</time>
      </trkpt>
      <trkpt lat="43.59512" lon="3.71635">
        <ele>145.6</ele>
        <time>2011-01-09T10:43:57Z</time>
      </trkpt>
      <trkpt lat="43.59509" lon="3.71646">
        <ele>145.8</ele>
        <time>2011-01-09T10:44:00Z</time>
      </trkpt>
      <trkpt lat="43.59508" lon="3.7165">
        <ele>145.9</ele>
        <time>2011-01-09T10:44:01Z</time>
      </trkpt>
      <trkpt lat="43.59501" lon="3.71666">
        <ele>146.1</ele>
        <time>2011-01-09T10:44:08Z</time>
      </trkpt>
      <trkpt lat="43.59497" lon="3.71675">
        <ele>146.3</ele>
        <time>2011-01-09T10:45:42Z</time>
      </trkpt>
      <trkpt lat="43.59496" lon="3.71677">
        <ele>146.4</ele>
        <time>2011-01-09T10:45:43Z</time>
      </trkpt>
      <trkpt lat="43.59491" lon="3.71696">
        <ele>147</ele>
        <time>2011-01-09T10:45:51Z</time>
      </trkpt>
      <trkpt lat="43.59491" lon="3.71707">
        <ele>147.2</ele>
        <time>2011-01-09T10:45:55Z</time>
      </trkpt>
      <trkpt lat="43.59491" lon="3.71719">
        <ele>147.5</ele>
        <time>2011-01-09T10:45:59Z</time>
      </trkpt>
      <trkpt lat="43.59488" lon="3.7173">
        <ele>147.8</ele>
        <time>2011-01-09T10:46:03Z</time>
      </trkpt>
      <trkpt lat="43.5948" lon="3.71733">
        <ele>148</ele>
        <time>2011-01-09T10:46:07Z</time>
      </trkpt>
      <trkpt lat="43.59473" lon="3.71734">
        <ele>148.1</ele>
        <time>2011-01-09T10:46:10Z</time>
      </trkpt>
      <trkpt lat="43.59465" lon="3.71735">
        <ele>148.3</ele>
        <time>2011-01-09T10:46:13Z</time>
      </trkpt>
      <trkpt lat="43.59458" lon="3.71735">
        <ele>148.4</ele>
        <time>2011-01-09T10:46:16Z</time>
      </trkpt>
      <trkpt lat="43.59451" lon="3.71736">
        <ele>148.6</ele>
        <time>2011-01-09T10:46:19Z</time>
      </trkpt>
      <trkpt lat="43.59444" lon="3.71737">
        <ele>148.7</ele>
        <time>2011-01-09T10:46:22Z</time>
      </trkpt>
      <trkpt lat="43.59437" lon="3.71738">
        <ele>148.8</ele>
        <time>2011-01-09T10:46:25Z</time>
      </trkpt>
      <trkpt lat="43.5943" lon="3.71739">
        <ele>148.9</ele>
        <time>2011-01-09T10:46:28Z</time>
      </trkpt>
      <trkpt lat="43.59423" lon="3.71741">
        <ele>149</ele>
        <time>2011-01-09T10:46:31Z</time>
      </trkpt>
      <trkpt lat="43.59416" lon="3.71742">
        <ele>149.1</ele>
        <time>2011-01-09T10:46:34Z</time>
      </trkpt>
      <trkpt lat="43.59409" lon="3.71743">
        <ele>149.2</ele>
        <time>2011-01-09T10:46:37Z</time>
      </trkpt>
      <trkpt lat="43.59402" lon="3.7174">
        <ele>149.4</ele>
        <time>2011-01-09T10:46:40Z</time>
      </trkpt>
      <trkpt lat="43.59396" lon="3.71735">
        <ele>149.5</ele>
        <time>2011-01-09T10:46:43Z</time>
      </trkpt>
      <trkpt lat="43.59394" lon="3.71732">
        <ele>149.6</ele>
        <time>2011-01-09T10:46:44Z</time>
      </trkpt>
      <trkpt lat="43.59385" lon="3.7172">
        <ele>150</ele>
        <time>2011-01-09T10:46:49Z</time>
      </trkpt>
      <trkpt lat="43.59379" lon="3.71715">
        <ele>150.3</ele>
        <time>2011-01-09T10:46:52Z</time>
      </trkpt>
      <trkpt lat="43.59371" lon="3.71716">
        <ele>150.4</ele>
        <time>2011-01-09T10:46:56Z</time>
      </trkpt>
      <trkpt lat="43.59365" lon="3.71726">
        <ele>150.3</ele>
        <time>2011-01-09T10:47:25Z</time>
      </trkpt>
      <trkpt lat="43.59358" lon="3.7173">
        <ele>150.3</ele>
        <time>2011-01-09T10:48:54Z</time>
      </trkpt>
      <trkpt lat="43.59356" lon="3.71731">
        <ele>150.3</ele>
        <time>2011-01-09T10:48:55Z</time>
      </trkpt>
      <trkpt lat="43.59343" lon="3.71734">
        <ele>150.4</ele>
        <time>2011-01-09T10:49:00Z</time>
      </trkpt>
      <trkpt lat="43.59336" lon="3.71735">
        <ele>150.5</ele>
        <time>2011-01-09T10:49:02Z</time>
      </trkpt>
      <trkpt lat="43.59329" lon="3.71737">
        <ele>150</ele>
        <time>2011-01-09T10:49:04Z</time>
      </trkpt>
      <trkpt lat="43.59324" lon="3.71738">
        <ele>149.6</ele>
        <time>2011-01-09T10:49:05Z</time>
      </trkpt>
      <trkpt lat="43.5932" lon="3.71738">
        <ele>149.1</ele>
        <time>2011-01-09T10:49:06Z</time>
      </trkpt>
      <trkpt lat="43.59315" lon="3.71739">
        <ele>148.6</ele>
        <time>2011-01-09T10:49:07Z</time>
      </trkpt>
      <trkpt lat="43.5931" lon="3.7174">
        <ele>148.1</ele>
        <time>2011-01-09T10:49:08Z</time>
      </trkpt>
      <trkpt lat="43.59304" lon="3.71741">
        <ele>147.6</ele>
        <time>2011-01-09T10:49:09Z</time>
      </trkpt>
      <trkpt lat="43.59298" lon="3.71741">
        <ele>147</ele>
        <time>2011-01-09T10:49:10Z</time>
      </trkpt>
      <trkpt lat="43.59292" lon="3.71741">
        <ele>146.4</ele>
        <time>2011-01-09T10:49:11Z</time>
      </trkpt>
      <trkpt lat="43.59285" lon="3.7174">
        <ele>145.9</ele>
        <time>2011-01-09T10:49:12Z</time>
      </trkpt>
      <trkpt lat="43.59278" lon="3.71739">
        <ele>145.3</ele>
        <time>2011-01-09T10:49:13Z</time>
      </trkpt>
      <trkpt lat="43.59271" lon="3.71736">
        <ele>144.7</ele>
        <time>2011-01-09T10:49:14Z</time>
      </trkpt>
      <trkpt lat="43.59264" lon="3.71734">
        <ele>144.3</ele>
        <time>2011-01-09T10:49:15Z</time>
      </trkpt>
      <trkpt lat="43.59257" lon="3.7173">
        <ele>143.9</ele>
        <time>2011-01-09T10:49:16Z</time>
      </trkpt>
      <trkpt lat="43.59251" lon="3.71725">
        <ele>143.5</ele>
        <time>2011-01-09T10:49:17Z</time>
      </trkpt>
      <trkpt lat="43.59244" lon="3.71722">
        <ele>143.2</ele>
        <time>2011-01-09T10:49:18Z</time>
      </trkpt>
      <trkpt lat="43.59237" lon="3.71718">
        <ele>142.9</ele>
        <time>2011-01-09T10:49:19Z</time>
      </trkpt>
      <trkpt lat="43.5923" lon="3.71716">
        <ele>142.4</ele>
        <time>2011-01-09T10:49:20Z</time>
      </trkpt>
      <trkpt lat="43.59223" lon="3.71714">
        <ele>141.9</ele>
        <time>2011-01-09T10:49:21Z</time>
      </trkpt>
      <trkpt lat="43.59215" lon="3.71712">
        <ele>141.4</ele>
        <time>2011-01-09T10:49:22Z</time>
      </trkpt>
      <trkpt lat="43.59207" lon="3.7171">
        <ele>140.8</ele>
        <time>2011-01-09T10:49:23Z</time>
      </trkpt>
      <trkpt lat="43.59199" lon="3.71708">
        <ele>140.2</ele>
        <time>2011-01-09T10:49:24Z</time>
      </trkpt>
      <trkpt lat="43.59191" lon="3.71706">
        <ele>139.7</ele>
        <time>2011-01-09T10:49:25Z</time>
      </trkpt>
      <trkpt lat="43.59183" lon="3.71703">
        <ele>139.1</ele>
        <time>2011-01-09T10:49:26Z</time>
      </trkpt>
      <trkpt lat="43.59175" lon="3.71701">
        <ele>138.5</ele>
        <time>2011-01-09T10:49:27Z</time>
      </trkpt>
      <trkpt lat="43.59166" lon="3.71699">
        <ele>137.8</ele>
        <time>2011-01-09T10:49:28Z</time>
      </trkpt>
      <trkpt lat="43.59158" lon="3.71697">
        <ele>137.1</ele>
        <time>2011-01-09T10:49:29Z</time>
      </trkpt>
      <trkpt lat="43.5915" lon="3.71697">
        <ele>136.3</ele>
        <time>2011-01-09T10:49:30Z</time>
      </trkpt>
      <trkpt lat="43.59141" lon="3.71697">
        <ele>135.5</ele>
        <time>2011-01-09T10:49:31Z</time>
      </trkpt>
      <trkpt lat="43.59132" lon="3.71698">
        <ele>134.7</ele>
        <time>2011-01-09T10:49:32Z</time>
      </trkpt>
      <trkpt lat="43.59123" lon="3.71698">
        <ele>133.9</ele>
        <time>2011-01-09T10:49:33Z</time>
      </trkpt>
      <trkpt lat="43.59114" lon="3.71697">
        <ele>133.1</ele>
        <time>2011-01-09T10:49:34Z</time>
      </trkpt>
      <trkpt lat="43.59106" lon="3.71694">
        <ele>132.4</ele>
        <time>2011-01-09T10:49:35Z</time>
      </trkpt>
      <trkpt lat="43.59097" lon="3.71692">
        <ele>131.7</ele>
        <time>2011-01-09T10:49:36Z</time>
      </trkpt>
      <trkpt lat="43.59089" lon="3.71689">
        <ele>131</ele>
        <time>2011-01-09T10:49:37Z</time>
      </trkpt>
      <trkpt lat="43.59082" lon="3.71688">
        <ele>130.4</ele>
        <time>2011-01-09T10:49:38Z</time>
      </trkpt>
      <trkpt lat="43.59074" lon="3.71693">
        <ele>130</ele>
        <time>2011-01-09T10:49:40Z</time>
      </trkpt>
      <trkpt lat="43.59072" lon="3.71704">
        <ele>129.7</ele>
        <time>2011-01-09T10:49:42Z</time>
      </trkpt>
      <trkpt lat="43.59073" lon="3.7171">
        <ele>129.6</ele>
        <time>2011-01-09T10:49:43Z</time>
      </trkpt>
      <trkpt lat="43.59073" lon="3.71717">
        <ele>129.4</ele>
        <time>2011-01-09T10:49:44Z</time>
      </trkpt>
      <trkpt lat="43.59073" lon="3.71724">
        <ele>129.3</ele>
        <time>2011-01-09T10:49:45Z</time>
      </trkpt>
      <trkpt lat="43.59073" lon="3.71731">
        <ele>129.1</ele>
        <time>2011-01-09T10:49:46Z</time>
      </trkpt>
      <trkpt lat="43.59072" lon="3.71739">
        <ele>128.8</ele>
        <time>2011-01-09T10:49:47Z</time>
      </trkpt>
      <trkpt lat="43.5907" lon="3.71747">
        <ele>128.6</ele>
        <time>2011-01-09T10:49:48Z</time>
      </trkpt>
      <trkpt lat="43.59069" lon="3.71755">
        <ele>128.4</ele>
        <time>2011-01-09T10:49:49Z</time>
      </trkpt>
      <trkpt lat="43.59067" lon="3.71763">
        <ele>128.1</ele>
        <time>2011-01-09T10:49:50Z</time>
      </trkpt>
      <trkpt lat="43.59065" lon="3.71771">
        <ele>127.9</ele>
        <time>2011-01-09T10:49:51Z</time>
      </trkpt>
      <trkpt lat="43.59062" lon="3.7178">
        <ele>127.6</ele>
        <time>2011-01-09T10:49:52Z</time>
      </trkpt>
      <trkpt lat="43.5906" lon="3.71788">
        <ele>127.4</ele>
        <time>2011-01-09T10:49:53Z</time>
      </trkpt>
      <trkpt lat="43.59056" lon="3.71796">
        <ele>127.1</ele>
        <time>2011-01-09T10:49:54Z</time>
      </trkpt>
      <trkpt lat="43.59053" lon="3.71804">
        <ele>126.8</ele>
        <time>2011-01-09T10:49:55Z</time>
      </trkpt>
      <trkpt lat="43.59049" lon="3.71812">
        <ele>126.6</ele>
        <time>2011-01-09T10:49:56Z</time>
      </trkpt>
      <trkpt lat="43.59046" lon="3.7182">
        <ele>126.3</ele>
        <time>2011-01-09T10:49:57Z</time>
      </trkpt>
      <trkpt lat="43.59042" lon="3.71829">
        <ele>126.1</ele>
        <time>2011-01-09T10:49:58Z</time>
      </trkpt>
      <trkpt lat="43.59038" lon="3.71836">
        <ele>125.8</ele>
        <time>2011-01-09T10:49:59Z</time>
      </trkpt>
      <trkpt lat="43.59033" lon="3.71844">
        <ele>125.5</ele>
        <time>2011-01-09T10:50:00Z</time>
      </trkpt>
      <trkpt lat="43.59028" lon="3.71851">
        <ele>125.2</ele>
        <time>2011-01-09T10:50:01Z</time>
      </trkpt>
      <trkpt lat="43.59023" lon="3.71858">
        <ele>125</ele>
        <time>2011-01-09T10:50:02Z</time>
      </trkpt>
      <trkpt lat="43.59017" lon="3.71864">
        <ele>124.7</ele>
        <time>2011-01-09T10:50:03Z</time>
      </trkpt>
      <trkpt lat="43.59011" lon="3.71869">
        <ele>124.4</ele>
        <time>2011-01-09T10:50:04Z</time>
      </trkpt>
      <trkpt lat="43.59006" lon="3.71874">
        <ele>124.2</ele>
        <time>2011-01-09T10:50:05Z</time>
      </trkpt>
      <trkpt lat="43.59001" lon="3.71877">
        <ele>124</ele>
        <time>2011-01-09T10:50:06Z</time>
      </trkpt>
      <trkpt lat="43.58996" lon="3.71881">
        <ele>123.7</ele>
        <time>2011-01-09T10:50:07Z</time>
      </trkpt>
      <trkpt lat="43.58992" lon="3.71885">
        <ele>123.5</ele>
        <time>2011-01-09T10:50:08Z</time>
      </trkpt>
      <trkpt lat="43.58987" lon="3.7189">
        <ele>123.2</ele>
        <time>2011-01-09T10:50:09Z</time>
      </trkpt>
      <trkpt lat="43.58983" lon="3.71894">
        <ele>123</ele>
        <time>2011-01-09T10:50:10Z</time>
      </trkpt>
      <trkpt lat="43.58978" lon="3.71899">
        <ele>122.8</ele>
        <time>2011-01-09T10:50:11Z</time>
      </trkpt>
      <trkpt lat="43.58974" lon="3.71902">
        <ele>122.6</ele>
        <time>2011-01-09T10:50:12Z</time>
      </trkpt>
      <trkpt lat="43.58969" lon="3.71905">
        <ele>122.4</ele>
        <time>2011-01-09T10:50:13Z</time>
      </trkpt>
      <trkpt lat="43.58965" lon="3.71908">
        <ele>122.3</ele>
        <time>2011-01-09T10:50:14Z</time>
      </trkpt>
      <trkpt lat="43.5896" lon="3.71912">
        <ele>122.1</ele>
        <time>2011-01-09T10:50:15Z</time>
      </trkpt>
      <trkpt lat="43.58956" lon="3.71915">
        <ele>122</ele>
        <time>2011-01-09T10:50:16Z</time>
      </trkpt>
      <trkpt lat="43.58952" lon="3.71918">
        <ele>121.8</ele>
        <time>2011-01-09T10:50:17Z</time>
      </trkpt>
      <trkpt lat="43.58947" lon="3.71921">
        <ele>121.7</ele>
        <time>2011-01-09T10:50:18Z</time>
      </trkpt>
      <trkpt lat="43.58943" lon="3.71925">
        <ele>121.6</ele>
        <time>2011-01-09T10:50:19Z</time>
      </trkpt>
      <trkpt lat="43.58938" lon="3.71928">
        <ele>121.5</ele>
        <time>2011-01-09T10:50:20Z</time>
      </trkpt>
      <trkpt lat="43.58933" lon="3.71932">
        <ele>121.4</ele>
        <time>2011-01-09T10:50:21Z</time>
      </trkpt>
      <trkpt lat="43.58929" lon="3.71935">
        <ele>121.3</ele>
        <time>2011-01-09T10:50:22Z</time>
      </trkpt>
      <trkpt lat="43.58924" lon="3.71938">
        <ele>121.2</ele>
        <time>2011-01-09T10:50:23Z</time>
      </trkpt>
      <trkpt lat="43.5892" lon="3.71941">
        <ele>121.1</ele>
        <time>2011-01-09T10:50:24Z</time>
      </trkpt>
      <trkpt lat="43.58915" lon="3.71944">
        <ele>121</ele>
        <time>2011-01-09T10:50:25Z</time>
      </trkpt>
      <trkpt lat="43.58911" lon="3.71947">
        <ele>120.9</ele>
        <time>2011-01-09T10:50:26Z</time>
      </trkpt>
      <trkpt lat="43.58906" lon="3.7195">
        <ele>120.8</ele>
        <time>2011-01-09T10:50:27Z</time>
      </trkpt>
      <trkpt lat="43.58902" lon="3.71954">
        <ele>120.7</ele>
        <time>2011-01-09T10:50:28Z</time>
      </trkpt>
      <trkpt lat="43.58897" lon="3.71957">
        <ele>120.6</ele>
        <time>2011-01-09T10:50:29Z</time>
      </trkpt>
      <trkpt lat="43.58892" lon="3.71961">
        <ele>120.6</ele>
        <time>2011-01-09T10:50:30Z</time>
      </trkpt>
      <trkpt lat="43.58888" lon="3.71964">
        <ele>120.5</ele>
        <time>2011-01-09T10:50:31Z</time>
      </trkpt>
      <trkpt lat="43.58883" lon="3.71967">
        <ele>120.4</ele>
        <time>2011-01-09T10:50:32Z</time>
      </trkpt>
      <trkpt lat="43.58878" lon="3.7197">
        <ele>120.4</ele>
        <time>2011-01-09T10:50:33Z</time>
      </trkpt>
      <trkpt lat="43.58874" lon="3.71973">
        <ele>120.3</ele>
        <time>2011-01-09T10:50:34Z</time>
      </trkpt>
      <trkpt lat="43.58869" lon="3.71976">
        <ele>120.3</ele>
        <time>2011-01-09T10:50:35Z</time>
      </trkpt>
      <trkpt lat="43.58865" lon="3.7198">
        <ele>120.2</ele>
        <time>2011-01-09T10:50:36Z</time>
      </trkpt>
      <trkpt lat="43.58861" lon="3.71983">
        <ele>120.2</ele>
        <time>2011-01-09T10:50:37Z</time>
      </trkpt>
      <trkpt lat="43.58856" lon="3.71986">
        <ele>120.2</ele>
        <time>2011-01-09T10:50:38Z</time>
      </trkpt>
      <trkpt lat="43.58852" lon="3.7199">
        <ele>120.1</ele>
        <time>2011-01-09T10:50:39Z</time>
      </trkpt>
      <trkpt lat="43.58849" lon="3.71994">
        <ele>120.1</ele>
        <time>2011-01-09T10:50:40Z</time>
      </trkpt>
      <trkpt lat="43.58846" lon="3.71998">
        <ele>120.1</ele>
        <time>2011-01-09T10:50:41Z</time>
      </trkpt>
      <trkpt lat="43.5884" lon="3.72008">
        <ele>120</ele>
        <time>2011-01-09T10:50:43Z</time>
      </trkpt>
      <trkpt lat="43.58835" lon="3.72016">
        <ele>119.8</ele>
        <time>2011-01-09T10:50:45Z</time>
      </trkpt>
      <trkpt lat="43.5883" lon="3.72021">
        <ele>119.7</ele>
        <time>2011-01-09T10:50:47Z</time>
      </trkpt>
      <trkpt lat="43.58823" lon="3.72027">
        <ele>119.5</ele>
        <time>2011-01-09T10:50:50Z</time>
      </trkpt>
      <trkpt lat="43.58816" lon="3.72033">
        <ele>119.4</ele>
        <time>2011-01-09T10:51:06Z</time>
      </trkpt>
      <trkpt lat="43.58815" lon="3.72034">
        <ele>119.4</ele>
        <time>2011-01-09T10:51:07Z</time>
      </trkpt>
      <trkpt lat="43.58803" lon="3.72045">
        <ele>119.1</ele>
        <time>2011-01-09T10:51:24Z</time>
      </trkpt>
      <trkpt lat="43.58797" lon="3.7205">
        <ele>119</ele>
        <time>2011-01-09T10:51:27Z</time>
      </trkpt>
      <trkpt lat="43.58792" lon="3.72055">
        <ele>118.8</ele>
        <time>2011-01-09T10:51:29Z</time>
      </trkpt>
      <trkpt lat="43.58786" lon="3.72059">
        <ele>118.7</ele>
        <time>2011-01-09T10:51:31Z</time>
      </trkpt>
      <trkpt lat="43.5878" lon="3.72063">
        <ele>118.6</ele>
        <time>2011-01-09T10:51:33Z</time>
      </trkpt>
      <trkpt lat="43.58773" lon="3.72065">
        <ele>118.5</ele>
        <time>2011-01-09T10:51:35Z</time>
      </trkpt>
      <trkpt lat="43.58765" lon="3.72067">
        <ele>118.4</ele>
        <time>2011-01-09T10:51:37Z</time>
      </trkpt>
      <trkpt lat="43.58758" lon="3.7207">
        <ele>118.3</ele>
        <time>2011-01-09T10:51:39Z</time>
      </trkpt>
      <trkpt lat="43.5875" lon="3.72074">
        <ele>118.1</ele>
        <time>2011-01-09T10:51:41Z</time>
      </trkpt>
      <trkpt lat="43.58744" lon="3.72079">
        <ele>118.1</ele>
        <time>2011-01-09T10:51:43Z</time>
      </trkpt>
      <trkpt lat="43.58737" lon="3.72085">
        <ele>118.2</ele>
        <time>2011-01-09T10:51:45Z</time>
      </trkpt>
      <trkpt lat="43.58729" lon="3.72091">
        <ele>118.4</ele>
        <time>2011-01-09T10:51:47Z</time>
      </trkpt>
      <trkpt lat="43.58722" lon="3.72095">
        <ele>118.6</ele>
        <time>2011-01-09T10:51:49Z</time>
      </trkpt>
      <trkpt lat="43.58715" lon="3.721">
        <ele>118.7</ele>
        <time>2011-01-09T10:51:51Z</time>
      </trkpt>
      <trkpt lat="43.58707" lon="3.72103">
        <ele>118.9</ele>
        <time>2011-01-09T10:51:53Z</time>
      </trkpt>
      <trkpt lat="43.58699" lon="3.72108">
        <ele>119</ele>
        <time>2011-01-09T10:51:55Z</time>
      </trkpt>
      <trkpt lat="43.58691" lon="3.72111">
        <ele>119.1</ele>
        <time>2011-01-09T10:51:57Z</time>
      </trkpt>
      <trkpt lat="43.58685" lon="3.72117">
        <ele>119.3</ele>
        <time>2011-01-09T10:51:59Z</time>
      </trkpt>
      <trkpt lat="43.58679" lon="3.72125">
        <ele>119.4</ele>
        <time>2011-01-09T10:52:01Z</time>
      </trkpt>
      <trkpt lat="43.58675" lon="3.72133">
        <ele>119.6</ele>
        <time>2011-01-09T10:52:03Z</time>
      </trkpt>
      <trkpt lat="43.58672" lon="3.72143">
        <ele>119.7</ele>
        <time>2011-01-09T10:52:05Z</time>
      </trkpt>
      <trkpt lat="43.58671" lon="3.72154">
        <ele>119.8</ele>
        <time>2011-01-09T10:52:07Z</time>
      </trkpt>
      <trkpt lat="43.5867" lon="3.72159">
        <ele>119.9</ele>
        <time>2011-01-09T10:52:08Z</time>
      </trkpt>
      <trkpt lat="43.58671" lon="3.72173">
        <ele>119.9</ele>
        <time>2011-01-09T10:52:11Z</time>
      </trkpt>
      <trkpt lat="43.58671" lon="3.72184">
        <ele>119.8</ele>
        <time>2011-01-09T10:52:14Z</time>
      </trkpt>
      <trkpt lat="43.58672" lon="3.72194">
        <ele>119.6</ele>
        <time>2011-01-09T10:52:17Z</time>
      </trkpt>
      <trkpt lat="43.58672" lon="3.72206">
        <ele>119.4</ele>
        <time>2011-01-09T10:52:20Z</time>
      </trkpt>
      <trkpt lat="43.58673" lon="3.72215">
        <ele>119.3</ele>
        <time>2011-01-09T10:52:22Z</time>
      </trkpt>
      <trkpt lat="43.58673" lon="3.72227">
        <ele>119.1</ele>
        <time>2011-01-09T10:52:28Z</time>
      </trkpt>
      <trkpt lat="43.58675" lon="3.72236">
        <ele>118.9</ele>
        <time>2011-01-09T10:52:36Z</time>
      </trkpt>
      <trkpt lat="43.58677" lon="3.72245">
        <ele>118.7</ele>
        <time>2011-01-09T10:52:38Z</time>
      </trkpt>
      <trkpt lat="43.58681" lon="3.72254">
        <ele>118.5</ele>
        <time>2011-01-09T10:52:40Z</time>
      </trkpt>
      <trkpt lat="43.58683" lon="3.72263">
        <ele>118.4</ele>
        <time>2011-01-09T10:52:42Z</time>
      </trkpt>
      <trkpt lat="43.58683" lon="3.72271">
        <ele>118.3</ele>
        <time>2011-01-09T10:52:44Z</time>
      </trkpt>
      <trkpt lat="43.58682" lon="3.72281">
        <ele>118.3</ele>
        <time>2011-01-09T10:52:47Z</time>
      </trkpt>
      <trkpt lat="43.58681" lon="3.72294">
        <ele>118.3</ele>
        <time>2011-01-09T10:52:55Z</time>
      </trkpt>
      <trkpt lat="43.58674" lon="3.72299">
        <ele>118.7</ele>
        <time>2011-01-09T10:52:59Z</time>
      </trkpt>
      <trkpt lat="43.58666" lon="3.72299">
        <ele>119</ele>
        <time>2011-01-09T10:53:02Z</time>
      </trkpt>
      <trkpt lat="43.58658" lon="3.72299">
        <ele>119.1</ele>
        <time>2011-01-09T10:53:05Z</time>
      </trkpt>
      <trkpt lat="43.58651" lon="3.72298">
        <ele>119.3</ele>
        <time>2011-01-09T10:53:08Z</time>
      </trkpt>
      <trkpt lat="43.58648" lon="3.72298">
        <ele>119.3</ele>
        <time>2011-01-09T10:53:09Z</time>
      </trkpt>
      <trkpt lat="43.58635" lon="3.72299">
        <ele>119.5</ele>
        <time>2011-01-09T10:53:14Z</time>
      </trkpt>
      <trkpt lat="43.58627" lon="3.72299">
        <ele>119.7</ele>
        <time>2011-01-09T10:53:17Z</time>
      </trkpt>
      <trkpt lat="43.58621" lon="3.72298">
        <ele>119.8</ele>
        <time>2011-01-09T10:53:19Z</time>
      </trkpt>
      <trkpt lat="43.58614" lon="3.72297">
        <ele>119.9</ele>
        <time>2011-01-09T10:53:21Z</time>
      </trkpt>
      <trkpt lat="43.58608" lon="3.72297">
        <ele>120</ele>
        <time>2011-01-09T10:53:23Z</time>
      </trkpt>
      <trkpt lat="43.58602" lon="3.72297">
        <ele>120.1</ele>
        <time>2011-01-09T10:53:25Z</time>
      </trkpt>
      <trkpt lat="43.58596" lon="3.72298">
        <ele>120.2</ele>
        <time>2011-01-09T10:53:27Z</time>
      </trkpt>
      <trkpt lat="43.5859" lon="3.72298">
        <ele>120.3</ele>
        <time>2011-01-09T10:53:29Z</time>
      </trkpt>
      <trkpt lat="43.58584" lon="3.72297">
        <ele>120.4</ele>
        <time>2011-01-09T10:53:31Z</time>
      </trkpt>
      <trkpt lat="43.58577" lon="3.72298">
        <ele>120.5</ele>
        <time>2011-01-09T10:53:33Z</time>
      </trkpt>
      <trkpt lat="43.58571" lon="3.72297">
        <ele>120.6</ele>
        <time>2011-01-09T10:53:35Z</time>
      </trkpt>
      <trkpt lat="43.58564" lon="3.72298">
        <ele>120.7</ele>
        <time>2011-01-09T10:53:37Z</time>
      </trkpt>
      <trkpt lat="43.58557" lon="3.72299">
        <ele>120.8</ele>
        <time>2011-01-09T10:53:39Z</time>
      </trkpt>
      <trkpt lat="43.58551" lon="3.72303">
        <ele>120.9</ele>
        <time>2011-01-09T10:53:41Z</time>
      </trkpt>
      <trkpt lat="43.58548" lon="3.72311">
        <ele>120.9</ele>
        <time>2011-01-09T10:53:43Z</time>
      </trkpt>
      <trkpt lat="43.58547" lon="3.72321">
        <ele>120.9</ele>
        <time>2011-01-09T10:53:45Z</time>
      </trkpt>
      <trkpt lat="43.58547" lon="3.72331">
        <ele>120.9</ele>
        <time>2011-01-09T10:53:47Z</time>
      </trkpt>
      <trkpt lat="43.58549" lon="3.7234">
        <ele>120.7</ele>
        <time>2011-01-09T10:53:49Z</time>
      </trkpt>
      <trkpt lat="43.58552" lon="3.7235">
        <ele>120.4</ele>
        <time>2011-01-09T10:53:51Z</time>
      </trkpt>
      <trkpt lat="43.58554" lon="3.7236">
        <ele>120.2</ele>
        <time>2011-01-09T10:53:53Z</time>
      </trkpt>
      <trkpt lat="43.58555" lon="3.72371">
        <ele>119.9</ele>
        <time>2011-01-09T10:53:55Z</time>
      </trkpt>
      <trkpt lat="43.58555" lon="3.72382">
        <ele>119.7</ele>
        <time>2011-01-09T10:53:57Z</time>
      </trkpt>
      <trkpt lat="43.58555" lon="3.72393">
        <ele>119.5</ele>
        <time>2011-01-09T10:53:59Z</time>
      </trkpt>
      <trkpt lat="43.58554" lon="3.72404">
        <ele>119.3</ele>
        <time>2011-01-09T10:54:01Z</time>
      </trkpt>
      <trkpt lat="43.58552" lon="3.72414">
        <ele>119.2</ele>
        <time>2011-01-09T10:54:03Z</time>
      </trkpt>
      <trkpt lat="43.58554" lon="3.72423">
        <ele>118.8</ele>
        <time>2011-01-09T10:54:05Z</time>
      </trkpt>
      <trkpt lat="43.58558" lon="3.72431">
        <ele>118.4</ele>
        <time>2011-01-09T10:54:07Z</time>
      </trkpt>
      <trkpt lat="43.58565" lon="3.72436">
        <ele>118</ele>
        <time>2011-01-09T10:54:09Z</time>
      </trkpt>
      <trkpt lat="43.58568" lon="3.72437">
        <ele>117.8</ele>
        <time>2011-01-09T10:54:10Z</time>
      </trkpt>
      <trkpt lat="43.5858" lon="3.72441">
        <ele>117.2</ele>
        <time>2011-01-09T10:54:15Z</time>
      </trkpt>
      <trkpt lat="43.58579" lon="3.72451">
        <ele>116.9</ele>
        <time>2011-01-09T10:54:18Z</time>
      </trkpt>
      <trkpt lat="43.58576" lon="3.72461">
        <ele>116.7</ele>
        <time>2011-01-09T10:54:20Z</time>
      </trkpt>
      <trkpt lat="43.58574" lon="3.72471">
        <ele>116.4</ele>
        <time>2011-01-09T10:54:22Z</time>
      </trkpt>
      <trkpt lat="43.58571" lon="3.7248">
        <ele>116.2</ele>
        <time>2011-01-09T10:54:24Z</time>
      </trkpt>
      <trkpt lat="43.58569" lon="3.72489">
        <ele>115.9</ele>
        <time>2011-01-09T10:54:26Z</time>
      </trkpt>
      <trkpt lat="43.58567" lon="3.72498">
        <ele>115.7</ele>
        <time>2011-01-09T10:54:28Z</time>
      </trkpt>
      <trkpt lat="43.58565" lon="3.72507">
        <ele>115.5</ele>
        <time>2011-01-09T10:54:30Z</time>
      </trkpt>
      <trkpt lat="43.58563" lon="3.72516">
        <ele>115.4</ele>
        <time>2011-01-09T10:54:32Z</time>
      </trkpt>
      <trkpt lat="43.5856" lon="3.72524">
        <ele>115.3</ele>
        <time>2011-01-09T10:54:34Z</time>
      </trkpt>
      <trkpt lat="43.58558" lon="3.72533">
        <ele>115.1</ele>
        <time>2011-01-09T10:54:36Z</time>
      </trkpt>
      <trkpt lat="43.58555" lon="3.72543">
        <ele>115</ele>
        <time>2011-01-09T10:54:38Z</time>
      </trkpt>
      <trkpt lat="43.58553" lon="3.72553">
        <ele>114.8</ele>
        <time>2011-01-09T10:54:40Z</time>
      </trkpt>
      <trkpt lat="43.5855" lon="3.72565">
        <ele>114.7</ele>
        <time>2011-01-09T10:54:42Z</time>
      </trkpt>
      <trkpt lat="43.58547" lon="3.72575">
        <ele>114.5</ele>
        <time>2011-01-09T10:54:44Z</time>
      </trkpt>
      <trkpt lat="43.58543" lon="3.72586">
        <ele>114.3</ele>
        <time>2011-01-09T10:54:47Z</time>
      </trkpt>
      <trkpt lat="43.58536" lon="3.72581">
        <ele>114.8</ele>
        <time>2011-01-09T10:54:54Z</time>
      </trkpt>
      <trkpt lat="43.58527" lon="3.72581">
        <ele>115.1</ele>
        <time>2011-01-09T10:55:00Z</time>
      </trkpt>
      <trkpt lat="43.5852" lon="3.72587">
        <ele>115</ele>
        <time>2011-01-09T10:55:04Z</time>
      </trkpt>
      <trkpt lat="43.58514" lon="3.72594">
        <ele>114.8</ele>
        <time>2011-01-09T10:55:07Z</time>
      </trkpt>
      <trkpt lat="43.5851" lon="3.72603">
        <ele>114.5</ele>
        <time>2011-01-09T10:55:10Z</time>
      </trkpt>
      <trkpt lat="43.58508" lon="3.72606">
        <ele>114.3</ele>
        <time>2011-01-09T10:55:11Z</time>
      </trkpt>
      <trkpt lat="43.58502" lon="3.7262">
        <ele>113.7</ele>
        <time>2011-01-09T10:55:15Z</time>
      </trkpt>
      <trkpt lat="43.58497" lon="3.72629">
        <ele>113.4</ele>
        <time>2011-01-09T10:55:18Z</time>
      </trkpt>
      <trkpt lat="43.58491" lon="3.72632">
        <ele>113.5</ele>
        <time>2011-01-09T10:55:20Z</time>
      </trkpt>
      <trkpt lat="43.58485" lon="3.72636">
        <ele>113.6</ele>
        <time>2011-01-09T10:55:22Z</time>
      </trkpt>
      <trkpt lat="43.5848" lon="3.72646">
        <ele>113.3</ele>
        <time>2011-01-09T10:55:25Z</time>
      </trkpt>
      <trkpt lat="43.58476" lon="3.72656">
        <ele>112.8</ele>
        <time>2011-01-09T10:55:28Z</time>
      </trkpt>
      <trkpt lat="43.58472" lon="3.72662">
        <ele>112.6</ele>
        <time>2011-01-09T10:55:30Z</time>
      </trkpt>
      <trkpt lat="43.58467" lon="3.72672">
        <ele>112.1</ele>
        <time>2011-01-09T10:55:33Z</time>
      </trkpt>
      <trkpt lat="43.58463" lon="3.72678">
        <ele>111.8</ele>
        <time>2011-01-09T10:55:35Z</time>
      </trkpt>
      <trkpt lat="43.58458" lon="3.72683">
        <ele>111.6</ele>
        <time>2011-01-09T10:55:37Z</time>
      </trkpt>
      <trkpt lat="43.58452" lon="3.72692">
        <ele>111.3</ele>
        <time>2011-01-09T10:55:40Z</time>
      </trkpt>
      <trkpt lat="43.58446" lon="3.72699">
        <ele>111</ele>
        <time>2011-01-09T10:55:43Z</time>
      </trkpt>
      <trkpt lat="43.58442" lon="3.72706">
        <ele>110.7</ele>
        <time>2011-01-09T10:55:45Z</time>
      </trkpt>
      <trkpt lat="43.58438" lon="3.72715">
        <ele>110.2</ele>
        <time>2011-01-09T10:55:47Z</time>
      </trkpt>
      <trkpt lat="43.58433" lon="3.72723">
        <ele>109.9</ele>
        <time>2011-01-09T10:55:49Z</time>
      </trkpt>
      <trkpt lat="43.58428" lon="3.72731">
        <ele>109.7</ele>
        <time>2011-01-09T10:55:51Z</time>
      </trkpt>
      <trkpt lat="43.58424" lon="3.7274">
        <ele>109.2</ele>
        <time>2011-01-09T10:55:53Z</time>
      </trkpt>
      <trkpt lat="43.58418" lon="3.72747">
        <ele>109.1</ele>
        <time>2011-01-09T10:55:55Z</time>
      </trkpt>
      <trkpt lat="43.58414" lon="3.72751">
        <ele>109</ele>
        <time>2011-01-09T10:55:56Z</time>
      </trkpt>
      <trkpt lat="43.58411" lon="3.72756">
        <ele>108.6</ele>
        <time>2011-01-09T10:55:57Z</time>
      </trkpt>
      <trkpt lat="43.58408" lon="3.72762">
        <ele>108.1</ele>
        <time>2011-01-09T10:55:58Z</time>
      </trkpt>
      <trkpt lat="43.58405" lon="3.72767">
        <ele>107.7</ele>
        <time>2011-01-09T10:55:59Z</time>
      </trkpt>
      <trkpt lat="43.58402" lon="3.72773">
        <ele>107.2</ele>
        <time>2011-01-09T10:56:00Z</time>
      </trkpt>
      <trkpt lat="43.58397" lon="3.72782">
        <ele>106.6</ele>
        <time>2011-01-09T10:56:02Z</time>
      </trkpt>
      <trkpt lat="43.58392" lon="3.72789">
        <ele>106.1</ele>
        <time>2011-01-09T10:56:04Z</time>
      </trkpt>
      <trkpt lat="43.58388" lon="3.72797">
        <ele>105.5</ele>
        <time>2011-01-09T10:56:06Z</time>
      </trkpt>
      <trkpt lat="43.58383" lon="3.72805">
        <ele>105.1</ele>
        <time>2011-01-09T10:56:08Z</time>
      </trkpt>
      <trkpt lat="43.58377" lon="3.72811">
        <ele>104.9</ele>
        <time>2011-01-09T10:56:10Z</time>
      </trkpt>
      <trkpt lat="43.58372" lon="3.72817">
        <ele>104.6</ele>
        <time>2011-01-09T10:56:12Z</time>
      </trkpt>
      <trkpt lat="43.5837" lon="3.72821">
        <ele>104.4</ele>
        <time>2011-01-09T10:56:13Z</time>
      </trkpt>
      <trkpt lat="43.58363" lon="3.72835">
        <ele>103.8</ele>
        <time>2011-01-09T10:56:16Z</time>
      </trkpt>
      <trkpt lat="43.58357" lon="3.72841">
        <ele>104</ele>
        <time>2011-01-09T10:56:18Z</time>
      </trkpt>
      <trkpt lat="43.58352" lon="3.72847">
        <ele>104</ele>
        <time>2011-01-09T10:56:20Z</time>
      </trkpt>
      <trkpt lat="43.58348" lon="3.72856">
        <ele>103.9</ele>
        <time>2011-01-09T10:56:23Z</time>
      </trkpt>
      <trkpt lat="43.58344" lon="3.72864">
        <ele>103.7</ele>
        <time>2011-01-09T10:56:26Z</time>
      </trkpt>
      <trkpt lat="43.58339" lon="3.72874">
        <ele>103.6</ele>
        <time>2011-01-09T10:56:29Z</time>
      </trkpt>
      <trkpt lat="43.58334" lon="3.72883">
        <ele>103.6</ele>
        <time>2011-01-09T10:56:33Z</time>
      </trkpt>
      <trkpt lat="43.58334" lon="3.72895">
        <ele>103</ele>
        <time>2011-01-09T10:56:37Z</time>
      </trkpt>
      <trkpt lat="43.58332" lon="3.72907">
        <ele>102.5</ele>
        <time>2011-01-09T10:56:40Z</time>
      </trkpt>
      <trkpt lat="43.58329" lon="3.72914">
        <ele>102.3</ele>
        <time>2011-01-09T10:56:42Z</time>
      </trkpt>
      <trkpt lat="43.58324" lon="3.72923">
        <ele>101.9</ele>
        <time>2011-01-09T10:56:50Z</time>
      </trkpt>
      <trkpt lat="43.58321" lon="3.72934">
        <ele>101.3</ele>
        <time>2011-01-09T10:57:03Z</time>
      </trkpt>
      <trkpt lat="43.58319" lon="3.72946">
        <ele>100.7</ele>
        <time>2011-01-09T10:57:14Z</time>
      </trkpt>
      <trkpt lat="43.58319" lon="3.72946">
        <ele>100.6</ele>
        <time>2011-01-09T10:57:15Z</time>
      </trkpt>
      <trkpt lat="43.58307" lon="3.7296">
        <ele>100.2</ele>
        <time>2011-01-09T10:57:26Z</time>
      </trkpt>
      <trkpt lat="43.58301" lon="3.72967">
        <ele>100</ele>
        <time>2011-01-09T10:57:30Z</time>
      </trkpt>
      <trkpt lat="43.58295" lon="3.72974">
        <ele>99.8</ele>
        <time>2011-01-09T10:57:33Z</time>
      </trkpt>
      <trkpt lat="43.5829" lon="3.72982">
        <ele>99.5</ele>
        <time>2011-01-09T10:57:35Z</time>
      </trkpt>
      <trkpt lat="43.58288" lon="3.72993">
        <ele>99</ele>
        <time>2011-01-09T10:57:38Z</time>
      </trkpt>
      <trkpt lat="43.58289" lon="3.73002">
        <ele>98.5</ele>
        <time>2011-01-09T10:57:40Z</time>
      </trkpt>
      <trkpt lat="43.58286" lon="3.73013">
        <ele>98.2</ele>
        <time>2011-01-09T10:57:43Z</time>
      </trkpt>
      <trkpt lat="43.58282" lon="3.7302">
        <ele>98</ele>
        <time>2011-01-09T10:57:45Z</time>
      </trkpt>
      <trkpt lat="43.58276" lon="3.73023">
        <ele>98.1</ele>
        <time>2011-01-09T10:57:47Z</time>
      </trkpt>
      <trkpt lat="43.58271" lon="3.73029">
        <ele>98.1</ele>
        <time>2011-01-09T10:57:49Z</time>
      </trkpt>
      <trkpt lat="43.58266" lon="3.73035">
        <ele>98.1</ele>
        <time>2011-01-09T10:57:51Z</time>
      </trkpt>
      <trkpt lat="43.58262" lon="3.73042">
        <ele>98</ele>
        <time>2011-01-09T10:57:53Z</time>
      </trkpt>
      <trkpt lat="43.58257" lon="3.7305">
        <ele>97.9</ele>
        <time>2011-01-09T10:57:55Z</time>
      </trkpt>
      <trkpt lat="43.58251" lon="3.73057">
        <ele>97.9</ele>
        <time>2011-01-09T10:57:57Z</time>
      </trkpt>
      <trkpt lat="43.58248" lon="3.73066">
        <ele>97.7</ele>
        <time>2011-01-09T10:58:00Z</time>
      </trkpt>
      <trkpt lat="43.58246" lon="3.73075">
        <ele>97.4</ele>
        <time>2011-01-09T10:58:02Z</time>
      </trkpt>
      <trkpt lat="43.58242" lon="3.73083">
        <ele>97.2</ele>
        <time>2011-01-09T10:58:04Z</time>
      </trkpt>
      <trkpt lat="43.58236" lon="3.73091">
        <ele>96.8</ele>
        <time>2011-01-09T10:58:06Z</time>
      </trkpt>
      <trkpt lat="43.58233" lon="3.73101">
        <ele>96.2</ele>
        <time>2011-01-09T10:58:08Z</time>
      </trkpt>
      <trkpt lat="43.58232" lon="3.7311">
        <ele>95.7</ele>
        <time>2011-01-09T10:58:10Z</time>
      </trkpt>
      <trkpt lat="43.58233" lon="3.73121">
        <ele>94.9</ele>
        <time>2011-01-09T10:58:13Z</time>
      </trkpt>
      <trkpt lat="43.58234" lon="3.7313">
        <ele>94.3</ele>
        <time>2011-01-09T10:58:15Z</time>
      </trkpt>
      <trkpt lat="43.58234" lon="3.73134">
        <ele>93.9</ele>
        <time>2011-01-09T10:58:16Z</time>
      </trkpt>
      <trkpt lat="43.58235" lon="3.73149">
        <ele>92.9</ele>
        <time>2011-01-09T10:58:19Z</time>
      </trkpt>
      <trkpt lat="43.58237" lon="3.73158">
        <ele>92.2</ele>
        <time>2011-01-09T10:58:21Z</time>
      </trkpt>
      <trkpt lat="43.58238" lon="3.73167">
        <ele>91.6</ele>
        <time>2011-01-09T10:58:23Z</time>
      </trkpt>
      <trkpt lat="43.58241" lon="3.73176">
        <ele>91.2</ele>
        <time>2011-01-09T10:58:25Z</time>
      </trkpt>
      <trkpt lat="43.58244" lon="3.73187">
        <ele>90.8</ele>
        <time>2011-01-09T10:58:28Z</time>
      </trkpt>
      <trkpt lat="43.58245" lon="3.73199">
        <ele>90.4</ele>
        <time>2011-01-09T10:58:31Z</time>
      </trkpt>
      <trkpt lat="43.58243" lon="3.73208">
        <ele>90.2</ele>
        <time>2011-01-09T10:58:33Z</time>
      </trkpt>
      <trkpt lat="43.58241" lon="3.73218">
        <ele>90</ele>
        <time>2011-01-09T10:58:35Z</time>
      </trkpt>
      <trkpt lat="43.5824" lon="3.73228">
        <ele>89.7</ele>
        <time>2011-01-09T10:58:37Z</time>
      </trkpt>
      <trkpt lat="43.58243" lon="3.73238">
        <ele>89.4</ele>
        <time>2011-01-09T10:58:39Z</time>
      </trkpt>
      <trkpt lat="43.58248" lon="3.73248">
        <ele>89.1</ele>
        <time>2011-01-09T10:58:41Z</time>
      </trkpt>
      <trkpt lat="43.58245" lon="3.73259">
        <ele>89.3</ele>
        <time>2011-01-09T10:58:44Z</time>
      </trkpt>
      <trkpt lat="43.58244" lon="3.7327">
        <ele>89.7</ele>
        <time>2011-01-09T10:58:47Z</time>
      </trkpt>
      <trkpt lat="43.5824" lon="3.7328">
        <ele>89.9</ele>
        <time>2011-01-09T10:58:50Z</time>
      </trkpt>
      <trkpt lat="43.58237" lon="3.7329">
        <ele>90.1</ele>
        <time>2011-01-09T10:58:57Z</time>
      </trkpt>
      <trkpt lat="43.58232" lon="3.73299">
        <ele>90.1</ele>
        <time>2011-01-09T10:59:08Z</time>
      </trkpt>
      <trkpt lat="43.58227" lon="3.73309">
        <ele>90</ele>
        <time>2011-01-09T10:59:12Z</time>
      </trkpt>
      <trkpt lat="43.58222" lon="3.73319">
        <ele>89.9</ele>
        <time>2011-01-09T10:59:17Z</time>
      </trkpt>
      <trkpt lat="43.58221" lon="3.7332">
        <ele>89.8</ele>
        <time>2011-01-09T10:59:18Z</time>
      </trkpt>
      <trkpt lat="43.58207" lon="3.73328">
        <ele>88.9</ele>
        <time>2011-01-09T11:02:48Z</time>
      </trkpt>
      <trkpt lat="43.58207" lon="3.73328">
        <ele>88.9</ele>
        <time>2011-01-09T11:02:49Z</time>
      </trkpt>
      <trkpt lat="43.58195" lon="3.73344">
        <ele>87.9</ele>
        <time>2011-01-09T11:03:11Z</time>
      </trkpt>
      <trkpt lat="43.58189" lon="3.7335">
        <ele>87.5</ele>
        <time>2011-01-09T11:03:14Z</time>
      </trkpt>
      <trkpt lat="43.58191" lon="3.73362">
        <ele>87.4</ele>
        <time>2011-01-09T11:03:27Z</time>
      </trkpt>
      <trkpt lat="43.58198" lon="3.73368">
        <ele>87.8</ele>
        <time>2011-01-09T11:03:36Z</time>
      </trkpt>
      <trkpt lat="43.582" lon="3.73378">
        <ele>87.8</ele>
        <time>2011-01-09T11:03:40Z</time>
      </trkpt>
      <trkpt lat="43.58204" lon="3.73385">
        <ele>87.8</ele>
        <time>2011-01-09T11:03:42Z</time>
      </trkpt>
      <trkpt lat="43.58208" lon="3.7339">
        <ele>88</ele>
        <time>2011-01-09T11:03:44Z</time>
      </trkpt>
      <trkpt lat="43.58212" lon="3.73397">
        <ele>88</ele>
        <time>2011-01-09T11:03:46Z</time>
      </trkpt>
      <trkpt lat="43.58218" lon="3.73401">
        <ele>88.2</ele>
        <time>2011-01-09T11:03:48Z</time>
      </trkpt>
      <trkpt lat="43.58224" lon="3.73404">
        <ele>88.4</ele>
        <time>2011-01-09T11:03:50Z</time>
      </trkpt>
      <trkpt lat="43.58227" lon="3.73405">
        <ele>88.5</ele>
        <time>2011-01-09T11:03:51Z</time>
      </trkpt>
      <trkpt lat="43.58235" lon="3.7342">
        <ele>88.2</ele>
        <time>2011-01-09T11:03:55Z</time>
      </trkpt>
      <trkpt lat="43.58237" lon="3.73427">
        <ele>87.8</ele>
        <time>2011-01-09T11:03:56Z</time>
      </trkpt>
      <trkpt lat="43.5824" lon="3.73437">
        <ele>87</ele>
        <time>2011-01-09T11:03:58Z</time>
      </trkpt>
      <trkpt lat="43.58246" lon="3.73444">
        <ele>86.4</ele>
        <time>2011-01-09T11:04:04Z</time>
      </trkpt>
      <trkpt lat="43.58252" lon="3.7345">
        <ele>86</ele>
        <time>2011-01-09T11:04:07Z</time>
      </trkpt>
      <trkpt lat="43.58257" lon="3.73459">
        <ele>86</ele>
        <time>2011-01-09T11:04:15Z</time>
      </trkpt>
      <trkpt lat="43.5826" lon="3.7347">
        <ele>85.4</ele>
        <time>2011-01-09T11:04:29Z</time>
      </trkpt>
      <trkpt lat="43.58259" lon="3.73483">
        <ele>84.2</ele>
        <time>2011-01-09T11:04:33Z</time>
      </trkpt>
      <trkpt lat="43.58259" lon="3.73495">
        <ele>83.1</ele>
        <time>2011-01-09T11:04:36Z</time>
      </trkpt>
      <trkpt lat="43.58263" lon="3.73502">
        <ele>83.1</ele>
        <time>2011-01-09T11:04:39Z</time>
      </trkpt>
      <trkpt lat="43.58268" lon="3.73512">
        <ele>83.7</ele>
        <time>2011-01-09T11:04:42Z</time>
      </trkpt>
      <trkpt lat="43.58273" lon="3.73518">
        <ele>84.3</ele>
        <time>2011-01-09T11:04:44Z</time>
      </trkpt>
      <trkpt lat="43.58278" lon="3.73528">
        <ele>84.8</ele>
        <time>2011-01-09T11:04:47Z</time>
      </trkpt>
      <trkpt lat="43.58283" lon="3.73537">
        <ele>85.2</ele>
        <time>2011-01-09T11:04:51Z</time>
      </trkpt>
      <trkpt lat="43.58283" lon="3.7354">
        <ele>85.2</ele>
        <time>2011-01-09T11:04:52Z</time>
      </trkpt>
      <trkpt lat="43.58286" lon="3.73559">
        <ele>85.1</ele>
        <time>2011-01-09T11:04:57Z</time>
      </trkpt>
      <trkpt lat="43.58287" lon="3.73571">
        <ele>84.8</ele>
        <time>2011-01-09T11:05:00Z</time>
      </trkpt>
      <trkpt lat="43.58286" lon="3.73581">
        <ele>84.3</ele>
        <time>2011-01-09T11:05:02Z</time>
      </trkpt>
      <trkpt lat="43.58283" lon="3.73589">
        <ele>83.8</ele>
        <time>2011-01-09T11:05:04Z</time>
      </trkpt>
      <trkpt lat="43.58282" lon="3.73599">
        <ele>83.6</ele>
        <time>2011-01-09T11:05:06Z</time>
      </trkpt>
      <trkpt lat="43.58279" lon="3.73609">
        <ele>83.2</ele>
        <time>2011-01-09T11:05:08Z</time>
      </trkpt>
      <trkpt lat="43.58277" lon="3.73619">
        <ele>82.8</ele>
        <time>2011-01-09T11:05:10Z</time>
      </trkpt>
      <trkpt lat="43.58274" lon="3.73629">
        <ele>82.2</ele>
        <time>2011-01-09T11:05:12Z</time>
      </trkpt>
      <trkpt lat="43.58269" lon="3.73636">
        <ele>81.4</ele>
        <time>2011-01-09T11:05:14Z</time>
      </trkpt>
      <trkpt lat="43.58265" lon="3.73645">
        <ele>80.5</ele>
        <time>2011-01-09T11:05:16Z</time>
      </trkpt>
      <trkpt lat="43.58263" lon="3.73654">
        <ele>79.9</ele>
        <time>2011-01-09T11:05:18Z</time>
      </trkpt>
      <trkpt lat="43.5826" lon="3.73662">
        <ele>79.2</ele>
        <time>2011-01-09T11:05:20Z</time>
      </trkpt>
      <trkpt lat="43.58258" lon="3.7367">
        <ele>78.8</ele>
        <time>2011-01-09T11:05:22Z</time>
      </trkpt>
      <trkpt lat="43.58255" lon="3.73682">
        <ele>78.3</ele>
        <time>2011-01-09T11:05:25Z</time>
      </trkpt>
      <trkpt lat="43.5825" lon="3.7369">
        <ele>77.3</ele>
        <time>2011-01-09T11:05:28Z</time>
      </trkpt>
      <trkpt lat="43.58245" lon="3.73694">
        <ele>77.2</ele>
        <time>2011-01-09T11:05:30Z</time>
      </trkpt>
      <trkpt lat="43.58239" lon="3.73699">
        <ele>77</ele>
        <time>2011-01-09T11:05:32Z</time>
      </trkpt>
      <trkpt lat="43.58232" lon="3.73702">
        <ele>76.7</ele>
        <time>2011-01-09T11:05:35Z</time>
      </trkpt>
      <trkpt lat="43.58224" lon="3.73707">
        <ele>76.3</ele>
        <time>2011-01-09T11:05:38Z</time>
      </trkpt>
      <trkpt lat="43.58215" lon="3.73711">
        <ele>75.7</ele>
        <time>2011-01-09T11:05:41Z</time>
      </trkpt>
      <trkpt lat="43.5821" lon="3.73716">
        <ele>75.2</ele>
        <time>2011-01-09T11:05:43Z</time>
      </trkpt>
      <trkpt lat="43.58203" lon="3.73719">
        <ele>74.6</ele>
        <time>2011-01-09T11:05:45Z</time>
      </trkpt>
      <trkpt lat="43.58196" lon="3.73723">
        <ele>74</ele>
        <time>2011-01-09T11:05:47Z</time>
      </trkpt>
      <trkpt lat="43.5819" lon="3.73727">
        <ele>73.2</ele>
        <time>2011-01-09T11:05:49Z</time>
      </trkpt>
      <trkpt lat="43.58184" lon="3.73731">
        <ele>72.4</ele>
        <time>2011-01-09T11:05:51Z</time>
      </trkpt>
      <trkpt lat="43.58178" lon="3.73736">
        <ele>71.5</ele>
        <time>2011-01-09T11:05:53Z</time>
      </trkpt>
      <trkpt lat="43.58174" lon="3.73739">
        <ele>70.8</ele>
        <time>2011-01-09T11:05:54Z</time>
      </trkpt>
      <trkpt lat="43.58163" lon="3.73745">
        <ele>69.5</ele>
        <time>2011-01-09T11:05:57Z</time>
      </trkpt>
      <trkpt lat="43.58156" lon="3.73748">
        <ele>69.1</ele>
        <time>2011-01-09T11:05:59Z</time>
      </trkpt>
      <trkpt lat="43.5815" lon="3.7375">
        <ele>68.8</ele>
        <time>2011-01-09T11:06:01Z</time>
      </trkpt>
      <trkpt lat="43.58144" lon="3.73753">
        <ele>68.9</ele>
        <time>2011-01-09T11:06:03Z</time>
      </trkpt>
      <trkpt lat="43.58135" lon="3.73756">
        <ele>69</ele>
        <time>2011-01-09T11:06:06Z</time>
      </trkpt>
      <trkpt lat="43.58129" lon="3.73757">
        <ele>69.1</ele>
        <time>2011-01-09T11:06:08Z</time>
      </trkpt>
      <trkpt lat="43.58122" lon="3.73758">
        <ele>69.1</ele>
        <time>2011-01-09T11:06:10Z</time>
      </trkpt>
      <trkpt lat="43.58116" lon="3.73759">
        <ele>69.1</ele>
        <time>2011-01-09T11:06:12Z</time>
      </trkpt>
      <trkpt lat="43.58109" lon="3.73761">
        <ele>69.1</ele>
        <time>2011-01-09T11:06:14Z</time>
      </trkpt>
      <trkpt lat="43.58101" lon="3.73762">
        <ele>69.1</ele>
        <time>2011-01-09T11:06:16Z</time>
      </trkpt>
      <trkpt lat="43.58094" lon="3.73764">
        <ele>69.1</ele>
        <time>2011-01-09T11:06:18Z</time>
      </trkpt>
      <trkpt lat="43.58087" lon="3.73767">
        <ele>69.2</ele>
        <time>2011-01-09T11:06:20Z</time>
      </trkpt>
      <trkpt lat="43.58079" lon="3.73769">
        <ele>69.6</ele>
        <time>2011-01-09T11:06:22Z</time>
      </trkpt>
      <trkpt lat="43.58073" lon="3.73774">
        <ele>70.2</ele>
        <time>2011-01-09T11:06:24Z</time>
      </trkpt>
      <trkpt lat="43.58069" lon="3.73783">
        <ele>70.8</ele>
        <time>2011-01-09T11:06:26Z</time>
      </trkpt>
      <trkpt lat="43.58064" lon="3.73791">
        <ele>71.3</ele>
        <time>2011-01-09T11:06:28Z</time>
      </trkpt>
      <trkpt lat="43.58057" lon="3.73797">
        <ele>71.7</ele>
        <time>2011-01-09T11:06:30Z</time>
      </trkpt>
      <trkpt lat="43.58053" lon="3.73798">
        <ele>71.8</ele>
        <time>2011-01-09T11:06:31Z</time>
      </trkpt>
      <trkpt lat="43.58049" lon="3.738">
        <ele>71.9</ele>
        <time>2011-01-09T11:06:32Z</time>
      </trkpt>
      <trkpt lat="43.58044" lon="3.73803">
        <ele>71.9</ele>
        <time>2011-01-09T11:06:33Z</time>
      </trkpt>
      <trkpt lat="43.58041" lon="3.73807">
        <ele>72</ele>
        <time>2011-01-09T11:06:34Z</time>
      </trkpt>
      <trkpt lat="43.58037" lon="3.73811">
        <ele>72.1</ele>
        <time>2011-01-09T11:06:35Z</time>
      </trkpt>
      <trkpt lat="43.58033" lon="3.73816">
        <ele>72.1</ele>
        <time>2011-01-09T11:06:36Z</time>
      </trkpt>
      <trkpt lat="43.5803" lon="3.73821">
        <ele>72</ele>
        <time>2011-01-09T11:06:37Z</time>
      </trkpt>
      <trkpt lat="43.58027" lon="3.73826">
        <ele>72</ele>
        <time>2011-01-09T11:06:38Z</time>
      </trkpt>
      <trkpt lat="43.58024" lon="3.73831">
        <ele>71.9</ele>
        <time>2011-01-09T11:06:39Z</time>
      </trkpt>
      <trkpt lat="43.58021" lon="3.73836">
        <ele>71.9</ele>
        <time>2011-01-09T11:06:40Z</time>
      </trkpt>
      <trkpt lat="43.58018" lon="3.73841">
        <ele>72</ele>
        <time>2011-01-09T11:06:41Z</time>
      </trkpt>
      <trkpt lat="43.58014" lon="3.73852">
        <ele>72.3</ele>
        <time>2011-01-09T11:06:43Z</time>
      </trkpt>
      <trkpt lat="43.5801" lon="3.73862">
        <ele>72.4</ele>
        <time>2011-01-09T11:06:45Z</time>
      </trkpt>
      <trkpt lat="43.58005" lon="3.73873">
        <ele>72.4</ele>
        <time>2011-01-09T11:06:47Z</time>
      </trkpt>
      <trkpt lat="43.58001" lon="3.73883">
        <ele>72.2</ele>
        <time>2011-01-09T11:06:49Z</time>
      </trkpt>
      <trkpt lat="43.57995" lon="3.73892">
        <ele>72.5</ele>
        <time>2011-01-09T11:06:51Z</time>
      </trkpt>
      <trkpt lat="43.57991" lon="3.73902">
        <ele>72.6</ele>
        <time>2011-01-09T11:06:53Z</time>
      </trkpt>
      <trkpt lat="43.57989" lon="3.73908">
        <ele>72.7</ele>
        <time>2011-01-09T11:06:54Z</time>
      </trkpt>
      <trkpt lat="43.57987" lon="3.73914">
        <ele>72.7</ele>
        <time>2011-01-09T11:06:55Z</time>
      </trkpt>
      <trkpt lat="43.57983" lon="3.73925">
        <ele>72.7</ele>
        <time>2011-01-09T11:06:57Z</time>
      </trkpt>
      <trkpt lat="43.57979" lon="3.73935">
        <ele>72.8</ele>
        <time>2011-01-09T11:06:59Z</time>
      </trkpt>
      <trkpt lat="43.57977" lon="3.7394">
        <ele>72.7</ele>
        <time>2011-01-09T11:07:00Z</time>
      </trkpt>
      <trkpt lat="43.57974" lon="3.73945">
        <ele>72.6</ele>
        <time>2011-01-09T11:07:01Z</time>
      </trkpt>
      <trkpt lat="43.57971" lon="3.7395">
        <ele>72.5</ele>
        <time>2011-01-09T11:07:02Z</time>
      </trkpt>
      <trkpt lat="43.57968" lon="3.73955">
        <ele>72.4</ele>
        <time>2011-01-09T11:07:03Z</time>
      </trkpt>
      <trkpt lat="43.57962" lon="3.73965">
        <ele>72</ele>
        <time>2011-01-09T11:07:05Z</time>
      </trkpt>
      <trkpt lat="43.57959" lon="3.73969">
        <ele>71.7</ele>
        <time>2011-01-09T11:07:06Z</time>
      </trkpt>
      <trkpt lat="43.57953" lon="3.73978">
        <ele>71.2</ele>
        <time>2011-01-09T11:07:08Z</time>
      </trkpt>
      <trkpt lat="43.5795" lon="3.73988">
        <ele>70.7</ele>
        <time>2011-01-09T11:07:10Z</time>
      </trkpt>
      <trkpt lat="43.57946" lon="3.74">
        <ele>70.2</ele>
        <time>2011-01-09T11:07:12Z</time>
      </trkpt>
      <trkpt lat="43.57942" lon="3.7401">
        <ele>70.4</ele>
        <time>2011-01-09T11:07:14Z</time>
      </trkpt>
      <trkpt lat="43.57938" lon="3.74021">
        <ele>70.6</ele>
        <time>2011-01-09T11:07:16Z</time>
      </trkpt>
      <trkpt lat="43.57932" lon="3.74026">
        <ele>70.2</ele>
        <time>2011-01-09T11:07:18Z</time>
      </trkpt>
      <trkpt lat="43.57924" lon="3.74028">
        <ele>69.5</ele>
        <time>2011-01-09T11:07:20Z</time>
      </trkpt>
      <trkpt lat="43.57916" lon="3.74028">
        <ele>68.7</ele>
        <time>2011-01-09T11:07:22Z</time>
      </trkpt>
      <trkpt lat="43.57908" lon="3.74026">
        <ele>68.5</ele>
        <time>2011-01-09T11:07:24Z</time>
      </trkpt>
      <trkpt lat="43.57904" lon="3.74025">
        <ele>68.5</ele>
        <time>2011-01-09T11:07:25Z</time>
      </trkpt>
      <trkpt lat="43.57899" lon="3.74025">
        <ele>68.4</ele>
        <time>2011-01-09T11:07:26Z</time>
      </trkpt>
      <trkpt lat="43.57894" lon="3.74024">
        <ele>68.4</ele>
        <time>2011-01-09T11:07:27Z</time>
      </trkpt>
      <trkpt lat="43.57889" lon="3.74025">
        <ele>68.4</ele>
        <time>2011-01-09T11:07:28Z</time>
      </trkpt>
      <trkpt lat="43.57884" lon="3.74026">
        <ele>68.4</ele>
        <time>2011-01-09T11:07:29Z</time>
      </trkpt>
      <trkpt lat="43.57879" lon="3.74027">
        <ele>68.3</ele>
        <time>2011-01-09T11:07:30Z</time>
      </trkpt>
      <trkpt lat="43.57874" lon="3.74028">
        <ele>68.3</ele>
        <time>2011-01-09T11:07:31Z</time>
      </trkpt>
      <trkpt lat="43.57865" lon="3.7403">
        <ele>68.3</ele>
        <time>2011-01-09T11:07:33Z</time>
      </trkpt>
      <trkpt lat="43.57858" lon="3.74033">
        <ele>68.2</ele>
        <time>2011-01-09T11:07:35Z</time>
      </trkpt>
      <trkpt lat="43.57851" lon="3.74037">
        <ele>68</ele>
        <time>2011-01-09T11:07:37Z</time>
      </trkpt>
      <trkpt lat="43.57843" lon="3.74043">
        <ele>67.7</ele>
        <time>2011-01-09T11:07:39Z</time>
      </trkpt>
      <trkpt lat="43.57839" lon="3.74047">
        <ele>67.5</ele>
        <time>2011-01-09T11:07:40Z</time>
      </trkpt>
      <trkpt lat="43.57835" lon="3.74051">
        <ele>67.2</ele>
        <time>2011-01-09T11:07:41Z</time>
      </trkpt>
      <trkpt lat="43.57831" lon="3.74054">
        <ele>67.2</ele>
        <time>2011-01-09T11:07:42Z</time>
      </trkpt>
      <trkpt lat="43.57827" lon="3.74058">
        <ele>67.2</ele>
        <time>2011-01-09T11:07:43Z</time>
      </trkpt>
      <trkpt lat="43.57823" lon="3.74062">
        <ele>67.3</ele>
        <time>2011-01-09T11:07:44Z</time>
      </trkpt>
      <trkpt lat="43.57818" lon="3.74066">
        <ele>67.2</ele>
        <time>2011-01-09T11:07:45Z</time>
      </trkpt>
      <trkpt lat="43.57814" lon="3.74071">
        <ele>67.1</ele>
        <time>2011-01-09T11:07:46Z</time>
      </trkpt>
      <trkpt lat="43.5781" lon="3.74076">
        <ele>67</ele>
        <time>2011-01-09T11:07:47Z</time>
      </trkpt>
      <trkpt lat="43.57806" lon="3.74081">
        <ele>66.8</ele>
        <time>2011-01-09T11:07:48Z</time>
      </trkpt>
      <trkpt lat="43.57802" lon="3.74086">
        <ele>66.7</ele>
        <time>2011-01-09T11:07:49Z</time>
      </trkpt>
      <trkpt lat="43.57798" lon="3.74092">
        <ele>66.7</ele>
        <time>2011-01-09T11:07:50Z</time>
      </trkpt>
      <trkpt lat="43.57793" lon="3.74097">
        <ele>66.6</ele>
        <time>2011-01-09T11:07:51Z</time>
      </trkpt>
      <trkpt lat="43.57789" lon="3.74102">
        <ele>66.4</ele>
        <time>2011-01-09T11:07:52Z</time>
      </trkpt>
      <trkpt lat="43.57784" lon="3.74108">
        <ele>66.2</ele>
        <time>2011-01-09T11:07:53Z</time>
      </trkpt>
      <trkpt lat="43.57781" lon="3.74113">
        <ele>65.8</ele>
        <time>2011-01-09T11:07:54Z</time>
      </trkpt>
      <trkpt lat="43.57778" lon="3.74119">
        <ele>65.5</ele>
        <time>2011-01-09T11:07:55Z</time>
      </trkpt>
      <trkpt lat="43.57775" lon="3.74125">
        <ele>65</ele>
        <time>2011-01-09T11:07:56Z</time>
      </trkpt>
      <trkpt lat="43.57773" lon="3.74132">
        <ele>64.6</ele>
        <time>2011-01-09T11:07:57Z</time>
      </trkpt>
      <trkpt lat="43.5777" lon="3.74137">
        <ele>64.1</ele>
        <time>2011-01-09T11:07:58Z</time>
      </trkpt>
      <trkpt lat="43.57767" lon="3.74149">
        <ele>63.1</ele>
        <time>2011-01-09T11:08:00Z</time>
      </trkpt>
      <trkpt lat="43.57766" lon="3.74155">
        <ele>62.5</ele>
        <time>2011-01-09T11:08:01Z</time>
      </trkpt>
      <trkpt lat="43.57765" lon="3.74161">
        <ele>62</ele>
        <time>2011-01-09T11:08:02Z</time>
      </trkpt>
      <trkpt lat="43.57764" lon="3.74167">
        <ele>61.5</ele>
        <time>2011-01-09T11:08:03Z</time>
      </trkpt>
      <trkpt lat="43.57763" lon="3.7418">
        <ele>60.8</ele>
        <time>2011-01-09T11:08:05Z</time>
      </trkpt>
      <trkpt lat="43.57763" lon="3.74186">
        <ele>60.5</ele>
        <time>2011-01-09T11:08:06Z</time>
      </trkpt>
      <trkpt lat="43.57763" lon="3.74192">
        <ele>60.2</ele>
        <time>2011-01-09T11:08:07Z</time>
      </trkpt>
      <trkpt lat="43.57763" lon="3.74199">
        <ele>59.8</ele>
        <time>2011-01-09T11:08:08Z</time>
      </trkpt>
      <trkpt lat="43.57763" lon="3.74206">
        <ele>59.5</ele>
        <time>2011-01-09T11:08:09Z</time>
      </trkpt>
      <trkpt lat="43.57764" lon="3.74213">
        <ele>59.2</ele>
        <time>2011-01-09T11:08:10Z</time>
      </trkpt>
      <trkpt lat="43.57764" lon="3.7422">
        <ele>59</ele>
        <time>2011-01-09T11:08:11Z</time>
      </trkpt>
      <trkpt lat="43.57765" lon="3.74227">
        <ele>58.7</ele>
        <time>2011-01-09T11:08:12Z</time>
      </trkpt>
      <trkpt lat="43.57766" lon="3.74234">
        <ele>58.5</ele>
        <time>2011-01-09T11:08:13Z</time>
      </trkpt>
      <trkpt lat="43.57767" lon="3.74241">
        <ele>58.2</ele>
        <time>2011-01-09T11:08:14Z</time>
      </trkpt>
      <trkpt lat="43.57768" lon="3.74247">
        <ele>58.1</ele>
        <time>2011-01-09T11:08:15Z</time>
      </trkpt>
      <trkpt lat="43.5777" lon="3.74253">
        <ele>58.1</ele>
        <time>2011-01-09T11:08:16Z</time>
      </trkpt>
      <trkpt lat="43.57772" lon="3.74259">
        <ele>58.2</ele>
        <time>2011-01-09T11:08:17Z</time>
      </trkpt>
      <trkpt lat="43.57775" lon="3.74264">
        <ele>58.4</ele>
        <time>2011-01-09T11:08:18Z</time>
      </trkpt>
      <trkpt lat="43.5778" lon="3.74274">
        <ele>58.8</ele>
        <time>2011-01-09T11:08:20Z</time>
      </trkpt>
      <trkpt lat="43.57784" lon="3.74284">
        <ele>59.1</ele>
        <time>2011-01-09T11:08:22Z</time>
      </trkpt>
      <trkpt lat="43.57789" lon="3.74293">
        <ele>59.5</ele>
        <time>2011-01-09T11:08:24Z</time>
      </trkpt>
      <trkpt lat="43.57795" lon="3.74302">
        <ele>59.9</ele>
        <time>2011-01-09T11:08:26Z</time>
      </trkpt>
      <trkpt lat="43.57799" lon="3.7431">
        <ele>60.2</ele>
        <time>2011-01-09T11:08:28Z</time>
      </trkpt>
      <trkpt lat="43.57801" lon="3.74319">
        <ele>60.1</ele>
        <time>2011-01-09T11:08:30Z</time>
      </trkpt>
      <trkpt lat="43.57799" lon="3.74327">
        <ele>59.8</ele>
        <time>2011-01-09T11:08:32Z</time>
      </trkpt>
      <trkpt lat="43.57796" lon="3.74336">
        <ele>59.4</ele>
        <time>2011-01-09T11:08:34Z</time>
      </trkpt>
      <trkpt lat="43.57797" lon="3.74345">
        <ele>59.6</ele>
        <time>2011-01-09T11:08:37Z</time>
      </trkpt>
      <trkpt lat="43.57802" lon="3.74353">
        <ele>60</ele>
        <time>2011-01-09T11:08:40Z</time>
      </trkpt>
      <trkpt lat="43.57809" lon="3.74354">
        <ele>60.8</ele>
        <time>2011-01-09T11:10:53Z</time>
      </trkpt>
      <trkpt lat="43.57811" lon="3.74356">
        <ele>60.9</ele>
        <time>2011-01-09T11:10:54Z</time>
      </trkpt>
      <trkpt lat="43.5782" lon="3.7437">
        <ele>61.8</ele>
        <time>2011-01-09T11:10:59Z</time>
      </trkpt>
      <trkpt lat="43.57825" lon="3.74376">
        <ele>62.2</ele>
        <time>2011-01-09T11:11:01Z</time>
      </trkpt>
      <trkpt lat="43.57829" lon="3.74383">
        <ele>62.6</ele>
        <time>2011-01-09T11:11:03Z</time>
      </trkpt>
      <trkpt lat="43.57833" lon="3.7439">
        <ele>63</ele>
        <time>2011-01-09T11:11:05Z</time>
      </trkpt>
      <trkpt lat="43.57838" lon="3.74397">
        <ele>63.5</ele>
        <time>2011-01-09T11:11:07Z</time>
      </trkpt>
      <trkpt lat="43.57842" lon="3.74405">
        <ele>63.9</ele>
        <time>2011-01-09T11:11:09Z</time>
      </trkpt>
      <trkpt lat="43.57846" lon="3.74412">
        <ele>64.2</ele>
        <time>2011-01-09T11:11:11Z</time>
      </trkpt>
      <trkpt lat="43.5785" lon="3.7442">
        <ele>64.4</ele>
        <time>2011-01-09T11:11:13Z</time>
      </trkpt>
      <trkpt lat="43.57854" lon="3.74428">
        <ele>64.2</ele>
        <time>2011-01-09T11:11:15Z</time>
      </trkpt>
      <trkpt lat="43.57858" lon="3.74436">
        <ele>64.1</ele>
        <time>2011-01-09T11:11:17Z</time>
      </trkpt>
      <trkpt lat="43.57862" lon="3.74445">
        <ele>64</ele>
        <time>2011-01-09T11:11:19Z</time>
      </trkpt>
      <trkpt lat="43.57866" lon="3.74453">
        <ele>63.8</ele>
        <time>2011-01-09T11:11:21Z</time>
      </trkpt>
      <trkpt lat="43.5787" lon="3.74463">
        <ele>63.5</ele>
        <time>2011-01-09T11:11:23Z</time>
      </trkpt>
      <trkpt lat="43.57875" lon="3.74472">
        <ele>63.3</ele>
        <time>2011-01-09T11:11:25Z</time>
      </trkpt>
      <trkpt lat="43.5788" lon="3.74481">
        <ele>63.2</ele>
        <time>2011-01-09T11:11:27Z</time>
      </trkpt>
      <trkpt lat="43.57884" lon="3.7449">
        <ele>62.9</ele>
        <time>2011-01-09T11:11:29Z</time>
      </trkpt>
      <trkpt lat="43.57888" lon="3.74499">
        <ele>62.6</ele>
        <time>2011-01-09T11:11:31Z</time>
      </trkpt>
      <trkpt lat="43.57892" lon="3.74509">
        <ele>62.4</ele>
        <time>2011-01-09T11:11:33Z</time>
      </trkpt>
      <trkpt lat="43.57897" lon="3.74519">
        <ele>62.2</ele>
        <time>2011-01-09T11:11:35Z</time>
      </trkpt>
      <trkpt lat="43.57901" lon="3.74528">
        <ele>62</ele>
        <time>2011-01-09T11:11:37Z</time>
      </trkpt>
      <trkpt lat="43.57905" lon="3.74538">
        <ele>61.8</ele>
        <time>2011-01-09T11:11:39Z</time>
      </trkpt>
      <trkpt lat="43.5791" lon="3.74548">
        <ele>61.6</ele>
        <time>2011-01-09T11:11:41Z</time>
      </trkpt>
      <trkpt lat="43.57915" lon="3.74558">
        <ele>61.4</ele>
        <time>2011-01-09T11:11:43Z</time>
      </trkpt>
      <trkpt lat="43.57919" lon="3.74568">
        <ele>61.2</ele>
        <time>2011-01-09T11:11:45Z</time>
      </trkpt>
      <trkpt lat="43.57924" lon="3.74578">
        <ele>61</ele>
        <time>2011-01-09T11:11:47Z</time>
      </trkpt>
      <trkpt lat="43.57928" lon="3.74588">
        <ele>60.9</ele>
        <time>2011-01-09T11:11:49Z</time>
      </trkpt>
      <trkpt lat="43.57933" lon="3.74598">
        <ele>60.8</ele>
        <time>2011-01-09T11:11:51Z</time>
      </trkpt>
      <trkpt lat="43.57936" lon="3.74603">
        <ele>60.8</ele>
        <time>2011-01-09T11:11:52Z</time>
      </trkpt>
      <trkpt lat="43.57938" lon="3.74608">
        <ele>60.7</ele>
        <time>2011-01-09T11:11:53Z</time>
      </trkpt>
      <trkpt lat="43.57941" lon="3.74614">
        <ele>60.6</ele>
        <time>2011-01-09T11:11:54Z</time>
      </trkpt>
      <trkpt lat="43.57943" lon="3.74619">
        <ele>60.6</ele>
        <time>2011-01-09T11:11:55Z</time>
      </trkpt>
      <trkpt lat="43.57946" lon="3.74625">
        <ele>60.5</ele>
        <time>2011-01-09T11:11:56Z</time>
      </trkpt>
      <trkpt lat="43.57948" lon="3.7463">
        <ele>60.4</ele>
        <time>2011-01-09T11:11:57Z</time>
      </trkpt>
      <trkpt lat="43.57951" lon="3.74635">
        <ele>60.3</ele>
        <time>2011-01-09T11:11:58Z</time>
      </trkpt>
      <trkpt lat="43.57953" lon="3.74641">
        <ele>60.1</ele>
        <time>2011-01-09T11:11:59Z</time>
      </trkpt>
      <trkpt lat="43.57956" lon="3.74646">
        <ele>60</ele>
        <time>2011-01-09T11:12:00Z</time>
      </trkpt>
      <trkpt lat="43.57958" lon="3.74652">
        <ele>59.9</ele>
        <time>2011-01-09T11:12:01Z</time>
      </trkpt>
      <trkpt lat="43.57961" lon="3.74657">
        <ele>59.7</ele>
        <time>2011-01-09T11:12:02Z</time>
      </trkpt>
      <trkpt lat="43.57963" lon="3.74663">
        <ele>59.6</ele>
        <time>2011-01-09T11:12:03Z</time>
      </trkpt>
      <trkpt lat="43.57966" lon="3.74668">
        <ele>59.5</ele>
        <time>2011-01-09T11:12:04Z</time>
      </trkpt>
      <trkpt lat="43.57968" lon="3.74674">
        <ele>59.4</ele>
        <time>2011-01-09T11:12:05Z</time>
      </trkpt>
      <trkpt lat="43.57971" lon="3.74679">
        <ele>59.3</ele>
        <time>2011-01-09T11:12:06Z</time>
      </trkpt>
      <trkpt lat="43.57974" lon="3.74685">
        <ele>59.3</ele>
        <time>2011-01-09T11:12:07Z</time>
      </trkpt>
      <trkpt lat="43.57976" lon="3.7469">
        <ele>59.2</ele>
        <time>2011-01-09T11:12:08Z</time>
      </trkpt>
      <trkpt lat="43.57979" lon="3.74696">
        <ele>59.2</ele>
        <time>2011-01-09T11:12:09Z</time>
      </trkpt>
      <trkpt lat="43.57984" lon="3.74706">
        <ele>59</ele>
        <time>2011-01-09T11:12:11Z</time>
      </trkpt>
      <trkpt lat="43.57986" lon="3.74711">
        <ele>58.9</ele>
        <time>2011-01-09T11:12:12Z</time>
      </trkpt>
      <trkpt lat="43.57989" lon="3.74717">
        <ele>58.9</ele>
        <time>2011-01-09T11:12:13Z</time>
      </trkpt>
      <trkpt lat="43.57991" lon="3.74722">
        <ele>58.8</ele>
        <time>2011-01-09T11:12:14Z</time>
      </trkpt>
      <trkpt lat="43.57994" lon="3.74727">
        <ele>58.7</ele>
        <time>2011-01-09T11:12:15Z</time>
      </trkpt>
      <trkpt lat="43.57996" lon="3.74732">
        <ele>58.6</ele>
        <time>2011-01-09T11:12:16Z</time>
      </trkpt>
      <trkpt lat="43.58001" lon="3.74742">
        <ele>58.5</ele>
        <time>2011-01-09T11:12:18Z</time>
      </trkpt>
      <trkpt lat="43.58007" lon="3.74751">
        <ele>58.5</ele>
        <time>2011-01-09T11:12:20Z</time>
      </trkpt>
      <trkpt lat="43.58016" lon="3.74753">
        <ele>59</ele>
        <time>2011-01-09T11:12:22Z</time>
      </trkpt>
      <trkpt lat="43.58023" lon="3.74747">
        <ele>59.8</ele>
        <time>2011-01-09T11:12:24Z</time>
      </trkpt>
      <trkpt lat="43.58027" lon="3.74744">
        <ele>60.3</ele>
        <time>2011-01-09T11:12:25Z</time>
      </trkpt>
      <trkpt lat="43.58031" lon="3.7474">
        <ele>60.8</ele>
        <time>2011-01-09T11:12:26Z</time>
      </trkpt>
      <trkpt lat="43.58035" lon="3.74737">
        <ele>61.3</ele>
        <time>2011-01-09T11:12:27Z</time>
      </trkpt>
      <trkpt lat="43.58042" lon="3.7473">
        <ele>62.4</ele>
        <time>2011-01-09T11:12:29Z</time>
      </trkpt>
      <trkpt lat="43.58046" lon="3.74721">
        <ele>63.3</ele>
        <time>2011-01-09T11:12:31Z</time>
      </trkpt>
      <trkpt lat="43.58046" lon="3.7471">
        <ele>64</ele>
        <time>2011-01-09T11:12:33Z</time>
      </trkpt>
      <trkpt lat="43.58049" lon="3.747">
        <ele>65</ele>
        <time>2011-01-09T11:12:35Z</time>
      </trkpt>
      <trkpt lat="43.58055" lon="3.74691">
        <ele>66.2</ele>
        <time>2011-01-09T11:12:38Z</time>
      </trkpt>
      <trkpt lat="43.5806" lon="3.74682">
        <ele>67.3</ele>
        <time>2011-01-09T11:12:48Z</time>
      </trkpt>
      <trkpt lat="43.58066" lon="3.74675">
        <ele>68.5</ele>
        <time>2011-01-09T11:12:56Z</time>
      </trkpt>
      <trkpt lat="43.58067" lon="3.74674">
        <ele>68.7</ele>
        <time>2011-01-09T11:12:57Z</time>
      </trkpt>
      <trkpt lat="43.58081" lon="3.74672">
        <ele>70.3</ele>
        <time>2011-01-09T11:13:12Z</time>
      </trkpt>
      <trkpt lat="43.58087" lon="3.74679">
        <ele>70.4</ele>
        <time>2011-01-09T11:13:19Z</time>
      </trkpt>
      <trkpt lat="43.58096" lon="3.74683">
        <ele>70.9</ele>
        <time>2011-01-09T11:15:07Z</time>
      </trkpt>
      <trkpt lat="43.58096" lon="3.74684">
        <ele>70.9</ele>
        <time>2011-01-09T11:15:08Z</time>
      </trkpt>
      <trkpt lat="43.581" lon="3.74704">
        <ele>69.7</ele>
        <time>2011-01-09T11:15:23Z</time>
      </trkpt>
      <trkpt lat="43.581" lon="3.74705">
        <ele>69.6</ele>
        <time>2011-01-09T11:16:16Z</time>
      </trkpt>
    </trkseg>
  </trk>
</gpx>